<?xml version="1.0" encoding="UTF-8" standalone="no" ?>
<gpx xmlns="http://www.topografix.com/GPX/1/1" xmlns:xsi="http://www.w3.org/2001/XMLSchema-instance" xsi:schemaLocation="http://www.topografix.com/GPX/1/1 http://www.topografix.com/GPX/1/1/gpx.xsd" version="1.1" creator="VisuGPX - https://www.visugpx.com">
  <metadata>
    <name>Boucle depuis Boen</name>
    <desc><![CDATA[VTT sud est de Boen]]></desc>
  </metadata>
  <trk>
    <name><![CDATA[2015-03-07 12:23]]></name>
    <desc><![CDATA[<h1>OruxMaps</h1><br /><hr align="center" width="480" style="height: 2px; width: 517px"/><h2>Nom: 2015-03-07 12:23</h2><br /><p>Temps de départ: 03/07/2015 12:23</p><p>Temps d'arrivée: 03/07/2015 14:14</p><p>Distance: 25,9km (01:51)</p><p>Temps déplacement: 01:34</p><p>Vitesse moyenne: 13,9km/h</p><p>Vitesse moyenne: 16,4km/h</p><p>Vitess Max.: 40,4km/h</p><p>Altitude minimale: 354m</p><p>Altitude maximale: 565m</p><p>Vitesse d'élévation: 475,6m/h</p><p>Vitesse de descente: -658,3m/h</p><p>Gain Altitude: 372m</p><p>Perte Altitude: -370m</p><p>Temps d'élévation: 00:46</p><p>Temps de descente: 00:33</p><hr align="center" width="480" style="height: 2px; width: 517px"/>]]></desc>
    <trkseg>
      <trkpt lat="45.73357" lon="4.01175">
        <ele>384.14</ele>
        <time>2015-03-07T11:23:08Z</time>
      </trkpt>
      <trkpt lat="45.73352" lon="4.01178">
        <ele>379.54</ele>
        <time>2015-03-07T11:23:27Z</time>
      </trkpt>
      <trkpt lat="45.73346" lon="4.01176">
        <ele>380.19</ele>
        <time>2015-03-07T11:23:30Z</time>
      </trkpt>
      <trkpt lat="45.73342" lon="4.01175">
        <ele>380.58</ele>
        <time>2015-03-07T11:23:33Z</time>
      </trkpt>
      <trkpt lat="45.73335" lon="4.01173">
        <ele>380.76</ele>
        <time>2015-03-07T11:23:36Z</time>
      </trkpt>
      <trkpt lat="45.73331" lon="4.01173">
        <ele>380.97</ele>
        <time>2015-03-07T11:23:38Z</time>
      </trkpt>
      <trkpt lat="45.73324" lon="4.01175">
        <ele>381.55</ele>
        <time>2015-03-07T11:23:41Z</time>
      </trkpt>
      <trkpt lat="45.7332" lon="4.01177">
        <ele>381.87</ele>
        <time>2015-03-07T11:23:43Z</time>
      </trkpt>
      <trkpt lat="45.73315" lon="4.01179">
        <ele>382.23</ele>
        <time>2015-03-07T11:23:45Z</time>
      </trkpt>
      <trkpt lat="45.7331" lon="4.01181">
        <ele>382.51</ele>
        <time>2015-03-07T11:23:47Z</time>
      </trkpt>
      <trkpt lat="45.73305" lon="4.0118">
        <ele>382.79</ele>
        <time>2015-03-07T11:23:49Z</time>
      </trkpt>
      <trkpt lat="45.733" lon="4.01177">
        <ele>383.03</ele>
        <time>2015-03-07T11:23:51Z</time>
      </trkpt>
      <trkpt lat="45.73295" lon="4.01173">
        <ele>383.24</ele>
        <time>2015-03-07T11:23:53Z</time>
      </trkpt>
      <trkpt lat="45.7329" lon="4.01169">
        <ele>383.49</ele>
        <time>2015-03-07T11:23:55Z</time>
      </trkpt>
      <trkpt lat="45.73286" lon="4.01165">
        <ele>383.81</ele>
        <time>2015-03-07T11:23:57Z</time>
      </trkpt>
      <trkpt lat="45.73281" lon="4.01161">
        <ele>384.13</ele>
        <time>2015-03-07T11:23:59Z</time>
      </trkpt>
      <trkpt lat="45.73276" lon="4.01156">
        <ele>384.54</ele>
        <time>2015-03-07T11:24:01Z</time>
      </trkpt>
      <trkpt lat="45.73271" lon="4.01151">
        <ele>384.89</ele>
        <time>2015-03-07T11:24:03Z</time>
      </trkpt>
      <trkpt lat="45.73266" lon="4.01147">
        <ele>385.21</ele>
        <time>2015-03-07T11:24:05Z</time>
      </trkpt>
      <trkpt lat="45.73262" lon="4.01143">
        <ele>385.38</ele>
        <time>2015-03-07T11:24:07Z</time>
      </trkpt>
      <trkpt lat="45.73257" lon="4.01138">
        <ele>385.48</ele>
        <time>2015-03-07T11:24:09Z</time>
      </trkpt>
      <trkpt lat="45.73252" lon="4.01133">
        <ele>385.4</ele>
        <time>2015-03-07T11:24:11Z</time>
      </trkpt>
      <trkpt lat="45.73247" lon="4.01128">
        <ele>385.43</ele>
        <time>2015-03-07T11:24:13Z</time>
      </trkpt>
      <trkpt lat="45.73242" lon="4.01123">
        <ele>385.62</ele>
        <time>2015-03-07T11:24:15Z</time>
      </trkpt>
      <trkpt lat="45.73236" lon="4.01118">
        <ele>385.91</ele>
        <time>2015-03-07T11:24:17Z</time>
      </trkpt>
      <trkpt lat="45.73232" lon="4.01113">
        <ele>386.21</ele>
        <time>2015-03-07T11:24:19Z</time>
      </trkpt>
      <trkpt lat="45.73227" lon="4.01109">
        <ele>386.71</ele>
        <time>2015-03-07T11:24:21Z</time>
      </trkpt>
      <trkpt lat="45.73224" lon="4.01105">
        <ele>387.29</ele>
        <time>2015-03-07T11:24:24Z</time>
      </trkpt>
      <trkpt lat="45.73219" lon="4.01102">
        <ele>387.51</ele>
        <time>2015-03-07T11:24:27Z</time>
      </trkpt>
      <trkpt lat="45.73215" lon="4.011">
        <ele>387.67</ele>
        <time>2015-03-07T11:24:30Z</time>
      </trkpt>
      <trkpt lat="45.73209" lon="4.01102">
        <ele>387.92</ele>
        <time>2015-03-07T11:24:39Z</time>
      </trkpt>
      <trkpt lat="45.73203" lon="4.01107">
        <ele>387.81</ele>
        <time>2015-03-07T11:24:41Z</time>
      </trkpt>
      <trkpt lat="45.73198" lon="4.01114">
        <ele>387.74</ele>
        <time>2015-03-07T11:24:43Z</time>
      </trkpt>
      <trkpt lat="45.73193" lon="4.0112">
        <ele>387.82</ele>
        <time>2015-03-07T11:24:45Z</time>
      </trkpt>
      <trkpt lat="45.73188" lon="4.01127">
        <ele>387.96</ele>
        <time>2015-03-07T11:24:47Z</time>
      </trkpt>
      <trkpt lat="45.73182" lon="4.01136">
        <ele>388.35</ele>
        <time>2015-03-07T11:24:49Z</time>
      </trkpt>
      <trkpt lat="45.73176" lon="4.01144">
        <ele>388.8</ele>
        <time>2015-03-07T11:24:51Z</time>
      </trkpt>
      <trkpt lat="45.73171" lon="4.01154">
        <ele>389.18</ele>
        <time>2015-03-07T11:24:53Z</time>
      </trkpt>
      <trkpt lat="45.73165" lon="4.01163">
        <ele>389.35</ele>
        <time>2015-03-07T11:24:55Z</time>
      </trkpt>
      <trkpt lat="45.7316" lon="4.01173">
        <ele>389.67</ele>
        <time>2015-03-07T11:24:57Z</time>
      </trkpt>
      <trkpt lat="45.73157" lon="4.01178">
        <ele>389.81</ele>
        <time>2015-03-07T11:24:58Z</time>
      </trkpt>
      <trkpt lat="45.73154" lon="4.01183">
        <ele>389.98</ele>
        <time>2015-03-07T11:24:59Z</time>
      </trkpt>
      <trkpt lat="45.73151" lon="4.01188">
        <ele>390.11</ele>
        <time>2015-03-07T11:25:00Z</time>
      </trkpt>
      <trkpt lat="45.73148" lon="4.01193">
        <ele>390.23</ele>
        <time>2015-03-07T11:25:01Z</time>
      </trkpt>
      <trkpt lat="45.73145" lon="4.01198">
        <ele>390.34</ele>
        <time>2015-03-07T11:25:02Z</time>
      </trkpt>
      <trkpt lat="45.73142" lon="4.01203">
        <ele>390.44</ele>
        <time>2015-03-07T11:25:03Z</time>
      </trkpt>
      <trkpt lat="45.73139" lon="4.01209">
        <ele>390.54</ele>
        <time>2015-03-07T11:25:04Z</time>
      </trkpt>
      <trkpt lat="45.73137" lon="4.01214">
        <ele>390.69</ele>
        <time>2015-03-07T11:25:05Z</time>
      </trkpt>
      <trkpt lat="45.73134" lon="4.0122">
        <ele>390.87</ele>
        <time>2015-03-07T11:25:06Z</time>
      </trkpt>
      <trkpt lat="45.73131" lon="4.01225">
        <ele>391.01</ele>
        <time>2015-03-07T11:25:07Z</time>
      </trkpt>
      <trkpt lat="45.73127" lon="4.01235">
        <ele>391.13</ele>
        <time>2015-03-07T11:25:09Z</time>
      </trkpt>
      <trkpt lat="45.73122" lon="4.01245">
        <ele>391.19</ele>
        <time>2015-03-07T11:25:11Z</time>
      </trkpt>
      <trkpt lat="45.7312" lon="4.01251">
        <ele>391.27</ele>
        <time>2015-03-07T11:25:12Z</time>
      </trkpt>
      <trkpt lat="45.73117" lon="4.01257">
        <ele>391.31</ele>
        <time>2015-03-07T11:25:13Z</time>
      </trkpt>
      <trkpt lat="45.73115" lon="4.01262">
        <ele>391.37</ele>
        <time>2015-03-07T11:25:14Z</time>
      </trkpt>
      <trkpt lat="45.73113" lon="4.01268">
        <ele>391.46</ele>
        <time>2015-03-07T11:25:15Z</time>
      </trkpt>
      <trkpt lat="45.7311" lon="4.01274">
        <ele>391.5</ele>
        <time>2015-03-07T11:25:16Z</time>
      </trkpt>
      <trkpt lat="45.73108" lon="4.0128">
        <ele>391.52</ele>
        <time>2015-03-07T11:25:17Z</time>
      </trkpt>
      <trkpt lat="45.73105" lon="4.01286">
        <ele>391.53</ele>
        <time>2015-03-07T11:25:18Z</time>
      </trkpt>
      <trkpt lat="45.73103" lon="4.01292">
        <ele>391.59</ele>
        <time>2015-03-07T11:25:19Z</time>
      </trkpt>
      <trkpt lat="45.731" lon="4.01298">
        <ele>391.62</ele>
        <time>2015-03-07T11:25:20Z</time>
      </trkpt>
      <trkpt lat="45.73098" lon="4.01304">
        <ele>391.63</ele>
        <time>2015-03-07T11:25:21Z</time>
      </trkpt>
      <trkpt lat="45.73095" lon="4.0131">
        <ele>391.69</ele>
        <time>2015-03-07T11:25:22Z</time>
      </trkpt>
      <trkpt lat="45.73093" lon="4.01316">
        <ele>391.72</ele>
        <time>2015-03-07T11:25:23Z</time>
      </trkpt>
      <trkpt lat="45.73091" lon="4.01322">
        <ele>391.83</ele>
        <time>2015-03-07T11:25:24Z</time>
      </trkpt>
      <trkpt lat="45.73088" lon="4.01328">
        <ele>391.99</ele>
        <time>2015-03-07T11:25:25Z</time>
      </trkpt>
      <trkpt lat="45.73086" lon="4.01334">
        <ele>392.17</ele>
        <time>2015-03-07T11:25:26Z</time>
      </trkpt>
      <trkpt lat="45.73084" lon="4.0134">
        <ele>392.35</ele>
        <time>2015-03-07T11:25:27Z</time>
      </trkpt>
      <trkpt lat="45.73081" lon="4.01346">
        <ele>392.4</ele>
        <time>2015-03-07T11:25:28Z</time>
      </trkpt>
      <trkpt lat="45.73079" lon="4.01352">
        <ele>392.42</ele>
        <time>2015-03-07T11:25:29Z</time>
      </trkpt>
      <trkpt lat="45.73077" lon="4.01358">
        <ele>392.48</ele>
        <time>2015-03-07T11:25:30Z</time>
      </trkpt>
      <trkpt lat="45.73072" lon="4.01368">
        <ele>392.85</ele>
        <time>2015-03-07T11:25:32Z</time>
      </trkpt>
      <trkpt lat="45.73066" lon="4.01375">
        <ele>393.07</ele>
        <time>2015-03-07T11:25:34Z</time>
      </trkpt>
      <trkpt lat="45.7306" lon="4.01373">
        <ele>393.13</ele>
        <time>2015-03-07T11:25:36Z</time>
      </trkpt>
      <trkpt lat="45.73055" lon="4.0137">
        <ele>393.26</ele>
        <time>2015-03-07T11:25:38Z</time>
      </trkpt>
      <trkpt lat="45.73051" lon="4.01367">
        <ele>393.45</ele>
        <time>2015-03-07T11:25:40Z</time>
      </trkpt>
      <trkpt lat="45.73046" lon="4.01364">
        <ele>393.7</ele>
        <time>2015-03-07T11:25:42Z</time>
      </trkpt>
      <trkpt lat="45.73041" lon="4.01362">
        <ele>394.08</ele>
        <time>2015-03-07T11:25:44Z</time>
      </trkpt>
      <trkpt lat="45.73036" lon="4.01359">
        <ele>394.45</ele>
        <time>2015-03-07T11:25:46Z</time>
      </trkpt>
      <trkpt lat="45.73032" lon="4.01354">
        <ele>394.8</ele>
        <time>2015-03-07T11:25:48Z</time>
      </trkpt>
      <trkpt lat="45.73028" lon="4.01349">
        <ele>395.11</ele>
        <time>2015-03-07T11:25:50Z</time>
      </trkpt>
      <trkpt lat="45.73024" lon="4.01346">
        <ele>395.53</ele>
        <time>2015-03-07T11:25:52Z</time>
      </trkpt>
      <trkpt lat="45.7302" lon="4.01343">
        <ele>395.94</ele>
        <time>2015-03-07T11:25:54Z</time>
      </trkpt>
      <trkpt lat="45.73016" lon="4.0134">
        <ele>396.39</ele>
        <time>2015-03-07T11:25:56Z</time>
      </trkpt>
      <trkpt lat="45.7301" lon="4.01336">
        <ele>396.99</ele>
        <time>2015-03-07T11:25:59Z</time>
      </trkpt>
      <trkpt lat="45.73004" lon="4.01333">
        <ele>397.55</ele>
        <time>2015-03-07T11:26:02Z</time>
      </trkpt>
      <trkpt lat="45.72999" lon="4.01328">
        <ele>398.14</ele>
        <time>2015-03-07T11:26:05Z</time>
      </trkpt>
      <trkpt lat="45.72994" lon="4.01324">
        <ele>398.18</ele>
        <time>2015-03-07T11:26:08Z</time>
      </trkpt>
      <trkpt lat="45.72988" lon="4.01319">
        <ele>398.31</ele>
        <time>2015-03-07T11:26:11Z</time>
      </trkpt>
      <trkpt lat="45.72984" lon="4.01315">
        <ele>398.39</ele>
        <time>2015-03-07T11:26:13Z</time>
      </trkpt>
      <trkpt lat="45.7298" lon="4.01312">
        <ele>398.68</ele>
        <time>2015-03-07T11:26:15Z</time>
      </trkpt>
      <trkpt lat="45.72976" lon="4.01309">
        <ele>399.05</ele>
        <time>2015-03-07T11:26:17Z</time>
      </trkpt>
      <trkpt lat="45.72972" lon="4.01305">
        <ele>399.45</ele>
        <time>2015-03-07T11:26:19Z</time>
      </trkpt>
      <trkpt lat="45.72968" lon="4.01301">
        <ele>399.92</ele>
        <time>2015-03-07T11:26:21Z</time>
      </trkpt>
      <trkpt lat="45.72964" lon="4.01297">
        <ele>400.39</ele>
        <time>2015-03-07T11:26:23Z</time>
      </trkpt>
      <trkpt lat="45.72961" lon="4.01292">
        <ele>400.88</ele>
        <time>2015-03-07T11:26:25Z</time>
      </trkpt>
      <trkpt lat="45.72956" lon="4.01286">
        <ele>401.26</ele>
        <time>2015-03-07T11:26:28Z</time>
      </trkpt>
      <trkpt lat="45.72952" lon="4.01279">
        <ele>401.55</ele>
        <time>2015-03-07T11:26:31Z</time>
      </trkpt>
      <trkpt lat="45.72948" lon="4.01271">
        <ele>401.84</ele>
        <time>2015-03-07T11:26:34Z</time>
      </trkpt>
      <trkpt lat="45.72942" lon="4.01265">
        <ele>402.57</ele>
        <time>2015-03-07T11:26:37Z</time>
      </trkpt>
      <trkpt lat="45.72938" lon="4.01264">
        <ele>403.1</ele>
        <time>2015-03-07T11:26:39Z</time>
      </trkpt>
      <trkpt lat="45.72933" lon="4.01264">
        <ele>403.53</ele>
        <time>2015-03-07T11:26:41Z</time>
      </trkpt>
      <trkpt lat="45.72926" lon="4.01262">
        <ele>404.01</ele>
        <time>2015-03-07T11:26:44Z</time>
      </trkpt>
      <trkpt lat="45.72922" lon="4.01261">
        <ele>404.23</ele>
        <time>2015-03-07T11:26:46Z</time>
      </trkpt>
      <trkpt lat="45.72917" lon="4.0126">
        <ele>404.49</ele>
        <time>2015-03-07T11:26:48Z</time>
      </trkpt>
      <trkpt lat="45.72911" lon="4.0126">
        <ele>404.78</ele>
        <time>2015-03-07T11:26:50Z</time>
      </trkpt>
      <trkpt lat="45.72907" lon="4.01258">
        <ele>405.23</ele>
        <time>2015-03-07T11:26:52Z</time>
      </trkpt>
      <trkpt lat="45.72902" lon="4.01258">
        <ele>405.54</ele>
        <time>2015-03-07T11:26:54Z</time>
      </trkpt>
      <trkpt lat="45.72897" lon="4.01258">
        <ele>405.74</ele>
        <time>2015-03-07T11:26:56Z</time>
      </trkpt>
      <trkpt lat="45.72892" lon="4.01257">
        <ele>406.09</ele>
        <time>2015-03-07T11:26:58Z</time>
      </trkpt>
      <trkpt lat="45.72887" lon="4.01256">
        <ele>406.23</ele>
        <time>2015-03-07T11:27:00Z</time>
      </trkpt>
      <trkpt lat="45.72882" lon="4.01256">
        <ele>406.37</ele>
        <time>2015-03-07T11:27:02Z</time>
      </trkpt>
      <trkpt lat="45.72877" lon="4.01256">
        <ele>406.6</ele>
        <time>2015-03-07T11:27:04Z</time>
      </trkpt>
      <trkpt lat="45.72872" lon="4.01255">
        <ele>407.03</ele>
        <time>2015-03-07T11:27:06Z</time>
      </trkpt>
      <trkpt lat="45.72867" lon="4.01255">
        <ele>407.37</ele>
        <time>2015-03-07T11:27:08Z</time>
      </trkpt>
      <trkpt lat="45.72862" lon="4.01254">
        <ele>407.8</ele>
        <time>2015-03-07T11:27:10Z</time>
      </trkpt>
      <trkpt lat="45.72857" lon="4.01254">
        <ele>408.16</ele>
        <time>2015-03-07T11:27:12Z</time>
      </trkpt>
      <trkpt lat="45.72852" lon="4.01253">
        <ele>408.5</ele>
        <time>2015-03-07T11:27:14Z</time>
      </trkpt>
      <trkpt lat="45.72847" lon="4.01253">
        <ele>408.81</ele>
        <time>2015-03-07T11:27:16Z</time>
      </trkpt>
      <trkpt lat="45.72843" lon="4.01252">
        <ele>409.11</ele>
        <time>2015-03-07T11:27:18Z</time>
      </trkpt>
      <trkpt lat="45.72838" lon="4.01252">
        <ele>409.46</ele>
        <time>2015-03-07T11:27:20Z</time>
      </trkpt>
      <trkpt lat="45.72833" lon="4.01251">
        <ele>409.82</ele>
        <time>2015-03-07T11:27:22Z</time>
      </trkpt>
      <trkpt lat="45.72827" lon="4.01251">
        <ele>410.29</ele>
        <time>2015-03-07T11:27:24Z</time>
      </trkpt>
      <trkpt lat="45.72822" lon="4.0125">
        <ele>410.81</ele>
        <time>2015-03-07T11:27:26Z</time>
      </trkpt>
      <trkpt lat="45.72817" lon="4.0125">
        <ele>411.23</ele>
        <time>2015-03-07T11:27:28Z</time>
      </trkpt>
      <trkpt lat="45.72812" lon="4.01249">
        <ele>411.69</ele>
        <time>2015-03-07T11:27:30Z</time>
      </trkpt>
      <trkpt lat="45.72807" lon="4.01249">
        <ele>412.11</ele>
        <time>2015-03-07T11:27:32Z</time>
      </trkpt>
      <trkpt lat="45.72802" lon="4.01248">
        <ele>412.53</ele>
        <time>2015-03-07T11:27:34Z</time>
      </trkpt>
      <trkpt lat="45.72797" lon="4.01247">
        <ele>412.89</ele>
        <time>2015-03-07T11:27:36Z</time>
      </trkpt>
      <trkpt lat="45.72792" lon="4.01247">
        <ele>413.33</ele>
        <time>2015-03-07T11:27:38Z</time>
      </trkpt>
      <trkpt lat="45.72787" lon="4.01246">
        <ele>413.82</ele>
        <time>2015-03-07T11:27:40Z</time>
      </trkpt>
      <trkpt lat="45.72783" lon="4.01246">
        <ele>414.24</ele>
        <time>2015-03-07T11:27:42Z</time>
      </trkpt>
      <trkpt lat="45.72778" lon="4.01245">
        <ele>414.64</ele>
        <time>2015-03-07T11:27:44Z</time>
      </trkpt>
      <trkpt lat="45.72773" lon="4.01244">
        <ele>415.04</ele>
        <time>2015-03-07T11:27:46Z</time>
      </trkpt>
      <trkpt lat="45.72768" lon="4.01244">
        <ele>415.44</ele>
        <time>2015-03-07T11:27:48Z</time>
      </trkpt>
      <trkpt lat="45.72763" lon="4.01243">
        <ele>415.84</ele>
        <time>2015-03-07T11:27:50Z</time>
      </trkpt>
      <trkpt lat="45.72758" lon="4.01243">
        <ele>416.17</ele>
        <time>2015-03-07T11:27:52Z</time>
      </trkpt>
      <trkpt lat="45.72753" lon="4.01243">
        <ele>416.48</ele>
        <time>2015-03-07T11:27:54Z</time>
      </trkpt>
      <trkpt lat="45.72748" lon="4.01243">
        <ele>416.65</ele>
        <time>2015-03-07T11:27:56Z</time>
      </trkpt>
      <trkpt lat="45.72742" lon="4.01243">
        <ele>416.77</ele>
        <time>2015-03-07T11:27:58Z</time>
      </trkpt>
      <trkpt lat="45.72737" lon="4.01244">
        <ele>417.08</ele>
        <time>2015-03-07T11:28:00Z</time>
      </trkpt>
      <trkpt lat="45.72732" lon="4.01244">
        <ele>417.45</ele>
        <time>2015-03-07T11:28:02Z</time>
      </trkpt>
      <trkpt lat="45.72727" lon="4.01245">
        <ele>417.9</ele>
        <time>2015-03-07T11:28:04Z</time>
      </trkpt>
      <trkpt lat="45.72722" lon="4.01245">
        <ele>418.33</ele>
        <time>2015-03-07T11:28:06Z</time>
      </trkpt>
      <trkpt lat="45.72717" lon="4.01246">
        <ele>418.67</ele>
        <time>2015-03-07T11:28:08Z</time>
      </trkpt>
      <trkpt lat="45.7271" lon="4.01246">
        <ele>418.82</ele>
        <time>2015-03-07T11:28:11Z</time>
      </trkpt>
      <trkpt lat="45.72705" lon="4.01246">
        <ele>419.09</ele>
        <time>2015-03-07T11:28:13Z</time>
      </trkpt>
      <trkpt lat="45.727" lon="4.01246">
        <ele>419.46</ele>
        <time>2015-03-07T11:28:15Z</time>
      </trkpt>
      <trkpt lat="45.72695" lon="4.01246">
        <ele>419.8</ele>
        <time>2015-03-07T11:28:17Z</time>
      </trkpt>
      <trkpt lat="45.7269" lon="4.01245">
        <ele>420.11</ele>
        <time>2015-03-07T11:28:19Z</time>
      </trkpt>
      <trkpt lat="45.72685" lon="4.01245">
        <ele>420.33</ele>
        <time>2015-03-07T11:28:21Z</time>
      </trkpt>
      <trkpt lat="45.72679" lon="4.01245">
        <ele>420.69</ele>
        <time>2015-03-07T11:28:24Z</time>
      </trkpt>
      <trkpt lat="45.72672" lon="4.01245">
        <ele>420.98</ele>
        <time>2015-03-07T11:28:27Z</time>
      </trkpt>
      <trkpt lat="45.72667" lon="4.01247">
        <ele>421.08</ele>
        <time>2015-03-07T11:28:29Z</time>
      </trkpt>
      <trkpt lat="45.72663" lon="4.01248">
        <ele>420.98</ele>
        <time>2015-03-07T11:28:31Z</time>
      </trkpt>
      <trkpt lat="45.72658" lon="4.01249">
        <ele>421.08</ele>
        <time>2015-03-07T11:28:33Z</time>
      </trkpt>
      <trkpt lat="45.72652" lon="4.0125">
        <ele>421.38</ele>
        <time>2015-03-07T11:28:35Z</time>
      </trkpt>
      <trkpt lat="45.72648" lon="4.01251">
        <ele>421.7</ele>
        <time>2015-03-07T11:28:37Z</time>
      </trkpt>
      <trkpt lat="45.72642" lon="4.01251">
        <ele>421.93</ele>
        <time>2015-03-07T11:28:39Z</time>
      </trkpt>
      <trkpt lat="45.72637" lon="4.01251">
        <ele>422.14</ele>
        <time>2015-03-07T11:28:41Z</time>
      </trkpt>
      <trkpt lat="45.72632" lon="4.01251">
        <ele>422.34</ele>
        <time>2015-03-07T11:28:43Z</time>
      </trkpt>
      <trkpt lat="45.72628" lon="4.01251">
        <ele>422.67</ele>
        <time>2015-03-07T11:28:45Z</time>
      </trkpt>
      <trkpt lat="45.72623" lon="4.01252">
        <ele>423</ele>
        <time>2015-03-07T11:28:47Z</time>
      </trkpt>
      <trkpt lat="45.72618" lon="4.01253">
        <ele>423.31</ele>
        <time>2015-03-07T11:28:49Z</time>
      </trkpt>
      <trkpt lat="45.72613" lon="4.01253">
        <ele>423.56</ele>
        <time>2015-03-07T11:28:51Z</time>
      </trkpt>
      <trkpt lat="45.72608" lon="4.01254">
        <ele>423.75</ele>
        <time>2015-03-07T11:28:53Z</time>
      </trkpt>
      <trkpt lat="45.72602" lon="4.01255">
        <ele>423.99</ele>
        <time>2015-03-07T11:28:55Z</time>
      </trkpt>
      <trkpt lat="45.72597" lon="4.01255">
        <ele>424.26</ele>
        <time>2015-03-07T11:28:57Z</time>
      </trkpt>
      <trkpt lat="45.72592" lon="4.01255">
        <ele>424.52</ele>
        <time>2015-03-07T11:28:59Z</time>
      </trkpt>
      <trkpt lat="45.72587" lon="4.01255">
        <ele>424.74</ele>
        <time>2015-03-07T11:29:01Z</time>
      </trkpt>
      <trkpt lat="45.72582" lon="4.01255">
        <ele>424.94</ele>
        <time>2015-03-07T11:29:03Z</time>
      </trkpt>
      <trkpt lat="45.72577" lon="4.01255">
        <ele>425.19</ele>
        <time>2015-03-07T11:29:05Z</time>
      </trkpt>
      <trkpt lat="45.72573" lon="4.01255">
        <ele>425.48</ele>
        <time>2015-03-07T11:29:07Z</time>
      </trkpt>
      <trkpt lat="45.72568" lon="4.01254">
        <ele>425.78</ele>
        <time>2015-03-07T11:29:09Z</time>
      </trkpt>
      <trkpt lat="45.72563" lon="4.01254">
        <ele>426.08</ele>
        <time>2015-03-07T11:29:11Z</time>
      </trkpt>
      <trkpt lat="45.72558" lon="4.01253">
        <ele>426.4</ele>
        <time>2015-03-07T11:29:13Z</time>
      </trkpt>
      <trkpt lat="45.72554" lon="4.01253">
        <ele>426.71</ele>
        <time>2015-03-07T11:29:15Z</time>
      </trkpt>
      <trkpt lat="45.72549" lon="4.01252">
        <ele>426.89</ele>
        <time>2015-03-07T11:29:17Z</time>
      </trkpt>
      <trkpt lat="45.72545" lon="4.01252">
        <ele>426.93</ele>
        <time>2015-03-07T11:29:19Z</time>
      </trkpt>
      <trkpt lat="45.72538" lon="4.01254">
        <ele>426.87</ele>
        <time>2015-03-07T11:29:22Z</time>
      </trkpt>
      <trkpt lat="45.72532" lon="4.01254">
        <ele>426.67</ele>
        <time>2015-03-07T11:29:25Z</time>
      </trkpt>
      <trkpt lat="45.72527" lon="4.01253">
        <ele>426.8</ele>
        <time>2015-03-07T11:29:27Z</time>
      </trkpt>
      <trkpt lat="45.72522" lon="4.01253">
        <ele>427.01</ele>
        <time>2015-03-07T11:29:29Z</time>
      </trkpt>
      <trkpt lat="45.72517" lon="4.01253">
        <ele>427.36</ele>
        <time>2015-03-07T11:29:31Z</time>
      </trkpt>
      <trkpt lat="45.72512" lon="4.01252">
        <ele>427.75</ele>
        <time>2015-03-07T11:29:33Z</time>
      </trkpt>
      <trkpt lat="45.72508" lon="4.0125">
        <ele>428.02</ele>
        <time>2015-03-07T11:29:35Z</time>
      </trkpt>
      <trkpt lat="45.72503" lon="4.01249">
        <ele>428.24</ele>
        <time>2015-03-07T11:29:37Z</time>
      </trkpt>
      <trkpt lat="45.72498" lon="4.01249">
        <ele>428.39</ele>
        <time>2015-03-07T11:29:39Z</time>
      </trkpt>
      <trkpt lat="45.72493" lon="4.01248">
        <ele>428.61</ele>
        <time>2015-03-07T11:29:41Z</time>
      </trkpt>
      <trkpt lat="45.72488" lon="4.01248">
        <ele>428.91</ele>
        <time>2015-03-07T11:29:43Z</time>
      </trkpt>
      <trkpt lat="45.72483" lon="4.01247">
        <ele>429.26</ele>
        <time>2015-03-07T11:29:45Z</time>
      </trkpt>
      <trkpt lat="45.72478" lon="4.01246">
        <ele>429.65</ele>
        <time>2015-03-07T11:29:47Z</time>
      </trkpt>
      <trkpt lat="45.72473" lon="4.01245">
        <ele>430.1</ele>
        <time>2015-03-07T11:29:49Z</time>
      </trkpt>
      <trkpt lat="45.72468" lon="4.01245">
        <ele>430.53</ele>
        <time>2015-03-07T11:29:51Z</time>
      </trkpt>
      <trkpt lat="45.72463" lon="4.01244">
        <ele>430.89</ele>
        <time>2015-03-07T11:29:53Z</time>
      </trkpt>
      <trkpt lat="45.72458" lon="4.01244">
        <ele>431.21</ele>
        <time>2015-03-07T11:29:55Z</time>
      </trkpt>
      <trkpt lat="45.72454" lon="4.01244">
        <ele>431.51</ele>
        <time>2015-03-07T11:29:57Z</time>
      </trkpt>
      <trkpt lat="45.72448" lon="4.01244">
        <ele>432.01</ele>
        <time>2015-03-07T11:29:59Z</time>
      </trkpt>
      <trkpt lat="45.72443" lon="4.01244">
        <ele>432.59</ele>
        <time>2015-03-07T11:30:01Z</time>
      </trkpt>
      <trkpt lat="45.72438" lon="4.01245">
        <ele>433.1</ele>
        <time>2015-03-07T11:30:03Z</time>
      </trkpt>
      <trkpt lat="45.72433" lon="4.01246">
        <ele>433.66</ele>
        <time>2015-03-07T11:30:05Z</time>
      </trkpt>
      <trkpt lat="45.72428" lon="4.01246">
        <ele>434.15</ele>
        <time>2015-03-07T11:30:07Z</time>
      </trkpt>
      <trkpt lat="45.72423" lon="4.01247">
        <ele>434.44</ele>
        <time>2015-03-07T11:30:09Z</time>
      </trkpt>
      <trkpt lat="45.72417" lon="4.01248">
        <ele>434.77</ele>
        <time>2015-03-07T11:30:11Z</time>
      </trkpt>
      <trkpt lat="45.72412" lon="4.01249">
        <ele>435.15</ele>
        <time>2015-03-07T11:30:13Z</time>
      </trkpt>
      <trkpt lat="45.72408" lon="4.01251">
        <ele>435.62</ele>
        <time>2015-03-07T11:30:15Z</time>
      </trkpt>
      <trkpt lat="45.72403" lon="4.01252">
        <ele>436.09</ele>
        <time>2015-03-07T11:30:17Z</time>
      </trkpt>
      <trkpt lat="45.72398" lon="4.01254">
        <ele>436.48</ele>
        <time>2015-03-07T11:30:19Z</time>
      </trkpt>
      <trkpt lat="45.72393" lon="4.01257">
        <ele>436.93</ele>
        <time>2015-03-07T11:30:21Z</time>
      </trkpt>
      <trkpt lat="45.72388" lon="4.01259">
        <ele>437.29</ele>
        <time>2015-03-07T11:30:23Z</time>
      </trkpt>
      <trkpt lat="45.72384" lon="4.01261">
        <ele>437.58</ele>
        <time>2015-03-07T11:30:25Z</time>
      </trkpt>
      <trkpt lat="45.72379" lon="4.01264">
        <ele>437.95</ele>
        <time>2015-03-07T11:30:27Z</time>
      </trkpt>
      <trkpt lat="45.72374" lon="4.01267">
        <ele>438.47</ele>
        <time>2015-03-07T11:30:29Z</time>
      </trkpt>
      <trkpt lat="45.7237" lon="4.01269">
        <ele>438.88</ele>
        <time>2015-03-07T11:30:31Z</time>
      </trkpt>
      <trkpt lat="45.72365" lon="4.0127">
        <ele>439.03</ele>
        <time>2015-03-07T11:30:33Z</time>
      </trkpt>
      <trkpt lat="45.7236" lon="4.01271">
        <ele>439.21</ele>
        <time>2015-03-07T11:30:35Z</time>
      </trkpt>
      <trkpt lat="45.72355" lon="4.01273">
        <ele>439.56</ele>
        <time>2015-03-07T11:30:37Z</time>
      </trkpt>
      <trkpt lat="45.7235" lon="4.01276">
        <ele>439.77</ele>
        <time>2015-03-07T11:30:39Z</time>
      </trkpt>
      <trkpt lat="45.72345" lon="4.01278">
        <ele>440.03</ele>
        <time>2015-03-07T11:30:41Z</time>
      </trkpt>
      <trkpt lat="45.72341" lon="4.01281">
        <ele>440.31</ele>
        <time>2015-03-07T11:30:43Z</time>
      </trkpt>
      <trkpt lat="45.72336" lon="4.01284">
        <ele>440.54</ele>
        <time>2015-03-07T11:30:45Z</time>
      </trkpt>
      <trkpt lat="45.72331" lon="4.01286">
        <ele>440.82</ele>
        <time>2015-03-07T11:30:47Z</time>
      </trkpt>
      <trkpt lat="45.72326" lon="4.01288">
        <ele>441.16</ele>
        <time>2015-03-07T11:30:49Z</time>
      </trkpt>
      <trkpt lat="45.72321" lon="4.01289">
        <ele>441.35</ele>
        <time>2015-03-07T11:30:51Z</time>
      </trkpt>
      <trkpt lat="45.72316" lon="4.0129">
        <ele>441.55</ele>
        <time>2015-03-07T11:30:53Z</time>
      </trkpt>
      <trkpt lat="45.72311" lon="4.0129">
        <ele>441.74</ele>
        <time>2015-03-07T11:30:55Z</time>
      </trkpt>
      <trkpt lat="45.72306" lon="4.0129">
        <ele>441.89</ele>
        <time>2015-03-07T11:30:57Z</time>
      </trkpt>
      <trkpt lat="45.72301" lon="4.01291">
        <ele>442.06</ele>
        <time>2015-03-07T11:30:59Z</time>
      </trkpt>
      <trkpt lat="45.72296" lon="4.0129">
        <ele>442.27</ele>
        <time>2015-03-07T11:31:01Z</time>
      </trkpt>
      <trkpt lat="45.72291" lon="4.0129">
        <ele>442.45</ele>
        <time>2015-03-07T11:31:03Z</time>
      </trkpt>
      <trkpt lat="45.72286" lon="4.01289">
        <ele>442.6</ele>
        <time>2015-03-07T11:31:05Z</time>
      </trkpt>
      <trkpt lat="45.72281" lon="4.01289">
        <ele>442.63</ele>
        <time>2015-03-07T11:31:07Z</time>
      </trkpt>
      <trkpt lat="45.72277" lon="4.01288">
        <ele>442.72</ele>
        <time>2015-03-07T11:31:09Z</time>
      </trkpt>
      <trkpt lat="45.72272" lon="4.01287">
        <ele>442.94</ele>
        <time>2015-03-07T11:31:11Z</time>
      </trkpt>
      <trkpt lat="45.72267" lon="4.01286">
        <ele>443.14</ele>
        <time>2015-03-07T11:31:13Z</time>
      </trkpt>
      <trkpt lat="45.72263" lon="4.01285">
        <ele>443.47</ele>
        <time>2015-03-07T11:31:15Z</time>
      </trkpt>
      <trkpt lat="45.72258" lon="4.01284">
        <ele>443.9</ele>
        <time>2015-03-07T11:31:17Z</time>
      </trkpt>
      <trkpt lat="45.72253" lon="4.01284">
        <ele>444.18</ele>
        <time>2015-03-07T11:31:19Z</time>
      </trkpt>
      <trkpt lat="45.72247" lon="4.01281">
        <ele>444.24</ele>
        <time>2015-03-07T11:31:22Z</time>
      </trkpt>
      <trkpt lat="45.72242" lon="4.01279">
        <ele>444.37</ele>
        <time>2015-03-07T11:31:24Z</time>
      </trkpt>
      <trkpt lat="45.72237" lon="4.01276">
        <ele>444.82</ele>
        <time>2015-03-07T11:31:26Z</time>
      </trkpt>
      <trkpt lat="45.72233" lon="4.01272">
        <ele>445.16</ele>
        <time>2015-03-07T11:31:28Z</time>
      </trkpt>
      <trkpt lat="45.72229" lon="4.01268">
        <ele>445.05</ele>
        <time>2015-03-07T11:31:30Z</time>
      </trkpt>
      <trkpt lat="45.72225" lon="4.01263">
        <ele>444.72</ele>
        <time>2015-03-07T11:31:32Z</time>
      </trkpt>
      <trkpt lat="45.72222" lon="4.01259">
        <ele>444.59</ele>
        <time>2015-03-07T11:31:34Z</time>
      </trkpt>
      <trkpt lat="45.72217" lon="4.01253">
        <ele>444.46</ele>
        <time>2015-03-07T11:31:37Z</time>
      </trkpt>
      <trkpt lat="45.72213" lon="4.01248">
        <ele>444.8</ele>
        <time>2015-03-07T11:31:39Z</time>
      </trkpt>
      <trkpt lat="45.72209" lon="4.01245">
        <ele>445.08</ele>
        <time>2015-03-07T11:31:41Z</time>
      </trkpt>
      <trkpt lat="45.72205" lon="4.01242">
        <ele>445.25</ele>
        <time>2015-03-07T11:31:43Z</time>
      </trkpt>
      <trkpt lat="45.722" lon="4.0124">
        <ele>445.45</ele>
        <time>2015-03-07T11:31:45Z</time>
      </trkpt>
      <trkpt lat="45.72196" lon="4.01238">
        <ele>445.64</ele>
        <time>2015-03-07T11:31:47Z</time>
      </trkpt>
      <trkpt lat="45.72191" lon="4.01236">
        <ele>445.97</ele>
        <time>2015-03-07T11:31:49Z</time>
      </trkpt>
      <trkpt lat="45.72186" lon="4.01235">
        <ele>446.08</ele>
        <time>2015-03-07T11:31:51Z</time>
      </trkpt>
      <trkpt lat="45.72182" lon="4.01232">
        <ele>446.4</ele>
        <time>2015-03-07T11:31:53Z</time>
      </trkpt>
      <trkpt lat="45.72177" lon="4.0123">
        <ele>446.76</ele>
        <time>2015-03-07T11:31:55Z</time>
      </trkpt>
      <trkpt lat="45.72173" lon="4.01228">
        <ele>447.1</ele>
        <time>2015-03-07T11:31:57Z</time>
      </trkpt>
      <trkpt lat="45.72168" lon="4.01226">
        <ele>447.48</ele>
        <time>2015-03-07T11:31:59Z</time>
      </trkpt>
      <trkpt lat="45.72164" lon="4.01224">
        <ele>447.6</ele>
        <time>2015-03-07T11:32:01Z</time>
      </trkpt>
      <trkpt lat="45.7216" lon="4.01221">
        <ele>447.76</ele>
        <time>2015-03-07T11:32:03Z</time>
      </trkpt>
      <trkpt lat="45.72154" lon="4.01216">
        <ele>448.3</ele>
        <time>2015-03-07T11:32:06Z</time>
      </trkpt>
      <trkpt lat="45.7215" lon="4.01213">
        <ele>448.73</ele>
        <time>2015-03-07T11:32:08Z</time>
      </trkpt>
      <trkpt lat="45.72145" lon="4.01212">
        <ele>449.27</ele>
        <time>2015-03-07T11:32:10Z</time>
      </trkpt>
      <trkpt lat="45.72139" lon="4.01212">
        <ele>449.65</ele>
        <time>2015-03-07T11:32:12Z</time>
      </trkpt>
      <trkpt lat="45.72134" lon="4.01212">
        <ele>449.97</ele>
        <time>2015-03-07T11:32:14Z</time>
      </trkpt>
      <trkpt lat="45.72128" lon="4.01212">
        <ele>450.3</ele>
        <time>2015-03-07T11:32:16Z</time>
      </trkpt>
      <trkpt lat="45.72122" lon="4.01212">
        <ele>450.66</ele>
        <time>2015-03-07T11:32:18Z</time>
      </trkpt>
      <trkpt lat="45.72116" lon="4.01212">
        <ele>451.05</ele>
        <time>2015-03-07T11:32:20Z</time>
      </trkpt>
      <trkpt lat="45.7211" lon="4.01212">
        <ele>451.29</ele>
        <time>2015-03-07T11:32:22Z</time>
      </trkpt>
      <trkpt lat="45.72104" lon="4.01212">
        <ele>451.64</ele>
        <time>2015-03-07T11:32:25Z</time>
      </trkpt>
      <trkpt lat="45.72098" lon="4.01211">
        <ele>452.04</ele>
        <time>2015-03-07T11:32:27Z</time>
      </trkpt>
      <trkpt lat="45.72092" lon="4.01211">
        <ele>452.44</ele>
        <time>2015-03-07T11:32:29Z</time>
      </trkpt>
      <trkpt lat="45.72085" lon="4.01211">
        <ele>452.74</ele>
        <time>2015-03-07T11:32:31Z</time>
      </trkpt>
      <trkpt lat="45.72078" lon="4.01211">
        <ele>452.79</ele>
        <time>2015-03-07T11:32:33Z</time>
      </trkpt>
      <trkpt lat="45.72072" lon="4.01211">
        <ele>453.03</ele>
        <time>2015-03-07T11:32:35Z</time>
      </trkpt>
      <trkpt lat="45.72066" lon="4.01211">
        <ele>453.19</ele>
        <time>2015-03-07T11:32:37Z</time>
      </trkpt>
      <trkpt lat="45.7206" lon="4.01211">
        <ele>453.36</ele>
        <time>2015-03-07T11:32:39Z</time>
      </trkpt>
      <trkpt lat="45.72053" lon="4.01212">
        <ele>453.75</ele>
        <time>2015-03-07T11:32:41Z</time>
      </trkpt>
      <trkpt lat="45.72047" lon="4.01212">
        <ele>454.07</ele>
        <time>2015-03-07T11:32:43Z</time>
      </trkpt>
      <trkpt lat="45.7204" lon="4.01211">
        <ele>454.5</ele>
        <time>2015-03-07T11:32:45Z</time>
      </trkpt>
      <trkpt lat="45.72033" lon="4.01211">
        <ele>454.86</ele>
        <time>2015-03-07T11:32:47Z</time>
      </trkpt>
      <trkpt lat="45.72026" lon="4.0121">
        <ele>455.32</ele>
        <time>2015-03-07T11:32:49Z</time>
      </trkpt>
      <trkpt lat="45.72019" lon="4.01211">
        <ele>455.79</ele>
        <time>2015-03-07T11:32:51Z</time>
      </trkpt>
      <trkpt lat="45.72012" lon="4.01211">
        <ele>456.18</ele>
        <time>2015-03-07T11:32:53Z</time>
      </trkpt>
      <trkpt lat="45.72005" lon="4.01212">
        <ele>456.55</ele>
        <time>2015-03-07T11:32:55Z</time>
      </trkpt>
      <trkpt lat="45.71998" lon="4.01212">
        <ele>456.95</ele>
        <time>2015-03-07T11:32:57Z</time>
      </trkpt>
      <trkpt lat="45.71991" lon="4.01211">
        <ele>457.29</ele>
        <time>2015-03-07T11:32:59Z</time>
      </trkpt>
      <trkpt lat="45.71983" lon="4.01211">
        <ele>457.46</ele>
        <time>2015-03-07T11:33:01Z</time>
      </trkpt>
      <trkpt lat="45.71976" lon="4.01209">
        <ele>457.65</ele>
        <time>2015-03-07T11:33:03Z</time>
      </trkpt>
      <trkpt lat="45.71969" lon="4.01206">
        <ele>457.84</ele>
        <time>2015-03-07T11:33:05Z</time>
      </trkpt>
      <trkpt lat="45.71962" lon="4.01201">
        <ele>458.04</ele>
        <time>2015-03-07T11:33:07Z</time>
      </trkpt>
      <trkpt lat="45.71956" lon="4.01196">
        <ele>458.09</ele>
        <time>2015-03-07T11:33:09Z</time>
      </trkpt>
      <trkpt lat="45.71951" lon="4.01189">
        <ele>458.13</ele>
        <time>2015-03-07T11:33:11Z</time>
      </trkpt>
      <trkpt lat="45.71946" lon="4.01183">
        <ele>458.22</ele>
        <time>2015-03-07T11:33:13Z</time>
      </trkpt>
      <trkpt lat="45.7194" lon="4.01176">
        <ele>458.34</ele>
        <time>2015-03-07T11:33:15Z</time>
      </trkpt>
      <trkpt lat="45.71934" lon="4.0117">
        <ele>458.47</ele>
        <time>2015-03-07T11:33:17Z</time>
      </trkpt>
      <trkpt lat="45.71929" lon="4.01164">
        <ele>458.7</ele>
        <time>2015-03-07T11:33:19Z</time>
      </trkpt>
      <trkpt lat="45.71923" lon="4.01157">
        <ele>458.93</ele>
        <time>2015-03-07T11:33:21Z</time>
      </trkpt>
      <trkpt lat="45.71918" lon="4.01151">
        <ele>459.14</ele>
        <time>2015-03-07T11:33:23Z</time>
      </trkpt>
      <trkpt lat="45.71912" lon="4.01146">
        <ele>459.34</ele>
        <time>2015-03-07T11:33:25Z</time>
      </trkpt>
      <trkpt lat="45.71906" lon="4.01142">
        <ele>459.54</ele>
        <time>2015-03-07T11:33:27Z</time>
      </trkpt>
      <trkpt lat="45.71899" lon="4.01139">
        <ele>459.67</ele>
        <time>2015-03-07T11:33:29Z</time>
      </trkpt>
      <trkpt lat="45.71892" lon="4.01136">
        <ele>459.73</ele>
        <time>2015-03-07T11:33:31Z</time>
      </trkpt>
      <trkpt lat="45.71884" lon="4.01135">
        <ele>459.81</ele>
        <time>2015-03-07T11:33:33Z</time>
      </trkpt>
      <trkpt lat="45.71877" lon="4.01133">
        <ele>459.79</ele>
        <time>2015-03-07T11:33:35Z</time>
      </trkpt>
      <trkpt lat="45.7187" lon="4.01132">
        <ele>459.75</ele>
        <time>2015-03-07T11:33:37Z</time>
      </trkpt>
      <trkpt lat="45.71862" lon="4.01131">
        <ele>459.82</ele>
        <time>2015-03-07T11:33:39Z</time>
      </trkpt>
      <trkpt lat="45.71854" lon="4.01131">
        <ele>459.91</ele>
        <time>2015-03-07T11:33:40Z</time>
      </trkpt>
      <trkpt lat="45.71847" lon="4.01132">
        <ele>459.86</ele>
        <time>2015-03-07T11:33:42Z</time>
      </trkpt>
      <trkpt lat="45.71839" lon="4.01133">
        <ele>459.85</ele>
        <time>2015-03-07T11:33:44Z</time>
      </trkpt>
      <trkpt lat="45.71832" lon="4.01135">
        <ele>459.85</ele>
        <time>2015-03-07T11:33:46Z</time>
      </trkpt>
      <trkpt lat="45.71825" lon="4.01139">
        <ele>459.97</ele>
        <time>2015-03-07T11:33:48Z</time>
      </trkpt>
      <trkpt lat="45.71818" lon="4.01144">
        <ele>460.13</ele>
        <time>2015-03-07T11:33:50Z</time>
      </trkpt>
      <trkpt lat="45.71811" lon="4.0115">
        <ele>460.26</ele>
        <time>2015-03-07T11:33:52Z</time>
      </trkpt>
      <trkpt lat="45.71804" lon="4.01156">
        <ele>460.57</ele>
        <time>2015-03-07T11:33:54Z</time>
      </trkpt>
      <trkpt lat="45.71797" lon="4.01163">
        <ele>460.95</ele>
        <time>2015-03-07T11:33:56Z</time>
      </trkpt>
      <trkpt lat="45.71791" lon="4.0117">
        <ele>461.25</ele>
        <time>2015-03-07T11:33:58Z</time>
      </trkpt>
      <trkpt lat="45.71785" lon="4.01177">
        <ele>461.69</ele>
        <time>2015-03-07T11:34:00Z</time>
      </trkpt>
      <trkpt lat="45.71779" lon="4.01184">
        <ele>462.21</ele>
        <time>2015-03-07T11:34:02Z</time>
      </trkpt>
      <trkpt lat="45.71773" lon="4.0119">
        <ele>462.58</ele>
        <time>2015-03-07T11:34:04Z</time>
      </trkpt>
      <trkpt lat="45.71767" lon="4.01196">
        <ele>463</ele>
        <time>2015-03-07T11:34:06Z</time>
      </trkpt>
      <trkpt lat="45.71761" lon="4.01203">
        <ele>463.33</ele>
        <time>2015-03-07T11:34:08Z</time>
      </trkpt>
      <trkpt lat="45.71755" lon="4.0121">
        <ele>463.67</ele>
        <time>2015-03-07T11:34:10Z</time>
      </trkpt>
      <trkpt lat="45.71748" lon="4.01216">
        <ele>463.87</ele>
        <time>2015-03-07T11:34:12Z</time>
      </trkpt>
      <trkpt lat="45.71742" lon="4.01223">
        <ele>463.93</ele>
        <time>2015-03-07T11:34:14Z</time>
      </trkpt>
      <trkpt lat="45.71735" lon="4.0123">
        <ele>463.99</ele>
        <time>2015-03-07T11:34:16Z</time>
      </trkpt>
      <trkpt lat="45.71729" lon="4.01237">
        <ele>464.33</ele>
        <time>2015-03-07T11:34:18Z</time>
      </trkpt>
      <trkpt lat="45.71723" lon="4.01244">
        <ele>464.62</ele>
        <time>2015-03-07T11:34:20Z</time>
      </trkpt>
      <trkpt lat="45.71717" lon="4.01251">
        <ele>464.79</ele>
        <time>2015-03-07T11:34:22Z</time>
      </trkpt>
      <trkpt lat="45.7171" lon="4.01258">
        <ele>464.95</ele>
        <time>2015-03-07T11:34:24Z</time>
      </trkpt>
      <trkpt lat="45.71704" lon="4.01264">
        <ele>465.07</ele>
        <time>2015-03-07T11:34:26Z</time>
      </trkpt>
      <trkpt lat="45.71698" lon="4.01271">
        <ele>465.28</ele>
        <time>2015-03-07T11:34:28Z</time>
      </trkpt>
      <trkpt lat="45.71692" lon="4.01278">
        <ele>465.53</ele>
        <time>2015-03-07T11:34:30Z</time>
      </trkpt>
      <trkpt lat="45.71685" lon="4.01284">
        <ele>465.86</ele>
        <time>2015-03-07T11:34:32Z</time>
      </trkpt>
      <trkpt lat="45.7168" lon="4.01291">
        <ele>466.25</ele>
        <time>2015-03-07T11:34:34Z</time>
      </trkpt>
      <trkpt lat="45.71674" lon="4.01297">
        <ele>466.57</ele>
        <time>2015-03-07T11:34:36Z</time>
      </trkpt>
      <trkpt lat="45.71669" lon="4.01303">
        <ele>466.68</ele>
        <time>2015-03-07T11:34:38Z</time>
      </trkpt>
      <trkpt lat="45.71664" lon="4.01309">
        <ele>466.8</ele>
        <time>2015-03-07T11:34:40Z</time>
      </trkpt>
      <trkpt lat="45.71659" lon="4.01314">
        <ele>466.93</ele>
        <time>2015-03-07T11:34:42Z</time>
      </trkpt>
      <trkpt lat="45.71653" lon="4.0132">
        <ele>467.19</ele>
        <time>2015-03-07T11:34:44Z</time>
      </trkpt>
      <trkpt lat="45.71648" lon="4.01325">
        <ele>467.38</ele>
        <time>2015-03-07T11:34:46Z</time>
      </trkpt>
      <trkpt lat="45.71643" lon="4.01332">
        <ele>467.55</ele>
        <time>2015-03-07T11:34:48Z</time>
      </trkpt>
      <trkpt lat="45.71638" lon="4.01338">
        <ele>467.87</ele>
        <time>2015-03-07T11:34:50Z</time>
      </trkpt>
      <trkpt lat="45.71632" lon="4.01344">
        <ele>468.2</ele>
        <time>2015-03-07T11:34:52Z</time>
      </trkpt>
      <trkpt lat="45.71627" lon="4.0135">
        <ele>468.51</ele>
        <time>2015-03-07T11:34:54Z</time>
      </trkpt>
      <trkpt lat="45.71622" lon="4.01355">
        <ele>468.79</ele>
        <time>2015-03-07T11:34:56Z</time>
      </trkpt>
      <trkpt lat="45.71616" lon="4.0136">
        <ele>468.95</ele>
        <time>2015-03-07T11:34:58Z</time>
      </trkpt>
      <trkpt lat="45.7161" lon="4.01365">
        <ele>469.32</ele>
        <time>2015-03-07T11:35:00Z</time>
      </trkpt>
      <trkpt lat="45.71605" lon="4.01371">
        <ele>469.61</ele>
        <time>2015-03-07T11:35:02Z</time>
      </trkpt>
      <trkpt lat="45.716" lon="4.01376">
        <ele>470.01</ele>
        <time>2015-03-07T11:35:04Z</time>
      </trkpt>
      <trkpt lat="45.71594" lon="4.01381">
        <ele>470.39</ele>
        <time>2015-03-07T11:35:06Z</time>
      </trkpt>
      <trkpt lat="45.71588" lon="4.01386">
        <ele>470.58</ele>
        <time>2015-03-07T11:35:08Z</time>
      </trkpt>
      <trkpt lat="45.71582" lon="4.0139">
        <ele>470.5</ele>
        <time>2015-03-07T11:35:10Z</time>
      </trkpt>
      <trkpt lat="45.71576" lon="4.01395">
        <ele>470.51</ele>
        <time>2015-03-07T11:35:12Z</time>
      </trkpt>
      <trkpt lat="45.7157" lon="4.01399">
        <ele>470.94</ele>
        <time>2015-03-07T11:35:14Z</time>
      </trkpt>
      <trkpt lat="45.71564" lon="4.01402">
        <ele>471.32</ele>
        <time>2015-03-07T11:35:16Z</time>
      </trkpt>
      <trkpt lat="45.71557" lon="4.01406">
        <ele>471.59</ele>
        <time>2015-03-07T11:35:18Z</time>
      </trkpt>
      <trkpt lat="45.71551" lon="4.01411">
        <ele>471.88</ele>
        <time>2015-03-07T11:35:20Z</time>
      </trkpt>
      <trkpt lat="45.71545" lon="4.01414">
        <ele>472.15</ele>
        <time>2015-03-07T11:35:22Z</time>
      </trkpt>
      <trkpt lat="45.71539" lon="4.01418">
        <ele>472.35</ele>
        <time>2015-03-07T11:35:24Z</time>
      </trkpt>
      <trkpt lat="45.71533" lon="4.01422">
        <ele>472.54</ele>
        <time>2015-03-07T11:35:26Z</time>
      </trkpt>
      <trkpt lat="45.71527" lon="4.01426">
        <ele>472.74</ele>
        <time>2015-03-07T11:35:28Z</time>
      </trkpt>
      <trkpt lat="45.71521" lon="4.0143">
        <ele>472.92</ele>
        <time>2015-03-07T11:35:30Z</time>
      </trkpt>
      <trkpt lat="45.71515" lon="4.01433">
        <ele>473.06</ele>
        <time>2015-03-07T11:35:32Z</time>
      </trkpt>
      <trkpt lat="45.71508" lon="4.01437">
        <ele>473.17</ele>
        <time>2015-03-07T11:35:34Z</time>
      </trkpt>
      <trkpt lat="45.71501" lon="4.01439">
        <ele>473.28</ele>
        <time>2015-03-07T11:35:36Z</time>
      </trkpt>
      <trkpt lat="45.71494" lon="4.01441">
        <ele>473.45</ele>
        <time>2015-03-07T11:35:38Z</time>
      </trkpt>
      <trkpt lat="45.71486" lon="4.01442">
        <ele>473.57</ele>
        <time>2015-03-07T11:35:40Z</time>
      </trkpt>
      <trkpt lat="45.71479" lon="4.01441">
        <ele>473.65</ele>
        <time>2015-03-07T11:35:42Z</time>
      </trkpt>
      <trkpt lat="45.71471" lon="4.01439">
        <ele>473.65</ele>
        <time>2015-03-07T11:35:44Z</time>
      </trkpt>
      <trkpt lat="45.71463" lon="4.01436">
        <ele>473.77</ele>
        <time>2015-03-07T11:35:46Z</time>
      </trkpt>
      <trkpt lat="45.71456" lon="4.01432">
        <ele>473.88</ele>
        <time>2015-03-07T11:35:48Z</time>
      </trkpt>
      <trkpt lat="45.71449" lon="4.01428">
        <ele>473.98</ele>
        <time>2015-03-07T11:35:50Z</time>
      </trkpt>
      <trkpt lat="45.71443" lon="4.01424">
        <ele>474.1</ele>
        <time>2015-03-07T11:35:52Z</time>
      </trkpt>
      <trkpt lat="45.71436" lon="4.01419">
        <ele>474.18</ele>
        <time>2015-03-07T11:35:54Z</time>
      </trkpt>
      <trkpt lat="45.7143" lon="4.01414">
        <ele>474.28</ele>
        <time>2015-03-07T11:35:56Z</time>
      </trkpt>
      <trkpt lat="45.71424" lon="4.01407">
        <ele>474.33</ele>
        <time>2015-03-07T11:35:58Z</time>
      </trkpt>
      <trkpt lat="45.71418" lon="4.01401">
        <ele>474.41</ele>
        <time>2015-03-07T11:36:00Z</time>
      </trkpt>
      <trkpt lat="45.71412" lon="4.01393">
        <ele>474.44</ele>
        <time>2015-03-07T11:36:02Z</time>
      </trkpt>
      <trkpt lat="45.71406" lon="4.01386">
        <ele>474.39</ele>
        <time>2015-03-07T11:36:04Z</time>
      </trkpt>
      <trkpt lat="45.71399" lon="4.01378">
        <ele>474.36</ele>
        <time>2015-03-07T11:36:06Z</time>
      </trkpt>
      <trkpt lat="45.71393" lon="4.0137">
        <ele>474.4</ele>
        <time>2015-03-07T11:36:08Z</time>
      </trkpt>
      <trkpt lat="45.71387" lon="4.01363">
        <ele>474.43</ele>
        <time>2015-03-07T11:36:10Z</time>
      </trkpt>
      <trkpt lat="45.71382" lon="4.01357">
        <ele>474.44</ele>
        <time>2015-03-07T11:36:12Z</time>
      </trkpt>
      <trkpt lat="45.71376" lon="4.0135">
        <ele>474.44</ele>
        <time>2015-03-07T11:36:14Z</time>
      </trkpt>
      <trkpt lat="45.71371" lon="4.01342">
        <ele>474.47</ele>
        <time>2015-03-07T11:36:16Z</time>
      </trkpt>
      <trkpt lat="45.71365" lon="4.01334">
        <ele>474.58</ele>
        <time>2015-03-07T11:36:18Z</time>
      </trkpt>
      <trkpt lat="45.7136" lon="4.01325">
        <ele>474.63</ele>
        <time>2015-03-07T11:36:20Z</time>
      </trkpt>
      <trkpt lat="45.71356" lon="4.01315">
        <ele>474.64</ele>
        <time>2015-03-07T11:36:22Z</time>
      </trkpt>
      <trkpt lat="45.71353" lon="4.01305">
        <ele>474.62</ele>
        <time>2015-03-07T11:36:24Z</time>
      </trkpt>
      <trkpt lat="45.71349" lon="4.01294">
        <ele>474.69</ele>
        <time>2015-03-07T11:36:26Z</time>
      </trkpt>
      <trkpt lat="45.71346" lon="4.01283">
        <ele>474.78</ele>
        <time>2015-03-07T11:36:28Z</time>
      </trkpt>
      <trkpt lat="45.71342" lon="4.01272">
        <ele>474.95</ele>
        <time>2015-03-07T11:36:30Z</time>
      </trkpt>
      <trkpt lat="45.71337" lon="4.01261">
        <ele>475.1</ele>
        <time>2015-03-07T11:36:32Z</time>
      </trkpt>
      <trkpt lat="45.71332" lon="4.01251">
        <ele>475.26</ele>
        <time>2015-03-07T11:36:34Z</time>
      </trkpt>
      <trkpt lat="45.71325" lon="4.01243">
        <ele>475.4</ele>
        <time>2015-03-07T11:36:36Z</time>
      </trkpt>
      <trkpt lat="45.71318" lon="4.01235">
        <ele>475.48</ele>
        <time>2015-03-07T11:36:38Z</time>
      </trkpt>
      <trkpt lat="45.71314" lon="4.01232">
        <ele>475.51</ele>
        <time>2015-03-07T11:36:39Z</time>
      </trkpt>
      <trkpt lat="45.7131" lon="4.01228">
        <ele>475.58</ele>
        <time>2015-03-07T11:36:40Z</time>
      </trkpt>
      <trkpt lat="45.71307" lon="4.01224">
        <ele>475.66</ele>
        <time>2015-03-07T11:36:41Z</time>
      </trkpt>
      <trkpt lat="45.71303" lon="4.0122">
        <ele>475.7</ele>
        <time>2015-03-07T11:36:42Z</time>
      </trkpt>
      <trkpt lat="45.71299" lon="4.01217">
        <ele>475.72</ele>
        <time>2015-03-07T11:36:43Z</time>
      </trkpt>
      <trkpt lat="45.71295" lon="4.01213">
        <ele>475.73</ele>
        <time>2015-03-07T11:36:44Z</time>
      </trkpt>
      <trkpt lat="45.71291" lon="4.01209">
        <ele>475.79</ele>
        <time>2015-03-07T11:36:45Z</time>
      </trkpt>
      <trkpt lat="45.71287" lon="4.01205">
        <ele>475.82</ele>
        <time>2015-03-07T11:36:46Z</time>
      </trkpt>
      <trkpt lat="45.71284" lon="4.01201">
        <ele>475.78</ele>
        <time>2015-03-07T11:36:47Z</time>
      </trkpt>
      <trkpt lat="45.7128" lon="4.01196">
        <ele>475.76</ele>
        <time>2015-03-07T11:36:48Z</time>
      </trkpt>
      <trkpt lat="45.71277" lon="4.01191">
        <ele>475.75</ele>
        <time>2015-03-07T11:36:49Z</time>
      </trkpt>
      <trkpt lat="45.71271" lon="4.01182">
        <ele>475.75</ele>
        <time>2015-03-07T11:36:51Z</time>
      </trkpt>
      <trkpt lat="45.71266" lon="4.01172">
        <ele>475.74</ele>
        <time>2015-03-07T11:36:53Z</time>
      </trkpt>
      <trkpt lat="45.71261" lon="4.01163">
        <ele>475.94</ele>
        <time>2015-03-07T11:36:55Z</time>
      </trkpt>
      <trkpt lat="45.71255" lon="4.01152">
        <ele>476.22</ele>
        <time>2015-03-07T11:36:57Z</time>
      </trkpt>
      <trkpt lat="45.71253" lon="4.01147">
        <ele>476.33</ele>
        <time>2015-03-07T11:36:58Z</time>
      </trkpt>
      <trkpt lat="45.7125" lon="4.01142">
        <ele>476.39</ele>
        <time>2015-03-07T11:36:59Z</time>
      </trkpt>
      <trkpt lat="45.71247" lon="4.01136">
        <ele>476.47</ele>
        <time>2015-03-07T11:37:00Z</time>
      </trkpt>
      <trkpt lat="45.71245" lon="4.01131">
        <ele>476.55</ele>
        <time>2015-03-07T11:37:01Z</time>
      </trkpt>
      <trkpt lat="45.71242" lon="4.01126">
        <ele>476.7</ele>
        <time>2015-03-07T11:37:02Z</time>
      </trkpt>
      <trkpt lat="45.71236" lon="4.01116">
        <ele>476.86</ele>
        <time>2015-03-07T11:37:04Z</time>
      </trkpt>
      <trkpt lat="45.71232" lon="4.01107">
        <ele>477.1</ele>
        <time>2015-03-07T11:37:06Z</time>
      </trkpt>
      <trkpt lat="45.71228" lon="4.011">
        <ele>477.38</ele>
        <time>2015-03-07T11:37:08Z</time>
      </trkpt>
      <trkpt lat="45.71224" lon="4.01093">
        <ele>477.73</ele>
        <time>2015-03-07T11:37:10Z</time>
      </trkpt>
      <trkpt lat="45.71221" lon="4.01087">
        <ele>478.14</ele>
        <time>2015-03-07T11:37:12Z</time>
      </trkpt>
      <trkpt lat="45.71217" lon="4.01081">
        <ele>478.67</ele>
        <time>2015-03-07T11:37:14Z</time>
      </trkpt>
      <trkpt lat="45.71213" lon="4.01076">
        <ele>479.4</ele>
        <time>2015-03-07T11:37:16Z</time>
      </trkpt>
      <trkpt lat="45.71208" lon="4.01072">
        <ele>479.98</ele>
        <time>2015-03-07T11:37:18Z</time>
      </trkpt>
      <trkpt lat="45.71203" lon="4.01068">
        <ele>480.35</ele>
        <time>2015-03-07T11:37:20Z</time>
      </trkpt>
      <trkpt lat="45.71198" lon="4.01065">
        <ele>480.7</ele>
        <time>2015-03-07T11:37:22Z</time>
      </trkpt>
      <trkpt lat="45.71192" lon="4.01064">
        <ele>481.01</ele>
        <time>2015-03-07T11:37:24Z</time>
      </trkpt>
      <trkpt lat="45.71187" lon="4.01065">
        <ele>481.28</ele>
        <time>2015-03-07T11:37:26Z</time>
      </trkpt>
      <trkpt lat="45.71181" lon="4.01068">
        <ele>481.5</ele>
        <time>2015-03-07T11:37:28Z</time>
      </trkpt>
      <trkpt lat="45.71176" lon="4.01072">
        <ele>481.73</ele>
        <time>2015-03-07T11:37:30Z</time>
      </trkpt>
      <trkpt lat="45.71172" lon="4.01077">
        <ele>481.89</ele>
        <time>2015-03-07T11:37:32Z</time>
      </trkpt>
      <trkpt lat="45.71168" lon="4.01084">
        <ele>482.01</ele>
        <time>2015-03-07T11:37:34Z</time>
      </trkpt>
      <trkpt lat="45.71165" lon="4.01092">
        <ele>482.08</ele>
        <time>2015-03-07T11:37:36Z</time>
      </trkpt>
      <trkpt lat="45.71163" lon="4.011">
        <ele>482.25</ele>
        <time>2015-03-07T11:37:38Z</time>
      </trkpt>
      <trkpt lat="45.71162" lon="4.01109">
        <ele>482.5</ele>
        <time>2015-03-07T11:37:40Z</time>
      </trkpt>
      <trkpt lat="45.71162" lon="4.01118">
        <ele>482.86</ele>
        <time>2015-03-07T11:37:42Z</time>
      </trkpt>
      <trkpt lat="45.71162" lon="4.01127">
        <ele>483.12</ele>
        <time>2015-03-07T11:37:44Z</time>
      </trkpt>
      <trkpt lat="45.71162" lon="4.01136">
        <ele>483.34</ele>
        <time>2015-03-07T11:37:46Z</time>
      </trkpt>
      <trkpt lat="45.71163" lon="4.01145">
        <ele>483.42</ele>
        <time>2015-03-07T11:37:48Z</time>
      </trkpt>
      <trkpt lat="45.71164" lon="4.01153">
        <ele>483.56</ele>
        <time>2015-03-07T11:37:50Z</time>
      </trkpt>
      <trkpt lat="45.71164" lon="4.01161">
        <ele>483.75</ele>
        <time>2015-03-07T11:37:52Z</time>
      </trkpt>
      <trkpt lat="45.71165" lon="4.0117">
        <ele>483.95</ele>
        <time>2015-03-07T11:37:54Z</time>
      </trkpt>
      <trkpt lat="45.71165" lon="4.01179">
        <ele>484.09</ele>
        <time>2015-03-07T11:37:56Z</time>
      </trkpt>
      <trkpt lat="45.71167" lon="4.01188">
        <ele>484.26</ele>
        <time>2015-03-07T11:37:58Z</time>
      </trkpt>
      <trkpt lat="45.71168" lon="4.01197">
        <ele>484.45</ele>
        <time>2015-03-07T11:38:00Z</time>
      </trkpt>
      <trkpt lat="45.7117" lon="4.01207">
        <ele>484.64</ele>
        <time>2015-03-07T11:38:02Z</time>
      </trkpt>
      <trkpt lat="45.71171" lon="4.01218">
        <ele>484.84</ele>
        <time>2015-03-07T11:38:04Z</time>
      </trkpt>
      <trkpt lat="45.71171" lon="4.01228">
        <ele>484.97</ele>
        <time>2015-03-07T11:38:06Z</time>
      </trkpt>
      <trkpt lat="45.71172" lon="4.01239">
        <ele>485.15</ele>
        <time>2015-03-07T11:38:08Z</time>
      </trkpt>
      <trkpt lat="45.71171" lon="4.01249">
        <ele>485.47</ele>
        <time>2015-03-07T11:38:10Z</time>
      </trkpt>
      <trkpt lat="45.71169" lon="4.01258">
        <ele>485.73</ele>
        <time>2015-03-07T11:38:12Z</time>
      </trkpt>
      <trkpt lat="45.71164" lon="4.01265">
        <ele>486.31</ele>
        <time>2015-03-07T11:38:14Z</time>
      </trkpt>
      <trkpt lat="45.7116" lon="4.0127">
        <ele>487.31</ele>
        <time>2015-03-07T11:38:16Z</time>
      </trkpt>
      <trkpt lat="45.71155" lon="4.01274">
        <ele>488.09</ele>
        <time>2015-03-07T11:38:18Z</time>
      </trkpt>
      <trkpt lat="45.71149" lon="4.01278">
        <ele>488.48</ele>
        <time>2015-03-07T11:38:20Z</time>
      </trkpt>
      <trkpt lat="45.71144" lon="4.01281">
        <ele>488.8</ele>
        <time>2015-03-07T11:38:22Z</time>
      </trkpt>
      <trkpt lat="45.71138" lon="4.01284">
        <ele>488.96</ele>
        <time>2015-03-07T11:38:24Z</time>
      </trkpt>
      <trkpt lat="45.71133" lon="4.01288">
        <ele>489.15</ele>
        <time>2015-03-07T11:38:26Z</time>
      </trkpt>
      <trkpt lat="45.71127" lon="4.01291">
        <ele>489.27</ele>
        <time>2015-03-07T11:38:28Z</time>
      </trkpt>
      <trkpt lat="45.71122" lon="4.01294">
        <ele>489.5</ele>
        <time>2015-03-07T11:38:30Z</time>
      </trkpt>
      <trkpt lat="45.71117" lon="4.01296">
        <ele>490.11</ele>
        <time>2015-03-07T11:38:32Z</time>
      </trkpt>
      <trkpt lat="45.71112" lon="4.01295">
        <ele>490.84</ele>
        <time>2015-03-07T11:38:34Z</time>
      </trkpt>
      <trkpt lat="45.71107" lon="4.01294">
        <ele>491.39</ele>
        <time>2015-03-07T11:38:36Z</time>
      </trkpt>
      <trkpt lat="45.71099" lon="4.01292">
        <ele>491.71</ele>
        <time>2015-03-07T11:38:39Z</time>
      </trkpt>
      <trkpt lat="45.71093" lon="4.01292">
        <ele>492.2</ele>
        <time>2015-03-07T11:38:42Z</time>
      </trkpt>
      <trkpt lat="45.71086" lon="4.0129">
        <ele>493.08</ele>
        <time>2015-03-07T11:38:45Z</time>
      </trkpt>
      <trkpt lat="45.71082" lon="4.0129">
        <ele>494.05</ele>
        <time>2015-03-07T11:38:47Z</time>
      </trkpt>
      <trkpt lat="45.71076" lon="4.01289">
        <ele>495.12</ele>
        <time>2015-03-07T11:38:49Z</time>
      </trkpt>
      <trkpt lat="45.71071" lon="4.01288">
        <ele>496.24</ele>
        <time>2015-03-07T11:38:51Z</time>
      </trkpt>
      <trkpt lat="45.71066" lon="4.01286">
        <ele>497.97</ele>
        <time>2015-03-07T11:38:53Z</time>
      </trkpt>
      <trkpt lat="45.7106" lon="4.01285">
        <ele>498.67</ele>
        <time>2015-03-07T11:38:55Z</time>
      </trkpt>
      <trkpt lat="45.71055" lon="4.01285">
        <ele>498.46</ele>
        <time>2015-03-07T11:38:57Z</time>
      </trkpt>
      <trkpt lat="45.71048" lon="4.01288">
        <ele>497.65</ele>
        <time>2015-03-07T11:38:59Z</time>
      </trkpt>
      <trkpt lat="45.71044" lon="4.01291">
        <ele>497.49</ele>
        <time>2015-03-07T11:39:00Z</time>
      </trkpt>
      <trkpt lat="45.7104" lon="4.01294">
        <ele>497.22</ele>
        <time>2015-03-07T11:39:01Z</time>
      </trkpt>
      <trkpt lat="45.71036" lon="4.01297">
        <ele>496.93</ele>
        <time>2015-03-07T11:39:02Z</time>
      </trkpt>
      <trkpt lat="45.71031" lon="4.013">
        <ele>496.54</ele>
        <time>2015-03-07T11:39:03Z</time>
      </trkpt>
      <trkpt lat="45.71026" lon="4.01303">
        <ele>496.09</ele>
        <time>2015-03-07T11:39:04Z</time>
      </trkpt>
      <trkpt lat="45.7102" lon="4.01305">
        <ele>495.57</ele>
        <time>2015-03-07T11:39:05Z</time>
      </trkpt>
      <trkpt lat="45.71014" lon="4.01306">
        <ele>495.06</ele>
        <time>2015-03-07T11:39:06Z</time>
      </trkpt>
      <trkpt lat="45.71008" lon="4.01309">
        <ele>494.75</ele>
        <time>2015-03-07T11:39:07Z</time>
      </trkpt>
      <trkpt lat="45.71002" lon="4.0131">
        <ele>494.15</ele>
        <time>2015-03-07T11:39:08Z</time>
      </trkpt>
      <trkpt lat="45.70995" lon="4.01309">
        <ele>493.8</ele>
        <time>2015-03-07T11:39:09Z</time>
      </trkpt>
      <trkpt lat="45.70989" lon="4.01308">
        <ele>493.57</ele>
        <time>2015-03-07T11:39:10Z</time>
      </trkpt>
      <trkpt lat="45.70983" lon="4.01306">
        <ele>493.26</ele>
        <time>2015-03-07T11:39:11Z</time>
      </trkpt>
      <trkpt lat="45.70977" lon="4.01305">
        <ele>493</ele>
        <time>2015-03-07T11:39:12Z</time>
      </trkpt>
      <trkpt lat="45.70972" lon="4.01305">
        <ele>492.72</ele>
        <time>2015-03-07T11:39:13Z</time>
      </trkpt>
      <trkpt lat="45.70967" lon="4.01307">
        <ele>492.58</ele>
        <time>2015-03-07T11:39:14Z</time>
      </trkpt>
      <trkpt lat="45.70963" lon="4.01309">
        <ele>492.51</ele>
        <time>2015-03-07T11:39:15Z</time>
      </trkpt>
      <trkpt lat="45.70957" lon="4.01318">
        <ele>492.34</ele>
        <time>2015-03-07T11:39:17Z</time>
      </trkpt>
      <trkpt lat="45.70952" lon="4.01326">
        <ele>492.22</ele>
        <time>2015-03-07T11:39:19Z</time>
      </trkpt>
      <trkpt lat="45.70949" lon="4.01336">
        <ele>492.24</ele>
        <time>2015-03-07T11:39:21Z</time>
      </trkpt>
      <trkpt lat="45.70947" lon="4.01346">
        <ele>492.34</ele>
        <time>2015-03-07T11:39:23Z</time>
      </trkpt>
      <trkpt lat="45.70945" lon="4.01356">
        <ele>492.49</ele>
        <time>2015-03-07T11:39:25Z</time>
      </trkpt>
      <trkpt lat="45.70944" lon="4.01365">
        <ele>492.21</ele>
        <time>2015-03-07T11:39:27Z</time>
      </trkpt>
      <trkpt lat="45.70943" lon="4.01374">
        <ele>492.06</ele>
        <time>2015-03-07T11:39:29Z</time>
      </trkpt>
      <trkpt lat="45.70941" lon="4.01384">
        <ele>491.97</ele>
        <time>2015-03-07T11:39:31Z</time>
      </trkpt>
      <trkpt lat="45.7094" lon="4.01394">
        <ele>492.03</ele>
        <time>2015-03-07T11:39:33Z</time>
      </trkpt>
      <trkpt lat="45.70939" lon="4.01405">
        <ele>492.36</ele>
        <time>2015-03-07T11:39:35Z</time>
      </trkpt>
      <trkpt lat="45.70939" lon="4.01414">
        <ele>492.67</ele>
        <time>2015-03-07T11:39:37Z</time>
      </trkpt>
      <trkpt lat="45.70944" lon="4.01422">
        <ele>493.23</ele>
        <time>2015-03-07T11:39:39Z</time>
      </trkpt>
      <trkpt lat="45.7095" lon="4.01428">
        <ele>493.76</ele>
        <time>2015-03-07T11:39:41Z</time>
      </trkpt>
      <trkpt lat="45.70956" lon="4.01433">
        <ele>494.02</ele>
        <time>2015-03-07T11:39:43Z</time>
      </trkpt>
      <trkpt lat="45.70962" lon="4.01438">
        <ele>494.41</ele>
        <time>2015-03-07T11:39:45Z</time>
      </trkpt>
      <trkpt lat="45.70966" lon="4.01442">
        <ele>494.69</ele>
        <time>2015-03-07T11:39:47Z</time>
      </trkpt>
      <trkpt lat="45.70971" lon="4.01446">
        <ele>494.93</ele>
        <time>2015-03-07T11:39:49Z</time>
      </trkpt>
      <trkpt lat="45.70977" lon="4.01452">
        <ele>495.54</ele>
        <time>2015-03-07T11:39:51Z</time>
      </trkpt>
      <trkpt lat="45.70983" lon="4.01457">
        <ele>495.87</ele>
        <time>2015-03-07T11:39:53Z</time>
      </trkpt>
      <trkpt lat="45.70991" lon="4.01464">
        <ele>496.02</ele>
        <time>2015-03-07T11:39:55Z</time>
      </trkpt>
      <trkpt lat="45.70998" lon="4.0147">
        <ele>496.24</ele>
        <time>2015-03-07T11:39:57Z</time>
      </trkpt>
      <trkpt lat="45.71004" lon="4.01477">
        <ele>496.29</ele>
        <time>2015-03-07T11:39:59Z</time>
      </trkpt>
      <trkpt lat="45.71011" lon="4.01484">
        <ele>496.16</ele>
        <time>2015-03-07T11:40:01Z</time>
      </trkpt>
      <trkpt lat="45.71015" lon="4.01489">
        <ele>495.95</ele>
        <time>2015-03-07T11:40:02Z</time>
      </trkpt>
      <trkpt lat="45.71019" lon="4.01493">
        <ele>495.7</ele>
        <time>2015-03-07T11:40:03Z</time>
      </trkpt>
      <trkpt lat="45.71022" lon="4.01498">
        <ele>495.42</ele>
        <time>2015-03-07T11:40:04Z</time>
      </trkpt>
      <trkpt lat="45.71026" lon="4.01503">
        <ele>495.18</ele>
        <time>2015-03-07T11:40:05Z</time>
      </trkpt>
      <trkpt lat="45.7103" lon="4.01508">
        <ele>495.01</ele>
        <time>2015-03-07T11:40:06Z</time>
      </trkpt>
      <trkpt lat="45.71033" lon="4.01514">
        <ele>494.88</ele>
        <time>2015-03-07T11:40:07Z</time>
      </trkpt>
      <trkpt lat="45.71037" lon="4.01519">
        <ele>494.81</ele>
        <time>2015-03-07T11:40:08Z</time>
      </trkpt>
      <trkpt lat="45.7104" lon="4.01525">
        <ele>494.78</ele>
        <time>2015-03-07T11:40:09Z</time>
      </trkpt>
      <trkpt lat="45.71042" lon="4.01531">
        <ele>494.71</ele>
        <time>2015-03-07T11:40:10Z</time>
      </trkpt>
      <trkpt lat="45.71044" lon="4.01537">
        <ele>494.63</ele>
        <time>2015-03-07T11:40:11Z</time>
      </trkpt>
      <trkpt lat="45.71046" lon="4.01549">
        <ele>494.61</ele>
        <time>2015-03-07T11:40:13Z</time>
      </trkpt>
      <trkpt lat="45.71047" lon="4.01559">
        <ele>494.74</ele>
        <time>2015-03-07T11:40:15Z</time>
      </trkpt>
      <trkpt lat="45.71048" lon="4.0157">
        <ele>495.07</ele>
        <time>2015-03-07T11:40:17Z</time>
      </trkpt>
      <trkpt lat="45.71047" lon="4.01579">
        <ele>495.45</ele>
        <time>2015-03-07T11:40:19Z</time>
      </trkpt>
      <trkpt lat="45.71046" lon="4.01589">
        <ele>495.9</ele>
        <time>2015-03-07T11:40:21Z</time>
      </trkpt>
      <trkpt lat="45.71045" lon="4.01598">
        <ele>496.23</ele>
        <time>2015-03-07T11:40:23Z</time>
      </trkpt>
      <trkpt lat="45.71044" lon="4.01607">
        <ele>496.39</ele>
        <time>2015-03-07T11:40:25Z</time>
      </trkpt>
      <trkpt lat="45.71043" lon="4.01616">
        <ele>496.63</ele>
        <time>2015-03-07T11:40:27Z</time>
      </trkpt>
      <trkpt lat="45.71041" lon="4.01624">
        <ele>496.69</ele>
        <time>2015-03-07T11:40:29Z</time>
      </trkpt>
      <trkpt lat="45.71039" lon="4.01631">
        <ele>496.61</ele>
        <time>2015-03-07T11:40:31Z</time>
      </trkpt>
      <trkpt lat="45.71036" lon="4.0164">
        <ele>496.56</ele>
        <time>2015-03-07T11:40:33Z</time>
      </trkpt>
      <trkpt lat="45.71033" lon="4.01649">
        <ele>496.57</ele>
        <time>2015-03-07T11:40:35Z</time>
      </trkpt>
      <trkpt lat="45.7103" lon="4.01658">
        <ele>496.75</ele>
        <time>2015-03-07T11:40:37Z</time>
      </trkpt>
      <trkpt lat="45.71026" lon="4.01667">
        <ele>497.02</ele>
        <time>2015-03-07T11:40:39Z</time>
      </trkpt>
      <trkpt lat="45.71021" lon="4.01676">
        <ele>497.36</ele>
        <time>2015-03-07T11:40:41Z</time>
      </trkpt>
      <trkpt lat="45.71016" lon="4.01684">
        <ele>497.65</ele>
        <time>2015-03-07T11:40:43Z</time>
      </trkpt>
      <trkpt lat="45.71012" lon="4.01694">
        <ele>497.72</ele>
        <time>2015-03-07T11:40:45Z</time>
      </trkpt>
      <trkpt lat="45.71007" lon="4.01704">
        <ele>497.81</ele>
        <time>2015-03-07T11:40:47Z</time>
      </trkpt>
      <trkpt lat="45.71003" lon="4.01715">
        <ele>497.79</ele>
        <time>2015-03-07T11:40:49Z</time>
      </trkpt>
      <trkpt lat="45.70999" lon="4.01726">
        <ele>497.75</ele>
        <time>2015-03-07T11:40:51Z</time>
      </trkpt>
      <trkpt lat="45.70995" lon="4.01737">
        <ele>497.87</ele>
        <time>2015-03-07T11:40:53Z</time>
      </trkpt>
      <trkpt lat="45.70991" lon="4.01747">
        <ele>498.03</ele>
        <time>2015-03-07T11:40:55Z</time>
      </trkpt>
      <trkpt lat="45.70986" lon="4.01757">
        <ele>498.31</ele>
        <time>2015-03-07T11:40:57Z</time>
      </trkpt>
      <trkpt lat="45.70982" lon="4.01765">
        <ele>498.54</ele>
        <time>2015-03-07T11:40:59Z</time>
      </trkpt>
      <trkpt lat="45.70977" lon="4.01772">
        <ele>498.62</ele>
        <time>2015-03-07T11:41:01Z</time>
      </trkpt>
      <trkpt lat="45.70973" lon="4.0178">
        <ele>498.59</ele>
        <time>2015-03-07T11:41:03Z</time>
      </trkpt>
      <trkpt lat="45.70968" lon="4.01791">
        <ele>498.55</ele>
        <time>2015-03-07T11:41:05Z</time>
      </trkpt>
      <trkpt lat="45.70963" lon="4.018">
        <ele>498.42</ele>
        <time>2015-03-07T11:41:07Z</time>
      </trkpt>
      <trkpt lat="45.70958" lon="4.01809">
        <ele>498.19</ele>
        <time>2015-03-07T11:41:09Z</time>
      </trkpt>
      <trkpt lat="45.70952" lon="4.01818">
        <ele>498.41</ele>
        <time>2015-03-07T11:41:11Z</time>
      </trkpt>
      <trkpt lat="45.70945" lon="4.01826">
        <ele>498.81</ele>
        <time>2015-03-07T11:41:13Z</time>
      </trkpt>
      <trkpt lat="45.70938" lon="4.01834">
        <ele>499.36</ele>
        <time>2015-03-07T11:41:15Z</time>
      </trkpt>
      <trkpt lat="45.70931" lon="4.01841">
        <ele>499.77</ele>
        <time>2015-03-07T11:41:17Z</time>
      </trkpt>
      <trkpt lat="45.70925" lon="4.01847">
        <ele>499.98</ele>
        <time>2015-03-07T11:41:19Z</time>
      </trkpt>
      <trkpt lat="45.70917" lon="4.01854">
        <ele>499.95</ele>
        <time>2015-03-07T11:41:21Z</time>
      </trkpt>
      <trkpt lat="45.7091" lon="4.0186">
        <ele>500.2</ele>
        <time>2015-03-07T11:41:23Z</time>
      </trkpt>
      <trkpt lat="45.70904" lon="4.01867">
        <ele>500.56</ele>
        <time>2015-03-07T11:41:25Z</time>
      </trkpt>
      <trkpt lat="45.70897" lon="4.01874">
        <ele>500.9</ele>
        <time>2015-03-07T11:41:27Z</time>
      </trkpt>
      <trkpt lat="45.7089" lon="4.01882">
        <ele>501.38</ele>
        <time>2015-03-07T11:41:29Z</time>
      </trkpt>
      <trkpt lat="45.70886" lon="4.01886">
        <ele>501.71</ele>
        <time>2015-03-07T11:41:30Z</time>
      </trkpt>
      <trkpt lat="45.70883" lon="4.0189">
        <ele>501.98</ele>
        <time>2015-03-07T11:41:31Z</time>
      </trkpt>
      <trkpt lat="45.70877" lon="4.01899">
        <ele>502.38</ele>
        <time>2015-03-07T11:41:33Z</time>
      </trkpt>
      <trkpt lat="45.70871" lon="4.01908">
        <ele>502.63</ele>
        <time>2015-03-07T11:41:35Z</time>
      </trkpt>
      <trkpt lat="45.70866" lon="4.01916">
        <ele>502.76</ele>
        <time>2015-03-07T11:41:37Z</time>
      </trkpt>
      <trkpt lat="45.7086" lon="4.01924">
        <ele>503.02</ele>
        <time>2015-03-07T11:41:39Z</time>
      </trkpt>
      <trkpt lat="45.70854" lon="4.01932">
        <ele>503.24</ele>
        <time>2015-03-07T11:41:41Z</time>
      </trkpt>
      <trkpt lat="45.70848" lon="4.0194">
        <ele>503.59</ele>
        <time>2015-03-07T11:41:43Z</time>
      </trkpt>
      <trkpt lat="45.70842" lon="4.01947">
        <ele>503.78</ele>
        <time>2015-03-07T11:41:45Z</time>
      </trkpt>
      <trkpt lat="45.70836" lon="4.01953">
        <ele>503.95</ele>
        <time>2015-03-07T11:41:47Z</time>
      </trkpt>
      <trkpt lat="45.70829" lon="4.01959">
        <ele>504.2</ele>
        <time>2015-03-07T11:41:49Z</time>
      </trkpt>
      <trkpt lat="45.70822" lon="4.01965">
        <ele>504.51</ele>
        <time>2015-03-07T11:41:51Z</time>
      </trkpt>
      <trkpt lat="45.70815" lon="4.0197">
        <ele>504.78</ele>
        <time>2015-03-07T11:41:53Z</time>
      </trkpt>
      <trkpt lat="45.70808" lon="4.01975">
        <ele>505.03</ele>
        <time>2015-03-07T11:41:55Z</time>
      </trkpt>
      <trkpt lat="45.70801" lon="4.01979">
        <ele>505.24</ele>
        <time>2015-03-07T11:41:57Z</time>
      </trkpt>
      <trkpt lat="45.70794" lon="4.01983">
        <ele>505.27</ele>
        <time>2015-03-07T11:41:59Z</time>
      </trkpt>
      <trkpt lat="45.70786" lon="4.01988">
        <ele>504.95</ele>
        <time>2015-03-07T11:42:01Z</time>
      </trkpt>
      <trkpt lat="45.70781" lon="4.01992">
        <ele>504.75</ele>
        <time>2015-03-07T11:42:02Z</time>
      </trkpt>
      <trkpt lat="45.70776" lon="4.01996">
        <ele>504.45</ele>
        <time>2015-03-07T11:42:03Z</time>
      </trkpt>
      <trkpt lat="45.7077" lon="4.02001">
        <ele>504.09</ele>
        <time>2015-03-07T11:42:04Z</time>
      </trkpt>
      <trkpt lat="45.70762" lon="4.02003">
        <ele>503.62</ele>
        <time>2015-03-07T11:42:05Z</time>
      </trkpt>
      <trkpt lat="45.70755" lon="4.02001">
        <ele>503.23</ele>
        <time>2015-03-07T11:42:06Z</time>
      </trkpt>
      <trkpt lat="45.70749" lon="4.01998">
        <ele>502.84</ele>
        <time>2015-03-07T11:42:07Z</time>
      </trkpt>
      <trkpt lat="45.70744" lon="4.01992">
        <ele>502.34</ele>
        <time>2015-03-07T11:42:08Z</time>
      </trkpt>
      <trkpt lat="45.70738" lon="4.01987">
        <ele>501.84</ele>
        <time>2015-03-07T11:42:09Z</time>
      </trkpt>
      <trkpt lat="45.70732" lon="4.01986">
        <ele>501.49</ele>
        <time>2015-03-07T11:42:10Z</time>
      </trkpt>
      <trkpt lat="45.70727" lon="4.01987">
        <ele>501.17</ele>
        <time>2015-03-07T11:42:11Z</time>
      </trkpt>
      <trkpt lat="45.70723" lon="4.0199">
        <ele>500.86</ele>
        <time>2015-03-07T11:42:12Z</time>
      </trkpt>
      <trkpt lat="45.7072" lon="4.01995">
        <ele>500.8</ele>
        <time>2015-03-07T11:42:13Z</time>
      </trkpt>
      <trkpt lat="45.70718" lon="4.02007">
        <ele>501.01</ele>
        <time>2015-03-07T11:42:15Z</time>
      </trkpt>
      <trkpt lat="45.70718" lon="4.02017">
        <ele>501.46</ele>
        <time>2015-03-07T11:42:17Z</time>
      </trkpt>
      <trkpt lat="45.70718" lon="4.02026">
        <ele>501.97</ele>
        <time>2015-03-07T11:42:19Z</time>
      </trkpt>
      <trkpt lat="45.70716" lon="4.02033">
        <ele>502.68</ele>
        <time>2015-03-07T11:42:21Z</time>
      </trkpt>
      <trkpt lat="45.70712" lon="4.02042">
        <ele>503.38</ele>
        <time>2015-03-07T11:42:23Z</time>
      </trkpt>
      <trkpt lat="45.70705" lon="4.02049">
        <ele>503.93</ele>
        <time>2015-03-07T11:42:25Z</time>
      </trkpt>
      <trkpt lat="45.70698" lon="4.02053">
        <ele>504.44</ele>
        <time>2015-03-07T11:42:27Z</time>
      </trkpt>
      <trkpt lat="45.70691" lon="4.02057">
        <ele>505.14</ele>
        <time>2015-03-07T11:42:29Z</time>
      </trkpt>
      <trkpt lat="45.70685" lon="4.02061">
        <ele>505.92</ele>
        <time>2015-03-07T11:42:31Z</time>
      </trkpt>
      <trkpt lat="45.70678" lon="4.02063">
        <ele>507.19</ele>
        <time>2015-03-07T11:42:33Z</time>
      </trkpt>
      <trkpt lat="45.70671" lon="4.02067">
        <ele>508.2</ele>
        <time>2015-03-07T11:42:35Z</time>
      </trkpt>
      <trkpt lat="45.70664" lon="4.0207">
        <ele>508.68</ele>
        <time>2015-03-07T11:42:37Z</time>
      </trkpt>
      <trkpt lat="45.70656" lon="4.02074">
        <ele>508.7</ele>
        <time>2015-03-07T11:42:39Z</time>
      </trkpt>
      <trkpt lat="45.7065" lon="4.02078">
        <ele>508.93</ele>
        <time>2015-03-07T11:42:41Z</time>
      </trkpt>
      <trkpt lat="45.70644" lon="4.0208">
        <ele>509.07</ele>
        <time>2015-03-07T11:42:43Z</time>
      </trkpt>
      <trkpt lat="45.70637" lon="4.02084">
        <ele>509.02</ele>
        <time>2015-03-07T11:42:45Z</time>
      </trkpt>
      <trkpt lat="45.70631" lon="4.02086">
        <ele>509.26</ele>
        <time>2015-03-07T11:42:47Z</time>
      </trkpt>
      <trkpt lat="45.70624" lon="4.02089">
        <ele>509.25</ele>
        <time>2015-03-07T11:42:49Z</time>
      </trkpt>
      <trkpt lat="45.70618" lon="4.02092">
        <ele>509.5</ele>
        <time>2015-03-07T11:42:51Z</time>
      </trkpt>
      <trkpt lat="45.70612" lon="4.02096">
        <ele>509.83</ele>
        <time>2015-03-07T11:42:53Z</time>
      </trkpt>
      <trkpt lat="45.70605" lon="4.02098">
        <ele>510.29</ele>
        <time>2015-03-07T11:42:55Z</time>
      </trkpt>
      <trkpt lat="45.70598" lon="4.021">
        <ele>510.43</ele>
        <time>2015-03-07T11:42:57Z</time>
      </trkpt>
      <trkpt lat="45.70591" lon="4.02102">
        <ele>510.29</ele>
        <time>2015-03-07T11:42:59Z</time>
      </trkpt>
      <trkpt lat="45.70583" lon="4.02106">
        <ele>510.06</ele>
        <time>2015-03-07T11:43:01Z</time>
      </trkpt>
      <trkpt lat="45.70575" lon="4.0211">
        <ele>509.52</ele>
        <time>2015-03-07T11:43:03Z</time>
      </trkpt>
      <trkpt lat="45.70567" lon="4.02114">
        <ele>508.99</ele>
        <time>2015-03-07T11:43:05Z</time>
      </trkpt>
      <trkpt lat="45.7056" lon="4.02119">
        <ele>508.36</ele>
        <time>2015-03-07T11:43:07Z</time>
      </trkpt>
      <trkpt lat="45.70553" lon="4.02127">
        <ele>507.72</ele>
        <time>2015-03-07T11:43:09Z</time>
      </trkpt>
      <trkpt lat="45.70549" lon="4.02131">
        <ele>507.43</ele>
        <time>2015-03-07T11:43:10Z</time>
      </trkpt>
      <trkpt lat="45.70545" lon="4.02135">
        <ele>507.09</ele>
        <time>2015-03-07T11:43:11Z</time>
      </trkpt>
      <trkpt lat="45.70541" lon="4.0214">
        <ele>506.77</ele>
        <time>2015-03-07T11:43:12Z</time>
      </trkpt>
      <trkpt lat="45.70538" lon="4.02145">
        <ele>506.46</ele>
        <time>2015-03-07T11:43:13Z</time>
      </trkpt>
      <trkpt lat="45.70534" lon="4.02151">
        <ele>506.25</ele>
        <time>2015-03-07T11:43:14Z</time>
      </trkpt>
      <trkpt lat="45.70531" lon="4.02158">
        <ele>506</ele>
        <time>2015-03-07T11:43:15Z</time>
      </trkpt>
      <trkpt lat="45.70528" lon="4.02164">
        <ele>505.72</ele>
        <time>2015-03-07T11:43:16Z</time>
      </trkpt>
      <trkpt lat="45.70525" lon="4.02171">
        <ele>505.43</ele>
        <time>2015-03-07T11:43:17Z</time>
      </trkpt>
      <trkpt lat="45.70521" lon="4.02178">
        <ele>505.19</ele>
        <time>2015-03-07T11:43:18Z</time>
      </trkpt>
      <trkpt lat="45.70517" lon="4.02184">
        <ele>505.02</ele>
        <time>2015-03-07T11:43:19Z</time>
      </trkpt>
      <trkpt lat="45.70513" lon="4.0219">
        <ele>504.78</ele>
        <time>2015-03-07T11:43:20Z</time>
      </trkpt>
      <trkpt lat="45.70509" lon="4.02194">
        <ele>504.56</ele>
        <time>2015-03-07T11:43:21Z</time>
      </trkpt>
      <trkpt lat="45.70504" lon="4.02198">
        <ele>504.5</ele>
        <time>2015-03-07T11:43:22Z</time>
      </trkpt>
      <trkpt lat="45.70499" lon="4.02201">
        <ele>504.47</ele>
        <time>2015-03-07T11:43:23Z</time>
      </trkpt>
      <trkpt lat="45.70495" lon="4.02204">
        <ele>504.41</ele>
        <time>2015-03-07T11:43:24Z</time>
      </trkpt>
      <trkpt lat="45.70488" lon="4.02209">
        <ele>504.56</ele>
        <time>2015-03-07T11:43:26Z</time>
      </trkpt>
      <trkpt lat="45.70482" lon="4.02212">
        <ele>504.77</ele>
        <time>2015-03-07T11:43:28Z</time>
      </trkpt>
      <trkpt lat="45.70476" lon="4.02216">
        <ele>504.78</ele>
        <time>2015-03-07T11:43:30Z</time>
      </trkpt>
      <trkpt lat="45.7047" lon="4.0222">
        <ele>504.68</ele>
        <time>2015-03-07T11:43:32Z</time>
      </trkpt>
      <trkpt lat="45.70465" lon="4.02227">
        <ele>504.7</ele>
        <time>2015-03-07T11:43:34Z</time>
      </trkpt>
      <trkpt lat="45.70458" lon="4.02234">
        <ele>504.46</ele>
        <time>2015-03-07T11:43:36Z</time>
      </trkpt>
      <trkpt lat="45.70454" lon="4.02238">
        <ele>504.25</ele>
        <time>2015-03-07T11:43:37Z</time>
      </trkpt>
      <trkpt lat="45.7045" lon="4.02242">
        <ele>504.05</ele>
        <time>2015-03-07T11:43:38Z</time>
      </trkpt>
      <trkpt lat="45.70446" lon="4.02246">
        <ele>503.85</ele>
        <time>2015-03-07T11:43:39Z</time>
      </trkpt>
      <trkpt lat="45.70441" lon="4.02251">
        <ele>503.69</ele>
        <time>2015-03-07T11:43:40Z</time>
      </trkpt>
      <trkpt lat="45.70436" lon="4.02255">
        <ele>503.57</ele>
        <time>2015-03-07T11:43:41Z</time>
      </trkpt>
      <trkpt lat="45.70432" lon="4.02259">
        <ele>503.46</ele>
        <time>2015-03-07T11:43:42Z</time>
      </trkpt>
      <trkpt lat="45.70427" lon="4.02264">
        <ele>503.3</ele>
        <time>2015-03-07T11:43:43Z</time>
      </trkpt>
      <trkpt lat="45.70423" lon="4.02268">
        <ele>503.22</ele>
        <time>2015-03-07T11:43:44Z</time>
      </trkpt>
      <trkpt lat="45.70418" lon="4.02273">
        <ele>503.08</ele>
        <time>2015-03-07T11:43:45Z</time>
      </trkpt>
      <trkpt lat="45.70413" lon="4.02277">
        <ele>502.96</ele>
        <time>2015-03-07T11:43:46Z</time>
      </trkpt>
      <trkpt lat="45.70409" lon="4.02281">
        <ele>502.8</ele>
        <time>2015-03-07T11:43:47Z</time>
      </trkpt>
      <trkpt lat="45.70404" lon="4.02285">
        <ele>502.67</ele>
        <time>2015-03-07T11:43:48Z</time>
      </trkpt>
      <trkpt lat="45.70399" lon="4.02289">
        <ele>502.56</ele>
        <time>2015-03-07T11:43:49Z</time>
      </trkpt>
      <trkpt lat="45.70394" lon="4.02294">
        <ele>502.4</ele>
        <time>2015-03-07T11:43:50Z</time>
      </trkpt>
      <trkpt lat="45.7039" lon="4.02298">
        <ele>502.22</ele>
        <time>2015-03-07T11:43:51Z</time>
      </trkpt>
      <trkpt lat="45.70385" lon="4.02302">
        <ele>501.93</ele>
        <time>2015-03-07T11:43:52Z</time>
      </trkpt>
      <trkpt lat="45.7038" lon="4.02306">
        <ele>501.64</ele>
        <time>2015-03-07T11:43:53Z</time>
      </trkpt>
      <trkpt lat="45.70376" lon="4.02311">
        <ele>501.44</ele>
        <time>2015-03-07T11:43:54Z</time>
      </trkpt>
      <trkpt lat="45.70371" lon="4.02316">
        <ele>501.19</ele>
        <time>2015-03-07T11:43:55Z</time>
      </trkpt>
      <trkpt lat="45.70366" lon="4.0232">
        <ele>500.92</ele>
        <time>2015-03-07T11:43:56Z</time>
      </trkpt>
      <trkpt lat="45.70362" lon="4.02325">
        <ele>500.68</ele>
        <time>2015-03-07T11:43:57Z</time>
      </trkpt>
      <trkpt lat="45.70357" lon="4.02329">
        <ele>500.41</ele>
        <time>2015-03-07T11:43:58Z</time>
      </trkpt>
      <trkpt lat="45.70352" lon="4.02334">
        <ele>500.18</ele>
        <time>2015-03-07T11:43:59Z</time>
      </trkpt>
      <trkpt lat="45.70347" lon="4.02339">
        <ele>499.96</ele>
        <time>2015-03-07T11:44:00Z</time>
      </trkpt>
      <trkpt lat="45.70342" lon="4.02343">
        <ele>499.7</ele>
        <time>2015-03-07T11:44:01Z</time>
      </trkpt>
      <trkpt lat="45.70337" lon="4.02348">
        <ele>499.47</ele>
        <time>2015-03-07T11:44:02Z</time>
      </trkpt>
      <trkpt lat="45.70332" lon="4.02353">
        <ele>499.21</ele>
        <time>2015-03-07T11:44:03Z</time>
      </trkpt>
      <trkpt lat="45.70326" lon="4.02357">
        <ele>498.93</ele>
        <time>2015-03-07T11:44:04Z</time>
      </trkpt>
      <trkpt lat="45.70321" lon="4.0236">
        <ele>498.74</ele>
        <time>2015-03-07T11:44:05Z</time>
      </trkpt>
      <trkpt lat="45.70315" lon="4.02363">
        <ele>498.54</ele>
        <time>2015-03-07T11:44:06Z</time>
      </trkpt>
      <trkpt lat="45.70308" lon="4.02365">
        <ele>498.24</ele>
        <time>2015-03-07T11:44:07Z</time>
      </trkpt>
      <trkpt lat="45.70301" lon="4.02365">
        <ele>497.94</ele>
        <time>2015-03-07T11:44:08Z</time>
      </trkpt>
      <trkpt lat="45.70295" lon="4.02364">
        <ele>497.59</ele>
        <time>2015-03-07T11:44:09Z</time>
      </trkpt>
      <trkpt lat="45.70288" lon="4.02364">
        <ele>497.27</ele>
        <time>2015-03-07T11:44:10Z</time>
      </trkpt>
      <trkpt lat="45.70282" lon="4.02367">
        <ele>497.06</ele>
        <time>2015-03-07T11:44:11Z</time>
      </trkpt>
      <trkpt lat="45.70277" lon="4.02371">
        <ele>496.95</ele>
        <time>2015-03-07T11:44:12Z</time>
      </trkpt>
      <trkpt lat="45.70273" lon="4.02376">
        <ele>496.8</ele>
        <time>2015-03-07T11:44:13Z</time>
      </trkpt>
      <trkpt lat="45.7027" lon="4.02381">
        <ele>496.62</ele>
        <time>2015-03-07T11:44:14Z</time>
      </trkpt>
      <trkpt lat="45.70268" lon="4.02387">
        <ele>496.58</ele>
        <time>2015-03-07T11:44:15Z</time>
      </trkpt>
      <trkpt lat="45.70265" lon="4.02394">
        <ele>496.76</ele>
        <time>2015-03-07T11:44:16Z</time>
      </trkpt>
      <trkpt lat="45.70263" lon="4.024">
        <ele>497</ele>
        <time>2015-03-07T11:44:17Z</time>
      </trkpt>
      <trkpt lat="45.70261" lon="4.02407">
        <ele>497.17</ele>
        <time>2015-03-07T11:44:18Z</time>
      </trkpt>
      <trkpt lat="45.70259" lon="4.02419">
        <ele>497.08</ele>
        <time>2015-03-07T11:44:20Z</time>
      </trkpt>
      <trkpt lat="45.70257" lon="4.02425">
        <ele>497.06</ele>
        <time>2015-03-07T11:44:21Z</time>
      </trkpt>
      <trkpt lat="45.70255" lon="4.02431">
        <ele>497.1</ele>
        <time>2015-03-07T11:44:22Z</time>
      </trkpt>
      <trkpt lat="45.70252" lon="4.02443">
        <ele>497.11</ele>
        <time>2015-03-07T11:44:24Z</time>
      </trkpt>
      <trkpt lat="45.70249" lon="4.02454">
        <ele>496.89</ele>
        <time>2015-03-07T11:44:26Z</time>
      </trkpt>
      <trkpt lat="45.70246" lon="4.02465">
        <ele>496.48</ele>
        <time>2015-03-07T11:44:28Z</time>
      </trkpt>
      <trkpt lat="45.70241" lon="4.02475">
        <ele>496.03</ele>
        <time>2015-03-07T11:44:30Z</time>
      </trkpt>
      <trkpt lat="45.70238" lon="4.0248">
        <ele>495.89</ele>
        <time>2015-03-07T11:44:31Z</time>
      </trkpt>
      <trkpt lat="45.70235" lon="4.02485">
        <ele>495.82</ele>
        <time>2015-03-07T11:44:32Z</time>
      </trkpt>
      <trkpt lat="45.70229" lon="4.02494">
        <ele>495.79</ele>
        <time>2015-03-07T11:44:34Z</time>
      </trkpt>
      <trkpt lat="45.70222" lon="4.02501">
        <ele>495.88</ele>
        <time>2015-03-07T11:44:36Z</time>
      </trkpt>
      <trkpt lat="45.70215" lon="4.02508">
        <ele>496.18</ele>
        <time>2015-03-07T11:44:38Z</time>
      </trkpt>
      <trkpt lat="45.70207" lon="4.02514">
        <ele>496.5</ele>
        <time>2015-03-07T11:44:40Z</time>
      </trkpt>
      <trkpt lat="45.702" lon="4.02519">
        <ele>496.93</ele>
        <time>2015-03-07T11:44:42Z</time>
      </trkpt>
      <trkpt lat="45.70193" lon="4.02525">
        <ele>497.17</ele>
        <time>2015-03-07T11:44:44Z</time>
      </trkpt>
      <trkpt lat="45.70187" lon="4.02532">
        <ele>497.35</ele>
        <time>2015-03-07T11:44:46Z</time>
      </trkpt>
      <trkpt lat="45.70182" lon="4.0254">
        <ele>497.47</ele>
        <time>2015-03-07T11:44:48Z</time>
      </trkpt>
      <trkpt lat="45.70176" lon="4.02546">
        <ele>497.73</ele>
        <time>2015-03-07T11:44:50Z</time>
      </trkpt>
      <trkpt lat="45.7017" lon="4.02553">
        <ele>498.11</ele>
        <time>2015-03-07T11:44:52Z</time>
      </trkpt>
      <trkpt lat="45.70164" lon="4.0256">
        <ele>498.54</ele>
        <time>2015-03-07T11:44:54Z</time>
      </trkpt>
      <trkpt lat="45.70158" lon="4.02567">
        <ele>498.92</ele>
        <time>2015-03-07T11:44:56Z</time>
      </trkpt>
      <trkpt lat="45.70152" lon="4.02573">
        <ele>499.41</ele>
        <time>2015-03-07T11:44:58Z</time>
      </trkpt>
      <trkpt lat="45.70146" lon="4.0258">
        <ele>499.79</ele>
        <time>2015-03-07T11:45:00Z</time>
      </trkpt>
      <trkpt lat="45.7014" lon="4.02587">
        <ele>500.15</ele>
        <time>2015-03-07T11:45:02Z</time>
      </trkpt>
      <trkpt lat="45.70133" lon="4.02595">
        <ele>500.47</ele>
        <time>2015-03-07T11:45:04Z</time>
      </trkpt>
      <trkpt lat="45.70127" lon="4.02602">
        <ele>500.68</ele>
        <time>2015-03-07T11:45:06Z</time>
      </trkpt>
      <trkpt lat="45.7012" lon="4.02609">
        <ele>500.93</ele>
        <time>2015-03-07T11:45:08Z</time>
      </trkpt>
      <trkpt lat="45.70114" lon="4.02617">
        <ele>501.14</ele>
        <time>2015-03-07T11:45:10Z</time>
      </trkpt>
      <trkpt lat="45.70108" lon="4.02626">
        <ele>501.42</ele>
        <time>2015-03-07T11:45:12Z</time>
      </trkpt>
      <trkpt lat="45.70104" lon="4.02631">
        <ele>501.53</ele>
        <time>2015-03-07T11:45:13Z</time>
      </trkpt>
      <trkpt lat="45.70099" lon="4.0264">
        <ele>501.79</ele>
        <time>2015-03-07T11:45:15Z</time>
      </trkpt>
      <trkpt lat="45.70094" lon="4.02649">
        <ele>501.98</ele>
        <time>2015-03-07T11:45:17Z</time>
      </trkpt>
      <trkpt lat="45.70089" lon="4.02657">
        <ele>502.3</ele>
        <time>2015-03-07T11:45:19Z</time>
      </trkpt>
      <trkpt lat="45.70084" lon="4.02663">
        <ele>502.61</ele>
        <time>2015-03-07T11:45:21Z</time>
      </trkpt>
      <trkpt lat="45.70078" lon="4.0267">
        <ele>503.04</ele>
        <time>2015-03-07T11:45:23Z</time>
      </trkpt>
      <trkpt lat="45.70074" lon="4.02675">
        <ele>503.49</ele>
        <time>2015-03-07T11:45:25Z</time>
      </trkpt>
      <trkpt lat="45.70069" lon="4.02681">
        <ele>503.96</ele>
        <time>2015-03-07T11:45:27Z</time>
      </trkpt>
      <trkpt lat="45.70064" lon="4.02686">
        <ele>504.32</ele>
        <time>2015-03-07T11:45:29Z</time>
      </trkpt>
      <trkpt lat="45.70059" lon="4.02691">
        <ele>504.81</ele>
        <time>2015-03-07T11:45:31Z</time>
      </trkpt>
      <trkpt lat="45.70054" lon="4.02696">
        <ele>505.24</ele>
        <time>2015-03-07T11:45:33Z</time>
      </trkpt>
      <trkpt lat="45.70048" lon="4.02701">
        <ele>505.62</ele>
        <time>2015-03-07T11:45:35Z</time>
      </trkpt>
      <trkpt lat="45.70042" lon="4.02705">
        <ele>505.89</ele>
        <time>2015-03-07T11:45:37Z</time>
      </trkpt>
      <trkpt lat="45.70037" lon="4.0271">
        <ele>505.8</ele>
        <time>2015-03-07T11:45:39Z</time>
      </trkpt>
      <trkpt lat="45.70032" lon="4.02713">
        <ele>506.01</ele>
        <time>2015-03-07T11:45:41Z</time>
      </trkpt>
      <trkpt lat="45.70027" lon="4.02715">
        <ele>506.43</ele>
        <time>2015-03-07T11:45:44Z</time>
      </trkpt>
      <trkpt lat="45.70022" lon="4.02718">
        <ele>506.62</ele>
        <time>2015-03-07T11:45:47Z</time>
      </trkpt>
      <trkpt lat="45.70017" lon="4.02721">
        <ele>506.9</ele>
        <time>2015-03-07T11:45:50Z</time>
      </trkpt>
      <trkpt lat="45.70012" lon="4.02723">
        <ele>506.98</ele>
        <time>2015-03-07T11:45:52Z</time>
      </trkpt>
      <trkpt lat="45.70007" lon="4.02726">
        <ele>507.23</ele>
        <time>2015-03-07T11:45:54Z</time>
      </trkpt>
      <trkpt lat="45.70002" lon="4.02726">
        <ele>507.34</ele>
        <time>2015-03-07T11:45:56Z</time>
      </trkpt>
      <trkpt lat="45.69998" lon="4.02726">
        <ele>507.49</ele>
        <time>2015-03-07T11:45:58Z</time>
      </trkpt>
      <trkpt lat="45.69994" lon="4.02723">
        <ele>507.66</ele>
        <time>2015-03-07T11:46:00Z</time>
      </trkpt>
      <trkpt lat="45.69991" lon="4.02718">
        <ele>507.97</ele>
        <time>2015-03-07T11:46:02Z</time>
      </trkpt>
      <trkpt lat="45.69987" lon="4.0271">
        <ele>508.26</ele>
        <time>2015-03-07T11:46:05Z</time>
      </trkpt>
      <trkpt lat="45.69984" lon="4.02703">
        <ele>508.97</ele>
        <time>2015-03-07T11:46:08Z</time>
      </trkpt>
      <trkpt lat="45.69981" lon="4.02697">
        <ele>509.8</ele>
        <time>2015-03-07T11:46:10Z</time>
      </trkpt>
      <trkpt lat="45.69978" lon="4.02691">
        <ele>510.26</ele>
        <time>2015-03-07T11:46:12Z</time>
      </trkpt>
      <trkpt lat="45.69975" lon="4.02685">
        <ele>510.7</ele>
        <time>2015-03-07T11:46:14Z</time>
      </trkpt>
      <trkpt lat="45.69973" lon="4.0268">
        <ele>510.93</ele>
        <time>2015-03-07T11:46:16Z</time>
      </trkpt>
      <trkpt lat="45.6997" lon="4.02674">
        <ele>511.12</ele>
        <time>2015-03-07T11:46:18Z</time>
      </trkpt>
      <trkpt lat="45.69968" lon="4.02669">
        <ele>511.26</ele>
        <time>2015-03-07T11:46:20Z</time>
      </trkpt>
      <trkpt lat="45.69963" lon="4.02661">
        <ele>511.72</ele>
        <time>2015-03-07T11:46:23Z</time>
      </trkpt>
      <trkpt lat="45.69961" lon="4.02656">
        <ele>512.06</ele>
        <time>2015-03-07T11:46:25Z</time>
      </trkpt>
      <trkpt lat="45.69956" lon="4.02649">
        <ele>512.7</ele>
        <time>2015-03-07T11:46:28Z</time>
      </trkpt>
      <trkpt lat="45.69951" lon="4.02644">
        <ele>513.46</ele>
        <time>2015-03-07T11:46:31Z</time>
      </trkpt>
      <trkpt lat="45.69945" lon="4.02643">
        <ele>514.35</ele>
        <time>2015-03-07T11:46:34Z</time>
      </trkpt>
      <trkpt lat="45.69938" lon="4.02642">
        <ele>514.98</ele>
        <time>2015-03-07T11:46:37Z</time>
      </trkpt>
      <trkpt lat="45.69932" lon="4.02641">
        <ele>515</ele>
        <time>2015-03-07T11:46:40Z</time>
      </trkpt>
      <trkpt lat="45.69926" lon="4.0264">
        <ele>514.7</ele>
        <time>2015-03-07T11:46:43Z</time>
      </trkpt>
      <trkpt lat="45.6992" lon="4.02637">
        <ele>514.79</ele>
        <time>2015-03-07T11:46:46Z</time>
      </trkpt>
      <trkpt lat="45.69914" lon="4.02634">
        <ele>515.01</ele>
        <time>2015-03-07T11:46:49Z</time>
      </trkpt>
      <trkpt lat="45.69908" lon="4.02633">
        <ele>515.91</ele>
        <time>2015-03-07T11:46:53Z</time>
      </trkpt>
      <trkpt lat="45.69902" lon="4.02625">
        <ele>517.14</ele>
        <time>2015-03-07T11:47:03Z</time>
      </trkpt>
      <trkpt lat="45.69904" lon="4.02618">
        <ele>518.91</ele>
        <time>2015-03-07T11:47:07Z</time>
      </trkpt>
      <trkpt lat="45.69906" lon="4.0261">
        <ele>519.61</ele>
        <time>2015-03-07T11:47:10Z</time>
      </trkpt>
      <trkpt lat="45.69903" lon="4.02602">
        <ele>520.18</ele>
        <time>2015-03-07T11:47:13Z</time>
      </trkpt>
      <trkpt lat="45.69898" lon="4.02598">
        <ele>520.75</ele>
        <time>2015-03-07T11:47:16Z</time>
      </trkpt>
      <trkpt lat="45.69893" lon="4.02594">
        <ele>521.27</ele>
        <time>2015-03-07T11:47:19Z</time>
      </trkpt>
      <trkpt lat="45.69887" lon="4.02592">
        <ele>521.32</ele>
        <time>2015-03-07T11:47:22Z</time>
      </trkpt>
      <trkpt lat="45.69882" lon="4.02589">
        <ele>521.53</ele>
        <time>2015-03-07T11:47:25Z</time>
      </trkpt>
      <trkpt lat="45.69876" lon="4.02587">
        <ele>521.84</ele>
        <time>2015-03-07T11:47:28Z</time>
      </trkpt>
      <trkpt lat="45.6987" lon="4.02587">
        <ele>522.13</ele>
        <time>2015-03-07T11:47:31Z</time>
      </trkpt>
      <trkpt lat="45.69864" lon="4.02584">
        <ele>522.24</ele>
        <time>2015-03-07T11:47:34Z</time>
      </trkpt>
      <trkpt lat="45.69858" lon="4.02582">
        <ele>522.86</ele>
        <time>2015-03-07T11:47:37Z</time>
      </trkpt>
      <trkpt lat="45.69852" lon="4.02579">
        <ele>523.68</ele>
        <time>2015-03-07T11:47:40Z</time>
      </trkpt>
      <trkpt lat="45.69846" lon="4.02575">
        <ele>525.1</ele>
        <time>2015-03-07T11:47:43Z</time>
      </trkpt>
      <trkpt lat="45.6984" lon="4.02572">
        <ele>525.85</ele>
        <time>2015-03-07T11:47:46Z</time>
      </trkpt>
      <trkpt lat="45.69836" lon="4.0257">
        <ele>526.07</ele>
        <time>2015-03-07T11:47:48Z</time>
      </trkpt>
      <trkpt lat="45.69832" lon="4.02567">
        <ele>526.33</ele>
        <time>2015-03-07T11:47:50Z</time>
      </trkpt>
      <trkpt lat="45.69826" lon="4.02562">
        <ele>526.63</ele>
        <time>2015-03-07T11:47:53Z</time>
      </trkpt>
      <trkpt lat="45.69822" lon="4.0256">
        <ele>526.99</ele>
        <time>2015-03-07T11:47:55Z</time>
      </trkpt>
      <trkpt lat="45.69816" lon="4.02556">
        <ele>527.39</ele>
        <time>2015-03-07T11:47:58Z</time>
      </trkpt>
      <trkpt lat="45.69811" lon="4.02551">
        <ele>527.94</ele>
        <time>2015-03-07T11:48:01Z</time>
      </trkpt>
      <trkpt lat="45.69806" lon="4.02546">
        <ele>528.63</ele>
        <time>2015-03-07T11:48:04Z</time>
      </trkpt>
      <trkpt lat="45.69802" lon="4.02539">
        <ele>529.19</ele>
        <time>2015-03-07T11:48:07Z</time>
      </trkpt>
      <trkpt lat="45.69801" lon="4.02532">
        <ele>529.89</ele>
        <time>2015-03-07T11:48:10Z</time>
      </trkpt>
      <trkpt lat="45.69802" lon="4.02524">
        <ele>530.5</ele>
        <time>2015-03-07T11:48:13Z</time>
      </trkpt>
      <trkpt lat="45.69802" lon="4.02516">
        <ele>531.14</ele>
        <time>2015-03-07T11:48:16Z</time>
      </trkpt>
      <trkpt lat="45.69802" lon="4.02508">
        <ele>531.64</ele>
        <time>2015-03-07T11:48:19Z</time>
      </trkpt>
      <trkpt lat="45.69802" lon="4.02501">
        <ele>531.99</ele>
        <time>2015-03-07T11:48:22Z</time>
      </trkpt>
      <trkpt lat="45.69802" lon="4.02491">
        <ele>532.84</ele>
        <time>2015-03-07T11:48:25Z</time>
      </trkpt>
      <trkpt lat="45.69802" lon="4.02484">
        <ele>533.67</ele>
        <time>2015-03-07T11:48:28Z</time>
      </trkpt>
      <trkpt lat="45.698" lon="4.02477">
        <ele>534.36</ele>
        <time>2015-03-07T11:48:31Z</time>
      </trkpt>
      <trkpt lat="45.69795" lon="4.02472">
        <ele>534.73</ele>
        <time>2015-03-07T11:48:34Z</time>
      </trkpt>
      <trkpt lat="45.6979" lon="4.02468">
        <ele>535.24</ele>
        <time>2015-03-07T11:48:37Z</time>
      </trkpt>
      <trkpt lat="45.69784" lon="4.02465">
        <ele>535.64</ele>
        <time>2015-03-07T11:48:40Z</time>
      </trkpt>
      <trkpt lat="45.69779" lon="4.02464">
        <ele>535.77</ele>
        <time>2015-03-07T11:48:42Z</time>
      </trkpt>
      <trkpt lat="45.69774" lon="4.02461">
        <ele>535.9</ele>
        <time>2015-03-07T11:48:44Z</time>
      </trkpt>
      <trkpt lat="45.69769" lon="4.02461">
        <ele>535.98</ele>
        <time>2015-03-07T11:48:46Z</time>
      </trkpt>
      <trkpt lat="45.69764" lon="4.0246">
        <ele>536.48</ele>
        <time>2015-03-07T11:48:48Z</time>
      </trkpt>
      <trkpt lat="45.69759" lon="4.02458">
        <ele>537.1</ele>
        <time>2015-03-07T11:48:50Z</time>
      </trkpt>
      <trkpt lat="45.69755" lon="4.02454">
        <ele>537.86</ele>
        <time>2015-03-07T11:48:52Z</time>
      </trkpt>
      <trkpt lat="45.69751" lon="4.02448">
        <ele>538.63</ele>
        <time>2015-03-07T11:48:55Z</time>
      </trkpt>
      <trkpt lat="45.6975" lon="4.0244">
        <ele>539.22</ele>
        <time>2015-03-07T11:48:58Z</time>
      </trkpt>
      <trkpt lat="45.6975" lon="4.02433">
        <ele>539.75</ele>
        <time>2015-03-07T11:49:01Z</time>
      </trkpt>
      <trkpt lat="45.69751" lon="4.02424">
        <ele>540.42</ele>
        <time>2015-03-07T11:49:04Z</time>
      </trkpt>
      <trkpt lat="45.69753" lon="4.02416">
        <ele>540.95</ele>
        <time>2015-03-07T11:49:07Z</time>
      </trkpt>
      <trkpt lat="45.69756" lon="4.02409">
        <ele>541.25</ele>
        <time>2015-03-07T11:49:10Z</time>
      </trkpt>
      <trkpt lat="45.69759" lon="4.02404">
        <ele>541.23</ele>
        <time>2015-03-07T11:49:13Z</time>
      </trkpt>
      <trkpt lat="45.69762" lon="4.02398">
        <ele>541.79</ele>
        <time>2015-03-07T11:50:11Z</time>
      </trkpt>
      <trkpt lat="45.69766" lon="4.02391">
        <ele>542.54</ele>
        <time>2015-03-07T11:50:14Z</time>
      </trkpt>
      <trkpt lat="45.69771" lon="4.02385">
        <ele>543.53</ele>
        <time>2015-03-07T11:50:17Z</time>
      </trkpt>
      <trkpt lat="45.69775" lon="4.02383">
        <ele>544.22</ele>
        <time>2015-03-07T11:50:19Z</time>
      </trkpt>
      <trkpt lat="45.69781" lon="4.0238">
        <ele>545.09</ele>
        <time>2015-03-07T11:50:22Z</time>
      </trkpt>
      <trkpt lat="45.69785" lon="4.02376">
        <ele>545.89</ele>
        <time>2015-03-07T11:50:25Z</time>
      </trkpt>
      <trkpt lat="45.6979" lon="4.02373">
        <ele>547.12</ele>
        <time>2015-03-07T11:50:28Z</time>
      </trkpt>
      <trkpt lat="45.69796" lon="4.02371">
        <ele>548.18</ele>
        <time>2015-03-07T11:50:31Z</time>
      </trkpt>
      <trkpt lat="45.69802" lon="4.0237">
        <ele>549.16</ele>
        <time>2015-03-07T11:50:34Z</time>
      </trkpt>
      <trkpt lat="45.69808" lon="4.02369">
        <ele>549.87</ele>
        <time>2015-03-07T11:50:37Z</time>
      </trkpt>
      <trkpt lat="45.69814" lon="4.02367">
        <ele>550.36</ele>
        <time>2015-03-07T11:50:40Z</time>
      </trkpt>
      <trkpt lat="45.6982" lon="4.02368">
        <ele>550.9</ele>
        <time>2015-03-07T11:50:43Z</time>
      </trkpt>
      <trkpt lat="45.69825" lon="4.02367">
        <ele>551.28</ele>
        <time>2015-03-07T11:50:46Z</time>
      </trkpt>
      <trkpt lat="45.69831" lon="4.02364">
        <ele>551.84</ele>
        <time>2015-03-07T11:50:49Z</time>
      </trkpt>
      <trkpt lat="45.69837" lon="4.02363">
        <ele>552.79</ele>
        <time>2015-03-07T11:50:52Z</time>
      </trkpt>
      <trkpt lat="45.69842" lon="4.02362">
        <ele>553.53</ele>
        <time>2015-03-07T11:50:55Z</time>
      </trkpt>
      <trkpt lat="45.69848" lon="4.02361">
        <ele>554.37</ele>
        <time>2015-03-07T11:50:58Z</time>
      </trkpt>
      <trkpt lat="45.69854" lon="4.0236">
        <ele>554.98</ele>
        <time>2015-03-07T11:51:01Z</time>
      </trkpt>
      <trkpt lat="45.69859" lon="4.02359">
        <ele>555.6</ele>
        <time>2015-03-07T11:51:04Z</time>
      </trkpt>
      <trkpt lat="45.69864" lon="4.02358">
        <ele>556.18</ele>
        <time>2015-03-07T11:51:07Z</time>
      </trkpt>
      <trkpt lat="45.69869" lon="4.02357">
        <ele>556.65</ele>
        <time>2015-03-07T11:51:10Z</time>
      </trkpt>
      <trkpt lat="45.69875" lon="4.02357">
        <ele>557.61</ele>
        <time>2015-03-07T11:51:14Z</time>
      </trkpt>
      <trkpt lat="45.6988" lon="4.02357">
        <ele>558.6</ele>
        <time>2015-03-07T11:51:17Z</time>
      </trkpt>
      <trkpt lat="45.69885" lon="4.02356">
        <ele>559.21</ele>
        <time>2015-03-07T11:51:20Z</time>
      </trkpt>
      <trkpt lat="45.69896" lon="4.02354">
        <ele>560.63</ele>
        <time>2015-03-07T11:51:28Z</time>
      </trkpt>
      <trkpt lat="45.69901" lon="4.02352">
        <ele>560.97</ele>
        <time>2015-03-07T11:51:31Z</time>
      </trkpt>
      <trkpt lat="45.69906" lon="4.02351">
        <ele>561.48</ele>
        <time>2015-03-07T11:51:34Z</time>
      </trkpt>
      <trkpt lat="45.69911" lon="4.02351">
        <ele>561.99</ele>
        <time>2015-03-07T11:51:37Z</time>
      </trkpt>
      <trkpt lat="45.69917" lon="4.02351">
        <ele>562.99</ele>
        <time>2015-03-07T11:51:40Z</time>
      </trkpt>
      <trkpt lat="45.69922" lon="4.0235">
        <ele>563.54</ele>
        <time>2015-03-07T11:51:43Z</time>
      </trkpt>
      <trkpt lat="45.69927" lon="4.02348">
        <ele>564.17</ele>
        <time>2015-03-07T11:51:47Z</time>
      </trkpt>
      <trkpt lat="45.69932" lon="4.02348">
        <ele>564.27</ele>
        <time>2015-03-07T11:51:50Z</time>
      </trkpt>
      <trkpt lat="45.69937" lon="4.02351">
        <ele>564.4</ele>
        <time>2015-03-07T11:51:52Z</time>
      </trkpt>
      <trkpt lat="45.69942" lon="4.02351">
        <ele>564.14</ele>
        <time>2015-03-07T11:51:57Z</time>
      </trkpt>
      <trkpt lat="45.69937" lon="4.02346">
        <ele>565.14</ele>
        <time>2015-03-07T11:52:32Z</time>
      </trkpt>
      <trkpt lat="45.69932" lon="4.02347">
        <ele>565.54</ele>
        <time>2015-03-07T11:52:34Z</time>
      </trkpt>
      <trkpt lat="45.69926" lon="4.02348">
        <ele>565.34</ele>
        <time>2015-03-07T11:52:36Z</time>
      </trkpt>
      <trkpt lat="45.6992" lon="4.02352">
        <ele>565.53</ele>
        <time>2015-03-07T11:52:41Z</time>
      </trkpt>
      <trkpt lat="45.69918" lon="4.02345">
        <ele>565.23</ele>
        <time>2015-03-07T11:52:44Z</time>
      </trkpt>
      <trkpt lat="45.69923" lon="4.02342">
        <ele>565.1</ele>
        <time>2015-03-07T11:52:47Z</time>
      </trkpt>
      <trkpt lat="45.69929" lon="4.0234">
        <ele>564.53</ele>
        <time>2015-03-07T11:52:50Z</time>
      </trkpt>
      <trkpt lat="45.69934" lon="4.0234">
        <ele>564.26</ele>
        <time>2015-03-07T11:52:52Z</time>
      </trkpt>
      <trkpt lat="45.6994" lon="4.02339">
        <ele>564.2</ele>
        <time>2015-03-07T11:52:54Z</time>
      </trkpt>
      <trkpt lat="45.69948" lon="4.02338">
        <ele>564.06</ele>
        <time>2015-03-07T11:52:56Z</time>
      </trkpt>
      <trkpt lat="45.69954" lon="4.02339">
        <ele>563.67</ele>
        <time>2015-03-07T11:52:58Z</time>
      </trkpt>
      <trkpt lat="45.69963" lon="4.02343">
        <ele>562.83</ele>
        <time>2015-03-07T11:53:00Z</time>
      </trkpt>
      <trkpt lat="45.69969" lon="4.02346">
        <ele>562.06</ele>
        <time>2015-03-07T11:53:02Z</time>
      </trkpt>
      <trkpt lat="45.69973" lon="4.02349">
        <ele>562.07</ele>
        <time>2015-03-07T11:53:04Z</time>
      </trkpt>
      <trkpt lat="45.69982" lon="4.02342">
        <ele>562.34</ele>
        <time>2015-03-07T11:53:17Z</time>
      </trkpt>
      <trkpt lat="45.69987" lon="4.02334">
        <ele>562.67</ele>
        <time>2015-03-07T11:53:20Z</time>
      </trkpt>
      <trkpt lat="45.69992" lon="4.02332">
        <ele>562.3</ele>
        <time>2015-03-07T11:53:23Z</time>
      </trkpt>
      <trkpt lat="45.69998" lon="4.02337">
        <ele>561.38</ele>
        <time>2015-03-07T11:53:26Z</time>
      </trkpt>
      <trkpt lat="45.70001" lon="4.02345">
        <ele>559.5</ele>
        <time>2015-03-07T11:53:28Z</time>
      </trkpt>
      <trkpt lat="45.70004" lon="4.02355">
        <ele>558.21</ele>
        <time>2015-03-07T11:53:30Z</time>
      </trkpt>
      <trkpt lat="45.70006" lon="4.02361">
        <ele>557.88</ele>
        <time>2015-03-07T11:53:31Z</time>
      </trkpt>
      <trkpt lat="45.70008" lon="4.02368">
        <ele>557.46</ele>
        <time>2015-03-07T11:53:32Z</time>
      </trkpt>
      <trkpt lat="45.7001" lon="4.02376">
        <ele>557.15</ele>
        <time>2015-03-07T11:53:33Z</time>
      </trkpt>
      <trkpt lat="45.70012" lon="4.02387">
        <ele>556.4</ele>
        <time>2015-03-07T11:53:35Z</time>
      </trkpt>
      <trkpt lat="45.70013" lon="4.02394">
        <ele>556.16</ele>
        <time>2015-03-07T11:53:37Z</time>
      </trkpt>
      <trkpt lat="45.70014" lon="4.02401">
        <ele>556.22</ele>
        <time>2015-03-07T11:53:39Z</time>
      </trkpt>
      <trkpt lat="45.70015" lon="4.0241">
        <ele>555.41</ele>
        <time>2015-03-07T11:53:41Z</time>
      </trkpt>
      <trkpt lat="45.70017" lon="4.02418">
        <ele>554.36</ele>
        <time>2015-03-07T11:53:43Z</time>
      </trkpt>
      <trkpt lat="45.70018" lon="4.02427">
        <ele>553.22</ele>
        <time>2015-03-07T11:53:45Z</time>
      </trkpt>
      <trkpt lat="45.70017" lon="4.02433">
        <ele>552.56</ele>
        <time>2015-03-07T11:53:47Z</time>
      </trkpt>
      <trkpt lat="45.70016" lon="4.0244">
        <ele>551.62</ele>
        <time>2015-03-07T11:53:49Z</time>
      </trkpt>
      <trkpt lat="45.70013" lon="4.02446">
        <ele>550.51</ele>
        <time>2015-03-07T11:53:51Z</time>
      </trkpt>
      <trkpt lat="45.70009" lon="4.02451">
        <ele>549.24</ele>
        <time>2015-03-07T11:53:53Z</time>
      </trkpt>
      <trkpt lat="45.70004" lon="4.02455">
        <ele>548.42</ele>
        <time>2015-03-07T11:53:55Z</time>
      </trkpt>
      <trkpt lat="45.69999" lon="4.02457">
        <ele>547.91</ele>
        <time>2015-03-07T11:53:57Z</time>
      </trkpt>
      <trkpt lat="45.69996" lon="4.02464">
        <ele>548.05</ele>
        <time>2015-03-07T11:54:00Z</time>
      </trkpt>
      <trkpt lat="45.69994" lon="4.02472">
        <ele>547.24</ele>
        <time>2015-03-07T11:54:10Z</time>
      </trkpt>
      <trkpt lat="45.69991" lon="4.02478">
        <ele>546.22</ele>
        <time>2015-03-07T11:54:13Z</time>
      </trkpt>
      <trkpt lat="45.69988" lon="4.02484">
        <ele>545.02</ele>
        <time>2015-03-07T11:54:24Z</time>
      </trkpt>
      <trkpt lat="45.69987" lon="4.02491">
        <ele>544.48</ele>
        <time>2015-03-07T11:54:27Z</time>
      </trkpt>
      <trkpt lat="45.69985" lon="4.02499">
        <ele>543.59</ele>
        <time>2015-03-07T11:54:30Z</time>
      </trkpt>
      <trkpt lat="45.6998" lon="4.02501">
        <ele>542.59</ele>
        <time>2015-03-07T11:54:33Z</time>
      </trkpt>
      <trkpt lat="45.69975" lon="4.02503">
        <ele>541.25</ele>
        <time>2015-03-07T11:54:40Z</time>
      </trkpt>
      <trkpt lat="45.6997" lon="4.02508">
        <ele>541.08</ele>
        <time>2015-03-07T11:54:43Z</time>
      </trkpt>
      <trkpt lat="45.69964" lon="4.02509">
        <ele>538.34</ele>
        <time>2015-03-07T11:58:12Z</time>
      </trkpt>
      <trkpt lat="45.69958" lon="4.02511">
        <ele>536.12</ele>
        <time>2015-03-07T11:58:15Z</time>
      </trkpt>
      <trkpt lat="45.69952" lon="4.02515">
        <ele>535.47</ele>
        <time>2015-03-07T11:58:18Z</time>
      </trkpt>
      <trkpt lat="45.69947" lon="4.02518">
        <ele>535.37</ele>
        <time>2015-03-07T11:58:20Z</time>
      </trkpt>
      <trkpt lat="45.69943" lon="4.02522">
        <ele>535.25</ele>
        <time>2015-03-07T11:58:22Z</time>
      </trkpt>
      <trkpt lat="45.6994" lon="4.02529">
        <ele>535.17</ele>
        <time>2015-03-07T11:58:24Z</time>
      </trkpt>
      <trkpt lat="45.69937" lon="4.02536">
        <ele>535.23</ele>
        <time>2015-03-07T11:58:26Z</time>
      </trkpt>
      <trkpt lat="45.69932" lon="4.0254">
        <ele>535.04</ele>
        <time>2015-03-07T11:58:28Z</time>
      </trkpt>
      <trkpt lat="45.69927" lon="4.02545">
        <ele>534.99</ele>
        <time>2015-03-07T11:58:30Z</time>
      </trkpt>
      <trkpt lat="45.69922" lon="4.0255">
        <ele>534.78</ele>
        <time>2015-03-07T11:58:32Z</time>
      </trkpt>
      <trkpt lat="45.69918" lon="4.02554">
        <ele>534.8</ele>
        <time>2015-03-07T11:58:34Z</time>
      </trkpt>
      <trkpt lat="45.69913" lon="4.02557">
        <ele>535.11</ele>
        <time>2015-03-07T11:58:36Z</time>
      </trkpt>
      <trkpt lat="45.69907" lon="4.02559">
        <ele>535.8</ele>
        <time>2015-03-07T11:58:39Z</time>
      </trkpt>
      <trkpt lat="45.69901" lon="4.02562">
        <ele>536.36</ele>
        <time>2015-03-07T11:58:42Z</time>
      </trkpt>
      <trkpt lat="45.69896" lon="4.02566">
        <ele>536.5</ele>
        <time>2015-03-07T11:58:45Z</time>
      </trkpt>
      <trkpt lat="45.69891" lon="4.02563">
        <ele>535.84</ele>
        <time>2015-03-07T11:58:48Z</time>
      </trkpt>
      <trkpt lat="45.69887" lon="4.02557">
        <ele>535.52</ele>
        <time>2015-03-07T11:58:51Z</time>
      </trkpt>
      <trkpt lat="45.69882" lon="4.02556">
        <ele>535.14</ele>
        <time>2015-03-07T11:58:54Z</time>
      </trkpt>
      <trkpt lat="45.69877" lon="4.02555">
        <ele>534.54</ele>
        <time>2015-03-07T11:58:57Z</time>
      </trkpt>
      <trkpt lat="45.69867" lon="4.02552">
        <ele>535.19</ele>
        <time>2015-03-07T11:59:13Z</time>
      </trkpt>
      <trkpt lat="45.69862" lon="4.0255">
        <ele>535.85</ele>
        <time>2015-03-07T11:59:16Z</time>
      </trkpt>
      <trkpt lat="45.69857" lon="4.02547">
        <ele>535.63</ele>
        <time>2015-03-07T11:59:19Z</time>
      </trkpt>
      <trkpt lat="45.69851" lon="4.02544">
        <ele>535.35</ele>
        <time>2015-03-07T11:59:25Z</time>
      </trkpt>
      <trkpt lat="45.69844" lon="4.0254">
        <ele>535.31</ele>
        <time>2015-03-07T11:59:28Z</time>
      </trkpt>
      <trkpt lat="45.6984" lon="4.02537">
        <ele>535.36</ele>
        <time>2015-03-07T11:59:30Z</time>
      </trkpt>
      <trkpt lat="45.69835" lon="4.02533">
        <ele>535.4</ele>
        <time>2015-03-07T11:59:32Z</time>
      </trkpt>
      <trkpt lat="45.69831" lon="4.02529">
        <ele>535.51</ele>
        <time>2015-03-07T11:59:34Z</time>
      </trkpt>
      <trkpt lat="45.69827" lon="4.02523">
        <ele>535.61</ele>
        <time>2015-03-07T11:59:36Z</time>
      </trkpt>
      <trkpt lat="45.69824" lon="4.02517">
        <ele>535.66</ele>
        <time>2015-03-07T11:59:38Z</time>
      </trkpt>
      <trkpt lat="45.69821" lon="4.02511">
        <ele>535.4</ele>
        <time>2015-03-07T11:59:40Z</time>
      </trkpt>
      <trkpt lat="45.69818" lon="4.02502">
        <ele>535.76</ele>
        <time>2015-03-07T11:59:42Z</time>
      </trkpt>
      <trkpt lat="45.69816" lon="4.02493">
        <ele>536.22</ele>
        <time>2015-03-07T11:59:44Z</time>
      </trkpt>
      <trkpt lat="45.69812" lon="4.02487">
        <ele>536.61</ele>
        <time>2015-03-07T11:59:46Z</time>
      </trkpt>
      <trkpt lat="45.69808" lon="4.02481">
        <ele>536.71</ele>
        <time>2015-03-07T11:59:48Z</time>
      </trkpt>
      <trkpt lat="45.69803" lon="4.0248">
        <ele>536.79</ele>
        <time>2015-03-07T11:59:50Z</time>
      </trkpt>
      <trkpt lat="45.69801" lon="4.02486">
        <ele>536.78</ele>
        <time>2015-03-07T11:59:52Z</time>
      </trkpt>
      <trkpt lat="45.69801" lon="4.02498">
        <ele>536.63</ele>
        <time>2015-03-07T11:59:54Z</time>
      </trkpt>
      <trkpt lat="45.698" lon="4.02506">
        <ele>536.44</ele>
        <time>2015-03-07T11:59:55Z</time>
      </trkpt>
      <trkpt lat="45.698" lon="4.02514">
        <ele>536.04</ele>
        <time>2015-03-07T11:59:56Z</time>
      </trkpt>
      <trkpt lat="45.69801" lon="4.02522">
        <ele>535.54</ele>
        <time>2015-03-07T11:59:57Z</time>
      </trkpt>
      <trkpt lat="45.69801" lon="4.0253">
        <ele>534.99</ele>
        <time>2015-03-07T11:59:58Z</time>
      </trkpt>
      <trkpt lat="45.69803" lon="4.02537">
        <ele>534.47</ele>
        <time>2015-03-07T11:59:59Z</time>
      </trkpt>
      <trkpt lat="45.69806" lon="4.02543">
        <ele>533.91</ele>
        <time>2015-03-07T12:00:00Z</time>
      </trkpt>
      <trkpt lat="45.69809" lon="4.02548">
        <ele>533.43</ele>
        <time>2015-03-07T12:00:01Z</time>
      </trkpt>
      <trkpt lat="45.69813" lon="4.02553">
        <ele>533.03</ele>
        <time>2015-03-07T12:00:02Z</time>
      </trkpt>
      <trkpt lat="45.69818" lon="4.02558">
        <ele>532.84</ele>
        <time>2015-03-07T12:00:03Z</time>
      </trkpt>
      <trkpt lat="45.69823" lon="4.02561">
        <ele>532.64</ele>
        <time>2015-03-07T12:00:04Z</time>
      </trkpt>
      <trkpt lat="45.69828" lon="4.02565">
        <ele>532.39</ele>
        <time>2015-03-07T12:00:05Z</time>
      </trkpt>
      <trkpt lat="45.69833" lon="4.02568">
        <ele>532.12</ele>
        <time>2015-03-07T12:00:06Z</time>
      </trkpt>
      <trkpt lat="45.69838" lon="4.02572">
        <ele>531.98</ele>
        <time>2015-03-07T12:00:07Z</time>
      </trkpt>
      <trkpt lat="45.69844" lon="4.02575">
        <ele>531.86</ele>
        <time>2015-03-07T12:00:08Z</time>
      </trkpt>
      <trkpt lat="45.69849" lon="4.02578">
        <ele>531.7</ele>
        <time>2015-03-07T12:00:09Z</time>
      </trkpt>
      <trkpt lat="45.69854" lon="4.02581">
        <ele>531.57</ele>
        <time>2015-03-07T12:00:10Z</time>
      </trkpt>
      <trkpt lat="45.69859" lon="4.02583">
        <ele>531.36</ele>
        <time>2015-03-07T12:00:11Z</time>
      </trkpt>
      <trkpt lat="45.69865" lon="4.02586">
        <ele>531.15</ele>
        <time>2015-03-07T12:00:12Z</time>
      </trkpt>
      <trkpt lat="45.69871" lon="4.02587">
        <ele>530.7</ele>
        <time>2015-03-07T12:00:13Z</time>
      </trkpt>
      <trkpt lat="45.69876" lon="4.02588">
        <ele>530.42</ele>
        <time>2015-03-07T12:00:14Z</time>
      </trkpt>
      <trkpt lat="45.69884" lon="4.0259">
        <ele>530.14</ele>
        <time>2015-03-07T12:00:16Z</time>
      </trkpt>
      <trkpt lat="45.69891" lon="4.02594">
        <ele>529.64</ele>
        <time>2015-03-07T12:00:18Z</time>
      </trkpt>
      <trkpt lat="45.69898" lon="4.02597">
        <ele>528.97</ele>
        <time>2015-03-07T12:00:20Z</time>
      </trkpt>
      <trkpt lat="45.69905" lon="4.02601">
        <ele>528.48</ele>
        <time>2015-03-07T12:00:22Z</time>
      </trkpt>
      <trkpt lat="45.69908" lon="4.02608">
        <ele>527.75</ele>
        <time>2015-03-07T12:00:24Z</time>
      </trkpt>
      <trkpt lat="45.69908" lon="4.02619">
        <ele>526.35</ele>
        <time>2015-03-07T12:00:26Z</time>
      </trkpt>
      <trkpt lat="45.69909" lon="4.02629">
        <ele>524.79</ele>
        <time>2015-03-07T12:00:28Z</time>
      </trkpt>
      <trkpt lat="45.69912" lon="4.02636">
        <ele>523.33</ele>
        <time>2015-03-07T12:00:30Z</time>
      </trkpt>
      <trkpt lat="45.69919" lon="4.02639">
        <ele>521.97</ele>
        <time>2015-03-07T12:00:32Z</time>
      </trkpt>
      <trkpt lat="45.69924" lon="4.0264">
        <ele>521.45</ele>
        <time>2015-03-07T12:00:33Z</time>
      </trkpt>
      <trkpt lat="45.69929" lon="4.02642">
        <ele>521</ele>
        <time>2015-03-07T12:00:34Z</time>
      </trkpt>
      <trkpt lat="45.69934" lon="4.02643">
        <ele>520.67</ele>
        <time>2015-03-07T12:00:35Z</time>
      </trkpt>
      <trkpt lat="45.69939" lon="4.02644">
        <ele>520.41</ele>
        <time>2015-03-07T12:00:36Z</time>
      </trkpt>
      <trkpt lat="45.69946" lon="4.02645">
        <ele>519.93</ele>
        <time>2015-03-07T12:00:37Z</time>
      </trkpt>
      <trkpt lat="45.69951" lon="4.02648">
        <ele>519.43</ele>
        <time>2015-03-07T12:00:38Z</time>
      </trkpt>
      <trkpt lat="45.69957" lon="4.02654">
        <ele>518.84</ele>
        <time>2015-03-07T12:00:39Z</time>
      </trkpt>
      <trkpt lat="45.69962" lon="4.02663">
        <ele>517.89</ele>
        <time>2015-03-07T12:00:40Z</time>
      </trkpt>
      <trkpt lat="45.69967" lon="4.02672">
        <ele>516.82</ele>
        <time>2015-03-07T12:00:41Z</time>
      </trkpt>
      <trkpt lat="45.69972" lon="4.02682">
        <ele>515.78</ele>
        <time>2015-03-07T12:00:42Z</time>
      </trkpt>
      <trkpt lat="45.69977" lon="4.02692">
        <ele>514.76</ele>
        <time>2015-03-07T12:00:43Z</time>
      </trkpt>
      <trkpt lat="45.69982" lon="4.02701">
        <ele>513.8</ele>
        <time>2015-03-07T12:00:44Z</time>
      </trkpt>
      <trkpt lat="45.69986" lon="4.02709">
        <ele>513.12</ele>
        <time>2015-03-07T12:00:45Z</time>
      </trkpt>
      <trkpt lat="45.69989" lon="4.02716">
        <ele>512.58</ele>
        <time>2015-03-07T12:00:46Z</time>
      </trkpt>
      <trkpt lat="45.69992" lon="4.02724">
        <ele>512.01</ele>
        <time>2015-03-07T12:00:47Z</time>
      </trkpt>
      <trkpt lat="45.69992" lon="4.02731">
        <ele>511.38</ele>
        <time>2015-03-07T12:00:48Z</time>
      </trkpt>
      <trkpt lat="45.69991" lon="4.02738">
        <ele>510.76</ele>
        <time>2015-03-07T12:00:49Z</time>
      </trkpt>
      <trkpt lat="45.69988" lon="4.02744">
        <ele>510.15</ele>
        <time>2015-03-07T12:00:50Z</time>
      </trkpt>
      <trkpt lat="45.69984" lon="4.02749">
        <ele>509.5</ele>
        <time>2015-03-07T12:00:51Z</time>
      </trkpt>
      <trkpt lat="45.69979" lon="4.02753">
        <ele>508.87</ele>
        <time>2015-03-07T12:00:52Z</time>
      </trkpt>
      <trkpt lat="45.69973" lon="4.02757">
        <ele>508.16</ele>
        <time>2015-03-07T12:00:53Z</time>
      </trkpt>
      <trkpt lat="45.69966" lon="4.02761">
        <ele>507.55</ele>
        <time>2015-03-07T12:00:54Z</time>
      </trkpt>
      <trkpt lat="45.69959" lon="4.02764">
        <ele>507</ele>
        <time>2015-03-07T12:00:55Z</time>
      </trkpt>
      <trkpt lat="45.69952" lon="4.02767">
        <ele>506.42</ele>
        <time>2015-03-07T12:00:56Z</time>
      </trkpt>
      <trkpt lat="45.69944" lon="4.0277">
        <ele>505.78</ele>
        <time>2015-03-07T12:00:57Z</time>
      </trkpt>
      <trkpt lat="45.69936" lon="4.02773">
        <ele>505.11</ele>
        <time>2015-03-07T12:00:58Z</time>
      </trkpt>
      <trkpt lat="45.69927" lon="4.02776">
        <ele>504.28</ele>
        <time>2015-03-07T12:00:59Z</time>
      </trkpt>
      <trkpt lat="45.69919" lon="4.02779">
        <ele>503.41</ele>
        <time>2015-03-07T12:01:00Z</time>
      </trkpt>
      <trkpt lat="45.69911" lon="4.02781">
        <ele>502.48</ele>
        <time>2015-03-07T12:01:01Z</time>
      </trkpt>
      <trkpt lat="45.69904" lon="4.02783">
        <ele>501.61</ele>
        <time>2015-03-07T12:01:02Z</time>
      </trkpt>
      <trkpt lat="45.69897" lon="4.02785">
        <ele>500.88</ele>
        <time>2015-03-07T12:01:03Z</time>
      </trkpt>
      <trkpt lat="45.69891" lon="4.02787">
        <ele>500.16</ele>
        <time>2015-03-07T12:01:04Z</time>
      </trkpt>
      <trkpt lat="45.69883" lon="4.02788">
        <ele>499.4</ele>
        <time>2015-03-07T12:01:05Z</time>
      </trkpt>
      <trkpt lat="45.69876" lon="4.0279">
        <ele>498.67</ele>
        <time>2015-03-07T12:01:06Z</time>
      </trkpt>
      <trkpt lat="45.6987" lon="4.02792">
        <ele>498.01</ele>
        <time>2015-03-07T12:01:07Z</time>
      </trkpt>
      <trkpt lat="45.69865" lon="4.02793">
        <ele>497.43</ele>
        <time>2015-03-07T12:01:08Z</time>
      </trkpt>
      <trkpt lat="45.69859" lon="4.02795">
        <ele>496.54</ele>
        <time>2015-03-07T12:01:10Z</time>
      </trkpt>
      <trkpt lat="45.69853" lon="4.02799">
        <ele>495.56</ele>
        <time>2015-03-07T12:01:42Z</time>
      </trkpt>
      <trkpt lat="45.69847" lon="4.02804">
        <ele>495.12</ele>
        <time>2015-03-07T12:01:44Z</time>
      </trkpt>
      <trkpt lat="45.69839" lon="4.02811">
        <ele>494.36</ele>
        <time>2015-03-07T12:01:46Z</time>
      </trkpt>
      <trkpt lat="45.69833" lon="4.02816">
        <ele>494</ele>
        <time>2015-03-07T12:01:47Z</time>
      </trkpt>
      <trkpt lat="45.69827" lon="4.02819">
        <ele>493.67</ele>
        <time>2015-03-07T12:01:48Z</time>
      </trkpt>
      <trkpt lat="45.6982" lon="4.02818">
        <ele>493.36</ele>
        <time>2015-03-07T12:01:49Z</time>
      </trkpt>
      <trkpt lat="45.69813" lon="4.02816">
        <ele>493.1</ele>
        <time>2015-03-07T12:01:50Z</time>
      </trkpt>
      <trkpt lat="45.69807" lon="4.02813">
        <ele>492.92</ele>
        <time>2015-03-07T12:01:51Z</time>
      </trkpt>
      <trkpt lat="45.69801" lon="4.0281">
        <ele>492.83</ele>
        <time>2015-03-07T12:01:52Z</time>
      </trkpt>
      <trkpt lat="45.69795" lon="4.02807">
        <ele>492.84</ele>
        <time>2015-03-07T12:01:53Z</time>
      </trkpt>
      <trkpt lat="45.6979" lon="4.02805">
        <ele>492.84</ele>
        <time>2015-03-07T12:01:54Z</time>
      </trkpt>
      <trkpt lat="45.69786" lon="4.02802">
        <ele>492.84</ele>
        <time>2015-03-07T12:01:55Z</time>
      </trkpt>
      <trkpt lat="45.69781" lon="4.028">
        <ele>492.84</ele>
        <time>2015-03-07T12:01:56Z</time>
      </trkpt>
      <trkpt lat="45.69776" lon="4.02798">
        <ele>492.89</ele>
        <time>2015-03-07T12:01:57Z</time>
      </trkpt>
      <trkpt lat="45.69772" lon="4.02797">
        <ele>492.92</ele>
        <time>2015-03-07T12:01:58Z</time>
      </trkpt>
      <trkpt lat="45.69765" lon="4.02794">
        <ele>492.84</ele>
        <time>2015-03-07T12:02:00Z</time>
      </trkpt>
      <trkpt lat="45.6976" lon="4.02791">
        <ele>492.22</ele>
        <time>2015-03-07T12:02:10Z</time>
      </trkpt>
      <trkpt lat="45.69754" lon="4.02789">
        <ele>491.84</ele>
        <time>2015-03-07T12:02:12Z</time>
      </trkpt>
      <trkpt lat="45.69748" lon="4.02785">
        <ele>491.57</ele>
        <time>2015-03-07T12:02:14Z</time>
      </trkpt>
      <trkpt lat="45.69742" lon="4.0278">
        <ele>491.35</ele>
        <time>2015-03-07T12:02:16Z</time>
      </trkpt>
      <trkpt lat="45.69736" lon="4.02774">
        <ele>491.2</ele>
        <time>2015-03-07T12:02:18Z</time>
      </trkpt>
      <trkpt lat="45.69733" lon="4.02766">
        <ele>491.16</ele>
        <time>2015-03-07T12:02:20Z</time>
      </trkpt>
      <trkpt lat="45.6973" lon="4.02757">
        <ele>491.15</ele>
        <time>2015-03-07T12:02:22Z</time>
      </trkpt>
      <trkpt lat="45.69728" lon="4.02747">
        <ele>490.87</ele>
        <time>2015-03-07T12:02:24Z</time>
      </trkpt>
      <trkpt lat="45.69726" lon="4.02736">
        <ele>490.53</ele>
        <time>2015-03-07T12:02:26Z</time>
      </trkpt>
      <trkpt lat="45.69724" lon="4.02729">
        <ele>490.33</ele>
        <time>2015-03-07T12:02:27Z</time>
      </trkpt>
      <trkpt lat="45.69723" lon="4.02723">
        <ele>490.09</ele>
        <time>2015-03-07T12:02:28Z</time>
      </trkpt>
      <trkpt lat="45.69722" lon="4.02715">
        <ele>489.92</ele>
        <time>2015-03-07T12:02:29Z</time>
      </trkpt>
      <trkpt lat="45.69719" lon="4.02708">
        <ele>489.78</ele>
        <time>2015-03-07T12:02:30Z</time>
      </trkpt>
      <trkpt lat="45.69716" lon="4.02701">
        <ele>489.61</ele>
        <time>2015-03-07T12:02:31Z</time>
      </trkpt>
      <trkpt lat="45.69711" lon="4.02696">
        <ele>489.38</ele>
        <time>2015-03-07T12:02:32Z</time>
      </trkpt>
      <trkpt lat="45.69706" lon="4.02693">
        <ele>489.16</ele>
        <time>2015-03-07T12:02:33Z</time>
      </trkpt>
      <trkpt lat="45.697" lon="4.02691">
        <ele>488.95</ele>
        <time>2015-03-07T12:02:34Z</time>
      </trkpt>
      <trkpt lat="45.69694" lon="4.02689">
        <ele>488.8</ele>
        <time>2015-03-07T12:02:35Z</time>
      </trkpt>
      <trkpt lat="45.69687" lon="4.02687">
        <ele>488.57</ele>
        <time>2015-03-07T12:02:36Z</time>
      </trkpt>
      <trkpt lat="45.69681" lon="4.02685">
        <ele>488.31</ele>
        <time>2015-03-07T12:02:37Z</time>
      </trkpt>
      <trkpt lat="45.69675" lon="4.02682">
        <ele>488.13</ele>
        <time>2015-03-07T12:02:38Z</time>
      </trkpt>
      <trkpt lat="45.6967" lon="4.02676">
        <ele>487.93</ele>
        <time>2015-03-07T12:02:39Z</time>
      </trkpt>
      <trkpt lat="45.69665" lon="4.0267">
        <ele>487.69</ele>
        <time>2015-03-07T12:02:40Z</time>
      </trkpt>
      <trkpt lat="45.6966" lon="4.02664">
        <ele>487.57</ele>
        <time>2015-03-07T12:02:41Z</time>
      </trkpt>
      <trkpt lat="45.69655" lon="4.0266">
        <ele>487.51</ele>
        <time>2015-03-07T12:02:42Z</time>
      </trkpt>
      <trkpt lat="45.69651" lon="4.02656">
        <ele>487.27</ele>
        <time>2015-03-07T12:02:43Z</time>
      </trkpt>
      <trkpt lat="45.69645" lon="4.02653">
        <ele>487.06</ele>
        <time>2015-03-07T12:02:44Z</time>
      </trkpt>
      <trkpt lat="45.69639" lon="4.02653">
        <ele>486.75</ele>
        <time>2015-03-07T12:02:45Z</time>
      </trkpt>
      <trkpt lat="45.69633" lon="4.02654">
        <ele>486.25</ele>
        <time>2015-03-07T12:02:46Z</time>
      </trkpt>
      <trkpt lat="45.69628" lon="4.02659">
        <ele>485.55</ele>
        <time>2015-03-07T12:02:47Z</time>
      </trkpt>
      <trkpt lat="45.69623" lon="4.02666">
        <ele>484.74</ele>
        <time>2015-03-07T12:02:48Z</time>
      </trkpt>
      <trkpt lat="45.6962" lon="4.02675">
        <ele>484.04</ele>
        <time>2015-03-07T12:02:49Z</time>
      </trkpt>
      <trkpt lat="45.69619" lon="4.02685">
        <ele>483.44</ele>
        <time>2015-03-07T12:02:50Z</time>
      </trkpt>
      <trkpt lat="45.69618" lon="4.02694">
        <ele>482.79</ele>
        <time>2015-03-07T12:02:51Z</time>
      </trkpt>
      <trkpt lat="45.69618" lon="4.02702">
        <ele>482.17</ele>
        <time>2015-03-07T12:02:52Z</time>
      </trkpt>
      <trkpt lat="45.69617" lon="4.0271">
        <ele>481.61</ele>
        <time>2015-03-07T12:02:53Z</time>
      </trkpt>
      <trkpt lat="45.69617" lon="4.02716">
        <ele>481.08</ele>
        <time>2015-03-07T12:02:54Z</time>
      </trkpt>
      <trkpt lat="45.69616" lon="4.02723">
        <ele>480.61</ele>
        <time>2015-03-07T12:02:55Z</time>
      </trkpt>
      <trkpt lat="45.69614" lon="4.02731">
        <ele>480.03</ele>
        <time>2015-03-07T12:02:56Z</time>
      </trkpt>
      <trkpt lat="45.69613" lon="4.0274">
        <ele>479.29</ele>
        <time>2015-03-07T12:02:57Z</time>
      </trkpt>
      <trkpt lat="45.69612" lon="4.02748">
        <ele>478.46</ele>
        <time>2015-03-07T12:02:58Z</time>
      </trkpt>
      <trkpt lat="45.6961" lon="4.02757">
        <ele>477.8</ele>
        <time>2015-03-07T12:02:59Z</time>
      </trkpt>
      <trkpt lat="45.69607" lon="4.02767">
        <ele>477.22</ele>
        <time>2015-03-07T12:03:00Z</time>
      </trkpt>
      <trkpt lat="45.69604" lon="4.02775">
        <ele>476.78</ele>
        <time>2015-03-07T12:03:01Z</time>
      </trkpt>
      <trkpt lat="45.69602" lon="4.02783">
        <ele>476.36</ele>
        <time>2015-03-07T12:03:02Z</time>
      </trkpt>
      <trkpt lat="45.69599" lon="4.0279">
        <ele>475.85</ele>
        <time>2015-03-07T12:03:03Z</time>
      </trkpt>
      <trkpt lat="45.69596" lon="4.02799">
        <ele>475.4</ele>
        <time>2015-03-07T12:03:04Z</time>
      </trkpt>
      <trkpt lat="45.69593" lon="4.02808">
        <ele>474.77</ele>
        <time>2015-03-07T12:03:05Z</time>
      </trkpt>
      <trkpt lat="45.6959" lon="4.02819">
        <ele>474.11</ele>
        <time>2015-03-07T12:03:06Z</time>
      </trkpt>
      <trkpt lat="45.69586" lon="4.02828">
        <ele>473.63</ele>
        <time>2015-03-07T12:03:07Z</time>
      </trkpt>
      <trkpt lat="45.69584" lon="4.02837">
        <ele>473.23</ele>
        <time>2015-03-07T12:03:08Z</time>
      </trkpt>
      <trkpt lat="45.69581" lon="4.02846">
        <ele>472.99</ele>
        <time>2015-03-07T12:03:09Z</time>
      </trkpt>
      <trkpt lat="45.69581" lon="4.02856">
        <ele>472.42</ele>
        <time>2015-03-07T12:03:10Z</time>
      </trkpt>
      <trkpt lat="45.69582" lon="4.02866">
        <ele>471.63</ele>
        <time>2015-03-07T12:03:11Z</time>
      </trkpt>
      <trkpt lat="45.69585" lon="4.02877">
        <ele>470.84</ele>
        <time>2015-03-07T12:03:12Z</time>
      </trkpt>
      <trkpt lat="45.69589" lon="4.02887">
        <ele>470.14</ele>
        <time>2015-03-07T12:03:13Z</time>
      </trkpt>
      <trkpt lat="45.69592" lon="4.02897">
        <ele>469.49</ele>
        <time>2015-03-07T12:03:14Z</time>
      </trkpt>
      <trkpt lat="45.69596" lon="4.02907">
        <ele>468.97</ele>
        <time>2015-03-07T12:03:15Z</time>
      </trkpt>
      <trkpt lat="45.696" lon="4.02918">
        <ele>468.51</ele>
        <time>2015-03-07T12:03:16Z</time>
      </trkpt>
      <trkpt lat="45.69604" lon="4.02928">
        <ele>468.08</ele>
        <time>2015-03-07T12:03:17Z</time>
      </trkpt>
      <trkpt lat="45.69608" lon="4.02938">
        <ele>467.71</ele>
        <time>2015-03-07T12:03:18Z</time>
      </trkpt>
      <trkpt lat="45.69612" lon="4.02948">
        <ele>467.33</ele>
        <time>2015-03-07T12:03:19Z</time>
      </trkpt>
      <trkpt lat="45.69616" lon="4.02958">
        <ele>466.94</ele>
        <time>2015-03-07T12:03:20Z</time>
      </trkpt>
      <trkpt lat="45.6962" lon="4.02968">
        <ele>466.49</ele>
        <time>2015-03-07T12:03:21Z</time>
      </trkpt>
      <trkpt lat="45.69624" lon="4.02977">
        <ele>466.02</ele>
        <time>2015-03-07T12:03:22Z</time>
      </trkpt>
      <trkpt lat="45.69629" lon="4.02986">
        <ele>465.53</ele>
        <time>2015-03-07T12:03:23Z</time>
      </trkpt>
      <trkpt lat="45.69633" lon="4.02994">
        <ele>465.09</ele>
        <time>2015-03-07T12:03:24Z</time>
      </trkpt>
      <trkpt lat="45.69636" lon="4.03001">
        <ele>464.77</ele>
        <time>2015-03-07T12:03:25Z</time>
      </trkpt>
      <trkpt lat="45.69638" lon="4.03008">
        <ele>464.5</ele>
        <time>2015-03-07T12:03:26Z</time>
      </trkpt>
      <trkpt lat="45.69641" lon="4.03018">
        <ele>464.13</ele>
        <time>2015-03-07T12:03:28Z</time>
      </trkpt>
      <trkpt lat="45.69645" lon="4.0303">
        <ele>463.74</ele>
        <time>2015-03-07T12:03:30Z</time>
      </trkpt>
      <trkpt lat="45.69646" lon="4.03036">
        <ele>463.54</ele>
        <time>2015-03-07T12:03:31Z</time>
      </trkpt>
      <trkpt lat="45.69646" lon="4.0305">
        <ele>462.99</ele>
        <time>2015-03-07T12:03:33Z</time>
      </trkpt>
      <trkpt lat="45.69645" lon="4.03058">
        <ele>462.62</ele>
        <time>2015-03-07T12:03:34Z</time>
      </trkpt>
      <trkpt lat="45.69643" lon="4.03067">
        <ele>462.08</ele>
        <time>2015-03-07T12:03:35Z</time>
      </trkpt>
      <trkpt lat="45.69642" lon="4.03076">
        <ele>461.46</ele>
        <time>2015-03-07T12:03:36Z</time>
      </trkpt>
      <trkpt lat="45.69641" lon="4.03087">
        <ele>460.8</ele>
        <time>2015-03-07T12:03:37Z</time>
      </trkpt>
      <trkpt lat="45.69641" lon="4.03097">
        <ele>460.17</ele>
        <time>2015-03-07T12:03:38Z</time>
      </trkpt>
      <trkpt lat="45.69642" lon="4.03109">
        <ele>459.66</ele>
        <time>2015-03-07T12:03:39Z</time>
      </trkpt>
      <trkpt lat="45.69643" lon="4.03121">
        <ele>459.15</ele>
        <time>2015-03-07T12:03:40Z</time>
      </trkpt>
      <trkpt lat="45.69645" lon="4.03132">
        <ele>458.65</ele>
        <time>2015-03-07T12:03:41Z</time>
      </trkpt>
      <trkpt lat="45.69648" lon="4.03144">
        <ele>458.1</ele>
        <time>2015-03-07T12:03:42Z</time>
      </trkpt>
      <trkpt lat="45.69651" lon="4.03155">
        <ele>457.42</ele>
        <time>2015-03-07T12:03:43Z</time>
      </trkpt>
      <trkpt lat="45.69654" lon="4.03167">
        <ele>456.43</ele>
        <time>2015-03-07T12:03:44Z</time>
      </trkpt>
      <trkpt lat="45.69658" lon="4.03179">
        <ele>455.49</ele>
        <time>2015-03-07T12:03:45Z</time>
      </trkpt>
      <trkpt lat="45.69661" lon="4.03191">
        <ele>454.62</ele>
        <time>2015-03-07T12:03:46Z</time>
      </trkpt>
      <trkpt lat="45.69664" lon="4.03204">
        <ele>453.73</ele>
        <time>2015-03-07T12:03:47Z</time>
      </trkpt>
      <trkpt lat="45.69665" lon="4.03218">
        <ele>452.69</ele>
        <time>2015-03-07T12:03:48Z</time>
      </trkpt>
      <trkpt lat="45.69666" lon="4.03232">
        <ele>451.47</ele>
        <time>2015-03-07T12:03:49Z</time>
      </trkpt>
      <trkpt lat="45.69668" lon="4.03247">
        <ele>450.2</ele>
        <time>2015-03-07T12:03:50Z</time>
      </trkpt>
      <trkpt lat="45.69668" lon="4.03261">
        <ele>449.02</ele>
        <time>2015-03-07T12:03:51Z</time>
      </trkpt>
      <trkpt lat="45.69667" lon="4.03276">
        <ele>448.13</ele>
        <time>2015-03-07T12:03:52Z</time>
      </trkpt>
      <trkpt lat="45.69666" lon="4.03291">
        <ele>447.29</ele>
        <time>2015-03-07T12:03:53Z</time>
      </trkpt>
      <trkpt lat="45.69664" lon="4.03306">
        <ele>446.57</ele>
        <time>2015-03-07T12:03:54Z</time>
      </trkpt>
      <trkpt lat="45.69662" lon="4.0332">
        <ele>446.01</ele>
        <time>2015-03-07T12:03:55Z</time>
      </trkpt>
      <trkpt lat="45.69659" lon="4.03334">
        <ele>445.52</ele>
        <time>2015-03-07T12:03:56Z</time>
      </trkpt>
      <trkpt lat="45.69656" lon="4.03348">
        <ele>445.03</ele>
        <time>2015-03-07T12:03:57Z</time>
      </trkpt>
      <trkpt lat="45.69653" lon="4.03361">
        <ele>444.54</ele>
        <time>2015-03-07T12:03:58Z</time>
      </trkpt>
      <trkpt lat="45.69649" lon="4.03373">
        <ele>443.94</ele>
        <time>2015-03-07T12:03:59Z</time>
      </trkpt>
      <trkpt lat="45.69644" lon="4.03386">
        <ele>443.24</ele>
        <time>2015-03-07T12:04:00Z</time>
      </trkpt>
      <trkpt lat="45.69641" lon="4.03398">
        <ele>442.59</ele>
        <time>2015-03-07T12:04:01Z</time>
      </trkpt>
      <trkpt lat="45.69638" lon="4.03411">
        <ele>441.92</ele>
        <time>2015-03-07T12:04:02Z</time>
      </trkpt>
      <trkpt lat="45.69636" lon="4.03423">
        <ele>441.38</ele>
        <time>2015-03-07T12:04:03Z</time>
      </trkpt>
      <trkpt lat="45.69635" lon="4.03436">
        <ele>440.81</ele>
        <time>2015-03-07T12:04:04Z</time>
      </trkpt>
      <trkpt lat="45.69635" lon="4.03449">
        <ele>440.23</ele>
        <time>2015-03-07T12:04:05Z</time>
      </trkpt>
      <trkpt lat="45.69634" lon="4.03462">
        <ele>439.64</ele>
        <time>2015-03-07T12:04:06Z</time>
      </trkpt>
      <trkpt lat="45.69634" lon="4.03476">
        <ele>438.99</ele>
        <time>2015-03-07T12:04:07Z</time>
      </trkpt>
      <trkpt lat="45.69634" lon="4.03489">
        <ele>438.17</ele>
        <time>2015-03-07T12:04:08Z</time>
      </trkpt>
      <trkpt lat="45.69634" lon="4.03503">
        <ele>437.31</ele>
        <time>2015-03-07T12:04:09Z</time>
      </trkpt>
      <trkpt lat="45.69635" lon="4.03517">
        <ele>436.47</ele>
        <time>2015-03-07T12:04:10Z</time>
      </trkpt>
      <trkpt lat="45.69636" lon="4.0353">
        <ele>435.61</ele>
        <time>2015-03-07T12:04:11Z</time>
      </trkpt>
      <trkpt lat="45.69636" lon="4.03543">
        <ele>434.88</ele>
        <time>2015-03-07T12:04:12Z</time>
      </trkpt>
      <trkpt lat="45.69637" lon="4.03557">
        <ele>434.11</ele>
        <time>2015-03-07T12:04:13Z</time>
      </trkpt>
      <trkpt lat="45.69637" lon="4.0357">
        <ele>433.48</ele>
        <time>2015-03-07T12:04:14Z</time>
      </trkpt>
      <trkpt lat="45.69637" lon="4.03583">
        <ele>432.91</ele>
        <time>2015-03-07T12:04:15Z</time>
      </trkpt>
      <trkpt lat="45.69637" lon="4.03595">
        <ele>432.43</ele>
        <time>2015-03-07T12:04:16Z</time>
      </trkpt>
      <trkpt lat="45.69637" lon="4.03607">
        <ele>431.94</ele>
        <time>2015-03-07T12:04:17Z</time>
      </trkpt>
      <trkpt lat="45.69636" lon="4.0362">
        <ele>431.49</ele>
        <time>2015-03-07T12:04:18Z</time>
      </trkpt>
      <trkpt lat="45.69636" lon="4.03632">
        <ele>430.92</ele>
        <time>2015-03-07T12:04:19Z</time>
      </trkpt>
      <trkpt lat="45.69636" lon="4.03645">
        <ele>430.43</ele>
        <time>2015-03-07T12:04:20Z</time>
      </trkpt>
      <trkpt lat="45.69636" lon="4.03657">
        <ele>430.04</ele>
        <time>2015-03-07T12:04:21Z</time>
      </trkpt>
      <trkpt lat="45.69636" lon="4.03668">
        <ele>429.79</ele>
        <time>2015-03-07T12:04:22Z</time>
      </trkpt>
      <trkpt lat="45.69637" lon="4.03678">
        <ele>429.57</ele>
        <time>2015-03-07T12:04:23Z</time>
      </trkpt>
      <trkpt lat="45.69637" lon="4.03687">
        <ele>429.41</ele>
        <time>2015-03-07T12:04:24Z</time>
      </trkpt>
      <trkpt lat="45.69637" lon="4.03693">
        <ele>429.22</ele>
        <time>2015-03-07T12:04:25Z</time>
      </trkpt>
      <trkpt lat="45.69636" lon="4.03703">
        <ele>428.94</ele>
        <time>2015-03-07T12:04:27Z</time>
      </trkpt>
      <trkpt lat="45.69634" lon="4.03712">
        <ele>428.81</ele>
        <time>2015-03-07T12:04:30Z</time>
      </trkpt>
      <trkpt lat="45.69635" lon="4.03722">
        <ele>428.51</ele>
        <time>2015-03-07T12:04:32Z</time>
      </trkpt>
      <trkpt lat="45.69636" lon="4.03734">
        <ele>428.19</ele>
        <time>2015-03-07T12:04:34Z</time>
      </trkpt>
      <trkpt lat="45.69636" lon="4.03741">
        <ele>428.01</ele>
        <time>2015-03-07T12:04:35Z</time>
      </trkpt>
      <trkpt lat="45.69636" lon="4.03749">
        <ele>427.93</ele>
        <time>2015-03-07T12:04:36Z</time>
      </trkpt>
      <trkpt lat="45.69637" lon="4.03757">
        <ele>427.89</ele>
        <time>2015-03-07T12:04:37Z</time>
      </trkpt>
      <trkpt lat="45.69637" lon="4.03765">
        <ele>427.82</ele>
        <time>2015-03-07T12:04:38Z</time>
      </trkpt>
      <trkpt lat="45.69637" lon="4.03773">
        <ele>427.73</ele>
        <time>2015-03-07T12:04:39Z</time>
      </trkpt>
      <trkpt lat="45.69637" lon="4.03782">
        <ele>427.59</ele>
        <time>2015-03-07T12:04:40Z</time>
      </trkpt>
      <trkpt lat="45.69638" lon="4.0379">
        <ele>427.47</ele>
        <time>2015-03-07T12:04:41Z</time>
      </trkpt>
      <trkpt lat="45.69638" lon="4.03799">
        <ele>427.25</ele>
        <time>2015-03-07T12:04:42Z</time>
      </trkpt>
      <trkpt lat="45.69638" lon="4.03808">
        <ele>427.05</ele>
        <time>2015-03-07T12:04:43Z</time>
      </trkpt>
      <trkpt lat="45.69638" lon="4.03817">
        <ele>426.9</ele>
        <time>2015-03-07T12:04:44Z</time>
      </trkpt>
      <trkpt lat="45.69638" lon="4.03825">
        <ele>426.72</ele>
        <time>2015-03-07T12:04:45Z</time>
      </trkpt>
      <trkpt lat="45.69638" lon="4.03833">
        <ele>426.53</ele>
        <time>2015-03-07T12:04:46Z</time>
      </trkpt>
      <trkpt lat="45.69638" lon="4.03842">
        <ele>426.44</ele>
        <time>2015-03-07T12:04:47Z</time>
      </trkpt>
      <trkpt lat="45.69639" lon="4.0385">
        <ele>426.39</ele>
        <time>2015-03-07T12:04:48Z</time>
      </trkpt>
      <trkpt lat="45.69639" lon="4.03859">
        <ele>426.42</ele>
        <time>2015-03-07T12:04:49Z</time>
      </trkpt>
      <trkpt lat="45.69639" lon="4.03867">
        <ele>426.33</ele>
        <time>2015-03-07T12:04:50Z</time>
      </trkpt>
      <trkpt lat="45.6964" lon="4.03876">
        <ele>426.24</ele>
        <time>2015-03-07T12:04:51Z</time>
      </trkpt>
      <trkpt lat="45.6964" lon="4.03884">
        <ele>426.14</ele>
        <time>2015-03-07T12:04:52Z</time>
      </trkpt>
      <trkpt lat="45.6964" lon="4.03892">
        <ele>426.04</ele>
        <time>2015-03-07T12:04:53Z</time>
      </trkpt>
      <trkpt lat="45.6964" lon="4.03901">
        <ele>425.84</ele>
        <time>2015-03-07T12:04:54Z</time>
      </trkpt>
      <trkpt lat="45.6964" lon="4.03908">
        <ele>425.64</ele>
        <time>2015-03-07T12:04:55Z</time>
      </trkpt>
      <trkpt lat="45.69641" lon="4.03915">
        <ele>425.39</ele>
        <time>2015-03-07T12:04:56Z</time>
      </trkpt>
      <trkpt lat="45.69642" lon="4.03921">
        <ele>425.22</ele>
        <time>2015-03-07T12:04:57Z</time>
      </trkpt>
      <trkpt lat="45.69643" lon="4.03933">
        <ele>424.94</ele>
        <time>2015-03-07T12:04:59Z</time>
      </trkpt>
      <trkpt lat="45.69644" lon="4.0394">
        <ele>424.89</ele>
        <time>2015-03-07T12:05:00Z</time>
      </trkpt>
      <trkpt lat="45.69645" lon="4.03947">
        <ele>424.87</ele>
        <time>2015-03-07T12:05:01Z</time>
      </trkpt>
      <trkpt lat="45.69646" lon="4.03954">
        <ele>424.76</ele>
        <time>2015-03-07T12:05:02Z</time>
      </trkpt>
      <trkpt lat="45.69647" lon="4.03961">
        <ele>424.7</ele>
        <time>2015-03-07T12:05:03Z</time>
      </trkpt>
      <trkpt lat="45.69648" lon="4.03968">
        <ele>424.62</ele>
        <time>2015-03-07T12:05:04Z</time>
      </trkpt>
      <trkpt lat="45.69649" lon="4.03975">
        <ele>424.48</ele>
        <time>2015-03-07T12:05:05Z</time>
      </trkpt>
      <trkpt lat="45.69651" lon="4.03981">
        <ele>424.41</ele>
        <time>2015-03-07T12:05:06Z</time>
      </trkpt>
      <trkpt lat="45.69652" lon="4.03994">
        <ele>424.29</ele>
        <time>2015-03-07T12:05:08Z</time>
      </trkpt>
      <trkpt lat="45.69654" lon="4.04">
        <ele>424.42</ele>
        <time>2015-03-07T12:05:09Z</time>
      </trkpt>
      <trkpt lat="45.69655" lon="4.04007">
        <ele>424.48</ele>
        <time>2015-03-07T12:05:10Z</time>
      </trkpt>
      <trkpt lat="45.69656" lon="4.04014">
        <ele>424.51</ele>
        <time>2015-03-07T12:05:11Z</time>
      </trkpt>
      <trkpt lat="45.69658" lon="4.04022">
        <ele>424.58</ele>
        <time>2015-03-07T12:05:12Z</time>
      </trkpt>
      <trkpt lat="45.6966" lon="4.04029">
        <ele>424.61</ele>
        <time>2015-03-07T12:05:13Z</time>
      </trkpt>
      <trkpt lat="45.69662" lon="4.04037">
        <ele>424.73</ele>
        <time>2015-03-07T12:05:14Z</time>
      </trkpt>
      <trkpt lat="45.69663" lon="4.04045">
        <ele>424.89</ele>
        <time>2015-03-07T12:05:15Z</time>
      </trkpt>
      <trkpt lat="45.69664" lon="4.04053">
        <ele>424.96</ele>
        <time>2015-03-07T12:05:16Z</time>
      </trkpt>
      <trkpt lat="45.69666" lon="4.04061">
        <ele>425.05</ele>
        <time>2015-03-07T12:05:17Z</time>
      </trkpt>
      <trkpt lat="45.69667" lon="4.04069">
        <ele>425.15</ele>
        <time>2015-03-07T12:05:18Z</time>
      </trkpt>
      <trkpt lat="45.69669" lon="4.04077">
        <ele>425.2</ele>
        <time>2015-03-07T12:05:19Z</time>
      </trkpt>
      <trkpt lat="45.6967" lon="4.04085">
        <ele>425.27</ele>
        <time>2015-03-07T12:05:20Z</time>
      </trkpt>
      <trkpt lat="45.69672" lon="4.04093">
        <ele>425.36</ele>
        <time>2015-03-07T12:05:21Z</time>
      </trkpt>
      <trkpt lat="45.69673" lon="4.04101">
        <ele>425.45</ele>
        <time>2015-03-07T12:05:22Z</time>
      </trkpt>
      <trkpt lat="45.69675" lon="4.04109">
        <ele>425.45</ele>
        <time>2015-03-07T12:05:23Z</time>
      </trkpt>
      <trkpt lat="45.69676" lon="4.04118">
        <ele>425.45</ele>
        <time>2015-03-07T12:05:24Z</time>
      </trkpt>
      <trkpt lat="45.69678" lon="4.04126">
        <ele>425.44</ele>
        <time>2015-03-07T12:05:25Z</time>
      </trkpt>
      <trkpt lat="45.6968" lon="4.04134">
        <ele>425.39</ele>
        <time>2015-03-07T12:05:26Z</time>
      </trkpt>
      <trkpt lat="45.69681" lon="4.04142">
        <ele>425.32</ele>
        <time>2015-03-07T12:05:27Z</time>
      </trkpt>
      <trkpt lat="45.69683" lon="4.0415">
        <ele>425.28</ele>
        <time>2015-03-07T12:05:28Z</time>
      </trkpt>
      <trkpt lat="45.69685" lon="4.04157">
        <ele>425.21</ele>
        <time>2015-03-07T12:05:29Z</time>
      </trkpt>
      <trkpt lat="45.69686" lon="4.04165">
        <ele>425.08</ele>
        <time>2015-03-07T12:05:30Z</time>
      </trkpt>
      <trkpt lat="45.69688" lon="4.04173">
        <ele>424.96</ele>
        <time>2015-03-07T12:05:31Z</time>
      </trkpt>
      <trkpt lat="45.69689" lon="4.04182">
        <ele>424.8</ele>
        <time>2015-03-07T12:05:32Z</time>
      </trkpt>
      <trkpt lat="45.69691" lon="4.0419">
        <ele>424.62</ele>
        <time>2015-03-07T12:05:33Z</time>
      </trkpt>
      <trkpt lat="45.69693" lon="4.04199">
        <ele>424.43</ele>
        <time>2015-03-07T12:05:34Z</time>
      </trkpt>
      <trkpt lat="45.69694" lon="4.04208">
        <ele>424.24</ele>
        <time>2015-03-07T12:05:35Z</time>
      </trkpt>
      <trkpt lat="45.69696" lon="4.04217">
        <ele>424.04</ele>
        <time>2015-03-07T12:05:36Z</time>
      </trkpt>
      <trkpt lat="45.69698" lon="4.04226">
        <ele>423.84</ele>
        <time>2015-03-07T12:05:37Z</time>
      </trkpt>
      <trkpt lat="45.697" lon="4.04235">
        <ele>423.64</ele>
        <time>2015-03-07T12:05:38Z</time>
      </trkpt>
      <trkpt lat="45.69702" lon="4.04244">
        <ele>423.44</ele>
        <time>2015-03-07T12:05:39Z</time>
      </trkpt>
      <trkpt lat="45.69705" lon="4.04255">
        <ele>423.24</ele>
        <time>2015-03-07T12:05:40Z</time>
      </trkpt>
      <trkpt lat="45.69707" lon="4.04265">
        <ele>422.99</ele>
        <time>2015-03-07T12:05:41Z</time>
      </trkpt>
      <trkpt lat="45.6971" lon="4.04275">
        <ele>422.77</ele>
        <time>2015-03-07T12:05:42Z</time>
      </trkpt>
      <trkpt lat="45.69713" lon="4.04286">
        <ele>422.61</ele>
        <time>2015-03-07T12:05:43Z</time>
      </trkpt>
      <trkpt lat="45.69716" lon="4.04296">
        <ele>422.48</ele>
        <time>2015-03-07T12:05:44Z</time>
      </trkpt>
      <trkpt lat="45.6972" lon="4.04306">
        <ele>422.36</ele>
        <time>2015-03-07T12:05:45Z</time>
      </trkpt>
      <trkpt lat="45.69723" lon="4.04315">
        <ele>422.25</ele>
        <time>2015-03-07T12:05:46Z</time>
      </trkpt>
      <trkpt lat="45.69727" lon="4.04324">
        <ele>422.2</ele>
        <time>2015-03-07T12:05:47Z</time>
      </trkpt>
      <trkpt lat="45.6973" lon="4.04333">
        <ele>422.12</ele>
        <time>2015-03-07T12:05:48Z</time>
      </trkpt>
      <trkpt lat="45.69733" lon="4.04341">
        <ele>422.13</ele>
        <time>2015-03-07T12:05:49Z</time>
      </trkpt>
      <trkpt lat="45.69736" lon="4.04349">
        <ele>422.14</ele>
        <time>2015-03-07T12:05:50Z</time>
      </trkpt>
      <trkpt lat="45.69739" lon="4.04357">
        <ele>422.14</ele>
        <time>2015-03-07T12:05:51Z</time>
      </trkpt>
      <trkpt lat="45.69742" lon="4.04365">
        <ele>422.09</ele>
        <time>2015-03-07T12:05:52Z</time>
      </trkpt>
      <trkpt lat="45.69745" lon="4.04372">
        <ele>422.02</ele>
        <time>2015-03-07T12:05:53Z</time>
      </trkpt>
      <trkpt lat="45.69748" lon="4.0438">
        <ele>421.93</ele>
        <time>2015-03-07T12:05:54Z</time>
      </trkpt>
      <trkpt lat="45.69751" lon="4.04388">
        <ele>421.89</ele>
        <time>2015-03-07T12:05:55Z</time>
      </trkpt>
      <trkpt lat="45.69754" lon="4.04397">
        <ele>421.87</ele>
        <time>2015-03-07T12:05:56Z</time>
      </trkpt>
      <trkpt lat="45.69757" lon="4.04405">
        <ele>421.8</ele>
        <time>2015-03-07T12:05:57Z</time>
      </trkpt>
      <trkpt lat="45.6976" lon="4.04414">
        <ele>421.72</ele>
        <time>2015-03-07T12:05:58Z</time>
      </trkpt>
      <trkpt lat="45.69763" lon="4.04424">
        <ele>421.63</ele>
        <time>2015-03-07T12:05:59Z</time>
      </trkpt>
      <trkpt lat="45.69765" lon="4.04433">
        <ele>421.54</ele>
        <time>2015-03-07T12:06:00Z</time>
      </trkpt>
      <trkpt lat="45.69768" lon="4.04443">
        <ele>421.44</ele>
        <time>2015-03-07T12:06:01Z</time>
      </trkpt>
      <trkpt lat="45.6977" lon="4.04453">
        <ele>421.29</ele>
        <time>2015-03-07T12:06:02Z</time>
      </trkpt>
      <trkpt lat="45.69772" lon="4.04463">
        <ele>421.12</ele>
        <time>2015-03-07T12:06:03Z</time>
      </trkpt>
      <trkpt lat="45.69774" lon="4.04473">
        <ele>420.88</ele>
        <time>2015-03-07T12:06:04Z</time>
      </trkpt>
      <trkpt lat="45.69776" lon="4.04484">
        <ele>420.71</ele>
        <time>2015-03-07T12:06:05Z</time>
      </trkpt>
      <trkpt lat="45.69779" lon="4.04494">
        <ele>420.53</ele>
        <time>2015-03-07T12:06:06Z</time>
      </trkpt>
      <trkpt lat="45.69781" lon="4.04505">
        <ele>420.39</ele>
        <time>2015-03-07T12:06:07Z</time>
      </trkpt>
      <trkpt lat="45.69783" lon="4.04515">
        <ele>420.27</ele>
        <time>2015-03-07T12:06:08Z</time>
      </trkpt>
      <trkpt lat="45.69785" lon="4.04524">
        <ele>420.1</ele>
        <time>2015-03-07T12:06:09Z</time>
      </trkpt>
      <trkpt lat="45.69788" lon="4.04534">
        <ele>419.97</ele>
        <time>2015-03-07T12:06:10Z</time>
      </trkpt>
      <trkpt lat="45.6979" lon="4.04543">
        <ele>419.86</ele>
        <time>2015-03-07T12:06:11Z</time>
      </trkpt>
      <trkpt lat="45.69793" lon="4.04552">
        <ele>419.75</ele>
        <time>2015-03-07T12:06:12Z</time>
      </trkpt>
      <trkpt lat="45.69795" lon="4.04562">
        <ele>419.65</ele>
        <time>2015-03-07T12:06:13Z</time>
      </trkpt>
      <trkpt lat="45.69798" lon="4.04571">
        <ele>419.45</ele>
        <time>2015-03-07T12:06:14Z</time>
      </trkpt>
      <trkpt lat="45.69801" lon="4.04581">
        <ele>419.24</ele>
        <time>2015-03-07T12:06:15Z</time>
      </trkpt>
      <trkpt lat="45.69804" lon="4.04591">
        <ele>419.04</ele>
        <time>2015-03-07T12:06:16Z</time>
      </trkpt>
      <trkpt lat="45.69807" lon="4.04602">
        <ele>418.84</ele>
        <time>2015-03-07T12:06:17Z</time>
      </trkpt>
      <trkpt lat="45.6981" lon="4.04613">
        <ele>418.59</ele>
        <time>2015-03-07T12:06:18Z</time>
      </trkpt>
      <trkpt lat="45.69814" lon="4.04624">
        <ele>418.37</ele>
        <time>2015-03-07T12:06:19Z</time>
      </trkpt>
      <trkpt lat="45.69817" lon="4.04635">
        <ele>418.16</ele>
        <time>2015-03-07T12:06:20Z</time>
      </trkpt>
      <trkpt lat="45.69821" lon="4.04645">
        <ele>418</ele>
        <time>2015-03-07T12:06:21Z</time>
      </trkpt>
      <trkpt lat="45.69824" lon="4.04656">
        <ele>417.82</ele>
        <time>2015-03-07T12:06:22Z</time>
      </trkpt>
      <trkpt lat="45.69828" lon="4.04667">
        <ele>417.63</ele>
        <time>2015-03-07T12:06:23Z</time>
      </trkpt>
      <trkpt lat="45.69832" lon="4.04678">
        <ele>417.49</ele>
        <time>2015-03-07T12:06:24Z</time>
      </trkpt>
      <trkpt lat="45.69836" lon="4.04689">
        <ele>417.32</ele>
        <time>2015-03-07T12:06:25Z</time>
      </trkpt>
      <trkpt lat="45.6984" lon="4.047">
        <ele>417.18</ele>
        <time>2015-03-07T12:06:26Z</time>
      </trkpt>
      <trkpt lat="45.69844" lon="4.0471">
        <ele>417.06</ele>
        <time>2015-03-07T12:06:27Z</time>
      </trkpt>
      <trkpt lat="45.69848" lon="4.0472">
        <ele>416.9</ele>
        <time>2015-03-07T12:06:28Z</time>
      </trkpt>
      <trkpt lat="45.69851" lon="4.0473">
        <ele>416.77</ele>
        <time>2015-03-07T12:06:29Z</time>
      </trkpt>
      <trkpt lat="45.69855" lon="4.0474">
        <ele>416.71</ele>
        <time>2015-03-07T12:06:30Z</time>
      </trkpt>
      <trkpt lat="45.69859" lon="4.04749">
        <ele>416.63</ele>
        <time>2015-03-07T12:06:31Z</time>
      </trkpt>
      <trkpt lat="45.69862" lon="4.04758">
        <ele>416.59</ele>
        <time>2015-03-07T12:06:32Z</time>
      </trkpt>
      <trkpt lat="45.69865" lon="4.04767">
        <ele>416.56</ele>
        <time>2015-03-07T12:06:33Z</time>
      </trkpt>
      <trkpt lat="45.69867" lon="4.04775">
        <ele>416.55</ele>
        <time>2015-03-07T12:06:34Z</time>
      </trkpt>
      <trkpt lat="45.69869" lon="4.04783">
        <ele>416.5</ele>
        <time>2015-03-07T12:06:35Z</time>
      </trkpt>
      <trkpt lat="45.69871" lon="4.04791">
        <ele>416.47</ele>
        <time>2015-03-07T12:06:36Z</time>
      </trkpt>
      <trkpt lat="45.69873" lon="4.04799">
        <ele>416.41</ele>
        <time>2015-03-07T12:06:37Z</time>
      </trkpt>
      <trkpt lat="45.69875" lon="4.04807">
        <ele>416.28</ele>
        <time>2015-03-07T12:06:38Z</time>
      </trkpt>
      <trkpt lat="45.69877" lon="4.04815">
        <ele>416.11</ele>
        <time>2015-03-07T12:06:39Z</time>
      </trkpt>
      <trkpt lat="45.69879" lon="4.04822">
        <ele>415.93</ele>
        <time>2015-03-07T12:06:40Z</time>
      </trkpt>
      <trkpt lat="45.69881" lon="4.0483">
        <ele>415.74</ele>
        <time>2015-03-07T12:06:41Z</time>
      </trkpt>
      <trkpt lat="45.69884" lon="4.04839">
        <ele>415.59</ele>
        <time>2015-03-07T12:06:42Z</time>
      </trkpt>
      <trkpt lat="45.69886" lon="4.04847">
        <ele>415.37</ele>
        <time>2015-03-07T12:06:43Z</time>
      </trkpt>
      <trkpt lat="45.69888" lon="4.04856">
        <ele>415.21</ele>
        <time>2015-03-07T12:06:44Z</time>
      </trkpt>
      <trkpt lat="45.6989" lon="4.04865">
        <ele>415.02</ele>
        <time>2015-03-07T12:06:45Z</time>
      </trkpt>
      <trkpt lat="45.69893" lon="4.04873">
        <ele>414.93</ele>
        <time>2015-03-07T12:06:46Z</time>
      </trkpt>
      <trkpt lat="45.69895" lon="4.04882">
        <ele>414.84</ele>
        <time>2015-03-07T12:06:47Z</time>
      </trkpt>
      <trkpt lat="45.69897" lon="4.0489">
        <ele>414.64</ele>
        <time>2015-03-07T12:06:48Z</time>
      </trkpt>
      <trkpt lat="45.699" lon="4.04897">
        <ele>414.49</ele>
        <time>2015-03-07T12:06:49Z</time>
      </trkpt>
      <trkpt lat="45.69904" lon="4.04904">
        <ele>414.42</ele>
        <time>2015-03-07T12:06:50Z</time>
      </trkpt>
      <trkpt lat="45.69908" lon="4.04909">
        <ele>414.43</ele>
        <time>2015-03-07T12:06:51Z</time>
      </trkpt>
      <trkpt lat="45.69913" lon="4.04914">
        <ele>414.44</ele>
        <time>2015-03-07T12:06:52Z</time>
      </trkpt>
      <trkpt lat="45.69918" lon="4.04918">
        <ele>414.39</ele>
        <time>2015-03-07T12:06:53Z</time>
      </trkpt>
      <trkpt lat="45.69922" lon="4.04923">
        <ele>414.32</ele>
        <time>2015-03-07T12:06:54Z</time>
      </trkpt>
      <trkpt lat="45.69926" lon="4.04929">
        <ele>414.13</ele>
        <time>2015-03-07T12:06:55Z</time>
      </trkpt>
      <trkpt lat="45.69929" lon="4.04937">
        <ele>413.94</ele>
        <time>2015-03-07T12:06:56Z</time>
      </trkpt>
      <trkpt lat="45.6993" lon="4.04947">
        <ele>413.84</ele>
        <time>2015-03-07T12:06:57Z</time>
      </trkpt>
      <trkpt lat="45.69932" lon="4.04958">
        <ele>413.64</ele>
        <time>2015-03-07T12:06:58Z</time>
      </trkpt>
      <trkpt lat="45.69932" lon="4.04969">
        <ele>413.34</ele>
        <time>2015-03-07T12:06:59Z</time>
      </trkpt>
      <trkpt lat="45.69933" lon="4.04981">
        <ele>412.99</ele>
        <time>2015-03-07T12:07:00Z</time>
      </trkpt>
      <trkpt lat="45.69935" lon="4.04993">
        <ele>412.52</ele>
        <time>2015-03-07T12:07:01Z</time>
      </trkpt>
      <trkpt lat="45.69938" lon="4.05004">
        <ele>411.98</ele>
        <time>2015-03-07T12:07:02Z</time>
      </trkpt>
      <trkpt lat="45.69942" lon="4.05015">
        <ele>411.41</ele>
        <time>2015-03-07T12:07:03Z</time>
      </trkpt>
      <trkpt lat="45.69947" lon="4.05026">
        <ele>410.78</ele>
        <time>2015-03-07T12:07:04Z</time>
      </trkpt>
      <trkpt lat="45.69952" lon="4.05036">
        <ele>410.31</ele>
        <time>2015-03-07T12:07:05Z</time>
      </trkpt>
      <trkpt lat="45.69957" lon="4.05047">
        <ele>409.83</ele>
        <time>2015-03-07T12:07:06Z</time>
      </trkpt>
      <trkpt lat="45.69962" lon="4.05056">
        <ele>409.24</ele>
        <time>2015-03-07T12:07:07Z</time>
      </trkpt>
      <trkpt lat="45.69968" lon="4.05065">
        <ele>408.69</ele>
        <time>2015-03-07T12:07:08Z</time>
      </trkpt>
      <trkpt lat="45.69973" lon="4.05075">
        <ele>408.37</ele>
        <time>2015-03-07T12:07:09Z</time>
      </trkpt>
      <trkpt lat="45.69978" lon="4.05085">
        <ele>408.11</ele>
        <time>2015-03-07T12:07:10Z</time>
      </trkpt>
      <trkpt lat="45.69983" lon="4.05094">
        <ele>407.82</ele>
        <time>2015-03-07T12:07:11Z</time>
      </trkpt>
      <trkpt lat="45.69988" lon="4.05104">
        <ele>407.48</ele>
        <time>2015-03-07T12:07:12Z</time>
      </trkpt>
      <trkpt lat="45.69993" lon="4.05114">
        <ele>407.11</ele>
        <time>2015-03-07T12:07:13Z</time>
      </trkpt>
      <trkpt lat="45.69998" lon="4.05123">
        <ele>406.73</ele>
        <time>2015-03-07T12:07:14Z</time>
      </trkpt>
      <trkpt lat="45.70003" lon="4.05132">
        <ele>406.44</ele>
        <time>2015-03-07T12:07:15Z</time>
      </trkpt>
      <trkpt lat="45.70008" lon="4.05141">
        <ele>406.09</ele>
        <time>2015-03-07T12:07:16Z</time>
      </trkpt>
      <trkpt lat="45.70013" lon="4.0515">
        <ele>405.77</ele>
        <time>2015-03-07T12:07:17Z</time>
      </trkpt>
      <trkpt lat="45.70018" lon="4.05159">
        <ele>405.46</ele>
        <time>2015-03-07T12:07:18Z</time>
      </trkpt>
      <trkpt lat="45.70023" lon="4.05167">
        <ele>405.1</ele>
        <time>2015-03-07T12:07:19Z</time>
      </trkpt>
      <trkpt lat="45.70029" lon="4.05176">
        <ele>404.82</ele>
        <time>2015-03-07T12:07:20Z</time>
      </trkpt>
      <trkpt lat="45.70034" lon="4.05183">
        <ele>404.48</ele>
        <time>2015-03-07T12:07:21Z</time>
      </trkpt>
      <trkpt lat="45.7004" lon="4.0519">
        <ele>404.26</ele>
        <time>2015-03-07T12:07:22Z</time>
      </trkpt>
      <trkpt lat="45.70047" lon="4.05197">
        <ele>404.05</ele>
        <time>2015-03-07T12:07:23Z</time>
      </trkpt>
      <trkpt lat="45.70054" lon="4.05203">
        <ele>403.85</ele>
        <time>2015-03-07T12:07:24Z</time>
      </trkpt>
      <trkpt lat="45.7006" lon="4.05208">
        <ele>403.6</ele>
        <time>2015-03-07T12:07:25Z</time>
      </trkpt>
      <trkpt lat="45.70067" lon="4.05213">
        <ele>403.47</ele>
        <time>2015-03-07T12:07:26Z</time>
      </trkpt>
      <trkpt lat="45.70074" lon="4.05218">
        <ele>403.31</ele>
        <time>2015-03-07T12:07:27Z</time>
      </trkpt>
      <trkpt lat="45.70081" lon="4.05223">
        <ele>403.13</ele>
        <time>2015-03-07T12:07:28Z</time>
      </trkpt>
      <trkpt lat="45.70088" lon="4.05228">
        <ele>402.93</ele>
        <time>2015-03-07T12:07:29Z</time>
      </trkpt>
      <trkpt lat="45.70095" lon="4.05234">
        <ele>402.74</ele>
        <time>2015-03-07T12:07:30Z</time>
      </trkpt>
      <trkpt lat="45.70102" lon="4.05239">
        <ele>402.49</ele>
        <time>2015-03-07T12:07:31Z</time>
      </trkpt>
      <trkpt lat="45.70109" lon="4.05245">
        <ele>402.22</ele>
        <time>2015-03-07T12:07:32Z</time>
      </trkpt>
      <trkpt lat="45.70116" lon="4.05251">
        <ele>401.98</ele>
        <time>2015-03-07T12:07:33Z</time>
      </trkpt>
      <trkpt lat="45.70124" lon="4.05257">
        <ele>401.71</ele>
        <time>2015-03-07T12:07:34Z</time>
      </trkpt>
      <trkpt lat="45.70132" lon="4.05263">
        <ele>401.53</ele>
        <time>2015-03-07T12:07:35Z</time>
      </trkpt>
      <trkpt lat="45.70139" lon="4.05269">
        <ele>401.34</ele>
        <time>2015-03-07T12:07:36Z</time>
      </trkpt>
      <trkpt lat="45.70147" lon="4.05275">
        <ele>401.09</ele>
        <time>2015-03-07T12:07:37Z</time>
      </trkpt>
      <trkpt lat="45.70155" lon="4.0528">
        <ele>400.82</ele>
        <time>2015-03-07T12:07:38Z</time>
      </trkpt>
      <trkpt lat="45.70162" lon="4.05286">
        <ele>400.43</ele>
        <time>2015-03-07T12:07:39Z</time>
      </trkpt>
      <trkpt lat="45.7017" lon="4.05292">
        <ele>399.99</ele>
        <time>2015-03-07T12:07:40Z</time>
      </trkpt>
      <trkpt lat="45.70177" lon="4.05298">
        <ele>399.62</ele>
        <time>2015-03-07T12:07:41Z</time>
      </trkpt>
      <trkpt lat="45.70184" lon="4.05303">
        <ele>399.43</ele>
        <time>2015-03-07T12:07:42Z</time>
      </trkpt>
      <trkpt lat="45.70191" lon="4.05309">
        <ele>399.19</ele>
        <time>2015-03-07T12:07:43Z</time>
      </trkpt>
      <trkpt lat="45.70198" lon="4.05314">
        <ele>399.02</ele>
        <time>2015-03-07T12:07:44Z</time>
      </trkpt>
      <trkpt lat="45.70205" lon="4.05319">
        <ele>398.78</ele>
        <time>2015-03-07T12:07:45Z</time>
      </trkpt>
      <trkpt lat="45.70212" lon="4.05324">
        <ele>398.56</ele>
        <time>2015-03-07T12:07:46Z</time>
      </trkpt>
      <trkpt lat="45.70219" lon="4.05329">
        <ele>398.4</ele>
        <time>2015-03-07T12:07:47Z</time>
      </trkpt>
      <trkpt lat="45.70226" lon="4.05334">
        <ele>398.22</ele>
        <time>2015-03-07T12:07:48Z</time>
      </trkpt>
      <trkpt lat="45.70232" lon="4.05339">
        <ele>398.03</ele>
        <time>2015-03-07T12:07:49Z</time>
      </trkpt>
      <trkpt lat="45.70239" lon="4.05345">
        <ele>397.84</ele>
        <time>2015-03-07T12:07:50Z</time>
      </trkpt>
      <trkpt lat="45.70246" lon="4.0535">
        <ele>397.59</ele>
        <time>2015-03-07T12:07:51Z</time>
      </trkpt>
      <trkpt lat="45.70254" lon="4.05356">
        <ele>397.32</ele>
        <time>2015-03-07T12:07:52Z</time>
      </trkpt>
      <trkpt lat="45.70261" lon="4.05362">
        <ele>397.03</ele>
        <time>2015-03-07T12:07:53Z</time>
      </trkpt>
      <trkpt lat="45.70269" lon="4.05368">
        <ele>396.79</ele>
        <time>2015-03-07T12:07:54Z</time>
      </trkpt>
      <trkpt lat="45.70276" lon="4.05374">
        <ele>396.57</ele>
        <time>2015-03-07T12:07:55Z</time>
      </trkpt>
      <trkpt lat="45.70284" lon="4.05379">
        <ele>396.4</ele>
        <time>2015-03-07T12:07:56Z</time>
      </trkpt>
      <trkpt lat="45.70291" lon="4.05385">
        <ele>396.22</ele>
        <time>2015-03-07T12:07:57Z</time>
      </trkpt>
      <trkpt lat="45.70298" lon="4.05391">
        <ele>396.03</ele>
        <time>2015-03-07T12:07:58Z</time>
      </trkpt>
      <trkpt lat="45.70306" lon="4.05397">
        <ele>395.84</ele>
        <time>2015-03-07T12:07:59Z</time>
      </trkpt>
      <trkpt lat="45.70312" lon="4.05402">
        <ele>395.69</ele>
        <time>2015-03-07T12:08:00Z</time>
      </trkpt>
      <trkpt lat="45.70319" lon="4.05407">
        <ele>395.62</ele>
        <time>2015-03-07T12:08:01Z</time>
      </trkpt>
      <trkpt lat="45.70326" lon="4.05412">
        <ele>395.48</ele>
        <time>2015-03-07T12:08:02Z</time>
      </trkpt>
      <trkpt lat="45.70333" lon="4.05417">
        <ele>395.26</ele>
        <time>2015-03-07T12:08:03Z</time>
      </trkpt>
      <trkpt lat="45.7034" lon="4.05421">
        <ele>395.05</ele>
        <time>2015-03-07T12:08:04Z</time>
      </trkpt>
      <trkpt lat="45.70348" lon="4.05424">
        <ele>394.85</ele>
        <time>2015-03-07T12:08:05Z</time>
      </trkpt>
      <trkpt lat="45.70356" lon="4.05426">
        <ele>394.65</ele>
        <time>2015-03-07T12:08:06Z</time>
      </trkpt>
      <trkpt lat="45.70365" lon="4.05426">
        <ele>394.45</ele>
        <time>2015-03-07T12:08:07Z</time>
      </trkpt>
      <trkpt lat="45.70373" lon="4.05425">
        <ele>394.29</ele>
        <time>2015-03-07T12:08:08Z</time>
      </trkpt>
      <trkpt lat="45.70382" lon="4.05425">
        <ele>394.02</ele>
        <time>2015-03-07T12:08:09Z</time>
      </trkpt>
      <trkpt lat="45.70391" lon="4.05424">
        <ele>393.78</ele>
        <time>2015-03-07T12:08:10Z</time>
      </trkpt>
      <trkpt lat="45.70399" lon="4.05425">
        <ele>393.56</ele>
        <time>2015-03-07T12:08:11Z</time>
      </trkpt>
      <trkpt lat="45.70408" lon="4.05425">
        <ele>393.4</ele>
        <time>2015-03-07T12:08:12Z</time>
      </trkpt>
      <trkpt lat="45.70416" lon="4.05427">
        <ele>393.22</ele>
        <time>2015-03-07T12:08:13Z</time>
      </trkpt>
      <trkpt lat="45.70424" lon="4.05428">
        <ele>393.13</ele>
        <time>2015-03-07T12:08:14Z</time>
      </trkpt>
      <trkpt lat="45.70432" lon="4.0543">
        <ele>393.14</ele>
        <time>2015-03-07T12:08:15Z</time>
      </trkpt>
      <trkpt lat="45.7044" lon="4.05433">
        <ele>393.19</ele>
        <time>2015-03-07T12:08:16Z</time>
      </trkpt>
      <trkpt lat="45.70447" lon="4.05436">
        <ele>393.22</ele>
        <time>2015-03-07T12:08:17Z</time>
      </trkpt>
      <trkpt lat="45.70455" lon="4.05439">
        <ele>393.23</ele>
        <time>2015-03-07T12:08:18Z</time>
      </trkpt>
      <trkpt lat="45.70462" lon="4.05442">
        <ele>393.19</ele>
        <time>2015-03-07T12:08:19Z</time>
      </trkpt>
      <trkpt lat="45.70469" lon="4.05444">
        <ele>393.12</ele>
        <time>2015-03-07T12:08:20Z</time>
      </trkpt>
      <trkpt lat="45.70476" lon="4.05447">
        <ele>393.08</ele>
        <time>2015-03-07T12:08:21Z</time>
      </trkpt>
      <trkpt lat="45.70483" lon="4.0545">
        <ele>393.11</ele>
        <time>2015-03-07T12:08:22Z</time>
      </trkpt>
      <trkpt lat="45.7049" lon="4.05453">
        <ele>393.08</ele>
        <time>2015-03-07T12:08:23Z</time>
      </trkpt>
      <trkpt lat="45.70497" lon="4.05456">
        <ele>392.96</ele>
        <time>2015-03-07T12:08:24Z</time>
      </trkpt>
      <trkpt lat="45.70505" lon="4.0546">
        <ele>392.85</ele>
        <time>2015-03-07T12:08:25Z</time>
      </trkpt>
      <trkpt lat="45.70512" lon="4.05463">
        <ele>392.75</ele>
        <time>2015-03-07T12:08:26Z</time>
      </trkpt>
      <trkpt lat="45.7052" lon="4.05467">
        <ele>392.7</ele>
        <time>2015-03-07T12:08:27Z</time>
      </trkpt>
      <trkpt lat="45.70527" lon="4.0547">
        <ele>392.62</ele>
        <time>2015-03-07T12:08:28Z</time>
      </trkpt>
      <trkpt lat="45.70535" lon="4.05474">
        <ele>392.53</ele>
        <time>2015-03-07T12:08:29Z</time>
      </trkpt>
      <trkpt lat="45.70542" lon="4.05477">
        <ele>392.39</ele>
        <time>2015-03-07T12:08:30Z</time>
      </trkpt>
      <trkpt lat="45.70549" lon="4.05481">
        <ele>392.32</ele>
        <time>2015-03-07T12:08:31Z</time>
      </trkpt>
      <trkpt lat="45.70557" lon="4.05483">
        <ele>392.28</ele>
        <time>2015-03-07T12:08:32Z</time>
      </trkpt>
      <trkpt lat="45.70564" lon="4.05486">
        <ele>392.21</ele>
        <time>2015-03-07T12:08:33Z</time>
      </trkpt>
      <trkpt lat="45.70571" lon="4.05488">
        <ele>392.18</ele>
        <time>2015-03-07T12:08:34Z</time>
      </trkpt>
      <trkpt lat="45.70577" lon="4.05489">
        <ele>392.11</ele>
        <time>2015-03-07T12:08:35Z</time>
      </trkpt>
      <trkpt lat="45.70584" lon="4.0549">
        <ele>392.03</ele>
        <time>2015-03-07T12:08:36Z</time>
      </trkpt>
      <trkpt lat="45.70591" lon="4.05491">
        <ele>391.99</ele>
        <time>2015-03-07T12:08:37Z</time>
      </trkpt>
      <trkpt lat="45.70598" lon="4.05492">
        <ele>391.91</ele>
        <time>2015-03-07T12:08:38Z</time>
      </trkpt>
      <trkpt lat="45.70605" lon="4.05492">
        <ele>391.83</ele>
        <time>2015-03-07T12:08:39Z</time>
      </trkpt>
      <trkpt lat="45.70612" lon="4.05492">
        <ele>391.74</ele>
        <time>2015-03-07T12:08:40Z</time>
      </trkpt>
      <trkpt lat="45.70619" lon="4.05492">
        <ele>391.64</ele>
        <time>2015-03-07T12:08:41Z</time>
      </trkpt>
      <trkpt lat="45.70626" lon="4.05493">
        <ele>391.54</ele>
        <time>2015-03-07T12:08:42Z</time>
      </trkpt>
      <trkpt lat="45.70633" lon="4.05493">
        <ele>391.49</ele>
        <time>2015-03-07T12:08:43Z</time>
      </trkpt>
      <trkpt lat="45.7064" lon="4.05493">
        <ele>391.42</ele>
        <time>2015-03-07T12:08:44Z</time>
      </trkpt>
      <trkpt lat="45.70647" lon="4.05493">
        <ele>391.38</ele>
        <time>2015-03-07T12:08:45Z</time>
      </trkpt>
      <trkpt lat="45.70654" lon="4.05494">
        <ele>391.36</ele>
        <time>2015-03-07T12:08:46Z</time>
      </trkpt>
      <trkpt lat="45.70661" lon="4.05494">
        <ele>391.3</ele>
        <time>2015-03-07T12:08:47Z</time>
      </trkpt>
      <trkpt lat="45.70668" lon="4.05494">
        <ele>391.17</ele>
        <time>2015-03-07T12:08:48Z</time>
      </trkpt>
      <trkpt lat="45.70675" lon="4.05494">
        <ele>391.01</ele>
        <time>2015-03-07T12:08:49Z</time>
      </trkpt>
      <trkpt lat="45.70682" lon="4.05494">
        <ele>390.83</ele>
        <time>2015-03-07T12:08:50Z</time>
      </trkpt>
      <trkpt lat="45.70689" lon="4.05494">
        <ele>390.64</ele>
        <time>2015-03-07T12:08:51Z</time>
      </trkpt>
      <trkpt lat="45.70697" lon="4.05495">
        <ele>390.49</ele>
        <time>2015-03-07T12:08:52Z</time>
      </trkpt>
      <trkpt lat="45.70704" lon="4.05496">
        <ele>390.37</ele>
        <time>2015-03-07T12:08:53Z</time>
      </trkpt>
      <trkpt lat="45.70711" lon="4.05496">
        <ele>390.26</ele>
        <time>2015-03-07T12:08:54Z</time>
      </trkpt>
      <trkpt lat="45.70718" lon="4.05496">
        <ele>390.15</ele>
        <time>2015-03-07T12:08:55Z</time>
      </trkpt>
      <trkpt lat="45.70725" lon="4.05496">
        <ele>390.05</ele>
        <time>2015-03-07T12:08:56Z</time>
      </trkpt>
      <trkpt lat="45.70731" lon="4.05497">
        <ele>390</ele>
        <time>2015-03-07T12:08:57Z</time>
      </trkpt>
      <trkpt lat="45.70738" lon="4.05497">
        <ele>389.92</ele>
        <time>2015-03-07T12:08:58Z</time>
      </trkpt>
      <trkpt lat="45.70744" lon="4.05498">
        <ele>389.88</ele>
        <time>2015-03-07T12:08:59Z</time>
      </trkpt>
      <trkpt lat="45.70751" lon="4.05498">
        <ele>389.91</ele>
        <time>2015-03-07T12:09:00Z</time>
      </trkpt>
      <trkpt lat="45.70757" lon="4.05499">
        <ele>389.93</ele>
        <time>2015-03-07T12:09:01Z</time>
      </trkpt>
      <trkpt lat="45.70763" lon="4.05499">
        <ele>389.94</ele>
        <time>2015-03-07T12:09:02Z</time>
      </trkpt>
      <trkpt lat="45.7077" lon="4.05499">
        <ele>389.94</ele>
        <time>2015-03-07T12:09:03Z</time>
      </trkpt>
      <trkpt lat="45.70776" lon="4.05499">
        <ele>390.09</ele>
        <time>2015-03-07T12:09:04Z</time>
      </trkpt>
      <trkpt lat="45.70782" lon="4.055">
        <ele>390.12</ele>
        <time>2015-03-07T12:09:05Z</time>
      </trkpt>
      <trkpt lat="45.70788" lon="4.055">
        <ele>390.13</ele>
        <time>2015-03-07T12:09:06Z</time>
      </trkpt>
      <trkpt lat="45.70795" lon="4.055">
        <ele>390.09</ele>
        <time>2015-03-07T12:09:07Z</time>
      </trkpt>
      <trkpt lat="45.70801" lon="4.05501">
        <ele>390.07</ele>
        <time>2015-03-07T12:09:08Z</time>
      </trkpt>
      <trkpt lat="45.70808" lon="4.05501">
        <ele>390</ele>
        <time>2015-03-07T12:09:09Z</time>
      </trkpt>
      <trkpt lat="45.70813" lon="4.05501">
        <ele>390.02</ele>
        <time>2015-03-07T12:09:10Z</time>
      </trkpt>
      <trkpt lat="45.7082" lon="4.05502">
        <ele>390.08</ele>
        <time>2015-03-07T12:09:11Z</time>
      </trkpt>
      <trkpt lat="45.70825" lon="4.05502">
        <ele>390.11</ele>
        <time>2015-03-07T12:09:12Z</time>
      </trkpt>
      <trkpt lat="45.70831" lon="4.05503">
        <ele>390.13</ele>
        <time>2015-03-07T12:09:13Z</time>
      </trkpt>
      <trkpt lat="45.70836" lon="4.05504">
        <ele>390.09</ele>
        <time>2015-03-07T12:09:14Z</time>
      </trkpt>
      <trkpt lat="45.70842" lon="4.05504">
        <ele>390.12</ele>
        <time>2015-03-07T12:09:15Z</time>
      </trkpt>
      <trkpt lat="45.70849" lon="4.05505">
        <ele>390.13</ele>
        <time>2015-03-07T12:09:16Z</time>
      </trkpt>
      <trkpt lat="45.70855" lon="4.05505">
        <ele>390.09</ele>
        <time>2015-03-07T12:09:17Z</time>
      </trkpt>
      <trkpt lat="45.70861" lon="4.05505">
        <ele>390.07</ele>
        <time>2015-03-07T12:09:18Z</time>
      </trkpt>
      <trkpt lat="45.70867" lon="4.05506">
        <ele>390</ele>
        <time>2015-03-07T12:09:19Z</time>
      </trkpt>
      <trkpt lat="45.70874" lon="4.05506">
        <ele>389.97</ele>
        <time>2015-03-07T12:09:20Z</time>
      </trkpt>
      <trkpt lat="45.7088" lon="4.05506">
        <ele>390.06</ele>
        <time>2015-03-07T12:09:21Z</time>
      </trkpt>
      <trkpt lat="45.70887" lon="4.05507">
        <ele>390.1</ele>
        <time>2015-03-07T12:09:22Z</time>
      </trkpt>
      <trkpt lat="45.70893" lon="4.05507">
        <ele>390.07</ele>
        <time>2015-03-07T12:09:23Z</time>
      </trkpt>
      <trkpt lat="45.709" lon="4.05507">
        <ele>390.01</ele>
        <time>2015-03-07T12:09:24Z</time>
      </trkpt>
      <trkpt lat="45.70906" lon="4.05508">
        <ele>389.93</ele>
        <time>2015-03-07T12:09:25Z</time>
      </trkpt>
      <trkpt lat="45.70913" lon="4.05508">
        <ele>389.79</ele>
        <time>2015-03-07T12:09:26Z</time>
      </trkpt>
      <trkpt lat="45.7092" lon="4.05508">
        <ele>389.61</ele>
        <time>2015-03-07T12:09:27Z</time>
      </trkpt>
      <trkpt lat="45.70928" lon="4.05508">
        <ele>389.43</ele>
        <time>2015-03-07T12:09:28Z</time>
      </trkpt>
      <trkpt lat="45.70935" lon="4.05509">
        <ele>389.19</ele>
        <time>2015-03-07T12:09:29Z</time>
      </trkpt>
      <trkpt lat="45.70943" lon="4.05509">
        <ele>388.92</ele>
        <time>2015-03-07T12:09:30Z</time>
      </trkpt>
      <trkpt lat="45.7095" lon="4.0551">
        <ele>388.68</ele>
        <time>2015-03-07T12:09:31Z</time>
      </trkpt>
      <trkpt lat="45.70957" lon="4.0551">
        <ele>388.41</ele>
        <time>2015-03-07T12:09:32Z</time>
      </trkpt>
      <trkpt lat="45.70965" lon="4.0551">
        <ele>388.23</ele>
        <time>2015-03-07T12:09:33Z</time>
      </trkpt>
      <trkpt lat="45.70972" lon="4.0551">
        <ele>388.04</ele>
        <time>2015-03-07T12:09:34Z</time>
      </trkpt>
      <trkpt lat="45.70978" lon="4.05511">
        <ele>387.84</ele>
        <time>2015-03-07T12:09:35Z</time>
      </trkpt>
      <trkpt lat="45.70985" lon="4.05511">
        <ele>387.69</ele>
        <time>2015-03-07T12:09:36Z</time>
      </trkpt>
      <trkpt lat="45.70992" lon="4.05511">
        <ele>387.52</ele>
        <time>2015-03-07T12:09:37Z</time>
      </trkpt>
      <trkpt lat="45.70999" lon="4.05511">
        <ele>387.33</ele>
        <time>2015-03-07T12:09:38Z</time>
      </trkpt>
      <trkpt lat="45.71005" lon="4.05511">
        <ele>387.14</ele>
        <time>2015-03-07T12:09:39Z</time>
      </trkpt>
      <trkpt lat="45.71012" lon="4.05511">
        <ele>386.94</ele>
        <time>2015-03-07T12:09:40Z</time>
      </trkpt>
      <trkpt lat="45.71018" lon="4.05512">
        <ele>386.79</ele>
        <time>2015-03-07T12:09:41Z</time>
      </trkpt>
      <trkpt lat="45.71025" lon="4.05512">
        <ele>386.67</ele>
        <time>2015-03-07T12:09:42Z</time>
      </trkpt>
      <trkpt lat="45.71031" lon="4.05512">
        <ele>386.51</ele>
        <time>2015-03-07T12:09:43Z</time>
      </trkpt>
      <trkpt lat="45.71038" lon="4.05512">
        <ele>386.33</ele>
        <time>2015-03-07T12:09:44Z</time>
      </trkpt>
      <trkpt lat="45.71045" lon="4.05512">
        <ele>386.08</ele>
        <time>2015-03-07T12:09:45Z</time>
      </trkpt>
      <trkpt lat="45.71051" lon="4.05513">
        <ele>385.86</ele>
        <time>2015-03-07T12:09:46Z</time>
      </trkpt>
      <trkpt lat="45.71059" lon="4.05513">
        <ele>385.6</ele>
        <time>2015-03-07T12:09:47Z</time>
      </trkpt>
      <trkpt lat="45.71066" lon="4.05514">
        <ele>385.47</ele>
        <time>2015-03-07T12:09:48Z</time>
      </trkpt>
      <trkpt lat="45.71073" lon="4.05514">
        <ele>385.31</ele>
        <time>2015-03-07T12:09:49Z</time>
      </trkpt>
      <trkpt lat="45.71081" lon="4.05514">
        <ele>385.08</ele>
        <time>2015-03-07T12:09:50Z</time>
      </trkpt>
      <trkpt lat="45.71088" lon="4.05515">
        <ele>384.86</ele>
        <time>2015-03-07T12:09:51Z</time>
      </trkpt>
      <trkpt lat="45.71096" lon="4.05515">
        <ele>384.7</ele>
        <time>2015-03-07T12:09:52Z</time>
      </trkpt>
      <trkpt lat="45.71103" lon="4.05516">
        <ele>384.47</ele>
        <time>2015-03-07T12:09:53Z</time>
      </trkpt>
      <trkpt lat="45.71111" lon="4.05518">
        <ele>384.21</ele>
        <time>2015-03-07T12:09:54Z</time>
      </trkpt>
      <trkpt lat="45.71119" lon="4.0552">
        <ele>383.98</ele>
        <time>2015-03-07T12:09:55Z</time>
      </trkpt>
      <trkpt lat="45.71127" lon="4.05523">
        <ele>383.81</ele>
        <time>2015-03-07T12:09:56Z</time>
      </trkpt>
      <trkpt lat="45.71134" lon="4.05527">
        <ele>383.68</ele>
        <time>2015-03-07T12:09:57Z</time>
      </trkpt>
      <trkpt lat="45.71141" lon="4.05532">
        <ele>383.56</ele>
        <time>2015-03-07T12:09:58Z</time>
      </trkpt>
      <trkpt lat="45.71148" lon="4.05538">
        <ele>383.5</ele>
        <time>2015-03-07T12:09:59Z</time>
      </trkpt>
      <trkpt lat="45.71154" lon="4.05544">
        <ele>383.42</ele>
        <time>2015-03-07T12:10:00Z</time>
      </trkpt>
      <trkpt lat="45.7116" lon="4.0555">
        <ele>383.33</ele>
        <time>2015-03-07T12:10:01Z</time>
      </trkpt>
      <trkpt lat="45.71166" lon="4.05556">
        <ele>383.19</ele>
        <time>2015-03-07T12:10:02Z</time>
      </trkpt>
      <trkpt lat="45.71172" lon="4.05563">
        <ele>383.12</ele>
        <time>2015-03-07T12:10:03Z</time>
      </trkpt>
      <trkpt lat="45.71178" lon="4.05569">
        <ele>383.03</ele>
        <time>2015-03-07T12:10:04Z</time>
      </trkpt>
      <trkpt lat="45.71184" lon="4.05576">
        <ele>382.94</ele>
        <time>2015-03-07T12:10:05Z</time>
      </trkpt>
      <trkpt lat="45.71191" lon="4.05583">
        <ele>382.89</ele>
        <time>2015-03-07T12:10:06Z</time>
      </trkpt>
      <trkpt lat="45.71196" lon="4.05589">
        <ele>382.82</ele>
        <time>2015-03-07T12:10:07Z</time>
      </trkpt>
      <trkpt lat="45.71202" lon="4.05597">
        <ele>382.73</ele>
        <time>2015-03-07T12:10:08Z</time>
      </trkpt>
      <trkpt lat="45.71208" lon="4.05604">
        <ele>382.49</ele>
        <time>2015-03-07T12:10:09Z</time>
      </trkpt>
      <trkpt lat="45.71214" lon="4.05611">
        <ele>382.37</ele>
        <time>2015-03-07T12:10:10Z</time>
      </trkpt>
      <trkpt lat="45.7122" lon="4.05618">
        <ele>382.15</ele>
        <time>2015-03-07T12:10:11Z</time>
      </trkpt>
      <trkpt lat="45.71226" lon="4.05625">
        <ele>382.1</ele>
        <time>2015-03-07T12:10:12Z</time>
      </trkpt>
      <trkpt lat="45.71232" lon="4.05632">
        <ele>381.92</ele>
        <time>2015-03-07T12:10:13Z</time>
      </trkpt>
      <trkpt lat="45.71238" lon="4.05638">
        <ele>381.88</ele>
        <time>2015-03-07T12:10:14Z</time>
      </trkpt>
      <trkpt lat="45.71244" lon="4.05646">
        <ele>381.81</ele>
        <time>2015-03-07T12:10:15Z</time>
      </trkpt>
      <trkpt lat="45.71251" lon="4.05653">
        <ele>381.83</ele>
        <time>2015-03-07T12:10:16Z</time>
      </trkpt>
      <trkpt lat="45.71258" lon="4.0566">
        <ele>381.89</ele>
        <time>2015-03-07T12:10:17Z</time>
      </trkpt>
      <trkpt lat="45.71264" lon="4.05668">
        <ele>381.92</ele>
        <time>2015-03-07T12:10:18Z</time>
      </trkpt>
      <trkpt lat="45.71271" lon="4.05675">
        <ele>381.98</ele>
        <time>2015-03-07T12:10:19Z</time>
      </trkpt>
      <trkpt lat="45.71278" lon="4.05682">
        <ele>382.01</ele>
        <time>2015-03-07T12:10:20Z</time>
      </trkpt>
      <trkpt lat="45.71284" lon="4.05689">
        <ele>382.03</ele>
        <time>2015-03-07T12:10:21Z</time>
      </trkpt>
      <trkpt lat="45.71291" lon="4.05696">
        <ele>381.99</ele>
        <time>2015-03-07T12:10:22Z</time>
      </trkpt>
      <trkpt lat="45.71297" lon="4.05703">
        <ele>382.01</ele>
        <time>2015-03-07T12:10:23Z</time>
      </trkpt>
      <trkpt lat="45.71304" lon="4.0571">
        <ele>381.98</ele>
        <time>2015-03-07T12:10:24Z</time>
      </trkpt>
      <trkpt lat="45.7131" lon="4.05717">
        <ele>381.96</ele>
        <time>2015-03-07T12:10:25Z</time>
      </trkpt>
      <trkpt lat="45.71317" lon="4.05725">
        <ele>381.95</ele>
        <time>2015-03-07T12:10:26Z</time>
      </trkpt>
      <trkpt lat="45.71323" lon="4.05732">
        <ele>381.95</ele>
        <time>2015-03-07T12:10:27Z</time>
      </trkpt>
      <trkpt lat="45.7133" lon="4.05738">
        <ele>381.9</ele>
        <time>2015-03-07T12:10:28Z</time>
      </trkpt>
      <trkpt lat="45.71336" lon="4.05745">
        <ele>381.82</ele>
        <time>2015-03-07T12:10:29Z</time>
      </trkpt>
      <trkpt lat="45.71342" lon="4.05751">
        <ele>381.73</ele>
        <time>2015-03-07T12:10:30Z</time>
      </trkpt>
      <trkpt lat="45.71348" lon="4.05758">
        <ele>381.69</ele>
        <time>2015-03-07T12:10:31Z</time>
      </trkpt>
      <trkpt lat="45.71354" lon="4.05764">
        <ele>381.62</ele>
        <time>2015-03-07T12:10:32Z</time>
      </trkpt>
      <trkpt lat="45.71359" lon="4.05771">
        <ele>381.53</ele>
        <time>2015-03-07T12:10:33Z</time>
      </trkpt>
      <trkpt lat="45.71365" lon="4.05777">
        <ele>381.44</ele>
        <time>2015-03-07T12:10:34Z</time>
      </trkpt>
      <trkpt lat="45.7137" lon="4.05782">
        <ele>381.34</ele>
        <time>2015-03-07T12:10:35Z</time>
      </trkpt>
      <trkpt lat="45.71376" lon="4.05788">
        <ele>381.24</ele>
        <time>2015-03-07T12:10:36Z</time>
      </trkpt>
      <trkpt lat="45.71381" lon="4.05794">
        <ele>381.09</ele>
        <time>2015-03-07T12:10:37Z</time>
      </trkpt>
      <trkpt lat="45.71386" lon="4.05799">
        <ele>380.97</ele>
        <time>2015-03-07T12:10:38Z</time>
      </trkpt>
      <trkpt lat="45.71391" lon="4.05804">
        <ele>380.86</ele>
        <time>2015-03-07T12:10:39Z</time>
      </trkpt>
      <trkpt lat="45.71396" lon="4.0581">
        <ele>380.75</ele>
        <time>2015-03-07T12:10:40Z</time>
      </trkpt>
      <trkpt lat="45.71401" lon="4.05815">
        <ele>380.65</ele>
        <time>2015-03-07T12:10:41Z</time>
      </trkpt>
      <trkpt lat="45.71406" lon="4.0582">
        <ele>380.5</ele>
        <time>2015-03-07T12:10:42Z</time>
      </trkpt>
      <trkpt lat="45.7141" lon="4.05825">
        <ele>380.32</ele>
        <time>2015-03-07T12:10:43Z</time>
      </trkpt>
      <trkpt lat="45.71415" lon="4.0583">
        <ele>380.18</ele>
        <time>2015-03-07T12:10:44Z</time>
      </trkpt>
      <trkpt lat="45.7142" lon="4.05835">
        <ele>380.06</ele>
        <time>2015-03-07T12:10:45Z</time>
      </trkpt>
      <trkpt lat="45.71425" lon="4.05841">
        <ele>379.95</ele>
        <time>2015-03-07T12:10:46Z</time>
      </trkpt>
      <trkpt lat="45.71429" lon="4.05847">
        <ele>379.8</ele>
        <time>2015-03-07T12:10:47Z</time>
      </trkpt>
      <trkpt lat="45.71434" lon="4.05853">
        <ele>379.67</ele>
        <time>2015-03-07T12:10:48Z</time>
      </trkpt>
      <trkpt lat="45.71439" lon="4.05859">
        <ele>379.51</ele>
        <time>2015-03-07T12:10:49Z</time>
      </trkpt>
      <trkpt lat="45.71445" lon="4.05865">
        <ele>379.43</ele>
        <time>2015-03-07T12:10:50Z</time>
      </trkpt>
      <trkpt lat="45.71451" lon="4.05871">
        <ele>379.33</ele>
        <time>2015-03-07T12:10:51Z</time>
      </trkpt>
      <trkpt lat="45.71456" lon="4.05877">
        <ele>379.24</ele>
        <time>2015-03-07T12:10:52Z</time>
      </trkpt>
      <trkpt lat="45.71462" lon="4.05883">
        <ele>379.19</ele>
        <time>2015-03-07T12:10:53Z</time>
      </trkpt>
      <trkpt lat="45.71468" lon="4.05889">
        <ele>379.22</ele>
        <time>2015-03-07T12:10:54Z</time>
      </trkpt>
      <trkpt lat="45.71474" lon="4.05895">
        <ele>379.18</ele>
        <time>2015-03-07T12:10:55Z</time>
      </trkpt>
      <trkpt lat="45.7148" lon="4.05901">
        <ele>379.11</ele>
        <time>2015-03-07T12:10:56Z</time>
      </trkpt>
      <trkpt lat="45.71485" lon="4.05907">
        <ele>378.98</ele>
        <time>2015-03-07T12:10:57Z</time>
      </trkpt>
      <trkpt lat="45.71491" lon="4.05913">
        <ele>378.71</ele>
        <time>2015-03-07T12:10:58Z</time>
      </trkpt>
      <trkpt lat="45.71497" lon="4.05919">
        <ele>378.38</ele>
        <time>2015-03-07T12:10:59Z</time>
      </trkpt>
      <trkpt lat="45.71502" lon="4.05925">
        <ele>378.16</ele>
        <time>2015-03-07T12:11:00Z</time>
      </trkpt>
      <trkpt lat="45.71507" lon="4.0593">
        <ele>377.95</ele>
        <time>2015-03-07T12:11:01Z</time>
      </trkpt>
      <trkpt lat="45.71512" lon="4.05936">
        <ele>377.75</ele>
        <time>2015-03-07T12:11:02Z</time>
      </trkpt>
      <trkpt lat="45.71517" lon="4.05941">
        <ele>377.6</ele>
        <time>2015-03-07T12:11:03Z</time>
      </trkpt>
      <trkpt lat="45.71522" lon="4.05947">
        <ele>377.47</ele>
        <time>2015-03-07T12:11:04Z</time>
      </trkpt>
      <trkpt lat="45.71526" lon="4.05952">
        <ele>377.36</ele>
        <time>2015-03-07T12:11:05Z</time>
      </trkpt>
      <trkpt lat="45.71531" lon="4.05957">
        <ele>377.25</ele>
        <time>2015-03-07T12:11:06Z</time>
      </trkpt>
      <trkpt lat="45.71536" lon="4.05962">
        <ele>377.15</ele>
        <time>2015-03-07T12:11:07Z</time>
      </trkpt>
      <trkpt lat="45.71541" lon="4.05967">
        <ele>376.9</ele>
        <time>2015-03-07T12:11:08Z</time>
      </trkpt>
      <trkpt lat="45.71545" lon="4.05973">
        <ele>376.62</ele>
        <time>2015-03-07T12:11:09Z</time>
      </trkpt>
      <trkpt lat="45.7155" lon="4.05978">
        <ele>376.38</ele>
        <time>2015-03-07T12:11:10Z</time>
      </trkpt>
      <trkpt lat="45.71555" lon="4.05982">
        <ele>376.16</ele>
        <time>2015-03-07T12:11:11Z</time>
      </trkpt>
      <trkpt lat="45.71559" lon="4.05987">
        <ele>376</ele>
        <time>2015-03-07T12:11:12Z</time>
      </trkpt>
      <trkpt lat="45.71564" lon="4.05992">
        <ele>375.87</ele>
        <time>2015-03-07T12:11:13Z</time>
      </trkpt>
      <trkpt lat="45.71568" lon="4.05996">
        <ele>375.86</ele>
        <time>2015-03-07T12:11:14Z</time>
      </trkpt>
      <trkpt lat="45.71572" lon="4.06001">
        <ele>375.85</ele>
        <time>2015-03-07T12:11:15Z</time>
      </trkpt>
      <trkpt lat="45.71576" lon="4.06006">
        <ele>375.8</ele>
        <time>2015-03-07T12:11:16Z</time>
      </trkpt>
      <trkpt lat="45.7158" lon="4.0601">
        <ele>375.77</ele>
        <time>2015-03-07T12:11:17Z</time>
      </trkpt>
      <trkpt lat="45.71584" lon="4.06015">
        <ele>375.71</ele>
        <time>2015-03-07T12:11:18Z</time>
      </trkpt>
      <trkpt lat="45.71588" lon="4.06018">
        <ele>375.68</ele>
        <time>2015-03-07T12:11:19Z</time>
      </trkpt>
      <trkpt lat="45.71595" lon="4.06026">
        <ele>375.83</ele>
        <time>2015-03-07T12:11:21Z</time>
      </trkpt>
      <trkpt lat="45.71601" lon="4.06033">
        <ele>376.04</ele>
        <time>2015-03-07T12:11:23Z</time>
      </trkpt>
      <trkpt lat="45.71604" lon="4.06044">
        <ele>376.17</ele>
        <time>2015-03-07T12:11:25Z</time>
      </trkpt>
      <trkpt lat="45.71605" lon="4.06051">
        <ele>376.26</ele>
        <time>2015-03-07T12:11:26Z</time>
      </trkpt>
      <trkpt lat="45.71602" lon="4.06063">
        <ele>376.62</ele>
        <time>2015-03-07T12:11:28Z</time>
      </trkpt>
      <trkpt lat="45.71599" lon="4.06069">
        <ele>376.88</ele>
        <time>2015-03-07T12:11:29Z</time>
      </trkpt>
      <trkpt lat="45.71597" lon="4.06075">
        <ele>377.16</ele>
        <time>2015-03-07T12:11:30Z</time>
      </trkpt>
      <trkpt lat="45.71595" lon="4.06081">
        <ele>377.35</ele>
        <time>2015-03-07T12:11:31Z</time>
      </trkpt>
      <trkpt lat="45.71593" lon="4.06086">
        <ele>377.5</ele>
        <time>2015-03-07T12:11:32Z</time>
      </trkpt>
      <trkpt lat="45.7159" lon="4.06092">
        <ele>377.62</ele>
        <time>2015-03-07T12:11:33Z</time>
      </trkpt>
      <trkpt lat="45.71588" lon="4.06099">
        <ele>377.73</ele>
        <time>2015-03-07T12:11:34Z</time>
      </trkpt>
      <trkpt lat="45.71585" lon="4.06106">
        <ele>377.94</ele>
        <time>2015-03-07T12:11:35Z</time>
      </trkpt>
      <trkpt lat="45.71583" lon="4.06113">
        <ele>378.24</ele>
        <time>2015-03-07T12:11:36Z</time>
      </trkpt>
      <trkpt lat="45.7158" lon="4.0612">
        <ele>378.54</ele>
        <time>2015-03-07T12:11:37Z</time>
      </trkpt>
      <trkpt lat="45.71578" lon="4.06127">
        <ele>378.84</ele>
        <time>2015-03-07T12:11:38Z</time>
      </trkpt>
      <trkpt lat="45.71575" lon="4.06134">
        <ele>379.04</ele>
        <time>2015-03-07T12:11:39Z</time>
      </trkpt>
      <trkpt lat="45.71572" lon="4.06142">
        <ele>379.19</ele>
        <time>2015-03-07T12:11:40Z</time>
      </trkpt>
      <trkpt lat="45.71569" lon="4.0615">
        <ele>379.32</ele>
        <time>2015-03-07T12:11:41Z</time>
      </trkpt>
      <trkpt lat="45.71566" lon="4.06157">
        <ele>379.38</ele>
        <time>2015-03-07T12:11:42Z</time>
      </trkpt>
      <trkpt lat="45.71564" lon="4.06164">
        <ele>379.41</ele>
        <time>2015-03-07T12:11:43Z</time>
      </trkpt>
      <trkpt lat="45.71561" lon="4.06171">
        <ele>379.38</ele>
        <time>2015-03-07T12:11:44Z</time>
      </trkpt>
      <trkpt lat="45.71559" lon="4.06179">
        <ele>379.36</ele>
        <time>2015-03-07T12:11:45Z</time>
      </trkpt>
      <trkpt lat="45.71557" lon="4.06186">
        <ele>379.3</ele>
        <time>2015-03-07T12:11:46Z</time>
      </trkpt>
      <trkpt lat="45.71554" lon="4.06194">
        <ele>379.22</ele>
        <time>2015-03-07T12:11:47Z</time>
      </trkpt>
      <trkpt lat="45.71552" lon="4.06201">
        <ele>379.13</ele>
        <time>2015-03-07T12:11:48Z</time>
      </trkpt>
      <trkpt lat="45.71549" lon="4.06208">
        <ele>378.94</ele>
        <time>2015-03-07T12:11:49Z</time>
      </trkpt>
      <trkpt lat="45.71547" lon="4.06215">
        <ele>378.79</ele>
        <time>2015-03-07T12:11:50Z</time>
      </trkpt>
      <trkpt lat="45.71545" lon="4.06222">
        <ele>378.67</ele>
        <time>2015-03-07T12:11:51Z</time>
      </trkpt>
      <trkpt lat="45.71542" lon="4.0623">
        <ele>378.61</ele>
        <time>2015-03-07T12:11:52Z</time>
      </trkpt>
      <trkpt lat="45.7154" lon="4.06237">
        <ele>378.57</ele>
        <time>2015-03-07T12:11:53Z</time>
      </trkpt>
      <trkpt lat="45.71538" lon="4.06245">
        <ele>378.51</ele>
        <time>2015-03-07T12:11:54Z</time>
      </trkpt>
      <trkpt lat="45.71536" lon="4.06252">
        <ele>378.43</ele>
        <time>2015-03-07T12:11:55Z</time>
      </trkpt>
      <trkpt lat="45.71533" lon="4.0626">
        <ele>378.39</ele>
        <time>2015-03-07T12:11:56Z</time>
      </trkpt>
      <trkpt lat="45.71531" lon="4.06268">
        <ele>378.41</ele>
        <time>2015-03-07T12:11:57Z</time>
      </trkpt>
      <trkpt lat="45.71529" lon="4.06275">
        <ele>378.43</ele>
        <time>2015-03-07T12:11:58Z</time>
      </trkpt>
      <trkpt lat="45.71527" lon="4.06283">
        <ele>378.39</ele>
        <time>2015-03-07T12:11:59Z</time>
      </trkpt>
      <trkpt lat="45.71525" lon="4.06291">
        <ele>378.37</ele>
        <time>2015-03-07T12:12:00Z</time>
      </trkpt>
      <trkpt lat="45.71523" lon="4.06299">
        <ele>378.25</ele>
        <time>2015-03-07T12:12:01Z</time>
      </trkpt>
      <trkpt lat="45.71521" lon="4.06308">
        <ele>378.15</ele>
        <time>2015-03-07T12:12:02Z</time>
      </trkpt>
      <trkpt lat="45.71519" lon="4.06316">
        <ele>378.05</ele>
        <time>2015-03-07T12:12:03Z</time>
      </trkpt>
      <trkpt lat="45.71517" lon="4.06325">
        <ele>377.9</ele>
        <time>2015-03-07T12:12:04Z</time>
      </trkpt>
      <trkpt lat="45.71515" lon="4.06334">
        <ele>377.82</ele>
        <time>2015-03-07T12:12:05Z</time>
      </trkpt>
      <trkpt lat="45.71513" lon="4.06343">
        <ele>377.78</ele>
        <time>2015-03-07T12:12:06Z</time>
      </trkpt>
      <trkpt lat="45.71511" lon="4.06352">
        <ele>377.76</ele>
        <time>2015-03-07T12:12:07Z</time>
      </trkpt>
      <trkpt lat="45.7151" lon="4.06361">
        <ele>377.75</ele>
        <time>2015-03-07T12:12:08Z</time>
      </trkpt>
      <trkpt lat="45.71508" lon="4.0637">
        <ele>377.75</ele>
        <time>2015-03-07T12:12:09Z</time>
      </trkpt>
      <trkpt lat="45.71506" lon="4.06378">
        <ele>377.75</ele>
        <time>2015-03-07T12:12:10Z</time>
      </trkpt>
      <trkpt lat="45.71504" lon="4.06387">
        <ele>377.75</ele>
        <time>2015-03-07T12:12:11Z</time>
      </trkpt>
      <trkpt lat="45.71503" lon="4.06396">
        <ele>377.79</ele>
        <time>2015-03-07T12:12:12Z</time>
      </trkpt>
      <trkpt lat="45.715" lon="4.06405">
        <ele>377.77</ele>
        <time>2015-03-07T12:12:13Z</time>
      </trkpt>
      <trkpt lat="45.71498" lon="4.06413">
        <ele>377.66</ele>
        <time>2015-03-07T12:12:14Z</time>
      </trkpt>
      <trkpt lat="45.71496" lon="4.06422">
        <ele>377.55</ele>
        <time>2015-03-07T12:12:15Z</time>
      </trkpt>
      <trkpt lat="45.71495" lon="4.0643">
        <ele>377.45</ele>
        <time>2015-03-07T12:12:16Z</time>
      </trkpt>
      <trkpt lat="45.71494" lon="4.06437">
        <ele>377.3</ele>
        <time>2015-03-07T12:12:17Z</time>
      </trkpt>
      <trkpt lat="45.71493" lon="4.06445">
        <ele>377.17</ele>
        <time>2015-03-07T12:12:18Z</time>
      </trkpt>
      <trkpt lat="45.71492" lon="4.06452">
        <ele>377.06</ele>
        <time>2015-03-07T12:12:19Z</time>
      </trkpt>
      <trkpt lat="45.71491" lon="4.06459">
        <ele>376.95</ele>
        <time>2015-03-07T12:12:20Z</time>
      </trkpt>
      <trkpt lat="45.71489" lon="4.06466">
        <ele>376.8</ele>
        <time>2015-03-07T12:12:21Z</time>
      </trkpt>
      <trkpt lat="45.71488" lon="4.06473">
        <ele>376.57</ele>
        <time>2015-03-07T12:12:22Z</time>
      </trkpt>
      <trkpt lat="45.71487" lon="4.06481">
        <ele>376.36</ele>
        <time>2015-03-07T12:12:23Z</time>
      </trkpt>
      <trkpt lat="45.71486" lon="4.06488">
        <ele>376.1</ele>
        <time>2015-03-07T12:12:24Z</time>
      </trkpt>
      <trkpt lat="45.71485" lon="4.06496">
        <ele>375.87</ele>
        <time>2015-03-07T12:12:25Z</time>
      </trkpt>
      <trkpt lat="45.71483" lon="4.06504">
        <ele>375.76</ele>
        <time>2015-03-07T12:12:26Z</time>
      </trkpt>
      <trkpt lat="45.71482" lon="4.06512">
        <ele>375.7</ele>
        <time>2015-03-07T12:12:27Z</time>
      </trkpt>
      <trkpt lat="45.71481" lon="4.0652">
        <ele>375.67</ele>
        <time>2015-03-07T12:12:28Z</time>
      </trkpt>
      <trkpt lat="45.71479" lon="4.06529">
        <ele>375.76</ele>
        <time>2015-03-07T12:12:29Z</time>
      </trkpt>
      <trkpt lat="45.71478" lon="4.06537">
        <ele>375.85</ele>
        <time>2015-03-07T12:12:30Z</time>
      </trkpt>
      <trkpt lat="45.71477" lon="4.06545">
        <ele>375.75</ele>
        <time>2015-03-07T12:12:31Z</time>
      </trkpt>
      <trkpt lat="45.71476" lon="4.06554">
        <ele>375.65</ele>
        <time>2015-03-07T12:12:32Z</time>
      </trkpt>
      <trkpt lat="45.71475" lon="4.06562">
        <ele>375.54</ele>
        <time>2015-03-07T12:12:33Z</time>
      </trkpt>
      <trkpt lat="45.71473" lon="4.0657">
        <ele>375.49</ele>
        <time>2015-03-07T12:12:34Z</time>
      </trkpt>
      <trkpt lat="45.71472" lon="4.06577">
        <ele>375.42</ele>
        <time>2015-03-07T12:12:35Z</time>
      </trkpt>
      <trkpt lat="45.71471" lon="4.06584">
        <ele>375.33</ele>
        <time>2015-03-07T12:12:36Z</time>
      </trkpt>
      <trkpt lat="45.7147" lon="4.06591">
        <ele>375.19</ele>
        <time>2015-03-07T12:12:37Z</time>
      </trkpt>
      <trkpt lat="45.71469" lon="4.06598">
        <ele>375.07</ele>
        <time>2015-03-07T12:12:38Z</time>
      </trkpt>
      <trkpt lat="45.71471" lon="4.06604">
        <ele>374.95</ele>
        <time>2015-03-07T12:12:39Z</time>
      </trkpt>
      <trkpt lat="45.71478" lon="4.06609">
        <ele>374.02</ele>
        <time>2015-03-07T12:12:41Z</time>
      </trkpt>
      <trkpt lat="45.71487" lon="4.06609">
        <ele>373.44</ele>
        <time>2015-03-07T12:12:43Z</time>
      </trkpt>
      <trkpt lat="45.71496" lon="4.06608">
        <ele>373.29</ele>
        <time>2015-03-07T12:12:45Z</time>
      </trkpt>
      <trkpt lat="45.71503" lon="4.06606">
        <ele>373.43</ele>
        <time>2015-03-07T12:12:47Z</time>
      </trkpt>
      <trkpt lat="45.71511" lon="4.06606">
        <ele>373.79</ele>
        <time>2015-03-07T12:12:49Z</time>
      </trkpt>
      <trkpt lat="45.71517" lon="4.06608">
        <ele>374.21</ele>
        <time>2015-03-07T12:12:51Z</time>
      </trkpt>
      <trkpt lat="45.71524" lon="4.0661">
        <ele>374.63</ele>
        <time>2015-03-07T12:12:53Z</time>
      </trkpt>
      <trkpt lat="45.71529" lon="4.06613">
        <ele>375.04</ele>
        <time>2015-03-07T12:12:55Z</time>
      </trkpt>
      <trkpt lat="45.71534" lon="4.06617">
        <ele>375.39</ele>
        <time>2015-03-07T12:12:57Z</time>
      </trkpt>
      <trkpt lat="45.71538" lon="4.06621">
        <ele>375.68</ele>
        <time>2015-03-07T12:12:59Z</time>
      </trkpt>
      <trkpt lat="45.71543" lon="4.06624">
        <ele>375.98</ele>
        <time>2015-03-07T12:13:01Z</time>
      </trkpt>
      <trkpt lat="45.71548" lon="4.06627">
        <ele>376.03</ele>
        <time>2015-03-07T12:13:03Z</time>
      </trkpt>
      <trkpt lat="45.71553" lon="4.06629">
        <ele>376.01</ele>
        <time>2015-03-07T12:13:05Z</time>
      </trkpt>
      <trkpt lat="45.71558" lon="4.06631">
        <ele>376.24</ele>
        <time>2015-03-07T12:13:07Z</time>
      </trkpt>
      <trkpt lat="45.71562" lon="4.06633">
        <ele>376.62</ele>
        <time>2015-03-07T12:13:09Z</time>
      </trkpt>
      <trkpt lat="45.71569" lon="4.06636">
        <ele>376.83</ele>
        <time>2015-03-07T12:13:12Z</time>
      </trkpt>
      <trkpt lat="45.71573" lon="4.06637">
        <ele>376.87</ele>
        <time>2015-03-07T12:13:14Z</time>
      </trkpt>
      <trkpt lat="45.7158" lon="4.06638">
        <ele>377.36</ele>
        <time>2015-03-07T12:13:17Z</time>
      </trkpt>
      <trkpt lat="45.71585" lon="4.0664">
        <ele>377.83</ele>
        <time>2015-03-07T12:13:20Z</time>
      </trkpt>
      <trkpt lat="45.7159" lon="4.06641">
        <ele>378.21</ele>
        <time>2015-03-07T12:13:23Z</time>
      </trkpt>
      <trkpt lat="45.71597" lon="4.06641">
        <ele>378.2</ele>
        <time>2015-03-07T12:13:26Z</time>
      </trkpt>
      <trkpt lat="45.71602" lon="4.06642">
        <ele>378.58</ele>
        <time>2015-03-07T12:13:28Z</time>
      </trkpt>
      <trkpt lat="45.71608" lon="4.06645">
        <ele>379.61</ele>
        <time>2015-03-07T12:13:31Z</time>
      </trkpt>
      <trkpt lat="45.71614" lon="4.06647">
        <ele>380.65</ele>
        <time>2015-03-07T12:13:34Z</time>
      </trkpt>
      <trkpt lat="45.71619" lon="4.06649">
        <ele>382.46</ele>
        <time>2015-03-07T12:13:38Z</time>
      </trkpt>
      <trkpt lat="45.71624" lon="4.06649">
        <ele>383.35</ele>
        <time>2015-03-07T12:13:40Z</time>
      </trkpt>
      <trkpt lat="45.71629" lon="4.0665">
        <ele>384.19</ele>
        <time>2015-03-07T12:13:43Z</time>
      </trkpt>
      <trkpt lat="45.71634" lon="4.06652">
        <ele>384.31</ele>
        <time>2015-03-07T12:13:46Z</time>
      </trkpt>
      <trkpt lat="45.71639" lon="4.06653">
        <ele>385.05</ele>
        <time>2015-03-07T12:13:49Z</time>
      </trkpt>
      <trkpt lat="45.71661" lon="4.06661">
        <ele>386.94</ele>
        <time>2015-03-07T12:14:02Z</time>
      </trkpt>
      <trkpt lat="45.71666" lon="4.06663">
        <ele>388.56</ele>
        <time>2015-03-07T12:14:05Z</time>
      </trkpt>
      <trkpt lat="45.71671" lon="4.0666">
        <ele>389.75</ele>
        <time>2015-03-07T12:14:08Z</time>
      </trkpt>
      <trkpt lat="45.71676" lon="4.06655">
        <ele>390.73</ele>
        <time>2015-03-07T12:14:11Z</time>
      </trkpt>
      <trkpt lat="45.71681" lon="4.06651">
        <ele>391.23</ele>
        <time>2015-03-07T12:14:14Z</time>
      </trkpt>
      <trkpt lat="45.71686" lon="4.06647">
        <ele>391.43</ele>
        <time>2015-03-07T12:14:17Z</time>
      </trkpt>
      <trkpt lat="45.71691" lon="4.06643">
        <ele>392.07</ele>
        <time>2015-03-07T12:14:20Z</time>
      </trkpt>
      <trkpt lat="45.71695" lon="4.06637">
        <ele>393.17</ele>
        <time>2015-03-07T12:14:23Z</time>
      </trkpt>
      <trkpt lat="45.71698" lon="4.06633">
        <ele>394.46</ele>
        <time>2015-03-07T12:14:26Z</time>
      </trkpt>
      <trkpt lat="45.71702" lon="4.06627">
        <ele>394.82</ele>
        <time>2015-03-07T12:14:29Z</time>
      </trkpt>
      <trkpt lat="45.71706" lon="4.06622">
        <ele>395.02</ele>
        <time>2015-03-07T12:14:32Z</time>
      </trkpt>
      <trkpt lat="45.7172" lon="4.0661">
        <ele>396.64</ele>
        <time>2015-03-07T12:14:43Z</time>
      </trkpt>
      <trkpt lat="45.71725" lon="4.06608">
        <ele>397.89</ele>
        <time>2015-03-07T12:14:45Z</time>
      </trkpt>
      <trkpt lat="45.71731" lon="4.06603">
        <ele>398.9</ele>
        <time>2015-03-07T12:14:48Z</time>
      </trkpt>
      <trkpt lat="45.71735" lon="4.06599">
        <ele>399.98</ele>
        <time>2015-03-07T12:14:51Z</time>
      </trkpt>
      <trkpt lat="45.7174" lon="4.06594">
        <ele>401.67</ele>
        <time>2015-03-07T12:14:54Z</time>
      </trkpt>
      <trkpt lat="45.71744" lon="4.0659">
        <ele>402.54</ele>
        <time>2015-03-07T12:14:57Z</time>
      </trkpt>
      <trkpt lat="45.71749" lon="4.06587">
        <ele>403.02</ele>
        <time>2015-03-07T12:15:00Z</time>
      </trkpt>
      <trkpt lat="45.71754" lon="4.06583">
        <ele>403.2</ele>
        <time>2015-03-07T12:15:03Z</time>
      </trkpt>
      <trkpt lat="45.71759" lon="4.06579">
        <ele>403.36</ele>
        <time>2015-03-07T12:15:06Z</time>
      </trkpt>
      <trkpt lat="45.71765" lon="4.06576">
        <ele>404</ele>
        <time>2015-03-07T12:15:09Z</time>
      </trkpt>
      <trkpt lat="45.7177" lon="4.06576">
        <ele>405.16</ele>
        <time>2015-03-07T12:15:12Z</time>
      </trkpt>
      <trkpt lat="45.71776" lon="4.06576">
        <ele>406.17</ele>
        <time>2015-03-07T12:15:15Z</time>
      </trkpt>
      <trkpt lat="45.71781" lon="4.06578">
        <ele>407.63</ele>
        <time>2015-03-07T12:15:18Z</time>
      </trkpt>
      <trkpt lat="45.71786" lon="4.0658">
        <ele>408.61</ele>
        <time>2015-03-07T12:15:21Z</time>
      </trkpt>
      <trkpt lat="45.7179" lon="4.06582">
        <ele>409.24</ele>
        <time>2015-03-07T12:15:24Z</time>
      </trkpt>
      <trkpt lat="45.71795" lon="4.06585">
        <ele>409.49</ele>
        <time>2015-03-07T12:15:27Z</time>
      </trkpt>
      <trkpt lat="45.71801" lon="4.06587">
        <ele>409.71</ele>
        <time>2015-03-07T12:15:30Z</time>
      </trkpt>
      <trkpt lat="45.71807" lon="4.0659">
        <ele>409.24</ele>
        <time>2015-03-07T12:15:33Z</time>
      </trkpt>
      <trkpt lat="45.71811" lon="4.06595">
        <ele>409.24</ele>
        <time>2015-03-07T12:15:35Z</time>
      </trkpt>
      <trkpt lat="45.71814" lon="4.06601">
        <ele>409.19</ele>
        <time>2015-03-07T12:15:37Z</time>
      </trkpt>
      <trkpt lat="45.71818" lon="4.06609">
        <ele>408.98</ele>
        <time>2015-03-07T12:15:39Z</time>
      </trkpt>
      <trkpt lat="45.71821" lon="4.06616">
        <ele>408.75</ele>
        <time>2015-03-07T12:15:41Z</time>
      </trkpt>
      <trkpt lat="45.71825" lon="4.06624">
        <ele>408.55</ele>
        <time>2015-03-07T12:15:43Z</time>
      </trkpt>
      <trkpt lat="45.7183" lon="4.06633">
        <ele>408.44</ele>
        <time>2015-03-07T12:15:45Z</time>
      </trkpt>
      <trkpt lat="45.71831" lon="4.06642">
        <ele>408.29</ele>
        <time>2015-03-07T12:15:47Z</time>
      </trkpt>
      <trkpt lat="45.71831" lon="4.06652">
        <ele>407.93</ele>
        <time>2015-03-07T12:15:49Z</time>
      </trkpt>
      <trkpt lat="45.7183" lon="4.06661">
        <ele>407.78</ele>
        <time>2015-03-07T12:15:52Z</time>
      </trkpt>
      <trkpt lat="45.71828" lon="4.06668">
        <ele>406.89</ele>
        <time>2015-03-07T12:15:55Z</time>
      </trkpt>
      <trkpt lat="45.71825" lon="4.06675">
        <ele>407.1</ele>
        <time>2015-03-07T12:15:57Z</time>
      </trkpt>
      <trkpt lat="45.71821" lon="4.06681">
        <ele>407.33</ele>
        <time>2015-03-07T12:15:59Z</time>
      </trkpt>
      <trkpt lat="45.71816" lon="4.06687">
        <ele>407.44</ele>
        <time>2015-03-07T12:16:01Z</time>
      </trkpt>
      <trkpt lat="45.71812" lon="4.0669">
        <ele>407.72</ele>
        <time>2015-03-07T12:16:03Z</time>
      </trkpt>
      <trkpt lat="45.71806" lon="4.06692">
        <ele>408.21</ele>
        <time>2015-03-07T12:16:05Z</time>
      </trkpt>
      <trkpt lat="45.71801" lon="4.06692">
        <ele>408.56</ele>
        <time>2015-03-07T12:16:07Z</time>
      </trkpt>
      <trkpt lat="45.71797" lon="4.06691">
        <ele>409</ele>
        <time>2015-03-07T12:16:09Z</time>
      </trkpt>
      <trkpt lat="45.71791" lon="4.06687">
        <ele>410.1</ele>
        <time>2015-03-07T12:16:12Z</time>
      </trkpt>
      <trkpt lat="45.71786" lon="4.06686">
        <ele>411.68</ele>
        <time>2015-03-07T12:16:14Z</time>
      </trkpt>
      <trkpt lat="45.71781" lon="4.06685">
        <ele>412.68</ele>
        <time>2015-03-07T12:16:16Z</time>
      </trkpt>
      <trkpt lat="45.71775" lon="4.06684">
        <ele>412.88</ele>
        <time>2015-03-07T12:16:18Z</time>
      </trkpt>
      <trkpt lat="45.7177" lon="4.06681">
        <ele>412.9</ele>
        <time>2015-03-07T12:16:20Z</time>
      </trkpt>
      <trkpt lat="45.71765" lon="4.06678">
        <ele>413.08</ele>
        <time>2015-03-07T12:16:22Z</time>
      </trkpt>
      <trkpt lat="45.71759" lon="4.06674">
        <ele>413.56</ele>
        <time>2015-03-07T12:16:25Z</time>
      </trkpt>
      <trkpt lat="45.71755" lon="4.0667">
        <ele>413.5</ele>
        <time>2015-03-07T12:16:27Z</time>
      </trkpt>
      <trkpt lat="45.71749" lon="4.06664">
        <ele>413.21</ele>
        <time>2015-03-07T12:16:29Z</time>
      </trkpt>
      <trkpt lat="45.71746" lon="4.06654">
        <ele>413.11</ele>
        <time>2015-03-07T12:16:31Z</time>
      </trkpt>
      <trkpt lat="45.71746" lon="4.06645">
        <ele>412.81</ele>
        <time>2015-03-07T12:16:33Z</time>
      </trkpt>
      <trkpt lat="45.71747" lon="4.06638">
        <ele>412.41</ele>
        <time>2015-03-07T12:16:35Z</time>
      </trkpt>
      <trkpt lat="45.71752" lon="4.06636">
        <ele>411.12</ele>
        <time>2015-03-07T12:16:48Z</time>
      </trkpt>
      <trkpt lat="45.71755" lon="4.0663">
        <ele>410.89</ele>
        <time>2015-03-07T12:16:50Z</time>
      </trkpt>
      <trkpt lat="45.71758" lon="4.06623">
        <ele>409.38</ele>
        <time>2015-03-07T12:16:52Z</time>
      </trkpt>
      <trkpt lat="45.71762" lon="4.06617">
        <ele>408.08</ele>
        <time>2015-03-07T12:16:54Z</time>
      </trkpt>
      <trkpt lat="45.71765" lon="4.06612">
        <ele>408.1</ele>
        <time>2015-03-07T12:16:56Z</time>
      </trkpt>
      <trkpt lat="45.71768" lon="4.06607">
        <ele>408.31</ele>
        <time>2015-03-07T12:16:58Z</time>
      </trkpt>
      <trkpt lat="45.71772" lon="4.06603">
        <ele>408.28</ele>
        <time>2015-03-07T12:17:01Z</time>
      </trkpt>
      <trkpt lat="45.71778" lon="4.06603">
        <ele>408.71</ele>
        <time>2015-03-07T12:17:04Z</time>
      </trkpt>
      <trkpt lat="45.71782" lon="4.06604">
        <ele>410.33</ele>
        <time>2015-03-07T12:17:07Z</time>
      </trkpt>
      <trkpt lat="45.71788" lon="4.06603">
        <ele>411.62</ele>
        <time>2015-03-07T12:17:10Z</time>
      </trkpt>
      <trkpt lat="45.71794" lon="4.06603">
        <ele>414</ele>
        <time>2015-03-07T12:17:13Z</time>
      </trkpt>
      <trkpt lat="45.718" lon="4.06605">
        <ele>414.88</ele>
        <time>2015-03-07T12:17:16Z</time>
      </trkpt>
      <trkpt lat="45.71805" lon="4.06606">
        <ele>414.85</ele>
        <time>2015-03-07T12:17:19Z</time>
      </trkpt>
      <trkpt lat="45.71799" lon="4.06603">
        <ele>412.77</ele>
        <time>2015-03-07T12:18:06Z</time>
      </trkpt>
      <trkpt lat="45.71793" lon="4.06601">
        <ele>412.5</ele>
        <time>2015-03-07T12:18:09Z</time>
      </trkpt>
      <trkpt lat="45.71786" lon="4.06603">
        <ele>412.03</ele>
        <time>2015-03-07T12:18:12Z</time>
      </trkpt>
      <trkpt lat="45.7178" lon="4.06605">
        <ele>411.7</ele>
        <time>2015-03-07T12:18:15Z</time>
      </trkpt>
      <trkpt lat="45.71774" lon="4.06608">
        <ele>411.14</ele>
        <time>2015-03-07T12:18:22Z</time>
      </trkpt>
      <trkpt lat="45.71766" lon="4.0661">
        <ele>410.44</ele>
        <time>2015-03-07T12:18:24Z</time>
      </trkpt>
      <trkpt lat="45.71762" lon="4.06615">
        <ele>410.04</ele>
        <time>2015-03-07T12:18:25Z</time>
      </trkpt>
      <trkpt lat="45.71758" lon="4.06623">
        <ele>409.79</ele>
        <time>2015-03-07T12:18:26Z</time>
      </trkpt>
      <trkpt lat="45.71755" lon="4.0663">
        <ele>409.62</ele>
        <time>2015-03-07T12:18:27Z</time>
      </trkpt>
      <trkpt lat="45.71752" lon="4.06638">
        <ele>409.48</ele>
        <time>2015-03-07T12:18:28Z</time>
      </trkpt>
      <trkpt lat="45.7175" lon="4.06645">
        <ele>409.26</ele>
        <time>2015-03-07T12:18:29Z</time>
      </trkpt>
      <trkpt lat="45.71749" lon="4.06652">
        <ele>409.1</ele>
        <time>2015-03-07T12:18:30Z</time>
      </trkpt>
      <trkpt lat="45.71744" lon="4.0666">
        <ele>408.28</ele>
        <time>2015-03-07T12:18:32Z</time>
      </trkpt>
      <trkpt lat="45.7174" lon="4.06667">
        <ele>407.78</ele>
        <time>2015-03-07T12:18:34Z</time>
      </trkpt>
      <trkpt lat="45.71742" lon="4.06674">
        <ele>408.2</ele>
        <time>2015-03-07T12:18:38Z</time>
      </trkpt>
      <trkpt lat="45.71747" lon="4.06672">
        <ele>408.97</ele>
        <time>2015-03-07T12:18:47Z</time>
      </trkpt>
      <trkpt lat="45.71747" lon="4.06663">
        <ele>409.81</ele>
        <time>2015-03-07T12:18:50Z</time>
      </trkpt>
      <trkpt lat="45.71747" lon="4.06655">
        <ele>410.14</ele>
        <time>2015-03-07T12:18:52Z</time>
      </trkpt>
      <trkpt lat="45.71748" lon="4.06648">
        <ele>410.22</ele>
        <time>2015-03-07T12:18:54Z</time>
      </trkpt>
      <trkpt lat="45.71749" lon="4.0664">
        <ele>410.24</ele>
        <time>2015-03-07T12:18:56Z</time>
      </trkpt>
      <trkpt lat="45.71751" lon="4.06633">
        <ele>410.37</ele>
        <time>2015-03-07T12:18:58Z</time>
      </trkpt>
      <trkpt lat="45.71753" lon="4.06626">
        <ele>410.6</ele>
        <time>2015-03-07T12:19:00Z</time>
      </trkpt>
      <trkpt lat="45.71755" lon="4.06619">
        <ele>410.86</ele>
        <time>2015-03-07T12:19:02Z</time>
      </trkpt>
      <trkpt lat="45.71758" lon="4.06608">
        <ele>410.97</ele>
        <time>2015-03-07T12:19:04Z</time>
      </trkpt>
      <trkpt lat="45.71763" lon="4.06598">
        <ele>410.4</ele>
        <time>2015-03-07T12:19:06Z</time>
      </trkpt>
      <trkpt lat="45.71769" lon="4.0659">
        <ele>409.46</ele>
        <time>2015-03-07T12:19:08Z</time>
      </trkpt>
      <trkpt lat="45.71773" lon="4.06583">
        <ele>408.87</ele>
        <time>2015-03-07T12:19:10Z</time>
      </trkpt>
      <trkpt lat="45.71772" lon="4.06574">
        <ele>408.08</ele>
        <time>2015-03-07T12:19:12Z</time>
      </trkpt>
      <trkpt lat="45.71763" lon="4.06572">
        <ele>407.23</ele>
        <time>2015-03-07T12:19:14Z</time>
      </trkpt>
      <trkpt lat="45.71758" lon="4.06575">
        <ele>406.84</ele>
        <time>2015-03-07T12:19:15Z</time>
      </trkpt>
      <trkpt lat="45.71752" lon="4.0658">
        <ele>406.49</ele>
        <time>2015-03-07T12:19:16Z</time>
      </trkpt>
      <trkpt lat="45.71746" lon="4.06585">
        <ele>406.12</ele>
        <time>2015-03-07T12:19:17Z</time>
      </trkpt>
      <trkpt lat="45.7174" lon="4.06589">
        <ele>405.88</ele>
        <time>2015-03-07T12:19:18Z</time>
      </trkpt>
      <trkpt lat="45.71734" lon="4.06595">
        <ele>405.41</ele>
        <time>2015-03-07T12:19:19Z</time>
      </trkpt>
      <trkpt lat="45.71727" lon="4.066">
        <ele>404.93</ele>
        <time>2015-03-07T12:19:20Z</time>
      </trkpt>
      <trkpt lat="45.7172" lon="4.06605">
        <ele>404.44</ele>
        <time>2015-03-07T12:19:21Z</time>
      </trkpt>
      <trkpt lat="45.71713" lon="4.0661">
        <ele>403.79</ele>
        <time>2015-03-07T12:19:22Z</time>
      </trkpt>
      <trkpt lat="45.71706" lon="4.06615">
        <ele>403.02</ele>
        <time>2015-03-07T12:19:23Z</time>
      </trkpt>
      <trkpt lat="45.71701" lon="4.06623">
        <ele>402.23</ele>
        <time>2015-03-07T12:19:24Z</time>
      </trkpt>
      <trkpt lat="45.71695" lon="4.06632">
        <ele>401.49</ele>
        <time>2015-03-07T12:19:25Z</time>
      </trkpt>
      <trkpt lat="45.71688" lon="4.0664">
        <ele>400.87</ele>
        <time>2015-03-07T12:19:26Z</time>
      </trkpt>
      <trkpt lat="45.71681" lon="4.06646">
        <ele>400.35</ele>
        <time>2015-03-07T12:19:27Z</time>
      </trkpt>
      <trkpt lat="45.71675" lon="4.06651">
        <ele>399.9</ele>
        <time>2015-03-07T12:19:28Z</time>
      </trkpt>
      <trkpt lat="45.7167" lon="4.06657">
        <ele>399.32</ele>
        <time>2015-03-07T12:19:29Z</time>
      </trkpt>
      <trkpt lat="45.71664" lon="4.06661">
        <ele>398.78</ele>
        <time>2015-03-07T12:19:30Z</time>
      </trkpt>
      <trkpt lat="45.71659" lon="4.06666">
        <ele>397.91</ele>
        <time>2015-03-07T12:19:31Z</time>
      </trkpt>
      <trkpt lat="45.71654" lon="4.06671">
        <ele>396.58</ele>
        <time>2015-03-07T12:19:32Z</time>
      </trkpt>
      <trkpt lat="45.71651" lon="4.06678">
        <ele>395.36</ele>
        <time>2015-03-07T12:19:33Z</time>
      </trkpt>
      <trkpt lat="45.71648" lon="4.06686">
        <ele>394.3</ele>
        <time>2015-03-07T12:19:34Z</time>
      </trkpt>
      <trkpt lat="45.71646" lon="4.06694">
        <ele>393.52</ele>
        <time>2015-03-07T12:19:35Z</time>
      </trkpt>
      <trkpt lat="45.71643" lon="4.06702">
        <ele>392.83</ele>
        <time>2015-03-07T12:19:36Z</time>
      </trkpt>
      <trkpt lat="45.71641" lon="4.06713">
        <ele>391.64</ele>
        <time>2015-03-07T12:19:37Z</time>
      </trkpt>
      <trkpt lat="45.71639" lon="4.06725">
        <ele>390.59</ele>
        <time>2015-03-07T12:19:38Z</time>
      </trkpt>
      <trkpt lat="45.71637" lon="4.06738">
        <ele>389.42</ele>
        <time>2015-03-07T12:19:39Z</time>
      </trkpt>
      <trkpt lat="45.71636" lon="4.06751">
        <ele>388.28</ele>
        <time>2015-03-07T12:19:40Z</time>
      </trkpt>
      <trkpt lat="45.71634" lon="4.06764">
        <ele>387.31</ele>
        <time>2015-03-07T12:19:41Z</time>
      </trkpt>
      <trkpt lat="45.71633" lon="4.06777">
        <ele>386.63</ele>
        <time>2015-03-07T12:19:42Z</time>
      </trkpt>
      <trkpt lat="45.71631" lon="4.0679">
        <ele>385.84</ele>
        <time>2015-03-07T12:19:43Z</time>
      </trkpt>
      <trkpt lat="45.7163" lon="4.06803">
        <ele>385.14</ele>
        <time>2015-03-07T12:19:44Z</time>
      </trkpt>
      <trkpt lat="45.71628" lon="4.06816">
        <ele>384.49</ele>
        <time>2015-03-07T12:19:45Z</time>
      </trkpt>
      <trkpt lat="45.71626" lon="4.06828">
        <ele>383.87</ele>
        <time>2015-03-07T12:19:46Z</time>
      </trkpt>
      <trkpt lat="45.71624" lon="4.06838">
        <ele>383.26</ele>
        <time>2015-03-07T12:19:47Z</time>
      </trkpt>
      <trkpt lat="45.71623" lon="4.06846">
        <ele>382.85</ele>
        <time>2015-03-07T12:19:48Z</time>
      </trkpt>
      <trkpt lat="45.71621" lon="4.06856">
        <ele>381.9</ele>
        <time>2015-03-07T12:19:50Z</time>
      </trkpt>
      <trkpt lat="45.71622" lon="4.06864">
        <ele>379.45</ele>
        <time>2015-03-07T12:19:54Z</time>
      </trkpt>
      <trkpt lat="45.71623" lon="4.06871">
        <ele>377.86</ele>
        <time>2015-03-07T12:19:57Z</time>
      </trkpt>
      <trkpt lat="45.71623" lon="4.06879">
        <ele>377.22</ele>
        <time>2015-03-07T12:19:59Z</time>
      </trkpt>
      <trkpt lat="45.71626" lon="4.06887">
        <ele>376.76</ele>
        <time>2015-03-07T12:20:01Z</time>
      </trkpt>
      <trkpt lat="45.7163" lon="4.06896">
        <ele>376.47</ele>
        <time>2015-03-07T12:20:03Z</time>
      </trkpt>
      <trkpt lat="45.71632" lon="4.06902">
        <ele>376.26</ele>
        <time>2015-03-07T12:20:04Z</time>
      </trkpt>
      <trkpt lat="45.71634" lon="4.06908">
        <ele>376.1</ele>
        <time>2015-03-07T12:20:05Z</time>
      </trkpt>
      <trkpt lat="45.71635" lon="4.06916">
        <ele>375.97</ele>
        <time>2015-03-07T12:20:06Z</time>
      </trkpt>
      <trkpt lat="45.71636" lon="4.06924">
        <ele>375.86</ele>
        <time>2015-03-07T12:20:07Z</time>
      </trkpt>
      <trkpt lat="45.71637" lon="4.06932">
        <ele>375.85</ele>
        <time>2015-03-07T12:20:08Z</time>
      </trkpt>
      <trkpt lat="45.71639" lon="4.06941">
        <ele>375.85</ele>
        <time>2015-03-07T12:20:09Z</time>
      </trkpt>
      <trkpt lat="45.71641" lon="4.0695">
        <ele>375.9</ele>
        <time>2015-03-07T12:20:10Z</time>
      </trkpt>
      <trkpt lat="45.71642" lon="4.06958">
        <ele>375.92</ele>
        <time>2015-03-07T12:20:11Z</time>
      </trkpt>
      <trkpt lat="45.71643" lon="4.06967">
        <ele>375.93</ele>
        <time>2015-03-07T12:20:12Z</time>
      </trkpt>
      <trkpt lat="45.71643" lon="4.06976">
        <ele>375.64</ele>
        <time>2015-03-07T12:20:13Z</time>
      </trkpt>
      <trkpt lat="45.71646" lon="4.06984">
        <ele>375.14</ele>
        <time>2015-03-07T12:20:14Z</time>
      </trkpt>
      <trkpt lat="45.7165" lon="4.06993">
        <ele>374.84</ele>
        <time>2015-03-07T12:20:15Z</time>
      </trkpt>
      <trkpt lat="45.71652" lon="4.07001">
        <ele>374.64</ele>
        <time>2015-03-07T12:20:16Z</time>
      </trkpt>
      <trkpt lat="45.71655" lon="4.07008">
        <ele>374.34</ele>
        <time>2015-03-07T12:20:17Z</time>
      </trkpt>
      <trkpt lat="45.71659" lon="4.07016">
        <ele>374.04</ele>
        <time>2015-03-07T12:20:18Z</time>
      </trkpt>
      <trkpt lat="45.71662" lon="4.07024">
        <ele>373.84</ele>
        <time>2015-03-07T12:20:19Z</time>
      </trkpt>
      <trkpt lat="45.71664" lon="4.07032">
        <ele>373.44</ele>
        <time>2015-03-07T12:20:20Z</time>
      </trkpt>
      <trkpt lat="45.71666" lon="4.07039">
        <ele>372.99</ele>
        <time>2015-03-07T12:20:21Z</time>
      </trkpt>
      <trkpt lat="45.71669" lon="4.07047">
        <ele>372.62</ele>
        <time>2015-03-07T12:20:22Z</time>
      </trkpt>
      <trkpt lat="45.71672" lon="4.07055">
        <ele>372.43</ele>
        <time>2015-03-07T12:20:23Z</time>
      </trkpt>
      <trkpt lat="45.71675" lon="4.07063">
        <ele>372.39</ele>
        <time>2015-03-07T12:20:24Z</time>
      </trkpt>
      <trkpt lat="45.71678" lon="4.07071">
        <ele>372.37</ele>
        <time>2015-03-07T12:20:25Z</time>
      </trkpt>
      <trkpt lat="45.71682" lon="4.07079">
        <ele>372.3</ele>
        <time>2015-03-07T12:20:26Z</time>
      </trkpt>
      <trkpt lat="45.71685" lon="4.07087">
        <ele>372.12</ele>
        <time>2015-03-07T12:20:27Z</time>
      </trkpt>
      <trkpt lat="45.71688" lon="4.07095">
        <ele>372.03</ele>
        <time>2015-03-07T12:20:28Z</time>
      </trkpt>
      <trkpt lat="45.71692" lon="4.07102">
        <ele>372.09</ele>
        <time>2015-03-07T12:20:29Z</time>
      </trkpt>
      <trkpt lat="45.71696" lon="4.07111">
        <ele>372.32</ele>
        <time>2015-03-07T12:20:30Z</time>
      </trkpt>
      <trkpt lat="45.71699" lon="4.07119">
        <ele>372.48</ele>
        <time>2015-03-07T12:20:31Z</time>
      </trkpt>
      <trkpt lat="45.71702" lon="4.07128">
        <ele>372.46</ele>
        <time>2015-03-07T12:20:32Z</time>
      </trkpt>
      <trkpt lat="45.71706" lon="4.07136">
        <ele>372.45</ele>
        <time>2015-03-07T12:20:33Z</time>
      </trkpt>
      <trkpt lat="45.71709" lon="4.07145">
        <ele>372.4</ele>
        <time>2015-03-07T12:20:34Z</time>
      </trkpt>
      <trkpt lat="45.71713" lon="4.07153">
        <ele>372.32</ele>
        <time>2015-03-07T12:20:35Z</time>
      </trkpt>
      <trkpt lat="45.71717" lon="4.07161">
        <ele>372.28</ele>
        <time>2015-03-07T12:20:36Z</time>
      </trkpt>
      <trkpt lat="45.7172" lon="4.07169">
        <ele>372.26</ele>
        <time>2015-03-07T12:20:37Z</time>
      </trkpt>
      <trkpt lat="45.71724" lon="4.07176">
        <ele>372.25</ele>
        <time>2015-03-07T12:20:38Z</time>
      </trkpt>
      <trkpt lat="45.71727" lon="4.07184">
        <ele>372.2</ele>
        <time>2015-03-07T12:20:39Z</time>
      </trkpt>
      <trkpt lat="45.7173" lon="4.07192">
        <ele>372.07</ele>
        <time>2015-03-07T12:20:40Z</time>
      </trkpt>
      <trkpt lat="45.71733" lon="4.07199">
        <ele>371.91</ele>
        <time>2015-03-07T12:20:41Z</time>
      </trkpt>
      <trkpt lat="45.71737" lon="4.07206">
        <ele>371.83</ele>
        <time>2015-03-07T12:20:42Z</time>
      </trkpt>
      <trkpt lat="45.7174" lon="4.07213">
        <ele>371.73</ele>
        <time>2015-03-07T12:20:43Z</time>
      </trkpt>
      <trkpt lat="45.71743" lon="4.0722">
        <ele>371.64</ele>
        <time>2015-03-07T12:20:44Z</time>
      </trkpt>
      <trkpt lat="45.71746" lon="4.07227">
        <ele>371.49</ele>
        <time>2015-03-07T12:20:45Z</time>
      </trkpt>
      <trkpt lat="45.7175" lon="4.07235">
        <ele>371.47</ele>
        <time>2015-03-07T12:20:46Z</time>
      </trkpt>
      <trkpt lat="45.71753" lon="4.07242">
        <ele>371.36</ele>
        <time>2015-03-07T12:20:47Z</time>
      </trkpt>
      <trkpt lat="45.71757" lon="4.0725">
        <ele>371.3</ele>
        <time>2015-03-07T12:20:48Z</time>
      </trkpt>
      <trkpt lat="45.71761" lon="4.07258">
        <ele>371.27</ele>
        <time>2015-03-07T12:20:49Z</time>
      </trkpt>
      <trkpt lat="45.71764" lon="4.07266">
        <ele>371.16</ele>
        <time>2015-03-07T12:20:50Z</time>
      </trkpt>
      <trkpt lat="45.71767" lon="4.07274">
        <ele>371.1</ele>
        <time>2015-03-07T12:20:51Z</time>
      </trkpt>
      <trkpt lat="45.71771" lon="4.07283">
        <ele>370.87</ele>
        <time>2015-03-07T12:20:52Z</time>
      </trkpt>
      <trkpt lat="45.71774" lon="4.07292">
        <ele>370.61</ele>
        <time>2015-03-07T12:20:53Z</time>
      </trkpt>
      <trkpt lat="45.71777" lon="4.07301">
        <ele>370.38</ele>
        <time>2015-03-07T12:20:54Z</time>
      </trkpt>
      <trkpt lat="45.7178" lon="4.07311">
        <ele>370.16</ele>
        <time>2015-03-07T12:20:55Z</time>
      </trkpt>
      <trkpt lat="45.71784" lon="4.0732">
        <ele>369.95</ele>
        <time>2015-03-07T12:20:56Z</time>
      </trkpt>
      <trkpt lat="45.71788" lon="4.0733">
        <ele>369.9</ele>
        <time>2015-03-07T12:20:57Z</time>
      </trkpt>
      <trkpt lat="45.71791" lon="4.07339">
        <ele>369.82</ele>
        <time>2015-03-07T12:20:58Z</time>
      </trkpt>
      <trkpt lat="45.71795" lon="4.07349">
        <ele>369.93</ele>
        <time>2015-03-07T12:20:59Z</time>
      </trkpt>
      <trkpt lat="45.71797" lon="4.07359">
        <ele>369.89</ele>
        <time>2015-03-07T12:21:00Z</time>
      </trkpt>
      <trkpt lat="45.71799" lon="4.07369">
        <ele>369.97</ele>
        <time>2015-03-07T12:21:01Z</time>
      </trkpt>
      <trkpt lat="45.718" lon="4.07378">
        <ele>370.06</ele>
        <time>2015-03-07T12:21:02Z</time>
      </trkpt>
      <trkpt lat="45.71801" lon="4.07388">
        <ele>370.35</ele>
        <time>2015-03-07T12:21:03Z</time>
      </trkpt>
      <trkpt lat="45.71801" lon="4.07397">
        <ele>370.65</ele>
        <time>2015-03-07T12:21:04Z</time>
      </trkpt>
      <trkpt lat="45.71801" lon="4.07406">
        <ele>370.95</ele>
        <time>2015-03-07T12:21:05Z</time>
      </trkpt>
      <trkpt lat="45.718" lon="4.07415">
        <ele>371.14</ele>
        <time>2015-03-07T12:21:06Z</time>
      </trkpt>
      <trkpt lat="45.71799" lon="4.07424">
        <ele>371.24</ele>
        <time>2015-03-07T12:21:07Z</time>
      </trkpt>
      <trkpt lat="45.71798" lon="4.07434">
        <ele>371.19</ele>
        <time>2015-03-07T12:21:08Z</time>
      </trkpt>
      <trkpt lat="45.71796" lon="4.07443">
        <ele>371.22</ele>
        <time>2015-03-07T12:21:09Z</time>
      </trkpt>
      <trkpt lat="45.71795" lon="4.07452">
        <ele>371.23</ele>
        <time>2015-03-07T12:21:10Z</time>
      </trkpt>
      <trkpt lat="45.71794" lon="4.07462">
        <ele>371.19</ele>
        <time>2015-03-07T12:21:11Z</time>
      </trkpt>
      <trkpt lat="45.71792" lon="4.07472">
        <ele>371.17</ele>
        <time>2015-03-07T12:21:12Z</time>
      </trkpt>
      <trkpt lat="45.71791" lon="4.07482">
        <ele>371.15</ele>
        <time>2015-03-07T12:21:13Z</time>
      </trkpt>
      <trkpt lat="45.7179" lon="4.07492">
        <ele>371.05</ele>
        <time>2015-03-07T12:21:14Z</time>
      </trkpt>
      <trkpt lat="45.71789" lon="4.07503">
        <ele>370.95</ele>
        <time>2015-03-07T12:21:15Z</time>
      </trkpt>
      <trkpt lat="45.71787" lon="4.07513">
        <ele>370.9</ele>
        <time>2015-03-07T12:21:16Z</time>
      </trkpt>
      <trkpt lat="45.71785" lon="4.07523">
        <ele>370.72</ele>
        <time>2015-03-07T12:21:17Z</time>
      </trkpt>
      <trkpt lat="45.71785" lon="4.07533">
        <ele>370.58</ele>
        <time>2015-03-07T12:21:18Z</time>
      </trkpt>
      <trkpt lat="45.71784" lon="4.07542">
        <ele>370.41</ele>
        <time>2015-03-07T12:21:19Z</time>
      </trkpt>
      <trkpt lat="45.71783" lon="4.07552">
        <ele>370.38</ele>
        <time>2015-03-07T12:21:20Z</time>
      </trkpt>
      <trkpt lat="45.71781" lon="4.07561">
        <ele>370.46</ele>
        <time>2015-03-07T12:21:21Z</time>
      </trkpt>
      <trkpt lat="45.7178" lon="4.0757">
        <ele>370.5</ele>
        <time>2015-03-07T12:21:22Z</time>
      </trkpt>
      <trkpt lat="45.71779" lon="4.07578">
        <ele>370.52</ele>
        <time>2015-03-07T12:21:23Z</time>
      </trkpt>
      <trkpt lat="45.71778" lon="4.07586">
        <ele>370.53</ele>
        <time>2015-03-07T12:21:24Z</time>
      </trkpt>
      <trkpt lat="45.71777" lon="4.07594">
        <ele>370.59</ele>
        <time>2015-03-07T12:21:25Z</time>
      </trkpt>
      <trkpt lat="45.71775" lon="4.07601">
        <ele>370.62</ele>
        <time>2015-03-07T12:21:26Z</time>
      </trkpt>
      <trkpt lat="45.71774" lon="4.07609">
        <ele>370.53</ele>
        <time>2015-03-07T12:21:27Z</time>
      </trkpt>
      <trkpt lat="45.71773" lon="4.07616">
        <ele>370.49</ele>
        <time>2015-03-07T12:21:28Z</time>
      </trkpt>
      <trkpt lat="45.71772" lon="4.07625">
        <ele>370.72</ele>
        <time>2015-03-07T12:21:29Z</time>
      </trkpt>
      <trkpt lat="45.71771" lon="4.07634">
        <ele>370.88</ele>
        <time>2015-03-07T12:21:30Z</time>
      </trkpt>
      <trkpt lat="45.71769" lon="4.07641">
        <ele>371.21</ele>
        <time>2015-03-07T12:21:31Z</time>
      </trkpt>
      <trkpt lat="45.71768" lon="4.07648">
        <ele>371.58</ele>
        <time>2015-03-07T12:21:32Z</time>
      </trkpt>
      <trkpt lat="45.71767" lon="4.07654">
        <ele>371.41</ele>
        <time>2015-03-07T12:21:33Z</time>
      </trkpt>
      <trkpt lat="45.71767" lon="4.07661">
        <ele>370.98</ele>
        <time>2015-03-07T12:21:34Z</time>
      </trkpt>
      <trkpt lat="45.71766" lon="4.07669">
        <ele>370.76</ele>
        <time>2015-03-07T12:21:35Z</time>
      </trkpt>
      <trkpt lat="45.71765" lon="4.07677">
        <ele>370.65</ele>
        <time>2015-03-07T12:21:36Z</time>
      </trkpt>
      <trkpt lat="45.71764" lon="4.07684">
        <ele>370.55</ele>
        <time>2015-03-07T12:21:37Z</time>
      </trkpt>
      <trkpt lat="45.71763" lon="4.07692">
        <ele>370.5</ele>
        <time>2015-03-07T12:21:38Z</time>
      </trkpt>
      <trkpt lat="45.71761" lon="4.07699">
        <ele>370.42</ele>
        <time>2015-03-07T12:21:39Z</time>
      </trkpt>
      <trkpt lat="45.7176" lon="4.07708">
        <ele>370.43</ele>
        <time>2015-03-07T12:21:40Z</time>
      </trkpt>
      <trkpt lat="45.71759" lon="4.07716">
        <ele>370.44</ele>
        <time>2015-03-07T12:21:41Z</time>
      </trkpt>
      <trkpt lat="45.71758" lon="4.07725">
        <ele>370.44</ele>
        <time>2015-03-07T12:21:42Z</time>
      </trkpt>
      <trkpt lat="45.71756" lon="4.07733">
        <ele>370.44</ele>
        <time>2015-03-07T12:21:43Z</time>
      </trkpt>
      <trkpt lat="45.71755" lon="4.07742">
        <ele>370.54</ele>
        <time>2015-03-07T12:21:44Z</time>
      </trkpt>
      <trkpt lat="45.71754" lon="4.07751">
        <ele>370.54</ele>
        <time>2015-03-07T12:21:45Z</time>
      </trkpt>
      <trkpt lat="45.71753" lon="4.0776">
        <ele>370.59</ele>
        <time>2015-03-07T12:21:46Z</time>
      </trkpt>
      <trkpt lat="45.71752" lon="4.0777">
        <ele>370.62</ele>
        <time>2015-03-07T12:21:47Z</time>
      </trkpt>
      <trkpt lat="45.71751" lon="4.07779">
        <ele>370.68</ele>
        <time>2015-03-07T12:21:48Z</time>
      </trkpt>
      <trkpt lat="45.7175" lon="4.07788">
        <ele>370.71</ele>
        <time>2015-03-07T12:21:49Z</time>
      </trkpt>
      <trkpt lat="45.71749" lon="4.07798">
        <ele>370.78</ele>
        <time>2015-03-07T12:21:50Z</time>
      </trkpt>
      <trkpt lat="45.71747" lon="4.07808">
        <ele>370.86</ele>
        <time>2015-03-07T12:21:51Z</time>
      </trkpt>
      <trkpt lat="45.71746" lon="4.07817">
        <ele>370.9</ele>
        <time>2015-03-07T12:21:52Z</time>
      </trkpt>
      <trkpt lat="45.71744" lon="4.07827">
        <ele>371.07</ele>
        <time>2015-03-07T12:21:53Z</time>
      </trkpt>
      <trkpt lat="45.71743" lon="4.07837">
        <ele>371.21</ele>
        <time>2015-03-07T12:21:54Z</time>
      </trkpt>
      <trkpt lat="45.71741" lon="4.07846">
        <ele>371.38</ele>
        <time>2015-03-07T12:21:55Z</time>
      </trkpt>
      <trkpt lat="45.7174" lon="4.07856">
        <ele>371.56</ele>
        <time>2015-03-07T12:21:56Z</time>
      </trkpt>
      <trkpt lat="45.71739" lon="4.07867">
        <ele>371.75</ele>
        <time>2015-03-07T12:21:57Z</time>
      </trkpt>
      <trkpt lat="45.71737" lon="4.07877">
        <ele>371.95</ele>
        <time>2015-03-07T12:21:58Z</time>
      </trkpt>
      <trkpt lat="45.71736" lon="4.07887">
        <ele>372.15</ele>
        <time>2015-03-07T12:21:59Z</time>
      </trkpt>
      <trkpt lat="45.71734" lon="4.07897">
        <ele>372.25</ele>
        <time>2015-03-07T12:22:00Z</time>
      </trkpt>
      <trkpt lat="45.71733" lon="4.07906">
        <ele>372.29</ele>
        <time>2015-03-07T12:22:01Z</time>
      </trkpt>
      <trkpt lat="45.71732" lon="4.07916">
        <ele>372.37</ele>
        <time>2015-03-07T12:22:02Z</time>
      </trkpt>
      <trkpt lat="45.71731" lon="4.07925">
        <ele>372.41</ele>
        <time>2015-03-07T12:22:03Z</time>
      </trkpt>
      <trkpt lat="45.71729" lon="4.07933">
        <ele>372.43</ele>
        <time>2015-03-07T12:22:04Z</time>
      </trkpt>
      <trkpt lat="45.71728" lon="4.07942">
        <ele>372.48</ele>
        <time>2015-03-07T12:22:05Z</time>
      </trkpt>
      <trkpt lat="45.71727" lon="4.0795">
        <ele>372.56</ele>
        <time>2015-03-07T12:22:06Z</time>
      </trkpt>
      <trkpt lat="45.71726" lon="4.07958">
        <ele>372.55</ele>
        <time>2015-03-07T12:22:07Z</time>
      </trkpt>
      <trkpt lat="45.71725" lon="4.07966">
        <ele>372.55</ele>
        <time>2015-03-07T12:22:08Z</time>
      </trkpt>
      <trkpt lat="45.71725" lon="4.07975">
        <ele>372.7</ele>
        <time>2015-03-07T12:22:09Z</time>
      </trkpt>
      <trkpt lat="45.71724" lon="4.07983">
        <ele>372.62</ele>
        <time>2015-03-07T12:22:10Z</time>
      </trkpt>
      <trkpt lat="45.71724" lon="4.07991">
        <ele>372.73</ele>
        <time>2015-03-07T12:22:11Z</time>
      </trkpt>
      <trkpt lat="45.71724" lon="4.08">
        <ele>372.79</ele>
        <time>2015-03-07T12:22:12Z</time>
      </trkpt>
      <trkpt lat="45.71724" lon="4.08009">
        <ele>372.77</ele>
        <time>2015-03-07T12:22:13Z</time>
      </trkpt>
      <trkpt lat="45.71725" lon="4.08018">
        <ele>372.9</ele>
        <time>2015-03-07T12:22:14Z</time>
      </trkpt>
      <trkpt lat="45.71725" lon="4.08027">
        <ele>373.12</ele>
        <time>2015-03-07T12:22:15Z</time>
      </trkpt>
      <trkpt lat="45.71725" lon="4.08036">
        <ele>373.28</ele>
        <time>2015-03-07T12:22:16Z</time>
      </trkpt>
      <trkpt lat="45.71726" lon="4.08046">
        <ele>373.31</ele>
        <time>2015-03-07T12:22:17Z</time>
      </trkpt>
      <trkpt lat="45.71726" lon="4.08055">
        <ele>373.43</ele>
        <time>2015-03-07T12:22:18Z</time>
      </trkpt>
      <trkpt lat="45.71727" lon="4.08064">
        <ele>373.39</ele>
        <time>2015-03-07T12:22:19Z</time>
      </trkpt>
      <trkpt lat="45.71728" lon="4.08074">
        <ele>373.37</ele>
        <time>2015-03-07T12:22:20Z</time>
      </trkpt>
      <trkpt lat="45.71729" lon="4.08083">
        <ele>373.4</ele>
        <time>2015-03-07T12:22:21Z</time>
      </trkpt>
      <trkpt lat="45.71729" lon="4.08093">
        <ele>373.47</ele>
        <time>2015-03-07T12:22:22Z</time>
      </trkpt>
      <trkpt lat="45.7173" lon="4.08102">
        <ele>373.51</ele>
        <time>2015-03-07T12:22:23Z</time>
      </trkpt>
      <trkpt lat="45.71731" lon="4.08112">
        <ele>373.58</ele>
        <time>2015-03-07T12:22:24Z</time>
      </trkpt>
      <trkpt lat="45.71731" lon="4.08122">
        <ele>373.76</ele>
        <time>2015-03-07T12:22:25Z</time>
      </trkpt>
      <trkpt lat="45.71732" lon="4.08131">
        <ele>373.85</ele>
        <time>2015-03-07T12:22:26Z</time>
      </trkpt>
      <trkpt lat="45.71732" lon="4.0814">
        <ele>373.7</ele>
        <time>2015-03-07T12:22:27Z</time>
      </trkpt>
      <trkpt lat="45.71733" lon="4.08149">
        <ele>373.17</ele>
        <time>2015-03-07T12:22:28Z</time>
      </trkpt>
      <trkpt lat="45.71733" lon="4.08158">
        <ele>372.51</ele>
        <time>2015-03-07T12:22:29Z</time>
      </trkpt>
      <trkpt lat="45.71733" lon="4.08168">
        <ele>371.98</ele>
        <time>2015-03-07T12:22:30Z</time>
      </trkpt>
      <trkpt lat="45.71733" lon="4.08177">
        <ele>371.91</ele>
        <time>2015-03-07T12:22:31Z</time>
      </trkpt>
      <trkpt lat="45.71734" lon="4.08186">
        <ele>371.93</ele>
        <time>2015-03-07T12:22:32Z</time>
      </trkpt>
      <trkpt lat="45.71735" lon="4.08195">
        <ele>371.79</ele>
        <time>2015-03-07T12:22:33Z</time>
      </trkpt>
      <trkpt lat="45.71737" lon="4.08205">
        <ele>371.61</ele>
        <time>2015-03-07T12:22:34Z</time>
      </trkpt>
      <trkpt lat="45.71738" lon="4.08213">
        <ele>371.38</ele>
        <time>2015-03-07T12:22:35Z</time>
      </trkpt>
      <trkpt lat="45.71738" lon="4.08222">
        <ele>370.96</ele>
        <time>2015-03-07T12:22:36Z</time>
      </trkpt>
      <trkpt lat="45.71738" lon="4.0823">
        <ele>370.65</ele>
        <time>2015-03-07T12:22:37Z</time>
      </trkpt>
      <trkpt lat="45.71738" lon="4.08239">
        <ele>370.4</ele>
        <time>2015-03-07T12:22:38Z</time>
      </trkpt>
      <trkpt lat="45.71739" lon="4.08248">
        <ele>370.22</ele>
        <time>2015-03-07T12:22:39Z</time>
      </trkpt>
      <trkpt lat="45.71739" lon="4.08257">
        <ele>370.03</ele>
        <time>2015-03-07T12:22:40Z</time>
      </trkpt>
      <trkpt lat="45.7174" lon="4.08266">
        <ele>369.84</ele>
        <time>2015-03-07T12:22:41Z</time>
      </trkpt>
      <trkpt lat="45.7174" lon="4.08275">
        <ele>369.74</ele>
        <time>2015-03-07T12:22:42Z</time>
      </trkpt>
      <trkpt lat="45.71741" lon="4.08285">
        <ele>369.69</ele>
        <time>2015-03-07T12:22:43Z</time>
      </trkpt>
      <trkpt lat="45.71741" lon="4.08294">
        <ele>369.62</ele>
        <time>2015-03-07T12:22:44Z</time>
      </trkpt>
      <trkpt lat="45.71742" lon="4.08303">
        <ele>369.53</ele>
        <time>2015-03-07T12:22:45Z</time>
      </trkpt>
      <trkpt lat="45.71742" lon="4.08313">
        <ele>369.49</ele>
        <time>2015-03-07T12:22:46Z</time>
      </trkpt>
      <trkpt lat="45.71743" lon="4.08323">
        <ele>369.37</ele>
        <time>2015-03-07T12:22:47Z</time>
      </trkpt>
      <trkpt lat="45.71743" lon="4.08332">
        <ele>369.2</ele>
        <time>2015-03-07T12:22:48Z</time>
      </trkpt>
      <trkpt lat="45.71744" lon="4.08341">
        <ele>368.82</ele>
        <time>2015-03-07T12:22:49Z</time>
      </trkpt>
      <trkpt lat="45.71744" lon="4.0835">
        <ele>368.63</ele>
        <time>2015-03-07T12:22:50Z</time>
      </trkpt>
      <trkpt lat="45.71745" lon="4.08358">
        <ele>368.39</ele>
        <time>2015-03-07T12:22:51Z</time>
      </trkpt>
      <trkpt lat="45.71745" lon="4.08367">
        <ele>368.32</ele>
        <time>2015-03-07T12:22:52Z</time>
      </trkpt>
      <trkpt lat="45.71745" lon="4.08375">
        <ele>368.28</ele>
        <time>2015-03-07T12:22:53Z</time>
      </trkpt>
      <trkpt lat="45.71746" lon="4.08383">
        <ele>368.31</ele>
        <time>2015-03-07T12:22:54Z</time>
      </trkpt>
      <trkpt lat="45.71746" lon="4.08391">
        <ele>368.33</ele>
        <time>2015-03-07T12:22:55Z</time>
      </trkpt>
      <trkpt lat="45.71746" lon="4.08398">
        <ele>368.39</ele>
        <time>2015-03-07T12:22:56Z</time>
      </trkpt>
      <trkpt lat="45.71747" lon="4.08405">
        <ele>368.46</ele>
        <time>2015-03-07T12:22:57Z</time>
      </trkpt>
      <trkpt lat="45.71747" lon="4.08412">
        <ele>368.45</ele>
        <time>2015-03-07T12:22:58Z</time>
      </trkpt>
      <trkpt lat="45.71747" lon="4.0842">
        <ele>368.4</ele>
        <time>2015-03-07T12:22:59Z</time>
      </trkpt>
      <trkpt lat="45.71747" lon="4.08428">
        <ele>368.27</ele>
        <time>2015-03-07T12:23:00Z</time>
      </trkpt>
      <trkpt lat="45.71748" lon="4.08436">
        <ele>368.06</ele>
        <time>2015-03-07T12:23:01Z</time>
      </trkpt>
      <trkpt lat="45.71749" lon="4.08445">
        <ele>367.85</ele>
        <time>2015-03-07T12:23:02Z</time>
      </trkpt>
      <trkpt lat="45.71749" lon="4.08453">
        <ele>367.6</ele>
        <time>2015-03-07T12:23:03Z</time>
      </trkpt>
      <trkpt lat="45.7175" lon="4.08462">
        <ele>367.32</ele>
        <time>2015-03-07T12:23:04Z</time>
      </trkpt>
      <trkpt lat="45.7175" lon="4.08472">
        <ele>367.18</ele>
        <time>2015-03-07T12:23:05Z</time>
      </trkpt>
      <trkpt lat="45.7175" lon="4.08482">
        <ele>367.11</ele>
        <time>2015-03-07T12:23:06Z</time>
      </trkpt>
      <trkpt lat="45.7175" lon="4.08493">
        <ele>367.13</ele>
        <time>2015-03-07T12:23:07Z</time>
      </trkpt>
      <trkpt lat="45.71751" lon="4.08503">
        <ele>367.09</ele>
        <time>2015-03-07T12:23:08Z</time>
      </trkpt>
      <trkpt lat="45.71752" lon="4.08513">
        <ele>367.07</ele>
        <time>2015-03-07T12:23:09Z</time>
      </trkpt>
      <trkpt lat="45.71752" lon="4.08524">
        <ele>367.05</ele>
        <time>2015-03-07T12:23:10Z</time>
      </trkpt>
      <trkpt lat="45.71753" lon="4.08535">
        <ele>367</ele>
        <time>2015-03-07T12:23:11Z</time>
      </trkpt>
      <trkpt lat="45.71753" lon="4.08545">
        <ele>366.92</ele>
        <time>2015-03-07T12:23:12Z</time>
      </trkpt>
      <trkpt lat="45.71754" lon="4.08556">
        <ele>366.83</ele>
        <time>2015-03-07T12:23:13Z</time>
      </trkpt>
      <trkpt lat="45.71754" lon="4.08566">
        <ele>366.79</ele>
        <time>2015-03-07T12:23:14Z</time>
      </trkpt>
      <trkpt lat="45.71755" lon="4.08575">
        <ele>366.72</ele>
        <time>2015-03-07T12:23:15Z</time>
      </trkpt>
      <trkpt lat="45.71756" lon="4.08585">
        <ele>366.68</ele>
        <time>2015-03-07T12:23:16Z</time>
      </trkpt>
      <trkpt lat="45.71756" lon="4.08594">
        <ele>366.66</ele>
        <time>2015-03-07T12:23:17Z</time>
      </trkpt>
      <trkpt lat="45.71756" lon="4.08604">
        <ele>366.6</ele>
        <time>2015-03-07T12:23:18Z</time>
      </trkpt>
      <trkpt lat="45.71757" lon="4.08613">
        <ele>366.57</ele>
        <time>2015-03-07T12:23:19Z</time>
      </trkpt>
      <trkpt lat="45.71757" lon="4.08623">
        <ele>366.46</ele>
        <time>2015-03-07T12:23:20Z</time>
      </trkpt>
      <trkpt lat="45.71757" lon="4.08633">
        <ele>366.5</ele>
        <time>2015-03-07T12:23:21Z</time>
      </trkpt>
      <trkpt lat="45.71757" lon="4.08643">
        <ele>366.47</ele>
        <time>2015-03-07T12:23:22Z</time>
      </trkpt>
      <trkpt lat="45.71758" lon="4.08654">
        <ele>366.41</ele>
        <time>2015-03-07T12:23:23Z</time>
      </trkpt>
      <trkpt lat="45.71758" lon="4.08664">
        <ele>366.28</ele>
        <time>2015-03-07T12:23:24Z</time>
      </trkpt>
      <trkpt lat="45.71759" lon="4.08675">
        <ele>366.11</ele>
        <time>2015-03-07T12:23:25Z</time>
      </trkpt>
      <trkpt lat="45.71759" lon="4.08686">
        <ele>365.88</ele>
        <time>2015-03-07T12:23:26Z</time>
      </trkpt>
      <trkpt lat="45.7176" lon="4.08696">
        <ele>365.61</ele>
        <time>2015-03-07T12:23:27Z</time>
      </trkpt>
      <trkpt lat="45.7176" lon="4.08707">
        <ele>365.33</ele>
        <time>2015-03-07T12:23:28Z</time>
      </trkpt>
      <trkpt lat="45.71761" lon="4.08717">
        <ele>365.09</ele>
        <time>2015-03-07T12:23:29Z</time>
      </trkpt>
      <trkpt lat="45.71761" lon="4.08728">
        <ele>364.81</ele>
        <time>2015-03-07T12:23:30Z</time>
      </trkpt>
      <trkpt lat="45.71762" lon="4.08739">
        <ele>364.53</ele>
        <time>2015-03-07T12:23:31Z</time>
      </trkpt>
      <trkpt lat="45.71762" lon="4.08749">
        <ele>364.14</ele>
        <time>2015-03-07T12:23:32Z</time>
      </trkpt>
      <trkpt lat="45.71762" lon="4.0876">
        <ele>363.79</ele>
        <time>2015-03-07T12:23:33Z</time>
      </trkpt>
      <trkpt lat="45.71761" lon="4.08771">
        <ele>363.47</ele>
        <time>2015-03-07T12:23:34Z</time>
      </trkpt>
      <trkpt lat="45.7176" lon="4.08782">
        <ele>363.16</ele>
        <time>2015-03-07T12:23:35Z</time>
      </trkpt>
      <trkpt lat="45.71759" lon="4.08793">
        <ele>362.9</ele>
        <time>2015-03-07T12:23:36Z</time>
      </trkpt>
      <trkpt lat="45.71758" lon="4.08804">
        <ele>362.72</ele>
        <time>2015-03-07T12:23:37Z</time>
      </trkpt>
      <trkpt lat="45.71757" lon="4.08815">
        <ele>362.73</ele>
        <time>2015-03-07T12:23:38Z</time>
      </trkpt>
      <trkpt lat="45.71756" lon="4.08825">
        <ele>362.74</ele>
        <time>2015-03-07T12:23:39Z</time>
      </trkpt>
      <trkpt lat="45.71754" lon="4.08835">
        <ele>362.64</ele>
        <time>2015-03-07T12:23:40Z</time>
      </trkpt>
      <trkpt lat="45.71753" lon="4.08845">
        <ele>362.59</ele>
        <time>2015-03-07T12:23:41Z</time>
      </trkpt>
      <trkpt lat="45.71752" lon="4.08855">
        <ele>362.52</ele>
        <time>2015-03-07T12:23:42Z</time>
      </trkpt>
      <trkpt lat="45.71751" lon="4.08864">
        <ele>362.38</ele>
        <time>2015-03-07T12:23:43Z</time>
      </trkpt>
      <trkpt lat="45.7175" lon="4.08873">
        <ele>362.31</ele>
        <time>2015-03-07T12:23:44Z</time>
      </trkpt>
      <trkpt lat="45.71749" lon="4.08881">
        <ele>362.33</ele>
        <time>2015-03-07T12:23:45Z</time>
      </trkpt>
      <trkpt lat="45.71747" lon="4.08888">
        <ele>362.44</ele>
        <time>2015-03-07T12:23:46Z</time>
      </trkpt>
      <trkpt lat="45.71746" lon="4.08895">
        <ele>362.54</ele>
        <time>2015-03-07T12:23:47Z</time>
      </trkpt>
      <trkpt lat="45.71744" lon="4.08901">
        <ele>362.59</ele>
        <time>2015-03-07T12:23:48Z</time>
      </trkpt>
      <trkpt lat="45.71743" lon="4.08907">
        <ele>362.57</ele>
        <time>2015-03-07T12:23:49Z</time>
      </trkpt>
      <trkpt lat="45.71741" lon="4.08914">
        <ele>362.66</ele>
        <time>2015-03-07T12:23:50Z</time>
      </trkpt>
      <trkpt lat="45.7174" lon="4.08921">
        <ele>362.75</ele>
        <time>2015-03-07T12:23:51Z</time>
      </trkpt>
      <trkpt lat="45.71738" lon="4.08927">
        <ele>362.9</ele>
        <time>2015-03-07T12:23:52Z</time>
      </trkpt>
      <trkpt lat="45.71736" lon="4.08934">
        <ele>363.02</ele>
        <time>2015-03-07T12:23:53Z</time>
      </trkpt>
      <trkpt lat="45.71734" lon="4.08941">
        <ele>363.13</ele>
        <time>2015-03-07T12:23:54Z</time>
      </trkpt>
      <trkpt lat="45.71733" lon="4.08948">
        <ele>363.29</ele>
        <time>2015-03-07T12:23:55Z</time>
      </trkpt>
      <trkpt lat="45.7173" lon="4.08955">
        <ele>363.37</ele>
        <time>2015-03-07T12:23:56Z</time>
      </trkpt>
      <trkpt lat="45.71728" lon="4.08962">
        <ele>363.36</ele>
        <time>2015-03-07T12:23:57Z</time>
      </trkpt>
      <trkpt lat="45.71726" lon="4.08969">
        <ele>363.4</ele>
        <time>2015-03-07T12:23:58Z</time>
      </trkpt>
      <trkpt lat="45.71724" lon="4.08976">
        <ele>363.42</ele>
        <time>2015-03-07T12:23:59Z</time>
      </trkpt>
      <trkpt lat="45.71723" lon="4.08983">
        <ele>363.38</ele>
        <time>2015-03-07T12:24:00Z</time>
      </trkpt>
      <trkpt lat="45.71721" lon="4.0899">
        <ele>363.46</ele>
        <time>2015-03-07T12:24:01Z</time>
      </trkpt>
      <trkpt lat="45.71719" lon="4.08997">
        <ele>363.5</ele>
        <time>2015-03-07T12:24:02Z</time>
      </trkpt>
      <trkpt lat="45.71717" lon="4.09004">
        <ele>363.62</ele>
        <time>2015-03-07T12:24:03Z</time>
      </trkpt>
      <trkpt lat="45.71715" lon="4.09012">
        <ele>363.73</ele>
        <time>2015-03-07T12:24:04Z</time>
      </trkpt>
      <trkpt lat="45.71713" lon="4.09019">
        <ele>363.94</ele>
        <time>2015-03-07T12:24:05Z</time>
      </trkpt>
      <trkpt lat="45.71712" lon="4.09026">
        <ele>364.29</ele>
        <time>2015-03-07T12:24:06Z</time>
      </trkpt>
      <trkpt lat="45.7171" lon="4.09034">
        <ele>364.62</ele>
        <time>2015-03-07T12:24:07Z</time>
      </trkpt>
      <trkpt lat="45.71708" lon="4.09041">
        <ele>364.93</ele>
        <time>2015-03-07T12:24:08Z</time>
      </trkpt>
      <trkpt lat="45.71706" lon="4.09048">
        <ele>365.29</ele>
        <time>2015-03-07T12:24:09Z</time>
      </trkpt>
      <trkpt lat="45.71704" lon="4.09055">
        <ele>365.57</ele>
        <time>2015-03-07T12:24:10Z</time>
      </trkpt>
      <trkpt lat="45.71702" lon="4.09062">
        <ele>365.75</ele>
        <time>2015-03-07T12:24:11Z</time>
      </trkpt>
      <trkpt lat="45.717" lon="4.0907">
        <ele>365.95</ele>
        <time>2015-03-07T12:24:12Z</time>
      </trkpt>
      <trkpt lat="45.71698" lon="4.09077">
        <ele>366.2</ele>
        <time>2015-03-07T12:24:13Z</time>
      </trkpt>
      <trkpt lat="45.71696" lon="4.09085">
        <ele>366.37</ele>
        <time>2015-03-07T12:24:14Z</time>
      </trkpt>
      <trkpt lat="45.71694" lon="4.09093">
        <ele>366.46</ele>
        <time>2015-03-07T12:24:15Z</time>
      </trkpt>
      <trkpt lat="45.71691" lon="4.09101">
        <ele>366.55</ele>
        <time>2015-03-07T12:24:16Z</time>
      </trkpt>
      <trkpt lat="45.71689" lon="4.09109">
        <ele>366.7</ele>
        <time>2015-03-07T12:24:17Z</time>
      </trkpt>
      <trkpt lat="45.71687" lon="4.09117">
        <ele>366.87</ele>
        <time>2015-03-07T12:24:18Z</time>
      </trkpt>
      <trkpt lat="45.71684" lon="4.09125">
        <ele>367.06</ele>
        <time>2015-03-07T12:24:19Z</time>
      </trkpt>
      <trkpt lat="45.71682" lon="4.09134">
        <ele>367.15</ele>
        <time>2015-03-07T12:24:20Z</time>
      </trkpt>
      <trkpt lat="45.7168" lon="4.09142">
        <ele>367.3</ele>
        <time>2015-03-07T12:24:21Z</time>
      </trkpt>
      <trkpt lat="45.71678" lon="4.09151">
        <ele>367.37</ele>
        <time>2015-03-07T12:24:22Z</time>
      </trkpt>
      <trkpt lat="45.71676" lon="4.09159">
        <ele>367.41</ele>
        <time>2015-03-07T12:24:23Z</time>
      </trkpt>
      <trkpt lat="45.71674" lon="4.09168">
        <ele>367.38</ele>
        <time>2015-03-07T12:24:24Z</time>
      </trkpt>
      <trkpt lat="45.71671" lon="4.09176">
        <ele>367.31</ele>
        <time>2015-03-07T12:24:25Z</time>
      </trkpt>
      <trkpt lat="45.71669" lon="4.09184">
        <ele>367.28</ele>
        <time>2015-03-07T12:24:26Z</time>
      </trkpt>
      <trkpt lat="45.71667" lon="4.09192">
        <ele>367.21</ele>
        <time>2015-03-07T12:24:27Z</time>
      </trkpt>
      <trkpt lat="45.71665" lon="4.09201">
        <ele>367.23</ele>
        <time>2015-03-07T12:24:28Z</time>
      </trkpt>
      <trkpt lat="45.71663" lon="4.0921">
        <ele>367.19</ele>
        <time>2015-03-07T12:24:29Z</time>
      </trkpt>
      <trkpt lat="45.71661" lon="4.09219">
        <ele>367.16</ele>
        <time>2015-03-07T12:24:30Z</time>
      </trkpt>
      <trkpt lat="45.71659" lon="4.09227">
        <ele>367</ele>
        <time>2015-03-07T12:24:31Z</time>
      </trkpt>
      <trkpt lat="45.71657" lon="4.09235">
        <ele>366.92</ele>
        <time>2015-03-07T12:24:32Z</time>
      </trkpt>
      <trkpt lat="45.71655" lon="4.09243">
        <ele>366.88</ele>
        <time>2015-03-07T12:24:33Z</time>
      </trkpt>
      <trkpt lat="45.71653" lon="4.09251">
        <ele>366.81</ele>
        <time>2015-03-07T12:24:34Z</time>
      </trkpt>
      <trkpt lat="45.7165" lon="4.09259">
        <ele>366.78</ele>
        <time>2015-03-07T12:24:35Z</time>
      </trkpt>
      <trkpt lat="45.71648" lon="4.09266">
        <ele>366.76</ele>
        <time>2015-03-07T12:24:36Z</time>
      </trkpt>
      <trkpt lat="45.71646" lon="4.09274">
        <ele>366.85</ele>
        <time>2015-03-07T12:24:37Z</time>
      </trkpt>
      <trkpt lat="45.71644" lon="4.09282">
        <ele>366.9</ele>
        <time>2015-03-07T12:24:38Z</time>
      </trkpt>
      <trkpt lat="45.71641" lon="4.09291">
        <ele>366.92</ele>
        <time>2015-03-07T12:24:39Z</time>
      </trkpt>
      <trkpt lat="45.71639" lon="4.09299">
        <ele>366.93</ele>
        <time>2015-03-07T12:24:40Z</time>
      </trkpt>
      <trkpt lat="45.71638" lon="4.09307">
        <ele>366.74</ele>
        <time>2015-03-07T12:24:41Z</time>
      </trkpt>
      <trkpt lat="45.71636" lon="4.09316">
        <ele>366.49</ele>
        <time>2015-03-07T12:24:42Z</time>
      </trkpt>
      <trkpt lat="45.71633" lon="4.09324">
        <ele>366.42</ele>
        <time>2015-03-07T12:24:43Z</time>
      </trkpt>
      <trkpt lat="45.71631" lon="4.09332">
        <ele>366.38</ele>
        <time>2015-03-07T12:24:44Z</time>
      </trkpt>
      <trkpt lat="45.71629" lon="4.0934">
        <ele>366.36</ele>
        <time>2015-03-07T12:24:45Z</time>
      </trkpt>
      <trkpt lat="45.71627" lon="4.09348">
        <ele>366.4</ele>
        <time>2015-03-07T12:24:46Z</time>
      </trkpt>
      <trkpt lat="45.71625" lon="4.09356">
        <ele>366.47</ele>
        <time>2015-03-07T12:24:47Z</time>
      </trkpt>
      <trkpt lat="45.71623" lon="4.09364">
        <ele>366.46</ele>
        <time>2015-03-07T12:24:48Z</time>
      </trkpt>
      <trkpt lat="45.71621" lon="4.09372">
        <ele>366.45</ele>
        <time>2015-03-07T12:24:49Z</time>
      </trkpt>
      <trkpt lat="45.71618" lon="4.0938">
        <ele>366.4</ele>
        <time>2015-03-07T12:24:50Z</time>
      </trkpt>
      <trkpt lat="45.71616" lon="4.09388">
        <ele>366.32</ele>
        <time>2015-03-07T12:24:51Z</time>
      </trkpt>
      <trkpt lat="45.71614" lon="4.09396">
        <ele>366.28</ele>
        <time>2015-03-07T12:24:52Z</time>
      </trkpt>
      <trkpt lat="45.71612" lon="4.09405">
        <ele>366.31</ele>
        <time>2015-03-07T12:24:53Z</time>
      </trkpt>
      <trkpt lat="45.7161" lon="4.09413">
        <ele>366.38</ele>
        <time>2015-03-07T12:24:54Z</time>
      </trkpt>
      <trkpt lat="45.71608" lon="4.09421">
        <ele>366.41</ele>
        <time>2015-03-07T12:24:55Z</time>
      </trkpt>
      <trkpt lat="45.71606" lon="4.09429">
        <ele>366.38</ele>
        <time>2015-03-07T12:24:56Z</time>
      </trkpt>
      <trkpt lat="45.71604" lon="4.09437">
        <ele>366.36</ele>
        <time>2015-03-07T12:24:57Z</time>
      </trkpt>
      <trkpt lat="45.71602" lon="4.09444">
        <ele>366.3</ele>
        <time>2015-03-07T12:24:58Z</time>
      </trkpt>
      <trkpt lat="45.716" lon="4.09452">
        <ele>366.32</ele>
        <time>2015-03-07T12:24:59Z</time>
      </trkpt>
      <trkpt lat="45.71598" lon="4.09459">
        <ele>366.38</ele>
        <time>2015-03-07T12:25:00Z</time>
      </trkpt>
      <trkpt lat="45.71596" lon="4.09465">
        <ele>366.46</ele>
        <time>2015-03-07T12:25:01Z</time>
      </trkpt>
      <trkpt lat="45.71594" lon="4.09472">
        <ele>366.6</ele>
        <time>2015-03-07T12:25:02Z</time>
      </trkpt>
      <trkpt lat="45.71593" lon="4.09478">
        <ele>366.72</ele>
        <time>2015-03-07T12:25:03Z</time>
      </trkpt>
      <trkpt lat="45.7159" lon="4.09487">
        <ele>367.01</ele>
        <time>2015-03-07T12:25:05Z</time>
      </trkpt>
      <trkpt lat="45.7159" lon="4.09494">
        <ele>367.19</ele>
        <time>2015-03-07T12:25:07Z</time>
      </trkpt>
      <trkpt lat="45.71594" lon="4.09499">
        <ele>367.33</ele>
        <time>2015-03-07T12:25:09Z</time>
      </trkpt>
      <trkpt lat="45.71603" lon="4.09501">
        <ele>367.62</ele>
        <time>2015-03-07T12:25:11Z</time>
      </trkpt>
      <trkpt lat="45.71608" lon="4.09502">
        <ele>367.78</ele>
        <time>2015-03-07T12:25:12Z</time>
      </trkpt>
      <trkpt lat="45.71614" lon="4.09502">
        <ele>367.91</ele>
        <time>2015-03-07T12:25:13Z</time>
      </trkpt>
      <trkpt lat="45.7162" lon="4.09503">
        <ele>368.03</ele>
        <time>2015-03-07T12:25:14Z</time>
      </trkpt>
      <trkpt lat="45.71626" lon="4.09503">
        <ele>368.14</ele>
        <time>2015-03-07T12:25:15Z</time>
      </trkpt>
      <trkpt lat="45.71632" lon="4.09504">
        <ele>368.19</ele>
        <time>2015-03-07T12:25:16Z</time>
      </trkpt>
      <trkpt lat="45.71638" lon="4.09505">
        <ele>368.22</ele>
        <time>2015-03-07T12:25:17Z</time>
      </trkpt>
      <trkpt lat="45.71644" lon="4.09505">
        <ele>368.23</ele>
        <time>2015-03-07T12:25:18Z</time>
      </trkpt>
      <trkpt lat="45.7165" lon="4.09506">
        <ele>368.24</ele>
        <time>2015-03-07T12:25:19Z</time>
      </trkpt>
      <trkpt lat="45.71656" lon="4.09507">
        <ele>368.24</ele>
        <time>2015-03-07T12:25:20Z</time>
      </trkpt>
      <trkpt lat="45.71662" lon="4.09507">
        <ele>368.19</ele>
        <time>2015-03-07T12:25:21Z</time>
      </trkpt>
      <trkpt lat="45.71668" lon="4.09508">
        <ele>368.12</ele>
        <time>2015-03-07T12:25:22Z</time>
      </trkpt>
      <trkpt lat="45.71674" lon="4.09508">
        <ele>368.08</ele>
        <time>2015-03-07T12:25:23Z</time>
      </trkpt>
      <trkpt lat="45.71681" lon="4.09509">
        <ele>368.06</ele>
        <time>2015-03-07T12:25:24Z</time>
      </trkpt>
      <trkpt lat="45.71687" lon="4.0951">
        <ele>368</ele>
        <time>2015-03-07T12:25:25Z</time>
      </trkpt>
      <trkpt lat="45.71694" lon="4.0951">
        <ele>367.97</ele>
        <time>2015-03-07T12:25:26Z</time>
      </trkpt>
      <trkpt lat="45.71701" lon="4.09511">
        <ele>367.91</ele>
        <time>2015-03-07T12:25:27Z</time>
      </trkpt>
      <trkpt lat="45.71707" lon="4.09512">
        <ele>367.83</ele>
        <time>2015-03-07T12:25:28Z</time>
      </trkpt>
      <trkpt lat="45.71714" lon="4.09512">
        <ele>367.74</ele>
        <time>2015-03-07T12:25:29Z</time>
      </trkpt>
      <trkpt lat="45.71721" lon="4.09513">
        <ele>367.64</ele>
        <time>2015-03-07T12:25:30Z</time>
      </trkpt>
      <trkpt lat="45.71728" lon="4.09514">
        <ele>367.54</ele>
        <time>2015-03-07T12:25:31Z</time>
      </trkpt>
      <trkpt lat="45.71734" lon="4.09515">
        <ele>367.44</ele>
        <time>2015-03-07T12:25:32Z</time>
      </trkpt>
      <trkpt lat="45.71741" lon="4.09515">
        <ele>367.34</ele>
        <time>2015-03-07T12:25:33Z</time>
      </trkpt>
      <trkpt lat="45.71748" lon="4.09516">
        <ele>367.29</ele>
        <time>2015-03-07T12:25:34Z</time>
      </trkpt>
      <trkpt lat="45.71754" lon="4.09517">
        <ele>367.37</ele>
        <time>2015-03-07T12:25:35Z</time>
      </trkpt>
      <trkpt lat="45.71761" lon="4.09517">
        <ele>367.41</ele>
        <time>2015-03-07T12:25:36Z</time>
      </trkpt>
      <trkpt lat="45.71768" lon="4.09518">
        <ele>367.23</ele>
        <time>2015-03-07T12:25:37Z</time>
      </trkpt>
      <trkpt lat="45.71775" lon="4.09518">
        <ele>366.93</ele>
        <time>2015-03-07T12:25:38Z</time>
      </trkpt>
      <trkpt lat="45.71782" lon="4.09519">
        <ele>366.49</ele>
        <time>2015-03-07T12:25:39Z</time>
      </trkpt>
      <trkpt lat="45.7179" lon="4.0952">
        <ele>366.12</ele>
        <time>2015-03-07T12:25:40Z</time>
      </trkpt>
      <trkpt lat="45.71797" lon="4.0952">
        <ele>365.68</ele>
        <time>2015-03-07T12:25:41Z</time>
      </trkpt>
      <trkpt lat="45.71803" lon="4.09521">
        <ele>365.21</ele>
        <time>2015-03-07T12:25:42Z</time>
      </trkpt>
      <trkpt lat="45.7181" lon="4.09522">
        <ele>364.58</ele>
        <time>2015-03-07T12:25:43Z</time>
      </trkpt>
      <trkpt lat="45.71817" lon="4.09522">
        <ele>364.11</ele>
        <time>2015-03-07T12:25:44Z</time>
      </trkpt>
      <trkpt lat="45.71825" lon="4.09523">
        <ele>363.78</ele>
        <time>2015-03-07T12:25:45Z</time>
      </trkpt>
      <trkpt lat="45.71832" lon="4.09524">
        <ele>363.36</ele>
        <time>2015-03-07T12:25:46Z</time>
      </trkpt>
      <trkpt lat="45.71839" lon="4.09524">
        <ele>362.9</ele>
        <time>2015-03-07T12:25:47Z</time>
      </trkpt>
      <trkpt lat="45.71846" lon="4.09525">
        <ele>362.37</ele>
        <time>2015-03-07T12:25:48Z</time>
      </trkpt>
      <trkpt lat="45.71854" lon="4.09526">
        <ele>362.01</ele>
        <time>2015-03-07T12:25:49Z</time>
      </trkpt>
      <trkpt lat="45.71861" lon="4.09526">
        <ele>361.73</ele>
        <time>2015-03-07T12:25:50Z</time>
      </trkpt>
      <trkpt lat="45.71868" lon="4.09526">
        <ele>361.39</ele>
        <time>2015-03-07T12:25:51Z</time>
      </trkpt>
      <trkpt lat="45.71875" lon="4.09525">
        <ele>361.01</ele>
        <time>2015-03-07T12:25:52Z</time>
      </trkpt>
      <trkpt lat="45.71883" lon="4.09524">
        <ele>360.83</ele>
        <time>2015-03-07T12:25:53Z</time>
      </trkpt>
      <trkpt lat="45.7189" lon="4.09523">
        <ele>360.69</ele>
        <time>2015-03-07T12:25:54Z</time>
      </trkpt>
      <trkpt lat="45.71897" lon="4.09522">
        <ele>360.52</ele>
        <time>2015-03-07T12:25:55Z</time>
      </trkpt>
      <trkpt lat="45.71905" lon="4.09519">
        <ele>360.28</ele>
        <time>2015-03-07T12:25:56Z</time>
      </trkpt>
      <trkpt lat="45.71912" lon="4.09517">
        <ele>360.06</ele>
        <time>2015-03-07T12:25:57Z</time>
      </trkpt>
      <trkpt lat="45.7192" lon="4.09514">
        <ele>359.85</ele>
        <time>2015-03-07T12:25:58Z</time>
      </trkpt>
      <trkpt lat="45.71928" lon="4.09511">
        <ele>359.6</ele>
        <time>2015-03-07T12:25:59Z</time>
      </trkpt>
      <trkpt lat="45.71936" lon="4.09508">
        <ele>359.42</ele>
        <time>2015-03-07T12:26:00Z</time>
      </trkpt>
      <trkpt lat="45.71943" lon="4.09504">
        <ele>359.28</ele>
        <time>2015-03-07T12:26:01Z</time>
      </trkpt>
      <trkpt lat="45.7195" lon="4.095">
        <ele>359.11</ele>
        <time>2015-03-07T12:26:02Z</time>
      </trkpt>
      <trkpt lat="45.71958" lon="4.09497">
        <ele>358.98</ele>
        <time>2015-03-07T12:26:03Z</time>
      </trkpt>
      <trkpt lat="45.71965" lon="4.09493">
        <ele>358.96</ele>
        <time>2015-03-07T12:26:04Z</time>
      </trkpt>
      <trkpt lat="45.71973" lon="4.0949">
        <ele>358.95</ele>
        <time>2015-03-07T12:26:05Z</time>
      </trkpt>
      <trkpt lat="45.7198" lon="4.09487">
        <ele>358.9</ele>
        <time>2015-03-07T12:26:06Z</time>
      </trkpt>
      <trkpt lat="45.71986" lon="4.09485">
        <ele>358.62</ele>
        <time>2015-03-07T12:26:07Z</time>
      </trkpt>
      <trkpt lat="45.71992" lon="4.09482">
        <ele>358.38</ele>
        <time>2015-03-07T12:26:08Z</time>
      </trkpt>
      <trkpt lat="45.71998" lon="4.09479">
        <ele>358.21</ele>
        <time>2015-03-07T12:26:09Z</time>
      </trkpt>
      <trkpt lat="45.72004" lon="4.09476">
        <ele>358.18</ele>
        <time>2015-03-07T12:26:10Z</time>
      </trkpt>
      <trkpt lat="45.72009" lon="4.09474">
        <ele>358.16</ele>
        <time>2015-03-07T12:26:11Z</time>
      </trkpt>
      <trkpt lat="45.72016" lon="4.09471">
        <ele>358.25</ele>
        <time>2015-03-07T12:26:12Z</time>
      </trkpt>
      <trkpt lat="45.72022" lon="4.09468">
        <ele>358.45</ele>
        <time>2015-03-07T12:26:13Z</time>
      </trkpt>
      <trkpt lat="45.72028" lon="4.09465">
        <ele>358.55</ele>
        <time>2015-03-07T12:26:14Z</time>
      </trkpt>
      <trkpt lat="45.72034" lon="4.09462">
        <ele>358.45</ele>
        <time>2015-03-07T12:26:15Z</time>
      </trkpt>
      <trkpt lat="45.72041" lon="4.09459">
        <ele>358.49</ele>
        <time>2015-03-07T12:26:16Z</time>
      </trkpt>
      <trkpt lat="45.72047" lon="4.09457">
        <ele>358.47</ele>
        <time>2015-03-07T12:26:17Z</time>
      </trkpt>
      <trkpt lat="45.72053" lon="4.09453">
        <ele>358.46</ele>
        <time>2015-03-07T12:26:18Z</time>
      </trkpt>
      <trkpt lat="45.7206" lon="4.0945">
        <ele>358.35</ele>
        <time>2015-03-07T12:26:19Z</time>
      </trkpt>
      <trkpt lat="45.72067" lon="4.09448">
        <ele>358.25</ele>
        <time>2015-03-07T12:26:20Z</time>
      </trkpt>
      <trkpt lat="45.72072" lon="4.09445">
        <ele>358.1</ele>
        <time>2015-03-07T12:26:21Z</time>
      </trkpt>
      <trkpt lat="45.72078" lon="4.09442">
        <ele>357.92</ele>
        <time>2015-03-07T12:26:22Z</time>
      </trkpt>
      <trkpt lat="45.72085" lon="4.09439">
        <ele>357.83</ele>
        <time>2015-03-07T12:26:23Z</time>
      </trkpt>
      <trkpt lat="45.72091" lon="4.09436">
        <ele>357.74</ele>
        <time>2015-03-07T12:26:24Z</time>
      </trkpt>
      <trkpt lat="45.72097" lon="4.09434">
        <ele>357.74</ele>
        <time>2015-03-07T12:26:25Z</time>
      </trkpt>
      <trkpt lat="45.72103" lon="4.09431">
        <ele>357.59</ele>
        <time>2015-03-07T12:26:26Z</time>
      </trkpt>
      <trkpt lat="45.72109" lon="4.09428">
        <ele>357.52</ele>
        <time>2015-03-07T12:26:27Z</time>
      </trkpt>
      <trkpt lat="45.72114" lon="4.09426">
        <ele>357.48</ele>
        <time>2015-03-07T12:26:28Z</time>
      </trkpt>
      <trkpt lat="45.72119" lon="4.09423">
        <ele>357.36</ele>
        <time>2015-03-07T12:26:29Z</time>
      </trkpt>
      <trkpt lat="45.72124" lon="4.09421">
        <ele>357.25</ele>
        <time>2015-03-07T12:26:30Z</time>
      </trkpt>
      <trkpt lat="45.72129" lon="4.09419">
        <ele>357.25</ele>
        <time>2015-03-07T12:26:31Z</time>
      </trkpt>
      <trkpt lat="45.72137" lon="4.09414">
        <ele>357.02</ele>
        <time>2015-03-07T12:26:33Z</time>
      </trkpt>
      <trkpt lat="45.72145" lon="4.0941">
        <ele>356.54</ele>
        <time>2015-03-07T12:26:35Z</time>
      </trkpt>
      <trkpt lat="45.72153" lon="4.09408">
        <ele>356.32</ele>
        <time>2015-03-07T12:26:37Z</time>
      </trkpt>
      <trkpt lat="45.7216" lon="4.09403">
        <ele>356.64</ele>
        <time>2015-03-07T12:26:39Z</time>
      </trkpt>
      <trkpt lat="45.72165" lon="4.09401">
        <ele>356.74</ele>
        <time>2015-03-07T12:26:40Z</time>
      </trkpt>
      <trkpt lat="45.7217" lon="4.094">
        <ele>356.79</ele>
        <time>2015-03-07T12:26:41Z</time>
      </trkpt>
      <trkpt lat="45.72178" lon="4.09397">
        <ele>357.43</ele>
        <time>2015-03-07T12:26:43Z</time>
      </trkpt>
      <trkpt lat="45.72185" lon="4.09394">
        <ele>358.04</ele>
        <time>2015-03-07T12:26:45Z</time>
      </trkpt>
      <trkpt lat="45.7219" lon="4.09394">
        <ele>358.69</ele>
        <time>2015-03-07T12:26:46Z</time>
      </trkpt>
      <trkpt lat="45.72195" lon="4.09405">
        <ele>359.13</ele>
        <time>2015-03-07T12:26:48Z</time>
      </trkpt>
      <trkpt lat="45.72197" lon="4.09411">
        <ele>359.04</ele>
        <time>2015-03-07T12:26:49Z</time>
      </trkpt>
      <trkpt lat="45.72198" lon="4.0942">
        <ele>359.04</ele>
        <time>2015-03-07T12:26:50Z</time>
      </trkpt>
      <trkpt lat="45.72199" lon="4.09429">
        <ele>358.99</ele>
        <time>2015-03-07T12:26:51Z</time>
      </trkpt>
      <trkpt lat="45.722" lon="4.09439">
        <ele>358.92</ele>
        <time>2015-03-07T12:26:52Z</time>
      </trkpt>
      <trkpt lat="45.72203" lon="4.09447">
        <ele>358.88</ele>
        <time>2015-03-07T12:26:53Z</time>
      </trkpt>
      <trkpt lat="45.72206" lon="4.09455">
        <ele>358.76</ele>
        <time>2015-03-07T12:26:54Z</time>
      </trkpt>
      <trkpt lat="45.72209" lon="4.09462">
        <ele>358.6</ele>
        <time>2015-03-07T12:26:55Z</time>
      </trkpt>
      <trkpt lat="45.72212" lon="4.09469">
        <ele>358.37</ele>
        <time>2015-03-07T12:26:56Z</time>
      </trkpt>
      <trkpt lat="45.72215" lon="4.09475">
        <ele>358.21</ele>
        <time>2015-03-07T12:26:57Z</time>
      </trkpt>
      <trkpt lat="45.72218" lon="4.09481">
        <ele>358.13</ele>
        <time>2015-03-07T12:26:58Z</time>
      </trkpt>
      <trkpt lat="45.72221" lon="4.09488">
        <ele>358.24</ele>
        <time>2015-03-07T12:26:59Z</time>
      </trkpt>
      <trkpt lat="45.72224" lon="4.09494">
        <ele>358.54</ele>
        <time>2015-03-07T12:27:00Z</time>
      </trkpt>
      <trkpt lat="45.72227" lon="4.09502">
        <ele>358.79</ele>
        <time>2015-03-07T12:27:01Z</time>
      </trkpt>
      <trkpt lat="45.72231" lon="4.09509">
        <ele>358.92</ele>
        <time>2015-03-07T12:27:02Z</time>
      </trkpt>
      <trkpt lat="45.72235" lon="4.09515">
        <ele>359.13</ele>
        <time>2015-03-07T12:27:03Z</time>
      </trkpt>
      <trkpt lat="45.72239" lon="4.09521">
        <ele>359.34</ele>
        <time>2015-03-07T12:27:04Z</time>
      </trkpt>
      <trkpt lat="45.72245" lon="4.09527">
        <ele>359.69</ele>
        <time>2015-03-07T12:27:05Z</time>
      </trkpt>
      <trkpt lat="45.7225" lon="4.09532">
        <ele>359.92</ele>
        <time>2015-03-07T12:27:06Z</time>
      </trkpt>
      <trkpt lat="45.72254" lon="4.09538">
        <ele>360.03</ele>
        <time>2015-03-07T12:27:07Z</time>
      </trkpt>
      <trkpt lat="45.72258" lon="4.09543">
        <ele>360.14</ele>
        <time>2015-03-07T12:27:08Z</time>
      </trkpt>
      <trkpt lat="45.72263" lon="4.09547">
        <ele>359.99</ele>
        <time>2015-03-07T12:27:09Z</time>
      </trkpt>
      <trkpt lat="45.72267" lon="4.09551">
        <ele>359.82</ele>
        <time>2015-03-07T12:27:10Z</time>
      </trkpt>
      <trkpt lat="45.72272" lon="4.09553">
        <ele>359.63</ele>
        <time>2015-03-07T12:27:11Z</time>
      </trkpt>
      <trkpt lat="45.72277" lon="4.09554">
        <ele>359.34</ele>
        <time>2015-03-07T12:27:12Z</time>
      </trkpt>
      <trkpt lat="45.72283" lon="4.09554">
        <ele>358.99</ele>
        <time>2015-03-07T12:27:13Z</time>
      </trkpt>
      <trkpt lat="45.72288" lon="4.09554">
        <ele>358.72</ele>
        <time>2015-03-07T12:27:14Z</time>
      </trkpt>
      <trkpt lat="45.72293" lon="4.09554">
        <ele>358.33</ele>
        <time>2015-03-07T12:27:15Z</time>
      </trkpt>
      <trkpt lat="45.72297" lon="4.09553">
        <ele>357.99</ele>
        <time>2015-03-07T12:27:16Z</time>
      </trkpt>
      <trkpt lat="45.72302" lon="4.09554">
        <ele>357.57</ele>
        <time>2015-03-07T12:27:17Z</time>
      </trkpt>
      <trkpt lat="45.72307" lon="4.09555">
        <ele>357.15</ele>
        <time>2015-03-07T12:27:18Z</time>
      </trkpt>
      <trkpt lat="45.72312" lon="4.09555">
        <ele>356.8</ele>
        <time>2015-03-07T12:27:19Z</time>
      </trkpt>
      <trkpt lat="45.72317" lon="4.09555">
        <ele>356.62</ele>
        <time>2015-03-07T12:27:20Z</time>
      </trkpt>
      <trkpt lat="45.72322" lon="4.09555">
        <ele>356.63</ele>
        <time>2015-03-07T12:27:21Z</time>
      </trkpt>
      <trkpt lat="45.72328" lon="4.09555">
        <ele>356.64</ele>
        <time>2015-03-07T12:27:22Z</time>
      </trkpt>
      <trkpt lat="45.72333" lon="4.09555">
        <ele>356.64</ele>
        <time>2015-03-07T12:27:23Z</time>
      </trkpt>
      <trkpt lat="45.72338" lon="4.09554">
        <ele>356.74</ele>
        <time>2015-03-07T12:27:24Z</time>
      </trkpt>
      <trkpt lat="45.72343" lon="4.09553">
        <ele>356.69</ele>
        <time>2015-03-07T12:27:25Z</time>
      </trkpt>
      <trkpt lat="45.72348" lon="4.09552">
        <ele>356.52</ele>
        <time>2015-03-07T12:27:26Z</time>
      </trkpt>
      <trkpt lat="45.72353" lon="4.09551">
        <ele>356.43</ele>
        <time>2015-03-07T12:27:27Z</time>
      </trkpt>
      <trkpt lat="45.72359" lon="4.09551">
        <ele>356.44</ele>
        <time>2015-03-07T12:27:28Z</time>
      </trkpt>
      <trkpt lat="45.72364" lon="4.09551">
        <ele>356.44</ele>
        <time>2015-03-07T12:27:29Z</time>
      </trkpt>
      <trkpt lat="45.72369" lon="4.09551">
        <ele>356.44</ele>
        <time>2015-03-07T12:27:30Z</time>
      </trkpt>
      <trkpt lat="45.72374" lon="4.0955">
        <ele>356.34</ele>
        <time>2015-03-07T12:27:31Z</time>
      </trkpt>
      <trkpt lat="45.72379" lon="4.0955">
        <ele>356.14</ele>
        <time>2015-03-07T12:27:32Z</time>
      </trkpt>
      <trkpt lat="45.72384" lon="4.0955">
        <ele>356.04</ele>
        <time>2015-03-07T12:27:33Z</time>
      </trkpt>
      <trkpt lat="45.72388" lon="4.09551">
        <ele>355.94</ele>
        <time>2015-03-07T12:27:34Z</time>
      </trkpt>
      <trkpt lat="45.72393" lon="4.09552">
        <ele>355.69</ele>
        <time>2015-03-07T12:27:35Z</time>
      </trkpt>
      <trkpt lat="45.72398" lon="4.09552">
        <ele>355.37</ele>
        <time>2015-03-07T12:27:36Z</time>
      </trkpt>
      <trkpt lat="45.72403" lon="4.09552">
        <ele>355.16</ele>
        <time>2015-03-07T12:27:37Z</time>
      </trkpt>
      <trkpt lat="45.72408" lon="4.09552">
        <ele>355.05</ele>
        <time>2015-03-07T12:27:38Z</time>
      </trkpt>
      <trkpt lat="45.72413" lon="4.09551">
        <ele>355</ele>
        <time>2015-03-07T12:27:39Z</time>
      </trkpt>
      <trkpt lat="45.72418" lon="4.0955">
        <ele>354.92</ele>
        <time>2015-03-07T12:27:40Z</time>
      </trkpt>
      <trkpt lat="45.72423" lon="4.09549">
        <ele>354.88</ele>
        <time>2015-03-07T12:27:41Z</time>
      </trkpt>
      <trkpt lat="45.72432" lon="4.09548">
        <ele>354.85</ele>
        <time>2015-03-07T12:27:43Z</time>
      </trkpt>
      <trkpt lat="45.72439" lon="4.09549">
        <ele>354.9</ele>
        <time>2015-03-07T12:27:45Z</time>
      </trkpt>
      <trkpt lat="45.72447" lon="4.09549">
        <ele>354.98</ele>
        <time>2015-03-07T12:27:47Z</time>
      </trkpt>
      <trkpt lat="45.72455" lon="4.0955">
        <ele>354.9</ele>
        <time>2015-03-07T12:27:49Z</time>
      </trkpt>
      <trkpt lat="45.72463" lon="4.09553">
        <ele>355.33</ele>
        <time>2015-03-07T12:27:51Z</time>
      </trkpt>
      <trkpt lat="45.7247" lon="4.09561">
        <ele>355.64</ele>
        <time>2015-03-07T12:27:53Z</time>
      </trkpt>
      <trkpt lat="45.72473" lon="4.09566">
        <ele>355.89</ele>
        <time>2015-03-07T12:27:54Z</time>
      </trkpt>
      <trkpt lat="45.72476" lon="4.09571">
        <ele>356.07</ele>
        <time>2015-03-07T12:27:55Z</time>
      </trkpt>
      <trkpt lat="45.7248" lon="4.09576">
        <ele>356.16</ele>
        <time>2015-03-07T12:27:56Z</time>
      </trkpt>
      <trkpt lat="45.72483" lon="4.09581">
        <ele>356.2</ele>
        <time>2015-03-07T12:27:57Z</time>
      </trkpt>
      <trkpt lat="45.72487" lon="4.09586">
        <ele>356.17</ele>
        <time>2015-03-07T12:27:58Z</time>
      </trkpt>
      <trkpt lat="45.72491" lon="4.09591">
        <ele>356.16</ele>
        <time>2015-03-07T12:27:59Z</time>
      </trkpt>
      <trkpt lat="45.72495" lon="4.09595">
        <ele>356.15</ele>
        <time>2015-03-07T12:28:00Z</time>
      </trkpt>
      <trkpt lat="45.72499" lon="4.096">
        <ele>356.15</ele>
        <time>2015-03-07T12:28:01Z</time>
      </trkpt>
      <trkpt lat="45.72503" lon="4.09604">
        <ele>356.1</ele>
        <time>2015-03-07T12:28:02Z</time>
      </trkpt>
      <trkpt lat="45.72507" lon="4.09608">
        <ele>356.02</ele>
        <time>2015-03-07T12:28:03Z</time>
      </trkpt>
      <trkpt lat="45.72512" lon="4.0961">
        <ele>355.93</ele>
        <time>2015-03-07T12:28:04Z</time>
      </trkpt>
      <trkpt lat="45.72517" lon="4.09613">
        <ele>355.84</ele>
        <time>2015-03-07T12:28:05Z</time>
      </trkpt>
      <trkpt lat="45.72521" lon="4.09616">
        <ele>355.64</ele>
        <time>2015-03-07T12:28:06Z</time>
      </trkpt>
      <trkpt lat="45.72526" lon="4.09618">
        <ele>355.54</ele>
        <time>2015-03-07T12:28:07Z</time>
      </trkpt>
      <trkpt lat="45.72531" lon="4.09618">
        <ele>355.54</ele>
        <time>2015-03-07T12:28:08Z</time>
      </trkpt>
      <trkpt lat="45.72536" lon="4.09618">
        <ele>355.59</ele>
        <time>2015-03-07T12:28:09Z</time>
      </trkpt>
      <trkpt lat="45.72541" lon="4.09618">
        <ele>355.57</ele>
        <time>2015-03-07T12:28:10Z</time>
      </trkpt>
      <trkpt lat="45.72546" lon="4.09618">
        <ele>355.56</ele>
        <time>2015-03-07T12:28:11Z</time>
      </trkpt>
      <trkpt lat="45.72551" lon="4.09618">
        <ele>355.75</ele>
        <time>2015-03-07T12:28:12Z</time>
      </trkpt>
      <trkpt lat="45.72556" lon="4.09617">
        <ele>355.9</ele>
        <time>2015-03-07T12:28:13Z</time>
      </trkpt>
      <trkpt lat="45.72561" lon="4.09617">
        <ele>355.97</ele>
        <time>2015-03-07T12:28:14Z</time>
      </trkpt>
      <trkpt lat="45.72566" lon="4.09616">
        <ele>356.06</ele>
        <time>2015-03-07T12:28:15Z</time>
      </trkpt>
      <trkpt lat="45.72574" lon="4.09615">
        <ele>356.12</ele>
        <time>2015-03-07T12:28:17Z</time>
      </trkpt>
      <trkpt lat="45.72583" lon="4.09615">
        <ele>356.31</ele>
        <time>2015-03-07T12:28:19Z</time>
      </trkpt>
      <trkpt lat="45.72591" lon="4.09615">
        <ele>356.36</ele>
        <time>2015-03-07T12:28:21Z</time>
      </trkpt>
      <trkpt lat="45.72597" lon="4.09616">
        <ele>356.37</ele>
        <time>2015-03-07T12:28:23Z</time>
      </trkpt>
      <trkpt lat="45.72604" lon="4.09616">
        <ele>356.48</ele>
        <time>2015-03-07T12:28:25Z</time>
      </trkpt>
      <trkpt lat="45.72611" lon="4.09615">
        <ele>356.58</ele>
        <time>2015-03-07T12:28:27Z</time>
      </trkpt>
      <trkpt lat="45.72619" lon="4.09615">
        <ele>356.63</ele>
        <time>2015-03-07T12:28:29Z</time>
      </trkpt>
      <trkpt lat="45.72627" lon="4.09614">
        <ele>356.41</ele>
        <time>2015-03-07T12:28:31Z</time>
      </trkpt>
      <trkpt lat="45.72636" lon="4.09613">
        <ele>356.31</ele>
        <time>2015-03-07T12:28:33Z</time>
      </trkpt>
      <trkpt lat="45.72644" lon="4.09611">
        <ele>356.69</ele>
        <time>2015-03-07T12:28:35Z</time>
      </trkpt>
      <trkpt lat="45.72652" lon="4.0961">
        <ele>356.75</ele>
        <time>2015-03-07T12:28:37Z</time>
      </trkpt>
      <trkpt lat="45.7266" lon="4.0961">
        <ele>356.92</ele>
        <time>2015-03-07T12:28:39Z</time>
      </trkpt>
      <trkpt lat="45.72668" lon="4.0961">
        <ele>356.91</ele>
        <time>2015-03-07T12:28:41Z</time>
      </trkpt>
      <trkpt lat="45.72677" lon="4.09609">
        <ele>356.79</ele>
        <time>2015-03-07T12:28:43Z</time>
      </trkpt>
      <trkpt lat="45.72685" lon="4.09608">
        <ele>356.63</ele>
        <time>2015-03-07T12:28:45Z</time>
      </trkpt>
      <trkpt lat="45.72694" lon="4.09606">
        <ele>356.32</ele>
        <time>2015-03-07T12:28:47Z</time>
      </trkpt>
      <trkpt lat="45.72698" lon="4.09605">
        <ele>356.28</ele>
        <time>2015-03-07T12:28:48Z</time>
      </trkpt>
      <trkpt lat="45.72707" lon="4.09603">
        <ele>356.2</ele>
        <time>2015-03-07T12:28:50Z</time>
      </trkpt>
      <trkpt lat="45.72715" lon="4.09601">
        <ele>356.33</ele>
        <time>2015-03-07T12:28:52Z</time>
      </trkpt>
      <trkpt lat="45.72723" lon="4.096">
        <ele>356.54</ele>
        <time>2015-03-07T12:28:54Z</time>
      </trkpt>
      <trkpt lat="45.72732" lon="4.096">
        <ele>356.54</ele>
        <time>2015-03-07T12:28:56Z</time>
      </trkpt>
      <trkpt lat="45.7274" lon="4.096">
        <ele>356.42</ele>
        <time>2015-03-07T12:28:58Z</time>
      </trkpt>
      <trkpt lat="45.72749" lon="4.096">
        <ele>356.41</ele>
        <time>2015-03-07T12:29:00Z</time>
      </trkpt>
      <trkpt lat="45.72753" lon="4.096">
        <ele>356.43</ele>
        <time>2015-03-07T12:29:01Z</time>
      </trkpt>
      <trkpt lat="45.72758" lon="4.09599">
        <ele>356.39</ele>
        <time>2015-03-07T12:29:02Z</time>
      </trkpt>
      <trkpt lat="45.72767" lon="4.09599">
        <ele>356.23</ele>
        <time>2015-03-07T12:29:04Z</time>
      </trkpt>
      <trkpt lat="45.72772" lon="4.09599">
        <ele>356.19</ele>
        <time>2015-03-07T12:29:05Z</time>
      </trkpt>
      <trkpt lat="45.72777" lon="4.09599">
        <ele>356.27</ele>
        <time>2015-03-07T12:29:06Z</time>
      </trkpt>
      <trkpt lat="45.72782" lon="4.09599">
        <ele>356.35</ele>
        <time>2015-03-07T12:29:07Z</time>
      </trkpt>
      <trkpt lat="45.72787" lon="4.09599">
        <ele>356.4</ele>
        <time>2015-03-07T12:29:08Z</time>
      </trkpt>
      <trkpt lat="45.72792" lon="4.09599">
        <ele>356.52</ele>
        <time>2015-03-07T12:29:09Z</time>
      </trkpt>
      <trkpt lat="45.72797" lon="4.09599">
        <ele>356.63</ele>
        <time>2015-03-07T12:29:10Z</time>
      </trkpt>
      <trkpt lat="45.72803" lon="4.09599">
        <ele>356.69</ele>
        <time>2015-03-07T12:29:11Z</time>
      </trkpt>
      <trkpt lat="45.72808" lon="4.09599">
        <ele>356.67</ele>
        <time>2015-03-07T12:29:12Z</time>
      </trkpt>
      <trkpt lat="45.72813" lon="4.096">
        <ele>356.61</ele>
        <time>2015-03-07T12:29:13Z</time>
      </trkpt>
      <trkpt lat="45.72818" lon="4.096">
        <ele>356.47</ele>
        <time>2015-03-07T12:29:14Z</time>
      </trkpt>
      <trkpt lat="45.72822" lon="4.096">
        <ele>356.41</ele>
        <time>2015-03-07T12:29:15Z</time>
      </trkpt>
      <trkpt lat="45.7283" lon="4.09601">
        <ele>356.21</ele>
        <time>2015-03-07T12:29:17Z</time>
      </trkpt>
      <trkpt lat="45.72838" lon="4.09601">
        <ele>356.19</ele>
        <time>2015-03-07T12:29:19Z</time>
      </trkpt>
      <trkpt lat="45.72847" lon="4.09603">
        <ele>356.48</ele>
        <time>2015-03-07T12:29:21Z</time>
      </trkpt>
      <trkpt lat="45.72856" lon="4.09605">
        <ele>356.85</ele>
        <time>2015-03-07T12:29:23Z</time>
      </trkpt>
      <trkpt lat="45.7286" lon="4.09606">
        <ele>357.1</ele>
        <time>2015-03-07T12:29:24Z</time>
      </trkpt>
      <trkpt lat="45.72865" lon="4.09607">
        <ele>357.27</ele>
        <time>2015-03-07T12:29:25Z</time>
      </trkpt>
      <trkpt lat="45.72869" lon="4.09608">
        <ele>357.36</ele>
        <time>2015-03-07T12:29:26Z</time>
      </trkpt>
      <trkpt lat="45.72874" lon="4.09609">
        <ele>357.45</ele>
        <time>2015-03-07T12:29:27Z</time>
      </trkpt>
      <trkpt lat="45.72878" lon="4.0961">
        <ele>357.5</ele>
        <time>2015-03-07T12:29:28Z</time>
      </trkpt>
      <trkpt lat="45.72883" lon="4.09612">
        <ele>357.42</ele>
        <time>2015-03-07T12:29:29Z</time>
      </trkpt>
      <trkpt lat="45.72888" lon="4.09613">
        <ele>357.23</ele>
        <time>2015-03-07T12:29:30Z</time>
      </trkpt>
      <trkpt lat="45.72893" lon="4.09613">
        <ele>357.04</ele>
        <time>2015-03-07T12:29:31Z</time>
      </trkpt>
      <trkpt lat="45.72897" lon="4.09614">
        <ele>356.79</ele>
        <time>2015-03-07T12:29:32Z</time>
      </trkpt>
      <trkpt lat="45.72902" lon="4.09615">
        <ele>356.62</ele>
        <time>2015-03-07T12:29:33Z</time>
      </trkpt>
      <trkpt lat="45.72906" lon="4.09616">
        <ele>356.53</ele>
        <time>2015-03-07T12:29:34Z</time>
      </trkpt>
      <trkpt lat="45.72911" lon="4.09617">
        <ele>356.44</ele>
        <time>2015-03-07T12:29:35Z</time>
      </trkpt>
      <trkpt lat="45.72916" lon="4.09618">
        <ele>356.34</ele>
        <time>2015-03-07T12:29:36Z</time>
      </trkpt>
      <trkpt lat="45.72921" lon="4.09619">
        <ele>356.29</ele>
        <time>2015-03-07T12:29:37Z</time>
      </trkpt>
      <trkpt lat="45.72926" lon="4.09621">
        <ele>356.22</ele>
        <time>2015-03-07T12:29:38Z</time>
      </trkpt>
      <trkpt lat="45.7293" lon="4.09623">
        <ele>356.18</ele>
        <time>2015-03-07T12:29:39Z</time>
      </trkpt>
      <trkpt lat="45.72935" lon="4.09624">
        <ele>356.36</ele>
        <time>2015-03-07T12:29:40Z</time>
      </trkpt>
      <trkpt lat="45.72942" lon="4.09626">
        <ele>356.82</ele>
        <time>2015-03-07T12:29:42Z</time>
      </trkpt>
      <trkpt lat="45.7295" lon="4.09627">
        <ele>357.16</ele>
        <time>2015-03-07T12:29:44Z</time>
      </trkpt>
      <trkpt lat="45.72957" lon="4.09628">
        <ele>357.35</ele>
        <time>2015-03-07T12:29:46Z</time>
      </trkpt>
      <trkpt lat="45.72965" lon="4.09629">
        <ele>357.52</ele>
        <time>2015-03-07T12:29:48Z</time>
      </trkpt>
      <trkpt lat="45.72972" lon="4.0963">
        <ele>357.44</ele>
        <time>2015-03-07T12:29:50Z</time>
      </trkpt>
      <trkpt lat="45.72979" lon="4.09632">
        <ele>357.27</ele>
        <time>2015-03-07T12:29:52Z</time>
      </trkpt>
      <trkpt lat="45.72988" lon="4.09635">
        <ele>357.27</ele>
        <time>2015-03-07T12:29:54Z</time>
      </trkpt>
      <trkpt lat="45.72993" lon="4.09635">
        <ele>357.46</ele>
        <time>2015-03-07T12:29:55Z</time>
      </trkpt>
      <trkpt lat="45.72998" lon="4.09636">
        <ele>357.6</ele>
        <time>2015-03-07T12:29:56Z</time>
      </trkpt>
      <trkpt lat="45.73003" lon="4.09637">
        <ele>357.72</ele>
        <time>2015-03-07T12:29:57Z</time>
      </trkpt>
      <trkpt lat="45.73007" lon="4.09639">
        <ele>357.83</ele>
        <time>2015-03-07T12:29:58Z</time>
      </trkpt>
      <trkpt lat="45.73012" lon="4.0964">
        <ele>357.84</ele>
        <time>2015-03-07T12:29:59Z</time>
      </trkpt>
      <trkpt lat="45.73017" lon="4.0964">
        <ele>357.79</ele>
        <time>2015-03-07T12:30:00Z</time>
      </trkpt>
      <trkpt lat="45.73022" lon="4.09641">
        <ele>357.77</ele>
        <time>2015-03-07T12:30:01Z</time>
      </trkpt>
      <trkpt lat="45.73027" lon="4.09641">
        <ele>357.66</ele>
        <time>2015-03-07T12:30:02Z</time>
      </trkpt>
      <trkpt lat="45.73031" lon="4.09641">
        <ele>357.55</ele>
        <time>2015-03-07T12:30:03Z</time>
      </trkpt>
      <trkpt lat="45.73039" lon="4.09642">
        <ele>357.75</ele>
        <time>2015-03-07T12:30:05Z</time>
      </trkpt>
      <trkpt lat="45.73048" lon="4.09643">
        <ele>358.04</ele>
        <time>2015-03-07T12:30:07Z</time>
      </trkpt>
      <trkpt lat="45.73056" lon="4.09645">
        <ele>358.34</ele>
        <time>2015-03-07T12:30:09Z</time>
      </trkpt>
      <trkpt lat="45.73065" lon="4.09646">
        <ele>358.59</ele>
        <time>2015-03-07T12:30:11Z</time>
      </trkpt>
      <trkpt lat="45.73069" lon="4.09646">
        <ele>358.57</ele>
        <time>2015-03-07T12:30:12Z</time>
      </trkpt>
      <trkpt lat="45.73074" lon="4.09646">
        <ele>358.56</ele>
        <time>2015-03-07T12:30:13Z</time>
      </trkpt>
      <trkpt lat="45.73078" lon="4.09646">
        <ele>358.5</ele>
        <time>2015-03-07T12:30:14Z</time>
      </trkpt>
      <trkpt lat="45.73083" lon="4.09646">
        <ele>358.52</ele>
        <time>2015-03-07T12:30:15Z</time>
      </trkpt>
      <trkpt lat="45.73088" lon="4.09646">
        <ele>358.58</ele>
        <time>2015-03-07T12:30:16Z</time>
      </trkpt>
      <trkpt lat="45.73096" lon="4.09646">
        <ele>358.75</ele>
        <time>2015-03-07T12:30:18Z</time>
      </trkpt>
      <trkpt lat="45.73106" lon="4.09646">
        <ele>359</ele>
        <time>2015-03-07T12:30:20Z</time>
      </trkpt>
      <trkpt lat="45.73111" lon="4.09647">
        <ele>359.12</ele>
        <time>2015-03-07T12:30:21Z</time>
      </trkpt>
      <trkpt lat="45.73116" lon="4.09647">
        <ele>359.13</ele>
        <time>2015-03-07T12:30:22Z</time>
      </trkpt>
      <trkpt lat="45.7312" lon="4.09648">
        <ele>359.14</ele>
        <time>2015-03-07T12:30:23Z</time>
      </trkpt>
      <trkpt lat="45.73125" lon="4.09649">
        <ele>359.14</ele>
        <time>2015-03-07T12:30:24Z</time>
      </trkpt>
      <trkpt lat="45.7313" lon="4.09649">
        <ele>359.14</ele>
        <time>2015-03-07T12:30:25Z</time>
      </trkpt>
      <trkpt lat="45.73134" lon="4.0965">
        <ele>359.09</ele>
        <time>2015-03-07T12:30:26Z</time>
      </trkpt>
      <trkpt lat="45.73139" lon="4.09651">
        <ele>359.12</ele>
        <time>2015-03-07T12:30:27Z</time>
      </trkpt>
      <trkpt lat="45.73144" lon="4.09651">
        <ele>359.23</ele>
        <time>2015-03-07T12:30:28Z</time>
      </trkpt>
      <trkpt lat="45.73148" lon="4.09652">
        <ele>359.34</ele>
        <time>2015-03-07T12:30:29Z</time>
      </trkpt>
      <trkpt lat="45.73153" lon="4.09653">
        <ele>359.39</ele>
        <time>2015-03-07T12:30:30Z</time>
      </trkpt>
      <trkpt lat="45.73158" lon="4.09654">
        <ele>359.37</ele>
        <time>2015-03-07T12:30:31Z</time>
      </trkpt>
      <trkpt lat="45.73162" lon="4.09655">
        <ele>359.26</ele>
        <time>2015-03-07T12:30:32Z</time>
      </trkpt>
      <trkpt lat="45.73167" lon="4.09656">
        <ele>359.1</ele>
        <time>2015-03-07T12:30:33Z</time>
      </trkpt>
      <trkpt lat="45.73172" lon="4.09658">
        <ele>358.97</ele>
        <time>2015-03-07T12:30:34Z</time>
      </trkpt>
      <trkpt lat="45.73177" lon="4.09659">
        <ele>358.86</ele>
        <time>2015-03-07T12:30:35Z</time>
      </trkpt>
      <trkpt lat="45.73181" lon="4.09661">
        <ele>358.9</ele>
        <time>2015-03-07T12:30:36Z</time>
      </trkpt>
      <trkpt lat="45.73186" lon="4.09664">
        <ele>359.02</ele>
        <time>2015-03-07T12:30:37Z</time>
      </trkpt>
      <trkpt lat="45.7319" lon="4.09667">
        <ele>359.13</ele>
        <time>2015-03-07T12:30:38Z</time>
      </trkpt>
      <trkpt lat="45.73197" lon="4.09676">
        <ele>359.29</ele>
        <time>2015-03-07T12:30:40Z</time>
      </trkpt>
      <trkpt lat="45.732" lon="4.0968">
        <ele>359.42</ele>
        <time>2015-03-07T12:30:41Z</time>
      </trkpt>
      <trkpt lat="45.73204" lon="4.09685">
        <ele>359.38</ele>
        <time>2015-03-07T12:30:42Z</time>
      </trkpt>
      <trkpt lat="45.73208" lon="4.0969">
        <ele>359.26</ele>
        <time>2015-03-07T12:30:43Z</time>
      </trkpt>
      <trkpt lat="45.73211" lon="4.09695">
        <ele>359.15</ele>
        <time>2015-03-07T12:30:44Z</time>
      </trkpt>
      <trkpt lat="45.73215" lon="4.097">
        <ele>359.1</ele>
        <time>2015-03-07T12:30:45Z</time>
      </trkpt>
      <trkpt lat="45.73219" lon="4.09705">
        <ele>359.07</ele>
        <time>2015-03-07T12:30:46Z</time>
      </trkpt>
      <trkpt lat="45.73223" lon="4.0971">
        <ele>359.01</ele>
        <time>2015-03-07T12:30:47Z</time>
      </trkpt>
      <trkpt lat="45.73227" lon="4.09715">
        <ele>358.93</ele>
        <time>2015-03-07T12:30:48Z</time>
      </trkpt>
      <trkpt lat="45.73231" lon="4.0972">
        <ele>358.88</ele>
        <time>2015-03-07T12:30:49Z</time>
      </trkpt>
      <trkpt lat="45.73235" lon="4.09725">
        <ele>358.81</ele>
        <time>2015-03-07T12:30:50Z</time>
      </trkpt>
      <trkpt lat="45.73238" lon="4.09729">
        <ele>358.73</ele>
        <time>2015-03-07T12:30:51Z</time>
      </trkpt>
      <trkpt lat="45.73242" lon="4.09734">
        <ele>358.64</ele>
        <time>2015-03-07T12:30:52Z</time>
      </trkpt>
      <trkpt lat="45.73246" lon="4.09739">
        <ele>358.49</ele>
        <time>2015-03-07T12:30:53Z</time>
      </trkpt>
      <trkpt lat="45.7325" lon="4.09744">
        <ele>358.42</ele>
        <time>2015-03-07T12:30:54Z</time>
      </trkpt>
      <trkpt lat="45.73254" lon="4.09749">
        <ele>358.33</ele>
        <time>2015-03-07T12:30:55Z</time>
      </trkpt>
      <trkpt lat="45.73257" lon="4.09754">
        <ele>358.34</ele>
        <time>2015-03-07T12:30:56Z</time>
      </trkpt>
      <trkpt lat="45.73261" lon="4.09759">
        <ele>358.39</ele>
        <time>2015-03-07T12:30:57Z</time>
      </trkpt>
      <trkpt lat="45.73265" lon="4.09763">
        <ele>358.42</ele>
        <time>2015-03-07T12:30:58Z</time>
      </trkpt>
      <trkpt lat="45.73269" lon="4.09768">
        <ele>358.48</ele>
        <time>2015-03-07T12:30:59Z</time>
      </trkpt>
      <trkpt lat="45.73273" lon="4.09773">
        <ele>358.51</ele>
        <time>2015-03-07T12:31:00Z</time>
      </trkpt>
      <trkpt lat="45.73277" lon="4.09779">
        <ele>358.53</ele>
        <time>2015-03-07T12:31:01Z</time>
      </trkpt>
      <trkpt lat="45.73281" lon="4.09784">
        <ele>358.54</ele>
        <time>2015-03-07T12:31:02Z</time>
      </trkpt>
      <trkpt lat="45.73285" lon="4.09789">
        <ele>358.64</ele>
        <time>2015-03-07T12:31:03Z</time>
      </trkpt>
      <trkpt lat="45.73289" lon="4.09793">
        <ele>358.84</ele>
        <time>2015-03-07T12:31:04Z</time>
      </trkpt>
      <trkpt lat="45.73293" lon="4.09798">
        <ele>359.04</ele>
        <time>2015-03-07T12:31:05Z</time>
      </trkpt>
      <trkpt lat="45.73297" lon="4.09802">
        <ele>359.19</ele>
        <time>2015-03-07T12:31:06Z</time>
      </trkpt>
      <trkpt lat="45.73303" lon="4.0981">
        <ele>359.36</ele>
        <time>2015-03-07T12:31:08Z</time>
      </trkpt>
      <trkpt lat="45.73307" lon="4.09814">
        <ele>359.45</ele>
        <time>2015-03-07T12:31:09Z</time>
      </trkpt>
      <trkpt lat="45.73311" lon="4.09817">
        <ele>359.55</ele>
        <time>2015-03-07T12:31:10Z</time>
      </trkpt>
      <trkpt lat="45.73315" lon="4.09821">
        <ele>359.7</ele>
        <time>2015-03-07T12:31:11Z</time>
      </trkpt>
      <trkpt lat="45.7332" lon="4.09823">
        <ele>359.72</ele>
        <time>2015-03-07T12:31:12Z</time>
      </trkpt>
      <trkpt lat="45.73324" lon="4.09825">
        <ele>359.93</ele>
        <time>2015-03-07T12:31:13Z</time>
      </trkpt>
      <trkpt lat="45.73331" lon="4.09822">
        <ele>360.47</ele>
        <time>2015-03-07T12:31:15Z</time>
      </trkpt>
      <trkpt lat="45.73334" lon="4.09816">
        <ele>361</ele>
        <time>2015-03-07T12:31:17Z</time>
      </trkpt>
      <trkpt lat="45.73334" lon="4.09806">
        <ele>361.51</ele>
        <time>2015-03-07T12:31:19Z</time>
      </trkpt>
      <trkpt lat="45.73333" lon="4.09795">
        <ele>361.91</ele>
        <time>2015-03-07T12:31:21Z</time>
      </trkpt>
      <trkpt lat="45.73333" lon="4.09785">
        <ele>362.34</ele>
        <time>2015-03-07T12:31:23Z</time>
      </trkpt>
      <trkpt lat="45.73332" lon="4.09776">
        <ele>362.29</ele>
        <time>2015-03-07T12:31:25Z</time>
      </trkpt>
      <trkpt lat="45.73332" lon="4.09765">
        <ele>362.21</ele>
        <time>2015-03-07T12:31:27Z</time>
      </trkpt>
      <trkpt lat="45.73332" lon="4.09754">
        <ele>362.41</ele>
        <time>2015-03-07T12:31:29Z</time>
      </trkpt>
      <trkpt lat="45.73332" lon="4.09743">
        <ele>362.76</ele>
        <time>2015-03-07T12:31:31Z</time>
      </trkpt>
      <trkpt lat="45.73332" lon="4.09733">
        <ele>363.17</ele>
        <time>2015-03-07T12:31:33Z</time>
      </trkpt>
      <trkpt lat="45.73333" lon="4.09722">
        <ele>363.43</ele>
        <time>2015-03-07T12:31:35Z</time>
      </trkpt>
      <trkpt lat="45.73334" lon="4.09712">
        <ele>363.59</ele>
        <time>2015-03-07T12:31:37Z</time>
      </trkpt>
      <trkpt lat="45.73334" lon="4.09702">
        <ele>363.48</ele>
        <time>2015-03-07T12:31:39Z</time>
      </trkpt>
      <trkpt lat="45.73334" lon="4.09695">
        <ele>363.43</ele>
        <time>2015-03-07T12:31:41Z</time>
      </trkpt>
      <trkpt lat="45.73335" lon="4.09687">
        <ele>363.57</ele>
        <time>2015-03-07T12:31:43Z</time>
      </trkpt>
      <trkpt lat="45.73336" lon="4.09678">
        <ele>363.57</ele>
        <time>2015-03-07T12:31:45Z</time>
      </trkpt>
      <trkpt lat="45.73336" lon="4.09669">
        <ele>363.3</ele>
        <time>2015-03-07T12:31:47Z</time>
      </trkpt>
      <trkpt lat="45.73338" lon="4.0966">
        <ele>362.91</ele>
        <time>2015-03-07T12:31:49Z</time>
      </trkpt>
      <trkpt lat="45.73338" lon="4.0965">
        <ele>362.86</ele>
        <time>2015-03-07T12:31:51Z</time>
      </trkpt>
      <trkpt lat="45.73337" lon="4.09642">
        <ele>362.92</ele>
        <time>2015-03-07T12:31:53Z</time>
      </trkpt>
      <trkpt lat="45.73337" lon="4.09633">
        <ele>363.44</ele>
        <time>2015-03-07T12:31:56Z</time>
      </trkpt>
      <trkpt lat="45.73337" lon="4.09626">
        <ele>365.04</ele>
        <time>2015-03-07T12:31:59Z</time>
      </trkpt>
      <trkpt lat="45.73337" lon="4.09612">
        <ele>366.53</ele>
        <time>2015-03-07T12:32:05Z</time>
      </trkpt>
      <trkpt lat="45.73337" lon="4.09604">
        <ele>367.07</ele>
        <time>2015-03-07T12:32:09Z</time>
      </trkpt>
      <trkpt lat="45.73336" lon="4.09596">
        <ele>366.98</ele>
        <time>2015-03-07T12:32:12Z</time>
      </trkpt>
      <trkpt lat="45.73337" lon="4.09588">
        <ele>366.26</ele>
        <time>2015-03-07T12:32:15Z</time>
      </trkpt>
      <trkpt lat="45.73337" lon="4.0958">
        <ele>365.93</ele>
        <time>2015-03-07T12:32:18Z</time>
      </trkpt>
      <trkpt lat="45.73337" lon="4.09571">
        <ele>366.39</ele>
        <time>2015-03-07T12:32:21Z</time>
      </trkpt>
      <trkpt lat="45.73337" lon="4.09563">
        <ele>366.83</ele>
        <time>2015-03-07T12:32:24Z</time>
      </trkpt>
      <trkpt lat="45.73336" lon="4.09557">
        <ele>367.34</ele>
        <time>2015-03-07T12:32:26Z</time>
      </trkpt>
      <trkpt lat="45.73335" lon="4.0955">
        <ele>367.82</ele>
        <time>2015-03-07T12:32:28Z</time>
      </trkpt>
      <trkpt lat="45.73335" lon="4.09541">
        <ele>368.05</ele>
        <time>2015-03-07T12:32:31Z</time>
      </trkpt>
      <trkpt lat="45.73333" lon="4.09534">
        <ele>368.45</ele>
        <time>2015-03-07T12:32:33Z</time>
      </trkpt>
      <trkpt lat="45.73332" lon="4.09527">
        <ele>369.02</ele>
        <time>2015-03-07T12:32:35Z</time>
      </trkpt>
      <trkpt lat="45.7333" lon="4.0952">
        <ele>369.69</ele>
        <time>2015-03-07T12:32:37Z</time>
      </trkpt>
      <trkpt lat="45.73329" lon="4.09513">
        <ele>370.7</ele>
        <time>2015-03-07T12:32:39Z</time>
      </trkpt>
      <trkpt lat="45.73329" lon="4.09506">
        <ele>371.46</ele>
        <time>2015-03-07T12:32:41Z</time>
      </trkpt>
      <trkpt lat="45.7333" lon="4.09498">
        <ele>371.75</ele>
        <time>2015-03-07T12:32:43Z</time>
      </trkpt>
      <trkpt lat="45.73329" lon="4.0949">
        <ele>371.63</ele>
        <time>2015-03-07T12:32:46Z</time>
      </trkpt>
      <trkpt lat="45.73329" lon="4.09484">
        <ele>371.94</ele>
        <time>2015-03-07T12:32:48Z</time>
      </trkpt>
      <trkpt lat="45.73328" lon="4.09477">
        <ele>372.14</ele>
        <time>2015-03-07T12:32:50Z</time>
      </trkpt>
      <trkpt lat="45.73328" lon="4.09469">
        <ele>372.39</ele>
        <time>2015-03-07T12:32:52Z</time>
      </trkpt>
      <trkpt lat="45.73327" lon="4.0946">
        <ele>372.54</ele>
        <time>2015-03-07T12:32:55Z</time>
      </trkpt>
      <trkpt lat="45.73329" lon="4.09451">
        <ele>372.77</ele>
        <time>2015-03-07T12:32:58Z</time>
      </trkpt>
      <trkpt lat="45.7333" lon="4.09443">
        <ele>373.26</ele>
        <time>2015-03-07T12:33:01Z</time>
      </trkpt>
      <trkpt lat="45.73331" lon="4.09435">
        <ele>373.93</ele>
        <time>2015-03-07T12:33:04Z</time>
      </trkpt>
      <trkpt lat="45.73334" lon="4.09426">
        <ele>374.53</ele>
        <time>2015-03-07T12:33:07Z</time>
      </trkpt>
      <trkpt lat="45.73335" lon="4.09418">
        <ele>375.09</ele>
        <time>2015-03-07T12:33:10Z</time>
      </trkpt>
      <trkpt lat="45.73338" lon="4.0941">
        <ele>375.66</ele>
        <time>2015-03-07T12:33:13Z</time>
      </trkpt>
      <trkpt lat="45.73339" lon="4.09401">
        <ele>376.07</ele>
        <time>2015-03-07T12:33:16Z</time>
      </trkpt>
      <trkpt lat="45.73341" lon="4.09394">
        <ele>376.32</ele>
        <time>2015-03-07T12:33:19Z</time>
      </trkpt>
      <trkpt lat="45.73341" lon="4.09386">
        <ele>376.64</ele>
        <time>2015-03-07T12:33:22Z</time>
      </trkpt>
      <trkpt lat="45.7334" lon="4.09377">
        <ele>377.19</ele>
        <time>2015-03-07T12:33:25Z</time>
      </trkpt>
      <trkpt lat="45.7334" lon="4.09369">
        <ele>377.43</ele>
        <time>2015-03-07T12:33:28Z</time>
      </trkpt>
      <trkpt lat="45.7334" lon="4.09363">
        <ele>377.46</ele>
        <time>2015-03-07T12:33:30Z</time>
      </trkpt>
      <trkpt lat="45.73338" lon="4.09356">
        <ele>377.52</ele>
        <time>2015-03-07T12:33:32Z</time>
      </trkpt>
      <trkpt lat="45.73337" lon="4.09348">
        <ele>377.64</ele>
        <time>2015-03-07T12:33:35Z</time>
      </trkpt>
      <trkpt lat="45.73336" lon="4.09339">
        <ele>377.37</ele>
        <time>2015-03-07T12:33:38Z</time>
      </trkpt>
      <trkpt lat="45.73335" lon="4.09331">
        <ele>377.62</ele>
        <time>2015-03-07T12:33:41Z</time>
      </trkpt>
      <trkpt lat="45.73334" lon="4.09323">
        <ele>378.45</ele>
        <time>2015-03-07T12:33:44Z</time>
      </trkpt>
      <trkpt lat="45.73333" lon="4.09316">
        <ele>379.35</ele>
        <time>2015-03-07T12:33:47Z</time>
      </trkpt>
      <trkpt lat="45.73332" lon="4.09307">
        <ele>380.41</ele>
        <time>2015-03-07T12:33:50Z</time>
      </trkpt>
      <trkpt lat="45.73331" lon="4.09297">
        <ele>380.93</ele>
        <time>2015-03-07T12:33:53Z</time>
      </trkpt>
      <trkpt lat="45.73329" lon="4.0929">
        <ele>381.14</ele>
        <time>2015-03-07T12:33:55Z</time>
      </trkpt>
      <trkpt lat="45.73328" lon="4.09282">
        <ele>381.52</ele>
        <time>2015-03-07T12:33:57Z</time>
      </trkpt>
      <trkpt lat="45.73326" lon="4.09274">
        <ele>381.81</ele>
        <time>2015-03-07T12:33:59Z</time>
      </trkpt>
      <trkpt lat="45.73325" lon="4.09266">
        <ele>381.96</ele>
        <time>2015-03-07T12:34:01Z</time>
      </trkpt>
      <trkpt lat="45.73325" lon="4.09257">
        <ele>382.2</ele>
        <time>2015-03-07T12:34:03Z</time>
      </trkpt>
      <trkpt lat="45.73324" lon="4.09249">
        <ele>382.43</ele>
        <time>2015-03-07T12:34:05Z</time>
      </trkpt>
      <trkpt lat="45.73324" lon="4.0924">
        <ele>382.67</ele>
        <time>2015-03-07T12:34:07Z</time>
      </trkpt>
      <trkpt lat="45.73324" lon="4.0923">
        <ele>382.77</ele>
        <time>2015-03-07T12:34:09Z</time>
      </trkpt>
      <trkpt lat="45.73325" lon="4.0922">
        <ele>382.93</ele>
        <time>2015-03-07T12:34:11Z</time>
      </trkpt>
      <trkpt lat="45.73326" lon="4.09209">
        <ele>382.86</ele>
        <time>2015-03-07T12:34:13Z</time>
      </trkpt>
      <trkpt lat="45.73326" lon="4.09198">
        <ele>382.85</ele>
        <time>2015-03-07T12:34:15Z</time>
      </trkpt>
      <trkpt lat="45.73327" lon="4.09189">
        <ele>382.85</ele>
        <time>2015-03-07T12:34:17Z</time>
      </trkpt>
      <trkpt lat="45.73327" lon="4.0918">
        <ele>382.87</ele>
        <time>2015-03-07T12:34:19Z</time>
      </trkpt>
      <trkpt lat="45.73327" lon="4.09172">
        <ele>382.8</ele>
        <time>2015-03-07T12:34:21Z</time>
      </trkpt>
      <trkpt lat="45.73328" lon="4.09164">
        <ele>382.63</ele>
        <time>2015-03-07T12:34:23Z</time>
      </trkpt>
      <trkpt lat="45.73327" lon="4.09154">
        <ele>382.64</ele>
        <time>2015-03-07T12:34:25Z</time>
      </trkpt>
      <trkpt lat="45.73327" lon="4.09143">
        <ele>382.72</ele>
        <time>2015-03-07T12:34:27Z</time>
      </trkpt>
      <trkpt lat="45.73327" lon="4.09132">
        <ele>382.79</ele>
        <time>2015-03-07T12:34:29Z</time>
      </trkpt>
      <trkpt lat="45.73327" lon="4.0912">
        <ele>382.83</ele>
        <time>2015-03-07T12:34:31Z</time>
      </trkpt>
      <trkpt lat="45.73328" lon="4.09109">
        <ele>382.84</ele>
        <time>2015-03-07T12:34:33Z</time>
      </trkpt>
      <trkpt lat="45.73328" lon="4.09098">
        <ele>382.72</ele>
        <time>2015-03-07T12:34:35Z</time>
      </trkpt>
      <trkpt lat="45.73329" lon="4.09087">
        <ele>382.69</ele>
        <time>2015-03-07T12:34:37Z</time>
      </trkpt>
      <trkpt lat="45.7333" lon="4.09076">
        <ele>382.65</ele>
        <time>2015-03-07T12:34:39Z</time>
      </trkpt>
      <trkpt lat="45.73332" lon="4.09066">
        <ele>382.6</ele>
        <time>2015-03-07T12:34:41Z</time>
      </trkpt>
      <trkpt lat="45.73333" lon="4.09055">
        <ele>382.76</ele>
        <time>2015-03-07T12:34:43Z</time>
      </trkpt>
      <trkpt lat="45.73335" lon="4.09045">
        <ele>383.02</ele>
        <time>2015-03-07T12:34:45Z</time>
      </trkpt>
      <trkpt lat="45.73337" lon="4.09037">
        <ele>383.16</ele>
        <time>2015-03-07T12:34:47Z</time>
      </trkpt>
      <trkpt lat="45.73339" lon="4.09028">
        <ele>383.27</ele>
        <time>2015-03-07T12:34:49Z</time>
      </trkpt>
      <trkpt lat="45.7334" lon="4.09019">
        <ele>383.33</ele>
        <time>2015-03-07T12:34:51Z</time>
      </trkpt>
      <trkpt lat="45.73342" lon="4.09011">
        <ele>383.34</ele>
        <time>2015-03-07T12:34:53Z</time>
      </trkpt>
      <trkpt lat="45.73343" lon="4.09003">
        <ele>383.47</ele>
        <time>2015-03-07T12:34:55Z</time>
      </trkpt>
      <trkpt lat="45.73345" lon="4.08995">
        <ele>383.65</ele>
        <time>2015-03-07T12:34:57Z</time>
      </trkpt>
      <trkpt lat="45.73346" lon="4.08988">
        <ele>383.77</ele>
        <time>2015-03-07T12:34:59Z</time>
      </trkpt>
      <trkpt lat="45.73348" lon="4.0898">
        <ele>383.83</ele>
        <time>2015-03-07T12:35:01Z</time>
      </trkpt>
      <trkpt lat="45.7335" lon="4.08972">
        <ele>383.76</ele>
        <time>2015-03-07T12:35:03Z</time>
      </trkpt>
      <trkpt lat="45.73352" lon="4.08964">
        <ele>383.8</ele>
        <time>2015-03-07T12:35:05Z</time>
      </trkpt>
      <trkpt lat="45.73355" lon="4.08956">
        <ele>384.13</ele>
        <time>2015-03-07T12:35:07Z</time>
      </trkpt>
      <trkpt lat="45.73357" lon="4.08947">
        <ele>384.37</ele>
        <time>2015-03-07T12:35:09Z</time>
      </trkpt>
      <trkpt lat="45.7336" lon="4.08939">
        <ele>384.5</ele>
        <time>2015-03-07T12:35:11Z</time>
      </trkpt>
      <trkpt lat="45.73363" lon="4.08931">
        <ele>384.66</ele>
        <time>2015-03-07T12:35:13Z</time>
      </trkpt>
      <trkpt lat="45.73367" lon="4.08927">
        <ele>385.27</ele>
        <time>2015-03-07T12:35:15Z</time>
      </trkpt>
      <trkpt lat="45.73371" lon="4.08924">
        <ele>385.7</ele>
        <time>2015-03-07T12:35:17Z</time>
      </trkpt>
      <trkpt lat="45.73377" lon="4.08921">
        <ele>385.93</ele>
        <time>2015-03-07T12:35:20Z</time>
      </trkpt>
      <trkpt lat="45.73381" lon="4.08916">
        <ele>386.46</ele>
        <time>2015-03-07T12:35:22Z</time>
      </trkpt>
      <trkpt lat="45.73384" lon="4.08906">
        <ele>386.65</ele>
        <time>2015-03-07T12:35:24Z</time>
      </trkpt>
      <trkpt lat="45.73383" lon="4.08895">
        <ele>386.42</ele>
        <time>2015-03-07T12:35:26Z</time>
      </trkpt>
      <trkpt lat="45.73384" lon="4.08885">
        <ele>385.89</ele>
        <time>2015-03-07T12:35:28Z</time>
      </trkpt>
      <trkpt lat="45.73383" lon="4.08875">
        <ele>385.68</ele>
        <time>2015-03-07T12:35:30Z</time>
      </trkpt>
      <trkpt lat="45.73383" lon="4.08865">
        <ele>385.78</ele>
        <time>2015-03-07T12:35:32Z</time>
      </trkpt>
      <trkpt lat="45.73382" lon="4.08854">
        <ele>385.88</ele>
        <time>2015-03-07T12:35:34Z</time>
      </trkpt>
      <trkpt lat="45.7338" lon="4.08844">
        <ele>386.05</ele>
        <time>2015-03-07T12:35:36Z</time>
      </trkpt>
      <trkpt lat="45.73379" lon="4.08835">
        <ele>386.17</ele>
        <time>2015-03-07T12:35:38Z</time>
      </trkpt>
      <trkpt lat="45.73377" lon="4.08828">
        <ele>386.15</ele>
        <time>2015-03-07T12:35:40Z</time>
      </trkpt>
      <trkpt lat="45.73375" lon="4.0882">
        <ele>386.3</ele>
        <time>2015-03-07T12:35:42Z</time>
      </trkpt>
      <trkpt lat="45.73371" lon="4.08812">
        <ele>386.31</ele>
        <time>2015-03-07T12:35:44Z</time>
      </trkpt>
      <trkpt lat="45.73364" lon="4.08807">
        <ele>386.53</ele>
        <time>2015-03-07T12:35:46Z</time>
      </trkpt>
      <trkpt lat="45.73356" lon="4.08804">
        <ele>386.69</ele>
        <time>2015-03-07T12:35:48Z</time>
      </trkpt>
      <trkpt lat="45.73348" lon="4.08802">
        <ele>386.71</ele>
        <time>2015-03-07T12:35:50Z</time>
      </trkpt>
      <trkpt lat="45.73339" lon="4.088">
        <ele>386.78</ele>
        <time>2015-03-07T12:35:52Z</time>
      </trkpt>
      <trkpt lat="45.73335" lon="4.08799">
        <ele>386.71</ele>
        <time>2015-03-07T12:35:53Z</time>
      </trkpt>
      <trkpt lat="45.73326" lon="4.08796">
        <ele>386.54</ele>
        <time>2015-03-07T12:35:55Z</time>
      </trkpt>
      <trkpt lat="45.73317" lon="4.08794">
        <ele>386.39</ele>
        <time>2015-03-07T12:35:57Z</time>
      </trkpt>
      <trkpt lat="45.73313" lon="4.08792">
        <ele>386.27</ele>
        <time>2015-03-07T12:35:58Z</time>
      </trkpt>
      <trkpt lat="45.73308" lon="4.08789">
        <ele>386.16</ele>
        <time>2015-03-07T12:35:59Z</time>
      </trkpt>
      <trkpt lat="45.73304" lon="4.08788">
        <ele>386.1</ele>
        <time>2015-03-07T12:36:00Z</time>
      </trkpt>
      <trkpt lat="45.73299" lon="4.08787">
        <ele>386.07</ele>
        <time>2015-03-07T12:36:01Z</time>
      </trkpt>
      <trkpt lat="45.73294" lon="4.08788">
        <ele>385.96</ele>
        <time>2015-03-07T12:36:02Z</time>
      </trkpt>
      <trkpt lat="45.73288" lon="4.08787">
        <ele>385.75</ele>
        <time>2015-03-07T12:36:03Z</time>
      </trkpt>
      <trkpt lat="45.73284" lon="4.08783">
        <ele>385.55</ele>
        <time>2015-03-07T12:36:04Z</time>
      </trkpt>
      <trkpt lat="45.73281" lon="4.08777">
        <ele>385.5</ele>
        <time>2015-03-07T12:36:05Z</time>
      </trkpt>
      <trkpt lat="45.73279" lon="4.08771">
        <ele>385.52</ele>
        <time>2015-03-07T12:36:06Z</time>
      </trkpt>
      <trkpt lat="45.73276" lon="4.0876">
        <ele>385.29</ele>
        <time>2015-03-07T12:36:08Z</time>
      </trkpt>
      <trkpt lat="45.73274" lon="4.0875">
        <ele>384.8</ele>
        <time>2015-03-07T12:36:10Z</time>
      </trkpt>
      <trkpt lat="45.73271" lon="4.08739">
        <ele>384.53</ele>
        <time>2015-03-07T12:36:12Z</time>
      </trkpt>
      <trkpt lat="45.73269" lon="4.08727">
        <ele>384.39</ele>
        <time>2015-03-07T12:36:14Z</time>
      </trkpt>
      <trkpt lat="45.73266" lon="4.08716">
        <ele>384.51</ele>
        <time>2015-03-07T12:36:16Z</time>
      </trkpt>
      <trkpt lat="45.73263" lon="4.08705">
        <ele>384.83</ele>
        <time>2015-03-07T12:36:18Z</time>
      </trkpt>
      <trkpt lat="45.7326" lon="4.08693">
        <ele>384.97</ele>
        <time>2015-03-07T12:36:20Z</time>
      </trkpt>
      <trkpt lat="45.73257" lon="4.08681">
        <ele>385.12</ele>
        <time>2015-03-07T12:36:22Z</time>
      </trkpt>
      <trkpt lat="45.73255" lon="4.0867">
        <ele>385.21</ele>
        <time>2015-03-07T12:36:24Z</time>
      </trkpt>
      <trkpt lat="45.73253" lon="4.08658">
        <ele>385.16</ele>
        <time>2015-03-07T12:36:26Z</time>
      </trkpt>
      <trkpt lat="45.7325" lon="4.08647">
        <ele>385.22</ele>
        <time>2015-03-07T12:36:28Z</time>
      </trkpt>
      <trkpt lat="45.73249" lon="4.08634">
        <ele>385.34</ele>
        <time>2015-03-07T12:36:30Z</time>
      </trkpt>
      <trkpt lat="45.73248" lon="4.08622">
        <ele>385.49</ele>
        <time>2015-03-07T12:36:32Z</time>
      </trkpt>
      <trkpt lat="45.73248" lon="4.08609">
        <ele>385.41</ele>
        <time>2015-03-07T12:36:34Z</time>
      </trkpt>
      <trkpt lat="45.73248" lon="4.08598">
        <ele>385.23</ele>
        <time>2015-03-07T12:36:36Z</time>
      </trkpt>
      <trkpt lat="45.73249" lon="4.08587">
        <ele>385.17</ele>
        <time>2015-03-07T12:36:38Z</time>
      </trkpt>
      <trkpt lat="45.73249" lon="4.08576">
        <ele>385.15</ele>
        <time>2015-03-07T12:36:40Z</time>
      </trkpt>
      <trkpt lat="45.73249" lon="4.08565">
        <ele>384.87</ele>
        <time>2015-03-07T12:36:42Z</time>
      </trkpt>
      <trkpt lat="45.7325" lon="4.08552">
        <ele>384.65</ele>
        <time>2015-03-07T12:36:44Z</time>
      </trkpt>
      <trkpt lat="45.73249" lon="4.08545">
        <ele>384.55</ele>
        <time>2015-03-07T12:36:45Z</time>
      </trkpt>
      <trkpt lat="45.73249" lon="4.08538">
        <ele>384.4</ele>
        <time>2015-03-07T12:36:46Z</time>
      </trkpt>
      <trkpt lat="45.7325" lon="4.08531">
        <ele>384.12</ele>
        <time>2015-03-07T12:36:47Z</time>
      </trkpt>
      <trkpt lat="45.7325" lon="4.08524">
        <ele>383.88</ele>
        <time>2015-03-07T12:36:48Z</time>
      </trkpt>
      <trkpt lat="45.7325" lon="4.08517">
        <ele>383.61</ele>
        <time>2015-03-07T12:36:49Z</time>
      </trkpt>
      <trkpt lat="45.7325" lon="4.08511">
        <ele>383.53</ele>
        <time>2015-03-07T12:36:50Z</time>
      </trkpt>
      <trkpt lat="45.7325" lon="4.08504">
        <ele>383.44</ele>
        <time>2015-03-07T12:36:51Z</time>
      </trkpt>
      <trkpt lat="45.7325" lon="4.08497">
        <ele>383.39</ele>
        <time>2015-03-07T12:36:52Z</time>
      </trkpt>
      <trkpt lat="45.7325" lon="4.0849">
        <ele>383.37</ele>
        <time>2015-03-07T12:36:53Z</time>
      </trkpt>
      <trkpt lat="45.7325" lon="4.08483">
        <ele>383.31</ele>
        <time>2015-03-07T12:36:54Z</time>
      </trkpt>
      <trkpt lat="45.7325" lon="4.08476">
        <ele>383.27</ele>
        <time>2015-03-07T12:36:55Z</time>
      </trkpt>
      <trkpt lat="45.73251" lon="4.0847">
        <ele>383.31</ele>
        <time>2015-03-07T12:36:56Z</time>
      </trkpt>
      <trkpt lat="45.73245" lon="4.08462">
        <ele>383.69</ele>
        <time>2015-03-07T12:36:58Z</time>
      </trkpt>
      <trkpt lat="45.7324" lon="4.08463">
        <ele>384.01</ele>
        <time>2015-03-07T12:36:59Z</time>
      </trkpt>
      <trkpt lat="45.73235" lon="4.08463">
        <ele>384.18</ele>
        <time>2015-03-07T12:37:00Z</time>
      </trkpt>
      <trkpt lat="45.7323" lon="4.08464">
        <ele>384.21</ele>
        <time>2015-03-07T12:37:01Z</time>
      </trkpt>
      <trkpt lat="45.73224" lon="4.08464">
        <ele>384.18</ele>
        <time>2015-03-07T12:37:02Z</time>
      </trkpt>
      <trkpt lat="45.73219" lon="4.08465">
        <ele>384.06</ele>
        <time>2015-03-07T12:37:03Z</time>
      </trkpt>
      <trkpt lat="45.73213" lon="4.08466">
        <ele>383.85</ele>
        <time>2015-03-07T12:37:04Z</time>
      </trkpt>
      <trkpt lat="45.73208" lon="4.08467">
        <ele>383.75</ele>
        <time>2015-03-07T12:37:05Z</time>
      </trkpt>
      <trkpt lat="45.73202" lon="4.08468">
        <ele>383.6</ele>
        <time>2015-03-07T12:37:06Z</time>
      </trkpt>
      <trkpt lat="45.73196" lon="4.08469">
        <ele>383.52</ele>
        <time>2015-03-07T12:37:07Z</time>
      </trkpt>
      <trkpt lat="45.73189" lon="4.0847">
        <ele>383.28</ele>
        <time>2015-03-07T12:37:08Z</time>
      </trkpt>
      <trkpt lat="45.73183" lon="4.08471">
        <ele>383.01</ele>
        <time>2015-03-07T12:37:09Z</time>
      </trkpt>
      <trkpt lat="45.73176" lon="4.08472">
        <ele>382.73</ele>
        <time>2015-03-07T12:37:10Z</time>
      </trkpt>
      <trkpt lat="45.73169" lon="4.08473">
        <ele>382.44</ele>
        <time>2015-03-07T12:37:11Z</time>
      </trkpt>
      <trkpt lat="45.73162" lon="4.08474">
        <ele>382.14</ele>
        <time>2015-03-07T12:37:12Z</time>
      </trkpt>
      <trkpt lat="45.73155" lon="4.08474">
        <ele>381.84</ele>
        <time>2015-03-07T12:37:13Z</time>
      </trkpt>
      <trkpt lat="45.73149" lon="4.08475">
        <ele>381.44</ele>
        <time>2015-03-07T12:37:14Z</time>
      </trkpt>
      <trkpt lat="45.73143" lon="4.08476">
        <ele>381.04</ele>
        <time>2015-03-07T12:37:15Z</time>
      </trkpt>
      <trkpt lat="45.73138" lon="4.08476">
        <ele>380.84</ele>
        <time>2015-03-07T12:37:16Z</time>
      </trkpt>
      <trkpt lat="45.73132" lon="4.08474">
        <ele>380.64</ele>
        <time>2015-03-07T12:37:17Z</time>
      </trkpt>
      <trkpt lat="45.73126" lon="4.08472">
        <ele>380.34</ele>
        <time>2015-03-07T12:37:18Z</time>
      </trkpt>
      <trkpt lat="45.73119" lon="4.0847">
        <ele>379.94</ele>
        <time>2015-03-07T12:37:19Z</time>
      </trkpt>
      <trkpt lat="45.73113" lon="4.08468">
        <ele>379.24</ele>
        <time>2015-03-07T12:37:20Z</time>
      </trkpt>
      <trkpt lat="45.73107" lon="4.08466">
        <ele>378.59</ele>
        <time>2015-03-07T12:37:21Z</time>
      </trkpt>
      <trkpt lat="45.73102" lon="4.08463">
        <ele>378.02</ele>
        <time>2015-03-07T12:37:22Z</time>
      </trkpt>
      <trkpt lat="45.73095" lon="4.08461">
        <ele>377.53</ele>
        <time>2015-03-07T12:37:23Z</time>
      </trkpt>
      <trkpt lat="45.73088" lon="4.08459">
        <ele>377.04</ele>
        <time>2015-03-07T12:37:24Z</time>
      </trkpt>
      <trkpt lat="45.73081" lon="4.08459">
        <ele>376.54</ele>
        <time>2015-03-07T12:37:25Z</time>
      </trkpt>
      <trkpt lat="45.73073" lon="4.0846">
        <ele>375.99</ele>
        <time>2015-03-07T12:37:26Z</time>
      </trkpt>
      <trkpt lat="45.73064" lon="4.08463">
        <ele>375.27</ele>
        <time>2015-03-07T12:37:27Z</time>
      </trkpt>
      <trkpt lat="45.73056" lon="4.08467">
        <ele>374.46</ele>
        <time>2015-03-07T12:37:28Z</time>
      </trkpt>
      <trkpt lat="45.73048" lon="4.08469">
        <ele>373.85</ele>
        <time>2015-03-07T12:37:29Z</time>
      </trkpt>
      <trkpt lat="45.73041" lon="4.08471">
        <ele>373.35</ele>
        <time>2015-03-07T12:37:30Z</time>
      </trkpt>
      <trkpt lat="45.73035" lon="4.08473">
        <ele>372.9</ele>
        <time>2015-03-07T12:37:31Z</time>
      </trkpt>
      <trkpt lat="45.73029" lon="4.08474">
        <ele>372.47</ele>
        <time>2015-03-07T12:37:32Z</time>
      </trkpt>
      <trkpt lat="45.73025" lon="4.08475">
        <ele>372.01</ele>
        <time>2015-03-07T12:37:33Z</time>
      </trkpt>
      <trkpt lat="45.73018" lon="4.08469">
        <ele>370.88</ele>
        <time>2015-03-07T12:37:35Z</time>
      </trkpt>
      <trkpt lat="45.73018" lon="4.08458">
        <ele>370.13</ele>
        <time>2015-03-07T12:37:37Z</time>
      </trkpt>
      <trkpt lat="45.73019" lon="4.08445">
        <ele>369.74</ele>
        <time>2015-03-07T12:37:39Z</time>
      </trkpt>
      <trkpt lat="45.73022" lon="4.08434">
        <ele>369.54</ele>
        <time>2015-03-07T12:37:41Z</time>
      </trkpt>
      <trkpt lat="45.73027" lon="4.08423">
        <ele>369.37</ele>
        <time>2015-03-07T12:37:43Z</time>
      </trkpt>
      <trkpt lat="45.73032" lon="4.08413">
        <ele>369.28</ele>
        <time>2015-03-07T12:37:45Z</time>
      </trkpt>
      <trkpt lat="45.73037" lon="4.08404">
        <ele>369.35</ele>
        <time>2015-03-07T12:37:47Z</time>
      </trkpt>
      <trkpt lat="45.73041" lon="4.08394">
        <ele>369.4</ele>
        <time>2015-03-07T12:37:49Z</time>
      </trkpt>
      <trkpt lat="45.73044" lon="4.08384">
        <ele>369.73</ele>
        <time>2015-03-07T12:37:51Z</time>
      </trkpt>
      <trkpt lat="45.73045" lon="4.08373">
        <ele>369.99</ele>
        <time>2015-03-07T12:37:53Z</time>
      </trkpt>
      <trkpt lat="45.73044" lon="4.08361">
        <ele>370.41</ele>
        <time>2015-03-07T12:37:55Z</time>
      </trkpt>
      <trkpt lat="45.73043" lon="4.08355">
        <ele>370.47</ele>
        <time>2015-03-07T12:37:56Z</time>
      </trkpt>
      <trkpt lat="45.73041" lon="4.08348">
        <ele>370.36</ele>
        <time>2015-03-07T12:37:57Z</time>
      </trkpt>
      <trkpt lat="45.73037" lon="4.08336">
        <ele>369.87</ele>
        <time>2015-03-07T12:37:59Z</time>
      </trkpt>
      <trkpt lat="45.73036" lon="4.0833">
        <ele>369.61</ele>
        <time>2015-03-07T12:38:00Z</time>
      </trkpt>
      <trkpt lat="45.73034" lon="4.08323">
        <ele>369.33</ele>
        <time>2015-03-07T12:38:01Z</time>
      </trkpt>
      <trkpt lat="45.73032" lon="4.08316">
        <ele>369.14</ele>
        <time>2015-03-07T12:38:02Z</time>
      </trkpt>
      <trkpt lat="45.7303" lon="4.08309">
        <ele>369.19</ele>
        <time>2015-03-07T12:38:03Z</time>
      </trkpt>
      <trkpt lat="45.73028" lon="4.08303">
        <ele>369.47</ele>
        <time>2015-03-07T12:38:04Z</time>
      </trkpt>
      <trkpt lat="45.73025" lon="4.0829">
        <ele>369.75</ele>
        <time>2015-03-07T12:38:06Z</time>
      </trkpt>
      <trkpt lat="45.73024" lon="4.08283">
        <ele>369.65</ele>
        <time>2015-03-07T12:38:07Z</time>
      </trkpt>
      <trkpt lat="45.73024" lon="4.08276">
        <ele>369.6</ele>
        <time>2015-03-07T12:38:08Z</time>
      </trkpt>
      <trkpt lat="45.73023" lon="4.08269">
        <ele>369.62</ele>
        <time>2015-03-07T12:38:09Z</time>
      </trkpt>
      <trkpt lat="45.73023" lon="4.08262">
        <ele>369.48</ele>
        <time>2015-03-07T12:38:10Z</time>
      </trkpt>
      <trkpt lat="45.73023" lon="4.08255">
        <ele>369.36</ele>
        <time>2015-03-07T12:38:11Z</time>
      </trkpt>
      <trkpt lat="45.73023" lon="4.08248">
        <ele>369.2</ele>
        <time>2015-03-07T12:38:12Z</time>
      </trkpt>
      <trkpt lat="45.73023" lon="4.08241">
        <ele>369.27</ele>
        <time>2015-03-07T12:38:13Z</time>
      </trkpt>
      <trkpt lat="45.73023" lon="4.08234">
        <ele>369.21</ele>
        <time>2015-03-07T12:38:14Z</time>
      </trkpt>
      <trkpt lat="45.73023" lon="4.08227">
        <ele>369.13</ele>
        <time>2015-03-07T12:38:15Z</time>
      </trkpt>
      <trkpt lat="45.73023" lon="4.08221">
        <ele>369.09</ele>
        <time>2015-03-07T12:38:16Z</time>
      </trkpt>
      <trkpt lat="45.73024" lon="4.08209">
        <ele>369.08</ele>
        <time>2015-03-07T12:38:18Z</time>
      </trkpt>
      <trkpt lat="45.73023" lon="4.08196">
        <ele>369.2</ele>
        <time>2015-03-07T12:38:20Z</time>
      </trkpt>
      <trkpt lat="45.73022" lon="4.08184">
        <ele>369.51</ele>
        <time>2015-03-07T12:38:22Z</time>
      </trkpt>
      <trkpt lat="45.73022" lon="4.08172">
        <ele>369.56</ele>
        <time>2015-03-07T12:38:24Z</time>
      </trkpt>
      <trkpt lat="45.73021" lon="4.0816">
        <ele>369.7</ele>
        <time>2015-03-07T12:38:26Z</time>
      </trkpt>
      <trkpt lat="45.73021" lon="4.08147">
        <ele>369.56</ele>
        <time>2015-03-07T12:38:28Z</time>
      </trkpt>
      <trkpt lat="45.7302" lon="4.08141">
        <ele>369.5</ele>
        <time>2015-03-07T12:38:29Z</time>
      </trkpt>
      <trkpt lat="45.73019" lon="4.08134">
        <ele>369.42</ele>
        <time>2015-03-07T12:38:30Z</time>
      </trkpt>
      <trkpt lat="45.73018" lon="4.08127">
        <ele>369.23</ele>
        <time>2015-03-07T12:38:31Z</time>
      </trkpt>
      <trkpt lat="45.73018" lon="4.0812">
        <ele>369.14</ele>
        <time>2015-03-07T12:38:32Z</time>
      </trkpt>
      <trkpt lat="45.73017" lon="4.08112">
        <ele>369.09</ele>
        <time>2015-03-07T12:38:33Z</time>
      </trkpt>
      <trkpt lat="45.73017" lon="4.08105">
        <ele>369.02</ele>
        <time>2015-03-07T12:38:34Z</time>
      </trkpt>
      <trkpt lat="45.73016" lon="4.08093">
        <ele>369.06</ele>
        <time>2015-03-07T12:38:36Z</time>
      </trkpt>
      <trkpt lat="45.73015" lon="4.08081">
        <ele>368.92</ele>
        <time>2015-03-07T12:38:38Z</time>
      </trkpt>
      <trkpt lat="45.73014" lon="4.08068">
        <ele>368.91</ele>
        <time>2015-03-07T12:38:40Z</time>
      </trkpt>
      <trkpt lat="45.73013" lon="4.08062">
        <ele>368.93</ele>
        <time>2015-03-07T12:38:41Z</time>
      </trkpt>
      <trkpt lat="45.73012" lon="4.08055">
        <ele>368.94</ele>
        <time>2015-03-07T12:38:42Z</time>
      </trkpt>
      <trkpt lat="45.73012" lon="4.08049">
        <ele>368.99</ele>
        <time>2015-03-07T12:38:43Z</time>
      </trkpt>
      <trkpt lat="45.73011" lon="4.08042">
        <ele>369.02</ele>
        <time>2015-03-07T12:38:44Z</time>
      </trkpt>
      <trkpt lat="45.7301" lon="4.0803">
        <ele>369.19</ele>
        <time>2015-03-07T12:38:46Z</time>
      </trkpt>
      <trkpt lat="45.73009" lon="4.0802">
        <ele>369.05</ele>
        <time>2015-03-07T12:38:48Z</time>
      </trkpt>
      <trkpt lat="45.73008" lon="4.0801">
        <ele>368.92</ele>
        <time>2015-03-07T12:38:50Z</time>
      </trkpt>
      <trkpt lat="45.73005" lon="4.07999">
        <ele>368.91</ele>
        <time>2015-03-07T12:38:52Z</time>
      </trkpt>
      <trkpt lat="45.73002" lon="4.07994">
        <ele>369.03</ele>
        <time>2015-03-07T12:38:53Z</time>
      </trkpt>
      <trkpt lat="45.72998" lon="4.0799">
        <ele>369.19</ele>
        <time>2015-03-07T12:38:54Z</time>
      </trkpt>
      <trkpt lat="45.72993" lon="4.07986">
        <ele>369.27</ele>
        <time>2015-03-07T12:38:55Z</time>
      </trkpt>
      <trkpt lat="45.72987" lon="4.07984">
        <ele>369.2</ele>
        <time>2015-03-07T12:38:56Z</time>
      </trkpt>
      <trkpt lat="45.72982" lon="4.07982">
        <ele>369.12</ele>
        <time>2015-03-07T12:38:57Z</time>
      </trkpt>
      <trkpt lat="45.72976" lon="4.07982">
        <ele>368.98</ele>
        <time>2015-03-07T12:38:58Z</time>
      </trkpt>
      <trkpt lat="45.7297" lon="4.07981">
        <ele>368.76</ele>
        <time>2015-03-07T12:38:59Z</time>
      </trkpt>
      <trkpt lat="45.72963" lon="4.07981">
        <ele>368.5</ele>
        <time>2015-03-07T12:39:00Z</time>
      </trkpt>
      <trkpt lat="45.72956" lon="4.07981">
        <ele>368.42</ele>
        <time>2015-03-07T12:39:01Z</time>
      </trkpt>
      <trkpt lat="45.7295" lon="4.0798">
        <ele>368.18</ele>
        <time>2015-03-07T12:39:02Z</time>
      </trkpt>
      <trkpt lat="45.72943" lon="4.0798">
        <ele>367.91</ele>
        <time>2015-03-07T12:39:03Z</time>
      </trkpt>
      <trkpt lat="45.72936" lon="4.07979">
        <ele>367.63</ele>
        <time>2015-03-07T12:39:04Z</time>
      </trkpt>
      <trkpt lat="45.72929" lon="4.07979">
        <ele>367.39</ele>
        <time>2015-03-07T12:39:05Z</time>
      </trkpt>
      <trkpt lat="45.72922" lon="4.07978">
        <ele>367.17</ele>
        <time>2015-03-07T12:39:06Z</time>
      </trkpt>
      <trkpt lat="45.72915" lon="4.07978">
        <ele>366.75</ele>
        <time>2015-03-07T12:39:07Z</time>
      </trkpt>
      <trkpt lat="45.72909" lon="4.07977">
        <ele>366.45</ele>
        <time>2015-03-07T12:39:08Z</time>
      </trkpt>
      <trkpt lat="45.72902" lon="4.07977">
        <ele>366.35</ele>
        <time>2015-03-07T12:39:09Z</time>
      </trkpt>
      <trkpt lat="45.72895" lon="4.07976">
        <ele>366.4</ele>
        <time>2015-03-07T12:39:10Z</time>
      </trkpt>
      <trkpt lat="45.72888" lon="4.07976">
        <ele>366.52</ele>
        <time>2015-03-07T12:39:11Z</time>
      </trkpt>
      <trkpt lat="45.72881" lon="4.07977">
        <ele>366.63</ele>
        <time>2015-03-07T12:39:12Z</time>
      </trkpt>
      <trkpt lat="45.72874" lon="4.07977">
        <ele>366.84</ele>
        <time>2015-03-07T12:39:13Z</time>
      </trkpt>
      <trkpt lat="45.72868" lon="4.07975">
        <ele>367.09</ele>
        <time>2015-03-07T12:39:14Z</time>
      </trkpt>
      <trkpt lat="45.72862" lon="4.07972">
        <ele>367.07</ele>
        <time>2015-03-07T12:39:15Z</time>
      </trkpt>
      <trkpt lat="45.72857" lon="4.07966">
        <ele>366.86</ele>
        <time>2015-03-07T12:39:16Z</time>
      </trkpt>
      <trkpt lat="45.72853" lon="4.07959">
        <ele>366.8</ele>
        <time>2015-03-07T12:39:17Z</time>
      </trkpt>
      <trkpt lat="45.72851" lon="4.0795">
        <ele>366.67</ele>
        <time>2015-03-07T12:39:18Z</time>
      </trkpt>
      <trkpt lat="45.7285" lon="4.07941">
        <ele>366.66</ele>
        <time>2015-03-07T12:39:19Z</time>
      </trkpt>
      <trkpt lat="45.7285" lon="4.07932">
        <ele>366.55</ele>
        <time>2015-03-07T12:39:20Z</time>
      </trkpt>
      <trkpt lat="45.7285" lon="4.07924">
        <ele>366.45</ele>
        <time>2015-03-07T12:39:21Z</time>
      </trkpt>
      <trkpt lat="45.7285" lon="4.07917">
        <ele>366.3</ele>
        <time>2015-03-07T12:39:22Z</time>
      </trkpt>
      <trkpt lat="45.7285" lon="4.07909">
        <ele>366.12</ele>
        <time>2015-03-07T12:39:23Z</time>
      </trkpt>
      <trkpt lat="45.7285" lon="4.07903">
        <ele>366.13</ele>
        <time>2015-03-07T12:39:24Z</time>
      </trkpt>
      <trkpt lat="45.72852" lon="4.07891">
        <ele>366.14</ele>
        <time>2015-03-07T12:39:26Z</time>
      </trkpt>
      <trkpt lat="45.72853" lon="4.07879">
        <ele>366.12</ele>
        <time>2015-03-07T12:39:28Z</time>
      </trkpt>
      <trkpt lat="45.72852" lon="4.07869">
        <ele>366.16</ele>
        <time>2015-03-07T12:39:30Z</time>
      </trkpt>
      <trkpt lat="45.72852" lon="4.0786">
        <ele>366.32</ele>
        <time>2015-03-07T12:39:32Z</time>
      </trkpt>
      <trkpt lat="45.72849" lon="4.07853">
        <ele>366.6</ele>
        <time>2015-03-07T12:39:35Z</time>
      </trkpt>
      <trkpt lat="45.7285" lon="4.07847">
        <ele>366.39</ele>
        <time>2015-03-07T12:40:05Z</time>
      </trkpt>
      <trkpt lat="45.72853" lon="4.0784">
        <ele>366.6</ele>
        <time>2015-03-07T12:40:08Z</time>
      </trkpt>
      <trkpt lat="45.72852" lon="4.07831">
        <ele>367.1</ele>
        <time>2015-03-07T12:40:11Z</time>
      </trkpt>
      <trkpt lat="45.72852" lon="4.07823">
        <ele>367.33</ele>
        <time>2015-03-07T12:40:13Z</time>
      </trkpt>
      <trkpt lat="45.72851" lon="4.07815">
        <ele>367.37</ele>
        <time>2015-03-07T12:40:15Z</time>
      </trkpt>
      <trkpt lat="45.72851" lon="4.07809">
        <ele>367.22</ele>
        <time>2015-03-07T12:40:17Z</time>
      </trkpt>
      <trkpt lat="45.72852" lon="4.07802">
        <ele>367.06</ele>
        <time>2015-03-07T12:40:19Z</time>
      </trkpt>
      <trkpt lat="45.72851" lon="4.07793">
        <ele>367.18</ele>
        <time>2015-03-07T12:40:22Z</time>
      </trkpt>
      <trkpt lat="45.72849" lon="4.07785">
        <ele>367.6</ele>
        <time>2015-03-07T12:40:24Z</time>
      </trkpt>
      <trkpt lat="45.72849" lon="4.07776">
        <ele>368.03</ele>
        <time>2015-03-07T12:40:26Z</time>
      </trkpt>
      <trkpt lat="45.7285" lon="4.07767">
        <ele>368.32</ele>
        <time>2015-03-07T12:40:28Z</time>
      </trkpt>
      <trkpt lat="45.7285" lon="4.07756">
        <ele>368.56</ele>
        <time>2015-03-07T12:40:30Z</time>
      </trkpt>
      <trkpt lat="45.7285" lon="4.07745">
        <ele>368.55</ele>
        <time>2015-03-07T12:40:32Z</time>
      </trkpt>
      <trkpt lat="45.7285" lon="4.07734">
        <ele>368.4</ele>
        <time>2015-03-07T12:40:34Z</time>
      </trkpt>
      <trkpt lat="45.72851" lon="4.07723">
        <ele>368.41</ele>
        <time>2015-03-07T12:40:36Z</time>
      </trkpt>
      <trkpt lat="45.72852" lon="4.07712">
        <ele>368.48</ele>
        <time>2015-03-07T12:40:38Z</time>
      </trkpt>
      <trkpt lat="45.72854" lon="4.07699">
        <ele>368.4</ele>
        <time>2015-03-07T12:40:40Z</time>
      </trkpt>
      <trkpt lat="45.72854" lon="4.07688">
        <ele>368.48</ele>
        <time>2015-03-07T12:40:42Z</time>
      </trkpt>
      <trkpt lat="45.72851" lon="4.0768">
        <ele>368.45</ele>
        <time>2015-03-07T12:40:44Z</time>
      </trkpt>
      <trkpt lat="45.72846" lon="4.07674">
        <ele>368.4</ele>
        <time>2015-03-07T12:40:46Z</time>
      </trkpt>
      <trkpt lat="45.7284" lon="4.07668">
        <ele>368.43</ele>
        <time>2015-03-07T12:40:48Z</time>
      </trkpt>
      <trkpt lat="45.72834" lon="4.07664">
        <ele>368.49</ele>
        <time>2015-03-07T12:40:50Z</time>
      </trkpt>
      <trkpt lat="45.72829" lon="4.07664">
        <ele>367.86</ele>
        <time>2015-03-07T12:40:52Z</time>
      </trkpt>
      <trkpt lat="45.72834" lon="4.07669">
        <ele>367.69</ele>
        <time>2015-03-07T12:40:57Z</time>
      </trkpt>
      <trkpt lat="45.72839" lon="4.07674">
        <ele>367.64</ele>
        <time>2015-03-07T12:41:00Z</time>
      </trkpt>
      <trkpt lat="45.72845" lon="4.07676">
        <ele>367.74</ele>
        <time>2015-03-07T12:41:03Z</time>
      </trkpt>
      <trkpt lat="45.7285" lon="4.07678">
        <ele>367.97</ele>
        <time>2015-03-07T12:41:05Z</time>
      </trkpt>
      <trkpt lat="45.72856" lon="4.07669">
        <ele>369.03</ele>
        <time>2015-03-07T12:41:09Z</time>
      </trkpt>
      <trkpt lat="45.7286" lon="4.07658">
        <ele>368.74</ele>
        <time>2015-03-07T12:41:11Z</time>
      </trkpt>
      <trkpt lat="45.72863" lon="4.0765">
        <ele>368.32</ele>
        <time>2015-03-07T12:41:13Z</time>
      </trkpt>
      <trkpt lat="45.72868" lon="4.07642">
        <ele>367.91</ele>
        <time>2015-03-07T12:41:15Z</time>
      </trkpt>
      <trkpt lat="45.72874" lon="4.07634">
        <ele>367.54</ele>
        <time>2015-03-07T12:41:17Z</time>
      </trkpt>
      <trkpt lat="45.72879" lon="4.07632">
        <ele>367.39</ele>
        <time>2015-03-07T12:41:19Z</time>
      </trkpt>
      <trkpt lat="45.72885" lon="4.07631">
        <ele>367.46</ele>
        <time>2015-03-07T12:41:21Z</time>
      </trkpt>
      <trkpt lat="45.72893" lon="4.07629">
        <ele>367.15</ele>
        <time>2015-03-07T12:41:23Z</time>
      </trkpt>
      <trkpt lat="45.72902" lon="4.07625">
        <ele>366.57</ele>
        <time>2015-03-07T12:41:25Z</time>
      </trkpt>
      <trkpt lat="45.72906" lon="4.07621">
        <ele>366.16</ele>
        <time>2015-03-07T12:41:26Z</time>
      </trkpt>
      <trkpt lat="45.72909" lon="4.0761">
        <ele>366.2</ele>
        <time>2015-03-07T12:41:28Z</time>
      </trkpt>
      <trkpt lat="45.72907" lon="4.07597">
        <ele>366.93</ele>
        <time>2015-03-07T12:41:30Z</time>
      </trkpt>
      <trkpt lat="45.72905" lon="4.0759">
        <ele>367.34</ele>
        <time>2015-03-07T12:41:31Z</time>
      </trkpt>
      <trkpt lat="45.72903" lon="4.07584">
        <ele>367.84</ele>
        <time>2015-03-07T12:41:32Z</time>
      </trkpt>
      <trkpt lat="45.72901" lon="4.07577">
        <ele>368.24</ele>
        <time>2015-03-07T12:41:33Z</time>
      </trkpt>
      <trkpt lat="45.72899" lon="4.0757">
        <ele>368.59</ele>
        <time>2015-03-07T12:41:34Z</time>
      </trkpt>
      <trkpt lat="45.72898" lon="4.07563">
        <ele>368.87</ele>
        <time>2015-03-07T12:41:35Z</time>
      </trkpt>
      <trkpt lat="45.72895" lon="4.07556">
        <ele>369.01</ele>
        <time>2015-03-07T12:41:36Z</time>
      </trkpt>
      <trkpt lat="45.72893" lon="4.07549">
        <ele>369.13</ele>
        <time>2015-03-07T12:41:37Z</time>
      </trkpt>
      <trkpt lat="45.72891" lon="4.07541">
        <ele>369.23</ele>
        <time>2015-03-07T12:41:38Z</time>
      </trkpt>
      <trkpt lat="45.72889" lon="4.07533">
        <ele>369.29</ele>
        <time>2015-03-07T12:41:39Z</time>
      </trkpt>
      <trkpt lat="45.72887" lon="4.07525">
        <ele>369.37</ele>
        <time>2015-03-07T12:41:40Z</time>
      </trkpt>
      <trkpt lat="45.72885" lon="4.07518">
        <ele>369.51</ele>
        <time>2015-03-07T12:41:41Z</time>
      </trkpt>
      <trkpt lat="45.72883" lon="4.0751">
        <ele>369.87</ele>
        <time>2015-03-07T12:41:42Z</time>
      </trkpt>
      <trkpt lat="45.72881" lon="4.07501">
        <ele>370.46</ele>
        <time>2015-03-07T12:41:43Z</time>
      </trkpt>
      <trkpt lat="45.72879" lon="4.07493">
        <ele>371</ele>
        <time>2015-03-07T12:41:44Z</time>
      </trkpt>
      <trkpt lat="45.72877" lon="4.07485">
        <ele>371.37</ele>
        <time>2015-03-07T12:41:45Z</time>
      </trkpt>
      <trkpt lat="45.72875" lon="4.07477">
        <ele>371.61</ele>
        <time>2015-03-07T12:41:46Z</time>
      </trkpt>
      <trkpt lat="45.72873" lon="4.07469">
        <ele>371.93</ele>
        <time>2015-03-07T12:41:47Z</time>
      </trkpt>
      <trkpt lat="45.72871" lon="4.07463">
        <ele>372.24</ele>
        <time>2015-03-07T12:41:48Z</time>
      </trkpt>
      <trkpt lat="45.72869" lon="4.07457">
        <ele>372.24</ele>
        <time>2015-03-07T12:41:49Z</time>
      </trkpt>
      <trkpt lat="45.72867" lon="4.07444">
        <ele>372.09</ele>
        <time>2015-03-07T12:41:51Z</time>
      </trkpt>
      <trkpt lat="45.72865" lon="4.07436">
        <ele>371.92</ele>
        <time>2015-03-07T12:41:52Z</time>
      </trkpt>
      <trkpt lat="45.72863" lon="4.07427">
        <ele>371.73</ele>
        <time>2015-03-07T12:41:53Z</time>
      </trkpt>
      <trkpt lat="45.72861" lon="4.07419">
        <ele>371.49</ele>
        <time>2015-03-07T12:41:54Z</time>
      </trkpt>
      <trkpt lat="45.7286" lon="4.07411">
        <ele>371.27</ele>
        <time>2015-03-07T12:41:55Z</time>
      </trkpt>
      <trkpt lat="45.72858" lon="4.07403">
        <ele>371.15</ele>
        <time>2015-03-07T12:41:56Z</time>
      </trkpt>
      <trkpt lat="45.72856" lon="4.07394">
        <ele>371.05</ele>
        <time>2015-03-07T12:41:57Z</time>
      </trkpt>
      <trkpt lat="45.72855" lon="4.07386">
        <ele>371.2</ele>
        <time>2015-03-07T12:41:58Z</time>
      </trkpt>
      <trkpt lat="45.72852" lon="4.07378">
        <ele>371.47</ele>
        <time>2015-03-07T12:41:59Z</time>
      </trkpt>
      <trkpt lat="45.7285" lon="4.07371">
        <ele>371.76</ele>
        <time>2015-03-07T12:42:00Z</time>
      </trkpt>
      <trkpt lat="45.72848" lon="4.07363">
        <ele>372.2</ele>
        <time>2015-03-07T12:42:01Z</time>
      </trkpt>
      <trkpt lat="45.72845" lon="4.07355">
        <ele>372.67</ele>
        <time>2015-03-07T12:42:02Z</time>
      </trkpt>
      <trkpt lat="45.72843" lon="4.07347">
        <ele>373.06</ele>
        <time>2015-03-07T12:42:03Z</time>
      </trkpt>
      <trkpt lat="45.72841" lon="4.07339">
        <ele>373.15</ele>
        <time>2015-03-07T12:42:04Z</time>
      </trkpt>
      <trkpt lat="45.7284" lon="4.07331">
        <ele>373.1</ele>
        <time>2015-03-07T12:42:05Z</time>
      </trkpt>
      <trkpt lat="45.72838" lon="4.07323">
        <ele>373.07</ele>
        <time>2015-03-07T12:42:06Z</time>
      </trkpt>
      <trkpt lat="45.72837" lon="4.07315">
        <ele>373.01</ele>
        <time>2015-03-07T12:42:07Z</time>
      </trkpt>
      <trkpt lat="45.72837" lon="4.07306">
        <ele>372.93</ele>
        <time>2015-03-07T12:42:08Z</time>
      </trkpt>
      <trkpt lat="45.72836" lon="4.07298">
        <ele>372.68</ele>
        <time>2015-03-07T12:42:09Z</time>
      </trkpt>
      <trkpt lat="45.72836" lon="4.0729">
        <ele>372.41</ele>
        <time>2015-03-07T12:42:10Z</time>
      </trkpt>
      <trkpt lat="45.72836" lon="4.07281">
        <ele>372.23</ele>
        <time>2015-03-07T12:42:11Z</time>
      </trkpt>
      <trkpt lat="45.72836" lon="4.07272">
        <ele>372.19</ele>
        <time>2015-03-07T12:42:12Z</time>
      </trkpt>
      <trkpt lat="45.72837" lon="4.07263">
        <ele>372.22</ele>
        <time>2015-03-07T12:42:13Z</time>
      </trkpt>
      <trkpt lat="45.72837" lon="4.07254">
        <ele>372.28</ele>
        <time>2015-03-07T12:42:14Z</time>
      </trkpt>
      <trkpt lat="45.72837" lon="4.07246">
        <ele>372.36</ele>
        <time>2015-03-07T12:42:15Z</time>
      </trkpt>
      <trkpt lat="45.72838" lon="4.07238">
        <ele>372.35</ele>
        <time>2015-03-07T12:42:16Z</time>
      </trkpt>
      <trkpt lat="45.72839" lon="4.0723">
        <ele>372.3</ele>
        <time>2015-03-07T12:42:17Z</time>
      </trkpt>
      <trkpt lat="45.7284" lon="4.07223">
        <ele>372.22</ele>
        <time>2015-03-07T12:42:18Z</time>
      </trkpt>
      <trkpt lat="45.7284" lon="4.07216">
        <ele>372.03</ele>
        <time>2015-03-07T12:42:19Z</time>
      </trkpt>
      <trkpt lat="45.72841" lon="4.07209">
        <ele>371.89</ele>
        <time>2015-03-07T12:42:20Z</time>
      </trkpt>
      <trkpt lat="45.72842" lon="4.07201">
        <ele>371.92</ele>
        <time>2015-03-07T12:42:21Z</time>
      </trkpt>
      <trkpt lat="45.72842" lon="4.07194">
        <ele>371.88</ele>
        <time>2015-03-07T12:42:22Z</time>
      </trkpt>
      <trkpt lat="45.72843" lon="4.07186">
        <ele>371.86</ele>
        <time>2015-03-07T12:42:23Z</time>
      </trkpt>
      <trkpt lat="45.72844" lon="4.07178">
        <ele>371.7</ele>
        <time>2015-03-07T12:42:24Z</time>
      </trkpt>
      <trkpt lat="45.72845" lon="4.0717">
        <ele>371.57</ele>
        <time>2015-03-07T12:42:25Z</time>
      </trkpt>
      <trkpt lat="45.72846" lon="4.07163">
        <ele>371.51</ele>
        <time>2015-03-07T12:42:26Z</time>
      </trkpt>
      <trkpt lat="45.72847" lon="4.07156">
        <ele>371.43</ele>
        <time>2015-03-07T12:42:27Z</time>
      </trkpt>
      <trkpt lat="45.72847" lon="4.07148">
        <ele>371.39</ele>
        <time>2015-03-07T12:42:28Z</time>
      </trkpt>
      <trkpt lat="45.72847" lon="4.0714">
        <ele>371.41</ele>
        <time>2015-03-07T12:42:29Z</time>
      </trkpt>
      <trkpt lat="45.72848" lon="4.07132">
        <ele>371.53</ele>
        <time>2015-03-07T12:42:30Z</time>
      </trkpt>
      <trkpt lat="45.72849" lon="4.07124">
        <ele>371.54</ele>
        <time>2015-03-07T12:42:31Z</time>
      </trkpt>
      <trkpt lat="45.7285" lon="4.07116">
        <ele>371.44</ele>
        <time>2015-03-07T12:42:32Z</time>
      </trkpt>
      <trkpt lat="45.7285" lon="4.07108">
        <ele>371.24</ele>
        <time>2015-03-07T12:42:33Z</time>
      </trkpt>
      <trkpt lat="45.72851" lon="4.07099">
        <ele>371.19</ele>
        <time>2015-03-07T12:42:34Z</time>
      </trkpt>
      <trkpt lat="45.72851" lon="4.07091">
        <ele>371.22</ele>
        <time>2015-03-07T12:42:35Z</time>
      </trkpt>
      <trkpt lat="45.72851" lon="4.07083">
        <ele>371.28</ele>
        <time>2015-03-07T12:42:36Z</time>
      </trkpt>
      <trkpt lat="45.72851" lon="4.07075">
        <ele>371.31</ele>
        <time>2015-03-07T12:42:37Z</time>
      </trkpt>
      <trkpt lat="45.72851" lon="4.07067">
        <ele>371.38</ele>
        <time>2015-03-07T12:42:38Z</time>
      </trkpt>
      <trkpt lat="45.72851" lon="4.07058">
        <ele>371.51</ele>
        <time>2015-03-07T12:42:39Z</time>
      </trkpt>
      <trkpt lat="45.72852" lon="4.0705">
        <ele>371.68</ele>
        <time>2015-03-07T12:42:40Z</time>
      </trkpt>
      <trkpt lat="45.72853" lon="4.07042">
        <ele>371.66</ele>
        <time>2015-03-07T12:42:41Z</time>
      </trkpt>
      <trkpt lat="45.72854" lon="4.07034">
        <ele>371.4</ele>
        <time>2015-03-07T12:42:42Z</time>
      </trkpt>
      <trkpt lat="45.72854" lon="4.07027">
        <ele>371.27</ele>
        <time>2015-03-07T12:42:43Z</time>
      </trkpt>
      <trkpt lat="45.72855" lon="4.0702">
        <ele>371.01</ele>
        <time>2015-03-07T12:42:44Z</time>
      </trkpt>
      <trkpt lat="45.72855" lon="4.07012">
        <ele>370.68</ele>
        <time>2015-03-07T12:42:45Z</time>
      </trkpt>
      <trkpt lat="45.72856" lon="4.07005">
        <ele>370.36</ele>
        <time>2015-03-07T12:42:46Z</time>
      </trkpt>
      <trkpt lat="45.72856" lon="4.06999">
        <ele>370.1</ele>
        <time>2015-03-07T12:42:47Z</time>
      </trkpt>
      <trkpt lat="45.72856" lon="4.06992">
        <ele>369.77</ele>
        <time>2015-03-07T12:42:48Z</time>
      </trkpt>
      <trkpt lat="45.72857" lon="4.06985">
        <ele>369.56</ele>
        <time>2015-03-07T12:42:49Z</time>
      </trkpt>
      <trkpt lat="45.72857" lon="4.06973">
        <ele>369.22</ele>
        <time>2015-03-07T12:42:51Z</time>
      </trkpt>
      <trkpt lat="45.72858" lon="4.06967">
        <ele>369.03</ele>
        <time>2015-03-07T12:42:52Z</time>
      </trkpt>
      <trkpt lat="45.72858" lon="4.0696">
        <ele>368.94</ele>
        <time>2015-03-07T12:42:53Z</time>
      </trkpt>
      <trkpt lat="45.72858" lon="4.06953">
        <ele>368.89</ele>
        <time>2015-03-07T12:42:54Z</time>
      </trkpt>
      <trkpt lat="45.72859" lon="4.06946">
        <ele>368.87</ele>
        <time>2015-03-07T12:42:55Z</time>
      </trkpt>
      <trkpt lat="45.72861" lon="4.06938">
        <ele>368.86</ele>
        <time>2015-03-07T12:42:56Z</time>
      </trkpt>
      <trkpt lat="45.72862" lon="4.0693">
        <ele>368.9</ele>
        <time>2015-03-07T12:42:57Z</time>
      </trkpt>
      <trkpt lat="45.72863" lon="4.06923">
        <ele>368.82</ele>
        <time>2015-03-07T12:42:58Z</time>
      </trkpt>
      <trkpt lat="45.72866" lon="4.06917">
        <ele>368.73</ele>
        <time>2015-03-07T12:42:59Z</time>
      </trkpt>
      <trkpt lat="45.72868" lon="4.06911">
        <ele>368.84</ele>
        <time>2015-03-07T12:43:00Z</time>
      </trkpt>
      <trkpt lat="45.72873" lon="4.06901">
        <ele>368.89</ele>
        <time>2015-03-07T12:43:02Z</time>
      </trkpt>
      <trkpt lat="45.72876" lon="4.06895">
        <ele>368.72</ele>
        <time>2015-03-07T12:43:03Z</time>
      </trkpt>
      <trkpt lat="45.72878" lon="4.06888">
        <ele>368.53</ele>
        <time>2015-03-07T12:43:04Z</time>
      </trkpt>
      <trkpt lat="45.72882" lon="4.0688">
        <ele>368.34</ele>
        <time>2015-03-07T12:43:05Z</time>
      </trkpt>
      <trkpt lat="45.72885" lon="4.06874">
        <ele>368.24</ele>
        <time>2015-03-07T12:43:06Z</time>
      </trkpt>
      <trkpt lat="45.72888" lon="4.06868">
        <ele>368.19</ele>
        <time>2015-03-07T12:43:07Z</time>
      </trkpt>
      <trkpt lat="45.7289" lon="4.0686">
        <ele>368.07</ele>
        <time>2015-03-07T12:43:08Z</time>
      </trkpt>
      <trkpt lat="45.72894" lon="4.06852">
        <ele>367.86</ele>
        <time>2015-03-07T12:43:09Z</time>
      </trkpt>
      <trkpt lat="45.72897" lon="4.06844">
        <ele>367.85</ele>
        <time>2015-03-07T12:43:10Z</time>
      </trkpt>
      <trkpt lat="45.729" lon="4.06836">
        <ele>368.05</ele>
        <time>2015-03-07T12:43:11Z</time>
      </trkpt>
      <trkpt lat="45.72903" lon="4.06828">
        <ele>368.15</ele>
        <time>2015-03-07T12:43:12Z</time>
      </trkpt>
      <trkpt lat="45.72906" lon="4.06822">
        <ele>368.34</ele>
        <time>2015-03-07T12:43:13Z</time>
      </trkpt>
      <trkpt lat="45.72911" lon="4.06811">
        <ele>368.99</ele>
        <time>2015-03-07T12:43:15Z</time>
      </trkpt>
      <trkpt lat="45.72914" lon="4.06804">
        <ele>369.27</ele>
        <time>2015-03-07T12:43:16Z</time>
      </trkpt>
      <trkpt lat="45.72918" lon="4.06797">
        <ele>369.21</ele>
        <time>2015-03-07T12:43:17Z</time>
      </trkpt>
      <trkpt lat="45.72922" lon="4.06789">
        <ele>369.28</ele>
        <time>2015-03-07T12:43:18Z</time>
      </trkpt>
      <trkpt lat="45.72925" lon="4.06782">
        <ele>369.21</ele>
        <time>2015-03-07T12:43:19Z</time>
      </trkpt>
      <trkpt lat="45.72928" lon="4.06774">
        <ele>369.03</ele>
        <time>2015-03-07T12:43:20Z</time>
      </trkpt>
      <trkpt lat="45.72931" lon="4.06767">
        <ele>368.89</ele>
        <time>2015-03-07T12:43:21Z</time>
      </trkpt>
      <trkpt lat="45.72933" lon="4.0676">
        <ele>368.86</ele>
        <time>2015-03-07T12:43:22Z</time>
      </trkpt>
      <trkpt lat="45.72936" lon="4.06753">
        <ele>368.65</ele>
        <time>2015-03-07T12:43:23Z</time>
      </trkpt>
      <trkpt lat="45.7294" lon="4.06746">
        <ele>368.75</ele>
        <time>2015-03-07T12:43:24Z</time>
      </trkpt>
      <trkpt lat="45.72943" lon="4.0674">
        <ele>368.9</ele>
        <time>2015-03-07T12:43:25Z</time>
      </trkpt>
      <trkpt lat="45.72946" lon="4.06734">
        <ele>369.02</ele>
        <time>2015-03-07T12:43:26Z</time>
      </trkpt>
      <trkpt lat="45.72949" lon="4.06728">
        <ele>368.88</ele>
        <time>2015-03-07T12:43:27Z</time>
      </trkpt>
      <trkpt lat="45.72952" lon="4.06723">
        <ele>368.56</ele>
        <time>2015-03-07T12:43:28Z</time>
      </trkpt>
      <trkpt lat="45.72956" lon="4.06712">
        <ele>368.5</ele>
        <time>2015-03-07T12:43:30Z</time>
      </trkpt>
      <trkpt lat="45.72959" lon="4.06705">
        <ele>368.67</ele>
        <time>2015-03-07T12:43:31Z</time>
      </trkpt>
      <trkpt lat="45.72961" lon="4.06699">
        <ele>369.01</ele>
        <time>2015-03-07T12:43:32Z</time>
      </trkpt>
      <trkpt lat="45.72963" lon="4.06693">
        <ele>369.08</ele>
        <time>2015-03-07T12:43:33Z</time>
      </trkpt>
      <trkpt lat="45.72964" lon="4.06686">
        <ele>369.06</ele>
        <time>2015-03-07T12:43:34Z</time>
      </trkpt>
      <trkpt lat="45.72964" lon="4.06679">
        <ele>368.95</ele>
        <time>2015-03-07T12:43:35Z</time>
      </trkpt>
      <trkpt lat="45.72963" lon="4.06672">
        <ele>368.9</ele>
        <time>2015-03-07T12:43:36Z</time>
      </trkpt>
      <trkpt lat="45.72962" lon="4.06665">
        <ele>368.37</ele>
        <time>2015-03-07T12:43:37Z</time>
      </trkpt>
      <trkpt lat="45.7296" lon="4.06652">
        <ele>369.15</ele>
        <time>2015-03-07T12:43:39Z</time>
      </trkpt>
      <trkpt lat="45.72959" lon="4.06639">
        <ele>369.7</ele>
        <time>2015-03-07T12:43:41Z</time>
      </trkpt>
      <trkpt lat="45.72957" lon="4.06627">
        <ele>370.41</ele>
        <time>2015-03-07T12:43:43Z</time>
      </trkpt>
      <trkpt lat="45.72955" lon="4.06616">
        <ele>370.71</ele>
        <time>2015-03-07T12:43:45Z</time>
      </trkpt>
      <trkpt lat="45.72954" lon="4.06603">
        <ele>370.94</ele>
        <time>2015-03-07T12:43:47Z</time>
      </trkpt>
      <trkpt lat="45.72953" lon="4.06591">
        <ele>371.29</ele>
        <time>2015-03-07T12:43:49Z</time>
      </trkpt>
      <trkpt lat="45.72952" lon="4.06579">
        <ele>371.68</ele>
        <time>2015-03-07T12:43:51Z</time>
      </trkpt>
      <trkpt lat="45.72951" lon="4.06572">
        <ele>371.76</ele>
        <time>2015-03-07T12:43:52Z</time>
      </trkpt>
      <trkpt lat="45.7295" lon="4.06565">
        <ele>371.8</ele>
        <time>2015-03-07T12:43:53Z</time>
      </trkpt>
      <trkpt lat="45.72949" lon="4.06558">
        <ele>371.87</ele>
        <time>2015-03-07T12:43:54Z</time>
      </trkpt>
      <trkpt lat="45.72948" lon="4.0655">
        <ele>372.01</ele>
        <time>2015-03-07T12:43:55Z</time>
      </trkpt>
      <trkpt lat="45.72947" lon="4.06542">
        <ele>372.23</ele>
        <time>2015-03-07T12:43:56Z</time>
      </trkpt>
      <trkpt lat="45.72946" lon="4.06534">
        <ele>372.24</ele>
        <time>2015-03-07T12:43:57Z</time>
      </trkpt>
      <trkpt lat="45.72946" lon="4.06526">
        <ele>372.09</ele>
        <time>2015-03-07T12:43:58Z</time>
      </trkpt>
      <trkpt lat="45.72945" lon="4.0652">
        <ele>372.07</ele>
        <time>2015-03-07T12:43:59Z</time>
      </trkpt>
      <trkpt lat="45.72945" lon="4.06508">
        <ele>372</ele>
        <time>2015-03-07T12:44:01Z</time>
      </trkpt>
      <trkpt lat="45.72945" lon="4.06497">
        <ele>372.13</ele>
        <time>2015-03-07T12:44:03Z</time>
      </trkpt>
      <trkpt lat="45.72945" lon="4.06486">
        <ele>372.17</ele>
        <time>2015-03-07T12:44:05Z</time>
      </trkpt>
      <trkpt lat="45.72947" lon="4.06479">
        <ele>371.9</ele>
        <time>2015-03-07T12:44:07Z</time>
      </trkpt>
      <trkpt lat="45.72949" lon="4.06471">
        <ele>371.33</ele>
        <time>2015-03-07T12:44:09Z</time>
      </trkpt>
      <trkpt lat="45.72951" lon="4.06463">
        <ele>370.92</ele>
        <time>2015-03-07T12:44:11Z</time>
      </trkpt>
      <trkpt lat="45.72954" lon="4.06457">
        <ele>370.64</ele>
        <time>2015-03-07T12:44:13Z</time>
      </trkpt>
      <trkpt lat="45.72954" lon="4.06448">
        <ele>370.69</ele>
        <time>2015-03-07T12:44:15Z</time>
      </trkpt>
      <trkpt lat="45.72955" lon="4.0644">
        <ele>370.86</ele>
        <time>2015-03-07T12:44:17Z</time>
      </trkpt>
      <trkpt lat="45.72955" lon="4.06432">
        <ele>370.75</ele>
        <time>2015-03-07T12:44:18Z</time>
      </trkpt>
      <trkpt lat="45.72956" lon="4.06425">
        <ele>370.5</ele>
        <time>2015-03-07T12:44:19Z</time>
      </trkpt>
      <trkpt lat="45.72956" lon="4.06418">
        <ele>370.07</ele>
        <time>2015-03-07T12:44:20Z</time>
      </trkpt>
      <trkpt lat="45.72957" lon="4.06411">
        <ele>369.86</ele>
        <time>2015-03-07T12:44:21Z</time>
      </trkpt>
      <trkpt lat="45.72958" lon="4.06404">
        <ele>369.6</ele>
        <time>2015-03-07T12:44:22Z</time>
      </trkpt>
      <trkpt lat="45.72959" lon="4.06397">
        <ele>369.42</ele>
        <time>2015-03-07T12:44:23Z</time>
      </trkpt>
      <trkpt lat="45.72959" lon="4.0639">
        <ele>369.23</ele>
        <time>2015-03-07T12:44:24Z</time>
      </trkpt>
      <trkpt lat="45.7296" lon="4.06383">
        <ele>368.94</ele>
        <time>2015-03-07T12:44:25Z</time>
      </trkpt>
      <trkpt lat="45.72961" lon="4.06376">
        <ele>368.84</ele>
        <time>2015-03-07T12:44:26Z</time>
      </trkpt>
      <trkpt lat="45.72962" lon="4.06369">
        <ele>368.69</ele>
        <time>2015-03-07T12:44:27Z</time>
      </trkpt>
      <trkpt lat="45.72963" lon="4.06362">
        <ele>368.62</ele>
        <time>2015-03-07T12:44:28Z</time>
      </trkpt>
      <trkpt lat="45.72964" lon="4.06355">
        <ele>368.48</ele>
        <time>2015-03-07T12:44:29Z</time>
      </trkpt>
      <trkpt lat="45.72965" lon="4.06347">
        <ele>368.36</ele>
        <time>2015-03-07T12:44:30Z</time>
      </trkpt>
      <trkpt lat="45.72966" lon="4.0634">
        <ele>368.3</ele>
        <time>2015-03-07T12:44:31Z</time>
      </trkpt>
      <trkpt lat="45.72967" lon="4.06333">
        <ele>368.17</ele>
        <time>2015-03-07T12:44:32Z</time>
      </trkpt>
      <trkpt lat="45.72967" lon="4.06326">
        <ele>368.11</ele>
        <time>2015-03-07T12:44:33Z</time>
      </trkpt>
      <trkpt lat="45.72969" lon="4.06316">
        <ele>368.19</ele>
        <time>2015-03-07T12:44:35Z</time>
      </trkpt>
      <trkpt lat="45.72969" lon="4.06306">
        <ele>368.45</ele>
        <time>2015-03-07T12:44:37Z</time>
      </trkpt>
      <trkpt lat="45.7297" lon="4.063">
        <ele>368.75</ele>
        <time>2015-03-07T12:44:38Z</time>
      </trkpt>
      <trkpt lat="45.7297" lon="4.06293">
        <ele>369.15</ele>
        <time>2015-03-07T12:44:39Z</time>
      </trkpt>
      <trkpt lat="45.72971" lon="4.06286">
        <ele>369.45</ele>
        <time>2015-03-07T12:44:40Z</time>
      </trkpt>
      <trkpt lat="45.72972" lon="4.06279">
        <ele>369.74</ele>
        <time>2015-03-07T12:44:41Z</time>
      </trkpt>
      <trkpt lat="45.72973" lon="4.06272">
        <ele>369.99</ele>
        <time>2015-03-07T12:44:42Z</time>
      </trkpt>
      <trkpt lat="45.72974" lon="4.06266">
        <ele>370.17</ele>
        <time>2015-03-07T12:44:43Z</time>
      </trkpt>
      <trkpt lat="45.72975" lon="4.06259">
        <ele>370.36</ele>
        <time>2015-03-07T12:44:44Z</time>
      </trkpt>
      <trkpt lat="45.72976" lon="4.06251">
        <ele>370.6</ele>
        <time>2015-03-07T12:44:45Z</time>
      </trkpt>
      <trkpt lat="45.72977" lon="4.06244">
        <ele>370.72</ele>
        <time>2015-03-07T12:44:46Z</time>
      </trkpt>
      <trkpt lat="45.72978" lon="4.06236">
        <ele>370.83</ele>
        <time>2015-03-07T12:44:47Z</time>
      </trkpt>
      <trkpt lat="45.72979" lon="4.06228">
        <ele>370.84</ele>
        <time>2015-03-07T12:44:48Z</time>
      </trkpt>
      <trkpt lat="45.72981" lon="4.06216">
        <ele>370.94</ele>
        <time>2015-03-07T12:44:50Z</time>
      </trkpt>
      <trkpt lat="45.72983" lon="4.06204">
        <ele>370.94</ele>
        <time>2015-03-07T12:44:52Z</time>
      </trkpt>
      <trkpt lat="45.72983" lon="4.06197">
        <ele>370.99</ele>
        <time>2015-03-07T12:44:53Z</time>
      </trkpt>
      <trkpt lat="45.72984" lon="4.06185">
        <ele>371.03</ele>
        <time>2015-03-07T12:44:55Z</time>
      </trkpt>
      <trkpt lat="45.72985" lon="4.06174">
        <ele>370.99</ele>
        <time>2015-03-07T12:44:57Z</time>
      </trkpt>
      <trkpt lat="45.72987" lon="4.06164">
        <ele>370.88</ele>
        <time>2015-03-07T12:44:59Z</time>
      </trkpt>
      <trkpt lat="45.72987" lon="4.06152">
        <ele>370.15</ele>
        <time>2015-03-07T12:45:01Z</time>
      </trkpt>
      <trkpt lat="45.72988" lon="4.06139">
        <ele>369.95</ele>
        <time>2015-03-07T12:45:03Z</time>
      </trkpt>
      <trkpt lat="45.72989" lon="4.06132">
        <ele>369.9</ele>
        <time>2015-03-07T12:45:04Z</time>
      </trkpt>
      <trkpt lat="45.72991" lon="4.06126">
        <ele>369.87</ele>
        <time>2015-03-07T12:45:05Z</time>
      </trkpt>
      <trkpt lat="45.72992" lon="4.06119">
        <ele>369.81</ele>
        <time>2015-03-07T12:45:06Z</time>
      </trkpt>
      <trkpt lat="45.72993" lon="4.06112">
        <ele>369.68</ele>
        <time>2015-03-07T12:45:07Z</time>
      </trkpt>
      <trkpt lat="45.72994" lon="4.06104">
        <ele>369.51</ele>
        <time>2015-03-07T12:45:08Z</time>
      </trkpt>
      <trkpt lat="45.72995" lon="4.06096">
        <ele>369.43</ele>
        <time>2015-03-07T12:45:09Z</time>
      </trkpt>
      <trkpt lat="45.72995" lon="4.06089">
        <ele>369.34</ele>
        <time>2015-03-07T12:45:10Z</time>
      </trkpt>
      <trkpt lat="45.72996" lon="4.06081">
        <ele>369.34</ele>
        <time>2015-03-07T12:45:11Z</time>
      </trkpt>
      <trkpt lat="45.72997" lon="4.06073">
        <ele>369.29</ele>
        <time>2015-03-07T12:45:12Z</time>
      </trkpt>
      <trkpt lat="45.72998" lon="4.06065">
        <ele>369.27</ele>
        <time>2015-03-07T12:45:13Z</time>
      </trkpt>
      <trkpt lat="45.72999" lon="4.06057">
        <ele>369.21</ele>
        <time>2015-03-07T12:45:14Z</time>
      </trkpt>
      <trkpt lat="45.72999" lon="4.06049">
        <ele>369.12</ele>
        <time>2015-03-07T12:45:15Z</time>
      </trkpt>
      <trkpt lat="45.73" lon="4.06041">
        <ele>369.03</ele>
        <time>2015-03-07T12:45:16Z</time>
      </trkpt>
      <trkpt lat="45.73001" lon="4.06033">
        <ele>368.99</ele>
        <time>2015-03-07T12:45:17Z</time>
      </trkpt>
      <trkpt lat="45.73002" lon="4.06025">
        <ele>368.97</ele>
        <time>2015-03-07T12:45:18Z</time>
      </trkpt>
      <trkpt lat="45.73003" lon="4.06017">
        <ele>368.91</ele>
        <time>2015-03-07T12:45:19Z</time>
      </trkpt>
      <trkpt lat="45.73004" lon="4.06009">
        <ele>368.92</ele>
        <time>2015-03-07T12:45:20Z</time>
      </trkpt>
      <trkpt lat="45.73005" lon="4.06002">
        <ele>369.08</ele>
        <time>2015-03-07T12:45:21Z</time>
      </trkpt>
      <trkpt lat="45.73007" lon="4.05995">
        <ele>369.21</ele>
        <time>2015-03-07T12:45:22Z</time>
      </trkpt>
      <trkpt lat="45.73008" lon="4.05988">
        <ele>369.33</ele>
        <time>2015-03-07T12:45:23Z</time>
      </trkpt>
      <trkpt lat="45.73009" lon="4.0598">
        <ele>369.44</ele>
        <time>2015-03-07T12:45:24Z</time>
      </trkpt>
      <trkpt lat="45.7301" lon="4.05973">
        <ele>369.64</ele>
        <time>2015-03-07T12:45:25Z</time>
      </trkpt>
      <trkpt lat="45.73011" lon="4.05965">
        <ele>369.79</ele>
        <time>2015-03-07T12:45:26Z</time>
      </trkpt>
      <trkpt lat="45.73011" lon="4.05959">
        <ele>369.92</ele>
        <time>2015-03-07T12:45:27Z</time>
      </trkpt>
      <trkpt lat="45.73011" lon="4.05951">
        <ele>369.93</ele>
        <time>2015-03-07T12:45:28Z</time>
      </trkpt>
      <trkpt lat="45.73011" lon="4.05944">
        <ele>369.89</ele>
        <time>2015-03-07T12:45:29Z</time>
      </trkpt>
      <trkpt lat="45.73012" lon="4.05937">
        <ele>369.92</ele>
        <time>2015-03-07T12:45:30Z</time>
      </trkpt>
      <trkpt lat="45.73012" lon="4.0593">
        <ele>369.83</ele>
        <time>2015-03-07T12:45:31Z</time>
      </trkpt>
      <trkpt lat="45.73014" lon="4.05918">
        <ele>370.02</ele>
        <time>2015-03-07T12:45:33Z</time>
      </trkpt>
      <trkpt lat="45.73016" lon="4.05908">
        <ele>370.21</ele>
        <time>2015-03-07T12:45:35Z</time>
      </trkpt>
      <trkpt lat="45.73018" lon="4.05897">
        <ele>370.49</ele>
        <time>2015-03-07T12:45:37Z</time>
      </trkpt>
      <trkpt lat="45.73019" lon="4.05885">
        <ele>370.85</ele>
        <time>2015-03-07T12:45:39Z</time>
      </trkpt>
      <trkpt lat="45.7302" lon="4.05878">
        <ele>371.1</ele>
        <time>2015-03-07T12:45:40Z</time>
      </trkpt>
      <trkpt lat="45.73021" lon="4.05871">
        <ele>371.27</ele>
        <time>2015-03-07T12:45:41Z</time>
      </trkpt>
      <trkpt lat="45.73022" lon="4.05864">
        <ele>371.46</ele>
        <time>2015-03-07T12:45:42Z</time>
      </trkpt>
      <trkpt lat="45.73023" lon="4.05857">
        <ele>371.7</ele>
        <time>2015-03-07T12:45:43Z</time>
      </trkpt>
      <trkpt lat="45.73024" lon="4.0585">
        <ele>372.02</ele>
        <time>2015-03-07T12:45:44Z</time>
      </trkpt>
      <trkpt lat="45.73025" lon="4.05842">
        <ele>372.33</ele>
        <time>2015-03-07T12:45:45Z</time>
      </trkpt>
      <trkpt lat="45.73026" lon="4.05835">
        <ele>372.54</ele>
        <time>2015-03-07T12:45:46Z</time>
      </trkpt>
      <trkpt lat="45.73027" lon="4.05826">
        <ele>372.59</ele>
        <time>2015-03-07T12:45:47Z</time>
      </trkpt>
      <trkpt lat="45.73027" lon="4.05818">
        <ele>372.67</ele>
        <time>2015-03-07T12:45:48Z</time>
      </trkpt>
      <trkpt lat="45.73028" lon="4.05811">
        <ele>372.86</ele>
        <time>2015-03-07T12:45:49Z</time>
      </trkpt>
      <trkpt lat="45.73029" lon="4.05803">
        <ele>372.85</ele>
        <time>2015-03-07T12:45:50Z</time>
      </trkpt>
      <trkpt lat="45.7303" lon="4.05796">
        <ele>372.85</ele>
        <time>2015-03-07T12:45:51Z</time>
      </trkpt>
      <trkpt lat="45.73031" lon="4.05788">
        <ele>372.85</ele>
        <time>2015-03-07T12:45:52Z</time>
      </trkpt>
      <trkpt lat="45.73032" lon="4.05781">
        <ele>372.84</ele>
        <time>2015-03-07T12:45:53Z</time>
      </trkpt>
      <trkpt lat="45.73033" lon="4.05773">
        <ele>372.79</ele>
        <time>2015-03-07T12:45:54Z</time>
      </trkpt>
      <trkpt lat="45.73035" lon="4.05766">
        <ele>372.62</ele>
        <time>2015-03-07T12:45:55Z</time>
      </trkpt>
      <trkpt lat="45.73036" lon="4.05757">
        <ele>372.53</ele>
        <time>2015-03-07T12:45:56Z</time>
      </trkpt>
      <trkpt lat="45.73037" lon="4.05749">
        <ele>372.54</ele>
        <time>2015-03-07T12:45:57Z</time>
      </trkpt>
      <trkpt lat="45.73038" lon="4.05741">
        <ele>372.64</ele>
        <time>2015-03-07T12:45:58Z</time>
      </trkpt>
      <trkpt lat="45.73039" lon="4.05733">
        <ele>372.84</ele>
        <time>2015-03-07T12:45:59Z</time>
      </trkpt>
      <trkpt lat="45.7304" lon="4.05726">
        <ele>373.09</ele>
        <time>2015-03-07T12:46:00Z</time>
      </trkpt>
      <trkpt lat="45.73041" lon="4.05719">
        <ele>373.27</ele>
        <time>2015-03-07T12:46:01Z</time>
      </trkpt>
      <trkpt lat="45.73043" lon="4.05712">
        <ele>373.41</ele>
        <time>2015-03-07T12:46:02Z</time>
      </trkpt>
      <trkpt lat="45.73045" lon="4.057">
        <ele>373.21</ele>
        <time>2015-03-07T12:46:04Z</time>
      </trkpt>
      <trkpt lat="45.73046" lon="4.05693">
        <ele>372.98</ele>
        <time>2015-03-07T12:46:05Z</time>
      </trkpt>
      <trkpt lat="45.73047" lon="4.05687">
        <ele>372.91</ele>
        <time>2015-03-07T12:46:06Z</time>
      </trkpt>
      <trkpt lat="45.73048" lon="4.05675">
        <ele>372.91</ele>
        <time>2015-03-07T12:46:08Z</time>
      </trkpt>
      <trkpt lat="45.73049" lon="4.05665">
        <ele>373.06</ele>
        <time>2015-03-07T12:46:10Z</time>
      </trkpt>
      <trkpt lat="45.7305" lon="4.05652">
        <ele>373.35</ele>
        <time>2015-03-07T12:46:12Z</time>
      </trkpt>
      <trkpt lat="45.7305" lon="4.05646">
        <ele>373.5</ele>
        <time>2015-03-07T12:46:13Z</time>
      </trkpt>
      <trkpt lat="45.73051" lon="4.05639">
        <ele>373.67</ele>
        <time>2015-03-07T12:46:14Z</time>
      </trkpt>
      <trkpt lat="45.73052" lon="4.05632">
        <ele>373.66</ele>
        <time>2015-03-07T12:46:15Z</time>
      </trkpt>
      <trkpt lat="45.73053" lon="4.05624">
        <ele>373.9</ele>
        <time>2015-03-07T12:46:16Z</time>
      </trkpt>
      <trkpt lat="45.73053" lon="4.05616">
        <ele>374.07</ele>
        <time>2015-03-07T12:46:17Z</time>
      </trkpt>
      <trkpt lat="45.73054" lon="4.0561">
        <ele>374.21</ele>
        <time>2015-03-07T12:46:18Z</time>
      </trkpt>
      <trkpt lat="45.73055" lon="4.05599">
        <ele>374.54</ele>
        <time>2015-03-07T12:46:20Z</time>
      </trkpt>
      <trkpt lat="45.73056" lon="4.05587">
        <ele>374.94</ele>
        <time>2015-03-07T12:46:22Z</time>
      </trkpt>
      <trkpt lat="45.73056" lon="4.0558">
        <ele>375.14</ele>
        <time>2015-03-07T12:46:23Z</time>
      </trkpt>
      <trkpt lat="45.73057" lon="4.05574">
        <ele>375.09</ele>
        <time>2015-03-07T12:46:24Z</time>
      </trkpt>
      <trkpt lat="45.73058" lon="4.05562">
        <ele>375.21</ele>
        <time>2015-03-07T12:46:26Z</time>
      </trkpt>
      <trkpt lat="45.7306" lon="4.05552">
        <ele>374.48</ele>
        <time>2015-03-07T12:46:28Z</time>
      </trkpt>
      <trkpt lat="45.73061" lon="4.05541">
        <ele>374.08</ele>
        <time>2015-03-07T12:46:30Z</time>
      </trkpt>
      <trkpt lat="45.73062" lon="4.05529">
        <ele>373.78</ele>
        <time>2015-03-07T12:46:32Z</time>
      </trkpt>
      <trkpt lat="45.73062" lon="4.05522">
        <ele>373.76</ele>
        <time>2015-03-07T12:46:33Z</time>
      </trkpt>
      <trkpt lat="45.73062" lon="4.05516">
        <ele>373.8</ele>
        <time>2015-03-07T12:46:34Z</time>
      </trkpt>
      <trkpt lat="45.73062" lon="4.05503">
        <ele>373.83</ele>
        <time>2015-03-07T12:46:36Z</time>
      </trkpt>
      <trkpt lat="45.73061" lon="4.05495">
        <ele>373.99</ele>
        <time>2015-03-07T12:46:37Z</time>
      </trkpt>
      <trkpt lat="45.73061" lon="4.05487">
        <ele>374.17</ele>
        <time>2015-03-07T12:46:38Z</time>
      </trkpt>
      <trkpt lat="45.73061" lon="4.0548">
        <ele>374.46</ele>
        <time>2015-03-07T12:46:39Z</time>
      </trkpt>
      <trkpt lat="45.73059" lon="4.05472">
        <ele>374.8</ele>
        <time>2015-03-07T12:46:40Z</time>
      </trkpt>
      <trkpt lat="45.73059" lon="4.05464">
        <ele>374.77</ele>
        <time>2015-03-07T12:46:41Z</time>
      </trkpt>
      <trkpt lat="45.73058" lon="4.05455">
        <ele>374.66</ele>
        <time>2015-03-07T12:46:42Z</time>
      </trkpt>
      <trkpt lat="45.73056" lon="4.05444">
        <ele>374.45</ele>
        <time>2015-03-07T12:46:43Z</time>
      </trkpt>
      <trkpt lat="45.73055" lon="4.05435">
        <ele>374.3</ele>
        <time>2015-03-07T12:46:44Z</time>
      </trkpt>
      <trkpt lat="45.73054" lon="4.05427">
        <ele>374.32</ele>
        <time>2015-03-07T12:46:45Z</time>
      </trkpt>
      <trkpt lat="45.73052" lon="4.05419">
        <ele>374.43</ele>
        <time>2015-03-07T12:46:46Z</time>
      </trkpt>
      <trkpt lat="45.73051" lon="4.05411">
        <ele>374.69</ele>
        <time>2015-03-07T12:46:47Z</time>
      </trkpt>
      <trkpt lat="45.7305" lon="4.05399">
        <ele>374.83</ele>
        <time>2015-03-07T12:46:49Z</time>
      </trkpt>
      <trkpt lat="45.7305" lon="4.05387">
        <ele>374.54</ele>
        <time>2015-03-07T12:46:51Z</time>
      </trkpt>
      <trkpt lat="45.73049" lon="4.05376">
        <ele>374.17</ele>
        <time>2015-03-07T12:46:53Z</time>
      </trkpt>
      <trkpt lat="45.73048" lon="4.05365">
        <ele>373.78</ele>
        <time>2015-03-07T12:46:55Z</time>
      </trkpt>
      <trkpt lat="45.73047" lon="4.05355">
        <ele>373.7</ele>
        <time>2015-03-07T12:46:57Z</time>
      </trkpt>
      <trkpt lat="45.73045" lon="4.05345">
        <ele>373.73</ele>
        <time>2015-03-07T12:46:59Z</time>
      </trkpt>
      <trkpt lat="45.73043" lon="4.05337">
        <ele>373.82</ele>
        <time>2015-03-07T12:47:01Z</time>
      </trkpt>
      <trkpt lat="45.73042" lon="4.05329">
        <ele>373.64</ele>
        <time>2015-03-07T12:47:03Z</time>
      </trkpt>
      <trkpt lat="45.73041" lon="4.0532">
        <ele>373.64</ele>
        <time>2015-03-07T12:47:05Z</time>
      </trkpt>
      <trkpt lat="45.73041" lon="4.05312">
        <ele>373.64</ele>
        <time>2015-03-07T12:47:07Z</time>
      </trkpt>
      <trkpt lat="45.73042" lon="4.05304">
        <ele>373.47</ele>
        <time>2015-03-07T12:47:09Z</time>
      </trkpt>
      <trkpt lat="45.73044" lon="4.05297">
        <ele>373.47</ele>
        <time>2015-03-07T12:47:12Z</time>
      </trkpt>
      <trkpt lat="45.73044" lon="4.05282">
        <ele>375.84</ele>
        <time>2015-03-07T12:48:13Z</time>
      </trkpt>
      <trkpt lat="45.73051" lon="4.05284">
        <ele>378.09</ele>
        <time>2015-03-07T12:48:15Z</time>
      </trkpt>
      <trkpt lat="45.73057" lon="4.05285">
        <ele>378.96</ele>
        <time>2015-03-07T12:48:17Z</time>
      </trkpt>
      <trkpt lat="45.73062" lon="4.05283">
        <ele>378.82</ele>
        <time>2015-03-07T12:48:19Z</time>
      </trkpt>
      <trkpt lat="45.7307" lon="4.05277">
        <ele>378.16</ele>
        <time>2015-03-07T12:48:21Z</time>
      </trkpt>
      <trkpt lat="45.73076" lon="4.0527">
        <ele>377.6</ele>
        <time>2015-03-07T12:48:23Z</time>
      </trkpt>
      <trkpt lat="45.7308" lon="4.05263">
        <ele>377.33</ele>
        <time>2015-03-07T12:48:25Z</time>
      </trkpt>
      <trkpt lat="45.73085" lon="4.05254">
        <ele>377.27</ele>
        <time>2015-03-07T12:48:27Z</time>
      </trkpt>
      <trkpt lat="45.73088" lon="4.05246">
        <ele>377.17</ele>
        <time>2015-03-07T12:48:29Z</time>
      </trkpt>
      <trkpt lat="45.73092" lon="4.05241">
        <ele>376.93</ele>
        <time>2015-03-07T12:48:31Z</time>
      </trkpt>
      <trkpt lat="45.73094" lon="4.05233">
        <ele>376.95</ele>
        <time>2015-03-07T12:48:34Z</time>
      </trkpt>
      <trkpt lat="45.7309" lon="4.05226">
        <ele>377.03</ele>
        <time>2015-03-07T12:48:37Z</time>
      </trkpt>
      <trkpt lat="45.73083" lon="4.05222">
        <ele>376.82</ele>
        <time>2015-03-07T12:48:39Z</time>
      </trkpt>
      <trkpt lat="45.73076" lon="4.0522">
        <ele>377.39</ele>
        <time>2015-03-07T12:48:41Z</time>
      </trkpt>
      <trkpt lat="45.73068" lon="4.05217">
        <ele>378.03</ele>
        <time>2015-03-07T12:48:43Z</time>
      </trkpt>
      <trkpt lat="45.73059" lon="4.05214">
        <ele>378.39</ele>
        <time>2015-03-07T12:48:45Z</time>
      </trkpt>
      <trkpt lat="45.73055" lon="4.05213">
        <ele>378.52</ele>
        <time>2015-03-07T12:48:46Z</time>
      </trkpt>
      <trkpt lat="45.73047" lon="4.05209">
        <ele>378.84</ele>
        <time>2015-03-07T12:48:48Z</time>
      </trkpt>
      <trkpt lat="45.73039" lon="4.05206">
        <ele>379.57</ele>
        <time>2015-03-07T12:48:50Z</time>
      </trkpt>
      <trkpt lat="45.73035" lon="4.05204">
        <ele>379.96</ele>
        <time>2015-03-07T12:48:51Z</time>
      </trkpt>
      <trkpt lat="45.7303" lon="4.05202">
        <ele>380.25</ele>
        <time>2015-03-07T12:48:52Z</time>
      </trkpt>
      <trkpt lat="45.73025" lon="4.05201">
        <ele>380.55</ele>
        <time>2015-03-07T12:48:53Z</time>
      </trkpt>
      <trkpt lat="45.7302" lon="4.05199">
        <ele>380.9</ele>
        <time>2015-03-07T12:48:54Z</time>
      </trkpt>
      <trkpt lat="45.73016" lon="4.05197">
        <ele>381.17</ele>
        <time>2015-03-07T12:48:55Z</time>
      </trkpt>
      <trkpt lat="45.7301" lon="4.05194">
        <ele>381.26</ele>
        <time>2015-03-07T12:48:56Z</time>
      </trkpt>
      <trkpt lat="45.73006" lon="4.05191">
        <ele>381.25</ele>
        <time>2015-03-07T12:48:57Z</time>
      </trkpt>
      <trkpt lat="45.73" lon="4.05181">
        <ele>381.3</ele>
        <time>2015-03-07T12:48:59Z</time>
      </trkpt>
      <trkpt lat="45.72997" lon="4.05176">
        <ele>381.42</ele>
        <time>2015-03-07T12:49:00Z</time>
      </trkpt>
      <trkpt lat="45.72994" lon="4.0517">
        <ele>381.68</ele>
        <time>2015-03-07T12:49:01Z</time>
      </trkpt>
      <trkpt lat="45.7299" lon="4.05165">
        <ele>382.01</ele>
        <time>2015-03-07T12:49:02Z</time>
      </trkpt>
      <trkpt lat="45.72986" lon="4.05159">
        <ele>382.23</ele>
        <time>2015-03-07T12:49:03Z</time>
      </trkpt>
      <trkpt lat="45.72983" lon="4.05154">
        <ele>382.44</ele>
        <time>2015-03-07T12:49:04Z</time>
      </trkpt>
      <trkpt lat="45.7298" lon="4.05149">
        <ele>382.64</ele>
        <time>2015-03-07T12:49:05Z</time>
      </trkpt>
      <trkpt lat="45.72973" lon="4.0514">
        <ele>382.77</ele>
        <time>2015-03-07T12:49:07Z</time>
      </trkpt>
      <trkpt lat="45.72967" lon="4.05135">
        <ele>382.95</ele>
        <time>2015-03-07T12:49:09Z</time>
      </trkpt>
      <trkpt lat="45.7296" lon="4.05127">
        <ele>382.92</ele>
        <time>2015-03-07T12:49:11Z</time>
      </trkpt>
      <trkpt lat="45.72957" lon="4.05123">
        <ele>382.68</ele>
        <time>2015-03-07T12:49:12Z</time>
      </trkpt>
      <trkpt lat="45.72953" lon="4.05119">
        <ele>382.36</ele>
        <time>2015-03-07T12:49:13Z</time>
      </trkpt>
      <trkpt lat="45.72945" lon="4.05113">
        <ele>381.4</ele>
        <time>2015-03-07T12:49:15Z</time>
      </trkpt>
      <trkpt lat="45.72941" lon="4.05109">
        <ele>380.77</ele>
        <time>2015-03-07T12:49:16Z</time>
      </trkpt>
      <trkpt lat="45.72935" lon="4.05103">
        <ele>380.18</ele>
        <time>2015-03-07T12:49:18Z</time>
      </trkpt>
      <trkpt lat="45.7293" lon="4.05098">
        <ele>380.18</ele>
        <time>2015-03-07T12:49:20Z</time>
      </trkpt>
      <trkpt lat="45.72926" lon="4.05092">
        <ele>380.1</ele>
        <time>2015-03-07T12:49:22Z</time>
      </trkpt>
      <trkpt lat="45.72921" lon="4.05086">
        <ele>379.98</ele>
        <time>2015-03-07T12:49:24Z</time>
      </trkpt>
      <trkpt lat="45.72915" lon="4.05078">
        <ele>380.63</ele>
        <time>2015-03-07T12:49:26Z</time>
      </trkpt>
      <trkpt lat="45.72908" lon="4.05071">
        <ele>381.09</ele>
        <time>2015-03-07T12:49:28Z</time>
      </trkpt>
      <trkpt lat="45.72901" lon="4.05065">
        <ele>381.51</ele>
        <time>2015-03-07T12:49:30Z</time>
      </trkpt>
      <trkpt lat="45.72895" lon="4.05059">
        <ele>381.38</ele>
        <time>2015-03-07T12:49:32Z</time>
      </trkpt>
      <trkpt lat="45.72888" lon="4.05055">
        <ele>381.2</ele>
        <time>2015-03-07T12:49:34Z</time>
      </trkpt>
      <trkpt lat="45.72882" lon="4.05049">
        <ele>381.33</ele>
        <time>2015-03-07T12:49:36Z</time>
      </trkpt>
      <trkpt lat="45.72878" lon="4.05044">
        <ele>381.54</ele>
        <time>2015-03-07T12:49:37Z</time>
      </trkpt>
      <trkpt lat="45.72871" lon="4.05036">
        <ele>381.99</ele>
        <time>2015-03-07T12:49:39Z</time>
      </trkpt>
      <trkpt lat="45.72868" lon="4.05032">
        <ele>382.17</ele>
        <time>2015-03-07T12:49:40Z</time>
      </trkpt>
      <trkpt lat="45.72865" lon="4.05027">
        <ele>382.21</ele>
        <time>2015-03-07T12:49:41Z</time>
      </trkpt>
      <trkpt lat="45.72861" lon="4.05023">
        <ele>382.13</ele>
        <time>2015-03-07T12:49:42Z</time>
      </trkpt>
      <trkpt lat="45.72855" lon="4.05017">
        <ele>381.86</ele>
        <time>2015-03-07T12:49:44Z</time>
      </trkpt>
      <trkpt lat="45.72848" lon="4.0501">
        <ele>381.82</ele>
        <time>2015-03-07T12:49:46Z</time>
      </trkpt>
      <trkpt lat="45.72845" lon="4.05006">
        <ele>381.98</ele>
        <time>2015-03-07T12:49:47Z</time>
      </trkpt>
      <trkpt lat="45.72841" lon="4.05002">
        <ele>382.11</ele>
        <time>2015-03-07T12:49:48Z</time>
      </trkpt>
      <trkpt lat="45.72835" lon="4.04995">
        <ele>382.04</ele>
        <time>2015-03-07T12:49:50Z</time>
      </trkpt>
      <trkpt lat="45.72829" lon="4.04988">
        <ele>382.14</ele>
        <time>2015-03-07T12:49:52Z</time>
      </trkpt>
      <trkpt lat="45.72824" lon="4.04983">
        <ele>382.62</ele>
        <time>2015-03-07T12:49:54Z</time>
      </trkpt>
      <trkpt lat="45.72817" lon="4.04981">
        <ele>382.46</ele>
        <time>2015-03-07T12:49:56Z</time>
      </trkpt>
      <trkpt lat="45.7281" lon="4.0498">
        <ele>381.92</ele>
        <time>2015-03-07T12:49:58Z</time>
      </trkpt>
      <trkpt lat="45.72804" lon="4.04979">
        <ele>381.61</ele>
        <time>2015-03-07T12:50:00Z</time>
      </trkpt>
      <trkpt lat="45.72799" lon="4.0498">
        <ele>381.14</ele>
        <time>2015-03-07T12:50:02Z</time>
      </trkpt>
      <trkpt lat="45.72794" lon="4.04977">
        <ele>381.14</ele>
        <time>2015-03-07T12:50:04Z</time>
      </trkpt>
      <trkpt lat="45.72789" lon="4.04974">
        <ele>381.79</ele>
        <time>2015-03-07T12:50:07Z</time>
      </trkpt>
      <trkpt lat="45.72784" lon="4.04968">
        <ele>382.23</ele>
        <time>2015-03-07T12:50:10Z</time>
      </trkpt>
      <trkpt lat="45.72781" lon="4.04963">
        <ele>382.64</ele>
        <time>2015-03-07T12:50:12Z</time>
      </trkpt>
      <trkpt lat="45.72778" lon="4.04958">
        <ele>382.82</ele>
        <time>2015-03-07T12:50:14Z</time>
      </trkpt>
      <trkpt lat="45.72774" lon="4.04951">
        <ele>382.8</ele>
        <time>2015-03-07T12:50:17Z</time>
      </trkpt>
      <trkpt lat="45.72771" lon="4.04946">
        <ele>382.58</ele>
        <time>2015-03-07T12:50:19Z</time>
      </trkpt>
      <trkpt lat="45.72766" lon="4.0494">
        <ele>381.93</ele>
        <time>2015-03-07T12:50:21Z</time>
      </trkpt>
      <trkpt lat="45.72764" lon="4.04934">
        <ele>381.79</ele>
        <time>2015-03-07T12:50:23Z</time>
      </trkpt>
      <trkpt lat="45.72761" lon="4.04927">
        <ele>382.38</ele>
        <time>2015-03-07T12:50:25Z</time>
      </trkpt>
      <trkpt lat="45.72759" lon="4.04918">
        <ele>382.7</ele>
        <time>2015-03-07T12:50:27Z</time>
      </trkpt>
      <trkpt lat="45.72758" lon="4.04907">
        <ele>382.93</ele>
        <time>2015-03-07T12:50:29Z</time>
      </trkpt>
      <trkpt lat="45.72756" lon="4.04897">
        <ele>383.22</ele>
        <time>2015-03-07T12:50:31Z</time>
      </trkpt>
      <trkpt lat="45.72755" lon="4.04889">
        <ele>383.66</ele>
        <time>2015-03-07T12:50:33Z</time>
      </trkpt>
      <trkpt lat="45.72756" lon="4.04881">
        <ele>383.95</ele>
        <time>2015-03-07T12:50:35Z</time>
      </trkpt>
      <trkpt lat="45.72758" lon="4.04872">
        <ele>384.05</ele>
        <time>2015-03-07T12:50:37Z</time>
      </trkpt>
      <trkpt lat="45.7276" lon="4.0486">
        <ele>384.12</ele>
        <time>2015-03-07T12:50:39Z</time>
      </trkpt>
      <trkpt lat="45.72761" lon="4.04848">
        <ele>383.94</ele>
        <time>2015-03-07T12:50:41Z</time>
      </trkpt>
      <trkpt lat="45.72764" lon="4.04839">
        <ele>384.19</ele>
        <time>2015-03-07T12:50:43Z</time>
      </trkpt>
      <trkpt lat="45.72765" lon="4.04832">
        <ele>383.98</ele>
        <time>2015-03-07T12:50:45Z</time>
      </trkpt>
      <trkpt lat="45.72766" lon="4.04825">
        <ele>383.85</ele>
        <time>2015-03-07T12:50:47Z</time>
      </trkpt>
      <trkpt lat="45.72768" lon="4.04815">
        <ele>383.8</ele>
        <time>2015-03-07T12:50:49Z</time>
      </trkpt>
      <trkpt lat="45.72771" lon="4.04805">
        <ele>383.26</ele>
        <time>2015-03-07T12:50:51Z</time>
      </trkpt>
      <trkpt lat="45.72772" lon="4.04797">
        <ele>382.95</ele>
        <time>2015-03-07T12:50:53Z</time>
      </trkpt>
      <trkpt lat="45.72772" lon="4.04788">
        <ele>382.74</ele>
        <time>2015-03-07T12:50:55Z</time>
      </trkpt>
      <trkpt lat="45.72772" lon="4.04778">
        <ele>383.09</ele>
        <time>2015-03-07T12:50:57Z</time>
      </trkpt>
      <trkpt lat="45.72774" lon="4.04769">
        <ele>382.91</ele>
        <time>2015-03-07T12:50:59Z</time>
      </trkpt>
      <trkpt lat="45.72776" lon="4.04762">
        <ele>382.68</ele>
        <time>2015-03-07T12:51:01Z</time>
      </trkpt>
      <trkpt lat="45.72779" lon="4.04755">
        <ele>382.3</ele>
        <time>2015-03-07T12:51:03Z</time>
      </trkpt>
      <trkpt lat="45.72779" lon="4.04747">
        <ele>382.25</ele>
        <time>2015-03-07T12:51:06Z</time>
      </trkpt>
      <trkpt lat="45.72781" lon="4.04737">
        <ele>382.58</ele>
        <time>2015-03-07T12:51:09Z</time>
      </trkpt>
      <trkpt lat="45.72783" lon="4.04729">
        <ele>382.55</ele>
        <time>2015-03-07T12:51:11Z</time>
      </trkpt>
      <trkpt lat="45.72784" lon="4.04722">
        <ele>382.37</ele>
        <time>2015-03-07T12:51:13Z</time>
      </trkpt>
      <trkpt lat="45.72785" lon="4.04711">
        <ele>382.56</ele>
        <time>2015-03-07T12:51:17Z</time>
      </trkpt>
      <trkpt lat="45.72786" lon="4.04703">
        <ele>382.52</ele>
        <time>2015-03-07T12:51:19Z</time>
      </trkpt>
      <trkpt lat="45.72786" lon="4.04696">
        <ele>382.49</ele>
        <time>2015-03-07T12:51:21Z</time>
      </trkpt>
      <trkpt lat="45.72786" lon="4.04686">
        <ele>382.56</ele>
        <time>2015-03-07T12:51:24Z</time>
      </trkpt>
      <trkpt lat="45.72786" lon="4.04679">
        <ele>382.8</ele>
        <time>2015-03-07T12:51:26Z</time>
      </trkpt>
      <trkpt lat="45.72785" lon="4.04672">
        <ele>383.27</ele>
        <time>2015-03-07T12:51:30Z</time>
      </trkpt>
      <trkpt lat="45.72786" lon="4.04664">
        <ele>383.23</ele>
        <time>2015-03-07T12:51:34Z</time>
      </trkpt>
      <trkpt lat="45.72785" lon="4.04657">
        <ele>382.94</ele>
        <time>2015-03-07T12:51:36Z</time>
      </trkpt>
      <trkpt lat="45.72782" lon="4.04645">
        <ele>381.04</ele>
        <time>2015-03-07T12:52:04Z</time>
      </trkpt>
      <trkpt lat="45.72777" lon="4.04638">
        <ele>381.22</ele>
        <time>2015-03-07T12:52:07Z</time>
      </trkpt>
      <trkpt lat="45.72772" lon="4.04634">
        <ele>381.33</ele>
        <time>2015-03-07T12:52:10Z</time>
      </trkpt>
      <trkpt lat="45.72767" lon="4.04631">
        <ele>381.64</ele>
        <time>2015-03-07T12:52:12Z</time>
      </trkpt>
      <trkpt lat="45.72762" lon="4.04627">
        <ele>381.72</ele>
        <time>2015-03-07T12:52:14Z</time>
      </trkpt>
      <trkpt lat="45.72757" lon="4.04622">
        <ele>381.71</ele>
        <time>2015-03-07T12:52:16Z</time>
      </trkpt>
      <trkpt lat="45.72751" lon="4.04619">
        <ele>381.79</ele>
        <time>2015-03-07T12:52:18Z</time>
      </trkpt>
      <trkpt lat="45.72746" lon="4.04614">
        <ele>381.9</ele>
        <time>2015-03-07T12:52:20Z</time>
      </trkpt>
      <trkpt lat="45.72742" lon="4.04607">
        <ele>381.91</ele>
        <time>2015-03-07T12:52:22Z</time>
      </trkpt>
      <trkpt lat="45.72739" lon="4.04597">
        <ele>382.04</ele>
        <time>2015-03-07T12:52:24Z</time>
      </trkpt>
      <trkpt lat="45.72734" lon="4.04588">
        <ele>381.89</ele>
        <time>2015-03-07T12:52:26Z</time>
      </trkpt>
      <trkpt lat="45.7273" lon="4.04579">
        <ele>381.96</ele>
        <time>2015-03-07T12:52:28Z</time>
      </trkpt>
      <trkpt lat="45.72727" lon="4.04572">
        <ele>382.22</ele>
        <time>2015-03-07T12:52:30Z</time>
      </trkpt>
      <trkpt lat="45.72722" lon="4.04565">
        <ele>382.66</ele>
        <time>2015-03-07T12:52:32Z</time>
      </trkpt>
      <trkpt lat="45.72718" lon="4.0456">
        <ele>383.02</ele>
        <time>2015-03-07T12:52:34Z</time>
      </trkpt>
      <trkpt lat="45.72714" lon="4.04557">
        <ele>382.46</ele>
        <time>2015-03-07T12:52:36Z</time>
      </trkpt>
      <trkpt lat="45.72708" lon="4.04554">
        <ele>380.9</ele>
        <time>2015-03-07T12:52:38Z</time>
      </trkpt>
      <trkpt lat="45.72701" lon="4.04553">
        <ele>379.06</ele>
        <time>2015-03-07T12:52:40Z</time>
      </trkpt>
      <trkpt lat="45.72694" lon="4.04549">
        <ele>378.2</ele>
        <time>2015-03-07T12:52:42Z</time>
      </trkpt>
      <trkpt lat="45.72686" lon="4.04543">
        <ele>378.31</ele>
        <time>2015-03-07T12:52:44Z</time>
      </trkpt>
      <trkpt lat="45.72678" lon="4.04541">
        <ele>378.76</ele>
        <time>2015-03-07T12:52:46Z</time>
      </trkpt>
      <trkpt lat="45.72673" lon="4.04541">
        <ele>378.75</ele>
        <time>2015-03-07T12:52:47Z</time>
      </trkpt>
      <trkpt lat="45.72668" lon="4.04541">
        <ele>378.6</ele>
        <time>2015-03-07T12:52:48Z</time>
      </trkpt>
      <trkpt lat="45.72662" lon="4.04541">
        <ele>378.22</ele>
        <time>2015-03-07T12:52:49Z</time>
      </trkpt>
      <trkpt lat="45.72656" lon="4.04541">
        <ele>377.73</ele>
        <time>2015-03-07T12:52:50Z</time>
      </trkpt>
      <trkpt lat="45.7265" lon="4.04541">
        <ele>377.49</ele>
        <time>2015-03-07T12:52:51Z</time>
      </trkpt>
      <trkpt lat="45.72645" lon="4.04542">
        <ele>377.27</ele>
        <time>2015-03-07T12:52:52Z</time>
      </trkpt>
      <trkpt lat="45.7264" lon="4.04542">
        <ele>377.06</ele>
        <time>2015-03-07T12:52:53Z</time>
      </trkpt>
      <trkpt lat="45.72635" lon="4.04542">
        <ele>376.75</ele>
        <time>2015-03-07T12:52:54Z</time>
      </trkpt>
      <trkpt lat="45.7263" lon="4.04542">
        <ele>376.55</ele>
        <time>2015-03-07T12:52:55Z</time>
      </trkpt>
      <trkpt lat="45.72625" lon="4.04542">
        <ele>376.5</ele>
        <time>2015-03-07T12:52:56Z</time>
      </trkpt>
      <trkpt lat="45.7262" lon="4.04543">
        <ele>376.57</ele>
        <time>2015-03-07T12:52:57Z</time>
      </trkpt>
      <trkpt lat="45.72615" lon="4.04544">
        <ele>376.56</ele>
        <time>2015-03-07T12:52:58Z</time>
      </trkpt>
      <trkpt lat="45.72609" lon="4.04545">
        <ele>376.3</ele>
        <time>2015-03-07T12:52:59Z</time>
      </trkpt>
      <trkpt lat="45.72604" lon="4.04545">
        <ele>375.97</ele>
        <time>2015-03-07T12:53:00Z</time>
      </trkpt>
      <trkpt lat="45.72598" lon="4.04545">
        <ele>375.56</ele>
        <time>2015-03-07T12:53:01Z</time>
      </trkpt>
      <trkpt lat="45.72593" lon="4.04545">
        <ele>375.35</ele>
        <time>2015-03-07T12:53:02Z</time>
      </trkpt>
      <trkpt lat="45.72588" lon="4.04545">
        <ele>375.05</ele>
        <time>2015-03-07T12:53:03Z</time>
      </trkpt>
      <trkpt lat="45.72583" lon="4.04545">
        <ele>374.75</ele>
        <time>2015-03-07T12:53:04Z</time>
      </trkpt>
      <trkpt lat="45.72578" lon="4.04545">
        <ele>374.44</ele>
        <time>2015-03-07T12:53:05Z</time>
      </trkpt>
      <trkpt lat="45.72574" lon="4.04545">
        <ele>374.44</ele>
        <time>2015-03-07T12:53:06Z</time>
      </trkpt>
      <trkpt lat="45.72569" lon="4.04546">
        <ele>374.59</ele>
        <time>2015-03-07T12:53:07Z</time>
      </trkpt>
      <trkpt lat="45.72564" lon="4.04546">
        <ele>374.77</ele>
        <time>2015-03-07T12:53:08Z</time>
      </trkpt>
      <trkpt lat="45.7256" lon="4.04546">
        <ele>374.71</ele>
        <time>2015-03-07T12:53:09Z</time>
      </trkpt>
      <trkpt lat="45.72555" lon="4.04546">
        <ele>374.93</ele>
        <time>2015-03-07T12:53:10Z</time>
      </trkpt>
      <trkpt lat="45.7255" lon="4.04547">
        <ele>374.98</ele>
        <time>2015-03-07T12:53:11Z</time>
      </trkpt>
      <trkpt lat="45.72545" lon="4.04547">
        <ele>375.06</ele>
        <time>2015-03-07T12:53:12Z</time>
      </trkpt>
      <trkpt lat="45.7254" lon="4.04547">
        <ele>374.7</ele>
        <time>2015-03-07T12:53:13Z</time>
      </trkpt>
      <trkpt lat="45.72535" lon="4.04547">
        <ele>374.17</ele>
        <time>2015-03-07T12:53:14Z</time>
      </trkpt>
      <trkpt lat="45.72529" lon="4.04548">
        <ele>373.76</ele>
        <time>2015-03-07T12:53:15Z</time>
      </trkpt>
      <trkpt lat="45.72524" lon="4.04549">
        <ele>373.45</ele>
        <time>2015-03-07T12:53:16Z</time>
      </trkpt>
      <trkpt lat="45.72518" lon="4.0455">
        <ele>373.4</ele>
        <time>2015-03-07T12:53:17Z</time>
      </trkpt>
      <trkpt lat="45.72513" lon="4.0455">
        <ele>373.52</ele>
        <time>2015-03-07T12:53:18Z</time>
      </trkpt>
      <trkpt lat="45.72506" lon="4.04549">
        <ele>373.96</ele>
        <time>2015-03-07T12:53:20Z</time>
      </trkpt>
      <trkpt lat="45.72499" lon="4.04544">
        <ele>374.45</ele>
        <time>2015-03-07T12:53:22Z</time>
      </trkpt>
      <trkpt lat="45.72494" lon="4.04541">
        <ele>374.67</ele>
        <time>2015-03-07T12:53:24Z</time>
      </trkpt>
      <trkpt lat="45.72489" lon="4.04537">
        <ele>375.9</ele>
        <time>2015-03-07T12:53:27Z</time>
      </trkpt>
      <trkpt lat="45.72483" lon="4.04533">
        <ele>376.66</ele>
        <time>2015-03-07T12:53:30Z</time>
      </trkpt>
      <trkpt lat="45.72478" lon="4.0453">
        <ele>377.02</ele>
        <time>2015-03-07T12:53:32Z</time>
      </trkpt>
      <trkpt lat="45.72474" lon="4.04524">
        <ele>377.37</ele>
        <time>2015-03-07T12:53:35Z</time>
      </trkpt>
      <trkpt lat="45.72471" lon="4.04517">
        <ele>377.96</ele>
        <time>2015-03-07T12:53:38Z</time>
      </trkpt>
      <trkpt lat="45.72473" lon="4.0451">
        <ele>378.37</ele>
        <time>2015-03-07T12:53:40Z</time>
      </trkpt>
      <trkpt lat="45.72476" lon="4.04502">
        <ele>378.63</ele>
        <time>2015-03-07T12:53:42Z</time>
      </trkpt>
      <trkpt lat="45.7248" lon="4.04493">
        <ele>378.66</ele>
        <time>2015-03-07T12:53:44Z</time>
      </trkpt>
      <trkpt lat="45.72484" lon="4.04485">
        <ele>378.67</ele>
        <time>2015-03-07T12:53:46Z</time>
      </trkpt>
      <trkpt lat="45.72489" lon="4.04476">
        <ele>378.93</ele>
        <time>2015-03-07T12:53:48Z</time>
      </trkpt>
      <trkpt lat="45.72492" lon="4.04467">
        <ele>379.14</ele>
        <time>2015-03-07T12:53:50Z</time>
      </trkpt>
      <trkpt lat="45.72497" lon="4.04457">
        <ele>379.24</ele>
        <time>2015-03-07T12:53:52Z</time>
      </trkpt>
      <trkpt lat="45.72501" lon="4.04446">
        <ele>378.89</ele>
        <time>2015-03-07T12:53:54Z</time>
      </trkpt>
      <trkpt lat="45.72503" lon="4.04441">
        <ele>378.77</ele>
        <time>2015-03-07T12:53:55Z</time>
      </trkpt>
      <trkpt lat="45.72506" lon="4.04435">
        <ele>378.66</ele>
        <time>2015-03-07T12:53:56Z</time>
      </trkpt>
      <trkpt lat="45.72508" lon="4.04428">
        <ele>378.6</ele>
        <time>2015-03-07T12:53:57Z</time>
      </trkpt>
      <trkpt lat="45.72511" lon="4.04421">
        <ele>378.62</ele>
        <time>2015-03-07T12:53:58Z</time>
      </trkpt>
      <trkpt lat="45.72513" lon="4.04414">
        <ele>378.88</ele>
        <time>2015-03-07T12:53:59Z</time>
      </trkpt>
      <trkpt lat="45.72516" lon="4.04407">
        <ele>379.11</ele>
        <time>2015-03-07T12:54:00Z</time>
      </trkpt>
      <trkpt lat="45.72519" lon="4.044">
        <ele>379.48</ele>
        <time>2015-03-07T12:54:01Z</time>
      </trkpt>
      <trkpt lat="45.72522" lon="4.04393">
        <ele>379.86</ele>
        <time>2015-03-07T12:54:02Z</time>
      </trkpt>
      <trkpt lat="45.72525" lon="4.04385">
        <ele>380.15</ele>
        <time>2015-03-07T12:54:03Z</time>
      </trkpt>
      <trkpt lat="45.72527" lon="4.04377">
        <ele>380.5</ele>
        <time>2015-03-07T12:54:04Z</time>
      </trkpt>
      <trkpt lat="45.7253" lon="4.04369">
        <ele>380.87</ele>
        <time>2015-03-07T12:54:05Z</time>
      </trkpt>
      <trkpt lat="45.72533" lon="4.04361">
        <ele>381.16</ele>
        <time>2015-03-07T12:54:06Z</time>
      </trkpt>
      <trkpt lat="45.72535" lon="4.04353">
        <ele>381.4</ele>
        <time>2015-03-07T12:54:07Z</time>
      </trkpt>
      <trkpt lat="45.72537" lon="4.04345">
        <ele>381.52</ele>
        <time>2015-03-07T12:54:08Z</time>
      </trkpt>
      <trkpt lat="45.7254" lon="4.04337">
        <ele>381.28</ele>
        <time>2015-03-07T12:54:09Z</time>
      </trkpt>
      <trkpt lat="45.72543" lon="4.04328">
        <ele>381.01</ele>
        <time>2015-03-07T12:54:10Z</time>
      </trkpt>
      <trkpt lat="45.72545" lon="4.04319">
        <ele>380.73</ele>
        <time>2015-03-07T12:54:11Z</time>
      </trkpt>
      <trkpt lat="45.72548" lon="4.0431">
        <ele>380.39</ele>
        <time>2015-03-07T12:54:12Z</time>
      </trkpt>
      <trkpt lat="45.72551" lon="4.04302">
        <ele>380.02</ele>
        <time>2015-03-07T12:54:13Z</time>
      </trkpt>
      <trkpt lat="45.72555" lon="4.04294">
        <ele>379.83</ele>
        <time>2015-03-07T12:54:14Z</time>
      </trkpt>
      <trkpt lat="45.72558" lon="4.04285">
        <ele>379.69</ele>
        <time>2015-03-07T12:54:15Z</time>
      </trkpt>
      <trkpt lat="45.72562" lon="4.04275">
        <ele>378.82</ele>
        <time>2015-03-07T12:54:16Z</time>
      </trkpt>
      <trkpt lat="45.72565" lon="4.04266">
        <ele>378.38</ele>
        <time>2015-03-07T12:54:17Z</time>
      </trkpt>
      <trkpt lat="45.72568" lon="4.04257">
        <ele>378.01</ele>
        <time>2015-03-07T12:54:18Z</time>
      </trkpt>
      <trkpt lat="45.7257" lon="4.04247">
        <ele>377.88</ele>
        <time>2015-03-07T12:54:19Z</time>
      </trkpt>
      <trkpt lat="45.72573" lon="4.04238">
        <ele>378.01</ele>
        <time>2015-03-07T12:54:20Z</time>
      </trkpt>
      <trkpt lat="45.72575" lon="4.04228">
        <ele>377.98</ele>
        <time>2015-03-07T12:54:21Z</time>
      </trkpt>
      <trkpt lat="45.72577" lon="4.04218">
        <ele>377.81</ele>
        <time>2015-03-07T12:54:22Z</time>
      </trkpt>
      <trkpt lat="45.72579" lon="4.04207">
        <ele>377.73</ele>
        <time>2015-03-07T12:54:23Z</time>
      </trkpt>
      <trkpt lat="45.7258" lon="4.04196">
        <ele>377.74</ele>
        <time>2015-03-07T12:54:24Z</time>
      </trkpt>
      <trkpt lat="45.72582" lon="4.04187">
        <ele>377.74</ele>
        <time>2015-03-07T12:54:25Z</time>
      </trkpt>
      <trkpt lat="45.72584" lon="4.04177">
        <ele>377.79</ele>
        <time>2015-03-07T12:54:26Z</time>
      </trkpt>
      <trkpt lat="45.72585" lon="4.04166">
        <ele>377.97</ele>
        <time>2015-03-07T12:54:27Z</time>
      </trkpt>
      <trkpt lat="45.72587" lon="4.04157">
        <ele>378.01</ele>
        <time>2015-03-07T12:54:28Z</time>
      </trkpt>
      <trkpt lat="45.72589" lon="4.0415">
        <ele>378.22</ele>
        <time>2015-03-07T12:54:29Z</time>
      </trkpt>
      <trkpt lat="45.72591" lon="4.04141">
        <ele>378.38</ele>
        <time>2015-03-07T12:54:30Z</time>
      </trkpt>
      <trkpt lat="45.72593" lon="4.04133">
        <ele>378.61</ele>
        <time>2015-03-07T12:54:31Z</time>
      </trkpt>
      <trkpt lat="45.72595" lon="4.04125">
        <ele>378.53</ele>
        <time>2015-03-07T12:54:32Z</time>
      </trkpt>
      <trkpt lat="45.72596" lon="4.04117">
        <ele>378.54</ele>
        <time>2015-03-07T12:54:33Z</time>
      </trkpt>
      <trkpt lat="45.72598" lon="4.04109">
        <ele>378.44</ele>
        <time>2015-03-07T12:54:34Z</time>
      </trkpt>
      <trkpt lat="45.726" lon="4.041">
        <ele>378.39</ele>
        <time>2015-03-07T12:54:35Z</time>
      </trkpt>
      <trkpt lat="45.72601" lon="4.04091">
        <ele>378.37</ele>
        <time>2015-03-07T12:54:36Z</time>
      </trkpt>
      <trkpt lat="45.72603" lon="4.04083">
        <ele>378.31</ele>
        <time>2015-03-07T12:54:37Z</time>
      </trkpt>
      <trkpt lat="45.72604" lon="4.04075">
        <ele>378.23</ele>
        <time>2015-03-07T12:54:38Z</time>
      </trkpt>
      <trkpt lat="45.72605" lon="4.04067">
        <ele>378.23</ele>
        <time>2015-03-07T12:54:39Z</time>
      </trkpt>
      <trkpt lat="45.72606" lon="4.04059">
        <ele>378.24</ele>
        <time>2015-03-07T12:54:40Z</time>
      </trkpt>
      <trkpt lat="45.72608" lon="4.04053">
        <ele>378.29</ele>
        <time>2015-03-07T12:54:41Z</time>
      </trkpt>
      <trkpt lat="45.72609" lon="4.04045">
        <ele>378.42</ele>
        <time>2015-03-07T12:54:42Z</time>
      </trkpt>
      <trkpt lat="45.7261" lon="4.04038">
        <ele>378.68</ele>
        <time>2015-03-07T12:54:43Z</time>
      </trkpt>
      <trkpt lat="45.72611" lon="4.04031">
        <ele>379.01</ele>
        <time>2015-03-07T12:54:44Z</time>
      </trkpt>
      <trkpt lat="45.72612" lon="4.04023">
        <ele>379.23</ele>
        <time>2015-03-07T12:54:45Z</time>
      </trkpt>
      <trkpt lat="45.72613" lon="4.04014">
        <ele>379.29</ele>
        <time>2015-03-07T12:54:46Z</time>
      </trkpt>
      <trkpt lat="45.72614" lon="4.04006">
        <ele>379.32</ele>
        <time>2015-03-07T12:54:47Z</time>
      </trkpt>
      <trkpt lat="45.72615" lon="4.03996">
        <ele>379.38</ele>
        <time>2015-03-07T12:54:48Z</time>
      </trkpt>
      <trkpt lat="45.72616" lon="4.03988">
        <ele>379.46</ele>
        <time>2015-03-07T12:54:49Z</time>
      </trkpt>
      <trkpt lat="45.72617" lon="4.0398">
        <ele>379.6</ele>
        <time>2015-03-07T12:54:50Z</time>
      </trkpt>
      <trkpt lat="45.72619" lon="4.03971">
        <ele>379.67</ele>
        <time>2015-03-07T12:54:51Z</time>
      </trkpt>
      <trkpt lat="45.7262" lon="4.03963">
        <ele>379.76</ele>
        <time>2015-03-07T12:54:52Z</time>
      </trkpt>
      <trkpt lat="45.72622" lon="4.03954">
        <ele>379.8</ele>
        <time>2015-03-07T12:54:53Z</time>
      </trkpt>
      <trkpt lat="45.72622" lon="4.03945">
        <ele>379.97</ele>
        <time>2015-03-07T12:54:54Z</time>
      </trkpt>
      <trkpt lat="45.72623" lon="4.03935">
        <ele>380.21</ele>
        <time>2015-03-07T12:54:55Z</time>
      </trkpt>
      <trkpt lat="45.72624" lon="4.03925">
        <ele>380.38</ele>
        <time>2015-03-07T12:54:56Z</time>
      </trkpt>
      <trkpt lat="45.72625" lon="4.03915">
        <ele>380.61</ele>
        <time>2015-03-07T12:54:57Z</time>
      </trkpt>
      <trkpt lat="45.72626" lon="4.03905">
        <ele>380.83</ele>
        <time>2015-03-07T12:54:58Z</time>
      </trkpt>
      <trkpt lat="45.72627" lon="4.03894">
        <ele>380.99</ele>
        <time>2015-03-07T12:54:59Z</time>
      </trkpt>
      <trkpt lat="45.72629" lon="4.03885">
        <ele>381.06</ele>
        <time>2015-03-07T12:55:00Z</time>
      </trkpt>
      <trkpt lat="45.7263" lon="4.03875">
        <ele>381</ele>
        <time>2015-03-07T12:55:01Z</time>
      </trkpt>
      <trkpt lat="45.72632" lon="4.03865">
        <ele>380.97</ele>
        <time>2015-03-07T12:55:02Z</time>
      </trkpt>
      <trkpt lat="45.72634" lon="4.03856">
        <ele>381.01</ele>
        <time>2015-03-07T12:55:03Z</time>
      </trkpt>
      <trkpt lat="45.72637" lon="4.03846">
        <ele>381.18</ele>
        <time>2015-03-07T12:55:04Z</time>
      </trkpt>
      <trkpt lat="45.72639" lon="4.03837">
        <ele>381.46</ele>
        <time>2015-03-07T12:55:05Z</time>
      </trkpt>
      <trkpt lat="45.72641" lon="4.03827">
        <ele>381.65</ele>
        <time>2015-03-07T12:55:06Z</time>
      </trkpt>
      <trkpt lat="45.72644" lon="4.03818">
        <ele>381.8</ele>
        <time>2015-03-07T12:55:07Z</time>
      </trkpt>
      <trkpt lat="45.72647" lon="4.03809">
        <ele>381.87</ele>
        <time>2015-03-07T12:55:08Z</time>
      </trkpt>
      <trkpt lat="45.72649" lon="4.038">
        <ele>381.91</ele>
        <time>2015-03-07T12:55:09Z</time>
      </trkpt>
      <trkpt lat="45.72653" lon="4.03791">
        <ele>381.78</ele>
        <time>2015-03-07T12:55:10Z</time>
      </trkpt>
      <trkpt lat="45.72655" lon="4.03782">
        <ele>381.56</ele>
        <time>2015-03-07T12:55:11Z</time>
      </trkpt>
      <trkpt lat="45.72658" lon="4.03773">
        <ele>381.25</ele>
        <time>2015-03-07T12:55:12Z</time>
      </trkpt>
      <trkpt lat="45.72661" lon="4.03765">
        <ele>380.9</ele>
        <time>2015-03-07T12:55:13Z</time>
      </trkpt>
      <trkpt lat="45.72665" lon="4.03756">
        <ele>380.62</ele>
        <time>2015-03-07T12:55:14Z</time>
      </trkpt>
      <trkpt lat="45.72668" lon="4.03748">
        <ele>380.38</ele>
        <time>2015-03-07T12:55:15Z</time>
      </trkpt>
      <trkpt lat="45.7267" lon="4.0374">
        <ele>380.36</ele>
        <time>2015-03-07T12:55:16Z</time>
      </trkpt>
      <trkpt lat="45.72674" lon="4.03732">
        <ele>380.2</ele>
        <time>2015-03-07T12:55:17Z</time>
      </trkpt>
      <trkpt lat="45.72677" lon="4.03723">
        <ele>380.02</ele>
        <time>2015-03-07T12:55:18Z</time>
      </trkpt>
      <trkpt lat="45.7268" lon="4.03714">
        <ele>379.88</ele>
        <time>2015-03-07T12:55:19Z</time>
      </trkpt>
      <trkpt lat="45.72683" lon="4.03705">
        <ele>379.66</ele>
        <time>2015-03-07T12:55:20Z</time>
      </trkpt>
      <trkpt lat="45.72686" lon="4.03696">
        <ele>379.4</ele>
        <time>2015-03-07T12:55:21Z</time>
      </trkpt>
      <trkpt lat="45.72689" lon="4.03687">
        <ele>379.12</ele>
        <time>2015-03-07T12:55:22Z</time>
      </trkpt>
      <trkpt lat="45.72692" lon="4.03678">
        <ele>378.88</ele>
        <time>2015-03-07T12:55:23Z</time>
      </trkpt>
      <trkpt lat="45.72696" lon="4.03669">
        <ele>378.66</ele>
        <time>2015-03-07T12:55:24Z</time>
      </trkpt>
      <trkpt lat="45.72699" lon="4.0366">
        <ele>378.5</ele>
        <time>2015-03-07T12:55:25Z</time>
      </trkpt>
      <trkpt lat="45.72702" lon="4.03651">
        <ele>378.37</ele>
        <time>2015-03-07T12:55:26Z</time>
      </trkpt>
      <trkpt lat="45.72705" lon="4.03642">
        <ele>378.26</ele>
        <time>2015-03-07T12:55:27Z</time>
      </trkpt>
      <trkpt lat="45.72709" lon="4.03633">
        <ele>378.1</ele>
        <time>2015-03-07T12:55:28Z</time>
      </trkpt>
      <trkpt lat="45.72712" lon="4.03624">
        <ele>377.92</ele>
        <time>2015-03-07T12:55:29Z</time>
      </trkpt>
      <trkpt lat="45.72715" lon="4.03615">
        <ele>377.88</ele>
        <time>2015-03-07T12:55:30Z</time>
      </trkpt>
      <trkpt lat="45.72718" lon="4.03606">
        <ele>377.91</ele>
        <time>2015-03-07T12:55:31Z</time>
      </trkpt>
      <trkpt lat="45.72721" lon="4.03596">
        <ele>377.93</ele>
        <time>2015-03-07T12:55:32Z</time>
      </trkpt>
      <trkpt lat="45.72724" lon="4.03587">
        <ele>377.99</ele>
        <time>2015-03-07T12:55:33Z</time>
      </trkpt>
      <trkpt lat="45.72728" lon="4.03577">
        <ele>377.87</ele>
        <time>2015-03-07T12:55:34Z</time>
      </trkpt>
      <trkpt lat="45.72732" lon="4.03568">
        <ele>377.5</ele>
        <time>2015-03-07T12:55:35Z</time>
      </trkpt>
      <trkpt lat="45.72735" lon="4.03558">
        <ele>377.07</ele>
        <time>2015-03-07T12:55:36Z</time>
      </trkpt>
      <trkpt lat="45.72739" lon="4.03549">
        <ele>376.96</ele>
        <time>2015-03-07T12:55:37Z</time>
      </trkpt>
      <trkpt lat="45.72742" lon="4.0354">
        <ele>377.05</ele>
        <time>2015-03-07T12:55:38Z</time>
      </trkpt>
      <trkpt lat="45.72746" lon="4.0353">
        <ele>376.9</ele>
        <time>2015-03-07T12:55:39Z</time>
      </trkpt>
      <trkpt lat="45.72749" lon="4.03521">
        <ele>376.67</ele>
        <time>2015-03-07T12:55:40Z</time>
      </trkpt>
      <trkpt lat="45.72753" lon="4.03512">
        <ele>376.36</ele>
        <time>2015-03-07T12:55:41Z</time>
      </trkpt>
      <trkpt lat="45.72756" lon="4.03503">
        <ele>376.1</ele>
        <time>2015-03-07T12:55:42Z</time>
      </trkpt>
      <trkpt lat="45.7276" lon="4.03494">
        <ele>375.92</ele>
        <time>2015-03-07T12:55:43Z</time>
      </trkpt>
      <trkpt lat="45.72763" lon="4.03485">
        <ele>375.83</ele>
        <time>2015-03-07T12:55:44Z</time>
      </trkpt>
      <trkpt lat="45.72766" lon="4.03476">
        <ele>375.84</ele>
        <time>2015-03-07T12:55:45Z</time>
      </trkpt>
      <trkpt lat="45.7277" lon="4.03466">
        <ele>375.89</ele>
        <time>2015-03-07T12:55:46Z</time>
      </trkpt>
      <trkpt lat="45.72773" lon="4.03457">
        <ele>375.87</ele>
        <time>2015-03-07T12:55:47Z</time>
      </trkpt>
      <trkpt lat="45.72776" lon="4.03448">
        <ele>375.76</ele>
        <time>2015-03-07T12:55:48Z</time>
      </trkpt>
      <trkpt lat="45.72779" lon="4.03439">
        <ele>375.8</ele>
        <time>2015-03-07T12:55:49Z</time>
      </trkpt>
      <trkpt lat="45.72782" lon="4.0343">
        <ele>375.92</ele>
        <time>2015-03-07T12:55:50Z</time>
      </trkpt>
      <trkpt lat="45.72786" lon="4.03421">
        <ele>375.93</ele>
        <time>2015-03-07T12:55:51Z</time>
      </trkpt>
      <trkpt lat="45.72789" lon="4.03412">
        <ele>375.54</ele>
        <time>2015-03-07T12:55:52Z</time>
      </trkpt>
      <trkpt lat="45.72792" lon="4.03403">
        <ele>375.09</ele>
        <time>2015-03-07T12:55:53Z</time>
      </trkpt>
      <trkpt lat="45.72795" lon="4.03394">
        <ele>374.62</ele>
        <time>2015-03-07T12:55:54Z</time>
      </trkpt>
      <trkpt lat="45.72798" lon="4.03385">
        <ele>374.28</ele>
        <time>2015-03-07T12:55:55Z</time>
      </trkpt>
      <trkpt lat="45.72801" lon="4.03376">
        <ele>374.06</ele>
        <time>2015-03-07T12:55:56Z</time>
      </trkpt>
      <trkpt lat="45.72804" lon="4.03367">
        <ele>373.85</ele>
        <time>2015-03-07T12:55:57Z</time>
      </trkpt>
      <trkpt lat="45.72808" lon="4.03358">
        <ele>373.85</ele>
        <time>2015-03-07T12:55:58Z</time>
      </trkpt>
      <trkpt lat="45.72811" lon="4.03349">
        <ele>373.8</ele>
        <time>2015-03-07T12:55:59Z</time>
      </trkpt>
      <trkpt lat="45.72814" lon="4.0334">
        <ele>373.77</ele>
        <time>2015-03-07T12:56:00Z</time>
      </trkpt>
      <trkpt lat="45.72818" lon="4.03331">
        <ele>373.81</ele>
        <time>2015-03-07T12:56:01Z</time>
      </trkpt>
      <trkpt lat="45.72821" lon="4.03323">
        <ele>373.78</ele>
        <time>2015-03-07T12:56:02Z</time>
      </trkpt>
      <trkpt lat="45.72824" lon="4.03315">
        <ele>373.81</ele>
        <time>2015-03-07T12:56:03Z</time>
      </trkpt>
      <trkpt lat="45.72826" lon="4.03307">
        <ele>373.88</ele>
        <time>2015-03-07T12:56:04Z</time>
      </trkpt>
      <trkpt lat="45.72829" lon="4.03299">
        <ele>373.96</ele>
        <time>2015-03-07T12:56:05Z</time>
      </trkpt>
      <trkpt lat="45.72832" lon="4.03291">
        <ele>374</ele>
        <time>2015-03-07T12:56:06Z</time>
      </trkpt>
      <trkpt lat="45.72835" lon="4.03283">
        <ele>374.02</ele>
        <time>2015-03-07T12:56:07Z</time>
      </trkpt>
      <trkpt lat="45.72837" lon="4.03276">
        <ele>373.98</ele>
        <time>2015-03-07T12:56:08Z</time>
      </trkpt>
      <trkpt lat="45.7284" lon="4.03269">
        <ele>373.96</ele>
        <time>2015-03-07T12:56:09Z</time>
      </trkpt>
      <trkpt lat="45.72843" lon="4.03263">
        <ele>374.1</ele>
        <time>2015-03-07T12:56:10Z</time>
      </trkpt>
      <trkpt lat="45.72846" lon="4.03256">
        <ele>374.27</ele>
        <time>2015-03-07T12:56:11Z</time>
      </trkpt>
      <trkpt lat="45.72849" lon="4.03249">
        <ele>374.46</ele>
        <time>2015-03-07T12:56:12Z</time>
      </trkpt>
      <trkpt lat="45.72852" lon="4.03242">
        <ele>374.75</ele>
        <time>2015-03-07T12:56:13Z</time>
      </trkpt>
      <trkpt lat="45.72856" lon="4.03235">
        <ele>375.1</ele>
        <time>2015-03-07T12:56:14Z</time>
      </trkpt>
      <trkpt lat="45.72859" lon="4.03229">
        <ele>375.57</ele>
        <time>2015-03-07T12:56:15Z</time>
      </trkpt>
      <trkpt lat="45.72862" lon="4.03222">
        <ele>375.91</ele>
        <time>2015-03-07T12:56:16Z</time>
      </trkpt>
      <trkpt lat="45.72865" lon="4.03215">
        <ele>376.23</ele>
        <time>2015-03-07T12:56:17Z</time>
      </trkpt>
      <trkpt lat="45.72869" lon="4.03209">
        <ele>376.43</ele>
        <time>2015-03-07T12:56:18Z</time>
      </trkpt>
      <trkpt lat="45.72872" lon="4.03202">
        <ele>376.59</ele>
        <time>2015-03-07T12:56:19Z</time>
      </trkpt>
      <trkpt lat="45.72876" lon="4.03196">
        <ele>376.52</ele>
        <time>2015-03-07T12:56:20Z</time>
      </trkpt>
      <trkpt lat="45.72879" lon="4.03189">
        <ele>376.83</ele>
        <time>2015-03-07T12:56:21Z</time>
      </trkpt>
      <trkpt lat="45.72883" lon="4.03181">
        <ele>377.04</ele>
        <time>2015-03-07T12:56:22Z</time>
      </trkpt>
      <trkpt lat="45.72886" lon="4.03173">
        <ele>377.39</ele>
        <time>2015-03-07T12:56:23Z</time>
      </trkpt>
      <trkpt lat="45.72889" lon="4.03165">
        <ele>377.67</ele>
        <time>2015-03-07T12:56:24Z</time>
      </trkpt>
      <trkpt lat="45.72892" lon="4.03157">
        <ele>377.81</ele>
        <time>2015-03-07T12:56:25Z</time>
      </trkpt>
      <trkpt lat="45.72894" lon="4.0315">
        <ele>377.87</ele>
        <time>2015-03-07T12:56:26Z</time>
      </trkpt>
      <trkpt lat="45.72897" lon="4.03142">
        <ele>377.91</ele>
        <time>2015-03-07T12:56:27Z</time>
      </trkpt>
      <trkpt lat="45.72899" lon="4.03135">
        <ele>378.38</ele>
        <time>2015-03-07T12:56:28Z</time>
      </trkpt>
      <trkpt lat="45.72901" lon="4.03127">
        <ele>378.56</ele>
        <time>2015-03-07T12:56:29Z</time>
      </trkpt>
      <trkpt lat="45.72902" lon="4.0312">
        <ele>378.7</ele>
        <time>2015-03-07T12:56:30Z</time>
      </trkpt>
      <trkpt lat="45.72903" lon="4.03113">
        <ele>378.62</ele>
        <time>2015-03-07T12:56:31Z</time>
      </trkpt>
      <trkpt lat="45.72905" lon="4.03106">
        <ele>378.43</ele>
        <time>2015-03-07T12:56:32Z</time>
      </trkpt>
      <trkpt lat="45.72906" lon="4.03099">
        <ele>378.24</ele>
        <time>2015-03-07T12:56:33Z</time>
      </trkpt>
      <trkpt lat="45.72908" lon="4.03092">
        <ele>378.09</ele>
        <time>2015-03-07T12:56:34Z</time>
      </trkpt>
      <trkpt lat="45.72909" lon="4.03085">
        <ele>377.97</ele>
        <time>2015-03-07T12:56:35Z</time>
      </trkpt>
      <trkpt lat="45.7291" lon="4.03077">
        <ele>377.86</ele>
        <time>2015-03-07T12:56:36Z</time>
      </trkpt>
      <trkpt lat="45.72912" lon="4.0307">
        <ele>377.75</ele>
        <time>2015-03-07T12:56:37Z</time>
      </trkpt>
      <trkpt lat="45.72913" lon="4.03062">
        <ele>377.6</ele>
        <time>2015-03-07T12:56:38Z</time>
      </trkpt>
      <trkpt lat="45.72914" lon="4.03054">
        <ele>377.47</ele>
        <time>2015-03-07T12:56:39Z</time>
      </trkpt>
      <trkpt lat="45.72916" lon="4.03047">
        <ele>377.41</ele>
        <time>2015-03-07T12:56:40Z</time>
      </trkpt>
      <trkpt lat="45.72918" lon="4.03039">
        <ele>377.23</ele>
        <time>2015-03-07T12:56:41Z</time>
      </trkpt>
      <trkpt lat="45.7292" lon="4.03032">
        <ele>377.08</ele>
        <time>2015-03-07T12:56:42Z</time>
      </trkpt>
      <trkpt lat="45.72922" lon="4.03024">
        <ele>377.01</ele>
        <time>2015-03-07T12:56:43Z</time>
      </trkpt>
      <trkpt lat="45.72924" lon="4.03017">
        <ele>376.98</ele>
        <time>2015-03-07T12:56:44Z</time>
      </trkpt>
      <trkpt lat="45.72925" lon="4.03009">
        <ele>377.01</ele>
        <time>2015-03-07T12:56:45Z</time>
      </trkpt>
      <trkpt lat="45.72927" lon="4.03001">
        <ele>377.18</ele>
        <time>2015-03-07T12:56:46Z</time>
      </trkpt>
      <trkpt lat="45.72929" lon="4.02994">
        <ele>377.51</ele>
        <time>2015-03-07T12:56:47Z</time>
      </trkpt>
      <trkpt lat="45.72931" lon="4.02987">
        <ele>377.98</ele>
        <time>2015-03-07T12:56:48Z</time>
      </trkpt>
      <trkpt lat="45.72933" lon="4.02979">
        <ele>378.36</ele>
        <time>2015-03-07T12:56:49Z</time>
      </trkpt>
      <trkpt lat="45.72935" lon="4.02972">
        <ele>378.75</ele>
        <time>2015-03-07T12:56:50Z</time>
      </trkpt>
      <trkpt lat="45.72937" lon="4.02965">
        <ele>378.95</ele>
        <time>2015-03-07T12:56:51Z</time>
      </trkpt>
      <trkpt lat="45.72939" lon="4.02958">
        <ele>379.15</ele>
        <time>2015-03-07T12:56:52Z</time>
      </trkpt>
      <trkpt lat="45.72941" lon="4.02951">
        <ele>379.35</ele>
        <time>2015-03-07T12:56:53Z</time>
      </trkpt>
      <trkpt lat="45.72943" lon="4.02943">
        <ele>379.49</ele>
        <time>2015-03-07T12:56:54Z</time>
      </trkpt>
      <trkpt lat="45.72945" lon="4.02935">
        <ele>379.62</ele>
        <time>2015-03-07T12:56:55Z</time>
      </trkpt>
      <trkpt lat="45.72947" lon="4.02928">
        <ele>379.63</ele>
        <time>2015-03-07T12:56:56Z</time>
      </trkpt>
      <trkpt lat="45.72949" lon="4.0292">
        <ele>379.64</ele>
        <time>2015-03-07T12:56:57Z</time>
      </trkpt>
      <trkpt lat="45.72951" lon="4.02912">
        <ele>379.64</ele>
        <time>2015-03-07T12:56:58Z</time>
      </trkpt>
      <trkpt lat="45.72953" lon="4.02905">
        <ele>379.64</ele>
        <time>2015-03-07T12:56:59Z</time>
      </trkpt>
      <trkpt lat="45.72955" lon="4.02897">
        <ele>379.64</ele>
        <time>2015-03-07T12:57:00Z</time>
      </trkpt>
      <trkpt lat="45.72957" lon="4.02889">
        <ele>379.59</ele>
        <time>2015-03-07T12:57:01Z</time>
      </trkpt>
      <trkpt lat="45.72959" lon="4.02882">
        <ele>379.57</ele>
        <time>2015-03-07T12:57:02Z</time>
      </trkpt>
      <trkpt lat="45.7296" lon="4.02874">
        <ele>379.56</ele>
        <time>2015-03-07T12:57:03Z</time>
      </trkpt>
      <trkpt lat="45.72962" lon="4.02866">
        <ele>379.6</ele>
        <time>2015-03-07T12:57:04Z</time>
      </trkpt>
      <trkpt lat="45.72963" lon="4.02857">
        <ele>379.67</ele>
        <time>2015-03-07T12:57:05Z</time>
      </trkpt>
      <trkpt lat="45.72964" lon="4.02849">
        <ele>379.76</ele>
        <time>2015-03-07T12:57:06Z</time>
      </trkpt>
      <trkpt lat="45.72966" lon="4.02841">
        <ele>379.9</ele>
        <time>2015-03-07T12:57:07Z</time>
      </trkpt>
      <trkpt lat="45.72968" lon="4.02833">
        <ele>379.77</ele>
        <time>2015-03-07T12:57:08Z</time>
      </trkpt>
      <trkpt lat="45.7297" lon="4.02825">
        <ele>379.71</ele>
        <time>2015-03-07T12:57:09Z</time>
      </trkpt>
      <trkpt lat="45.72971" lon="4.02817">
        <ele>379.78</ele>
        <time>2015-03-07T12:57:10Z</time>
      </trkpt>
      <trkpt lat="45.72973" lon="4.02809">
        <ele>379.91</ele>
        <time>2015-03-07T12:57:11Z</time>
      </trkpt>
      <trkpt lat="45.72974" lon="4.02801">
        <ele>380.03</ele>
        <time>2015-03-07T12:57:12Z</time>
      </trkpt>
      <trkpt lat="45.72975" lon="4.02794">
        <ele>380.09</ele>
        <time>2015-03-07T12:57:13Z</time>
      </trkpt>
      <trkpt lat="45.72977" lon="4.02787">
        <ele>380.11</ele>
        <time>2015-03-07T12:57:14Z</time>
      </trkpt>
      <trkpt lat="45.72978" lon="4.0278">
        <ele>380.13</ele>
        <time>2015-03-07T12:57:15Z</time>
      </trkpt>
      <trkpt lat="45.7298" lon="4.02774">
        <ele>380.14</ele>
        <time>2015-03-07T12:57:16Z</time>
      </trkpt>
      <trkpt lat="45.72982" lon="4.02763">
        <ele>380.19</ele>
        <time>2015-03-07T12:57:18Z</time>
      </trkpt>
      <trkpt lat="45.72984" lon="4.02756">
        <ele>380.27</ele>
        <time>2015-03-07T12:57:19Z</time>
      </trkpt>
      <trkpt lat="45.72985" lon="4.0275">
        <ele>380.31</ele>
        <time>2015-03-07T12:57:20Z</time>
      </trkpt>
      <trkpt lat="45.72986" lon="4.02743">
        <ele>380.33</ele>
        <time>2015-03-07T12:57:21Z</time>
      </trkpt>
      <trkpt lat="45.72986" lon="4.02736">
        <ele>380.38</ele>
        <time>2015-03-07T12:57:22Z</time>
      </trkpt>
      <trkpt lat="45.72989" lon="4.02724">
        <ele>380.38</ele>
        <time>2015-03-07T12:57:24Z</time>
      </trkpt>
      <trkpt lat="45.7299" lon="4.02717">
        <ele>380.51</ele>
        <time>2015-03-07T12:57:25Z</time>
      </trkpt>
      <trkpt lat="45.72991" lon="4.0271">
        <ele>380.73</ele>
        <time>2015-03-07T12:57:26Z</time>
      </trkpt>
      <trkpt lat="45.72993" lon="4.02704">
        <ele>380.94</ele>
        <time>2015-03-07T12:57:27Z</time>
      </trkpt>
      <trkpt lat="45.72994" lon="4.02691">
        <ele>381.27</ele>
        <time>2015-03-07T12:57:29Z</time>
      </trkpt>
      <trkpt lat="45.72995" lon="4.02684">
        <ele>381.46</ele>
        <time>2015-03-07T12:57:30Z</time>
      </trkpt>
      <trkpt lat="45.72997" lon="4.02677">
        <ele>381.55</ele>
        <time>2015-03-07T12:57:31Z</time>
      </trkpt>
      <trkpt lat="45.72998" lon="4.02669">
        <ele>381.6</ele>
        <time>2015-03-07T12:57:32Z</time>
      </trkpt>
      <trkpt lat="45.72999" lon="4.02661">
        <ele>381.67</ele>
        <time>2015-03-07T12:57:33Z</time>
      </trkpt>
      <trkpt lat="45.73" lon="4.02653">
        <ele>381.71</ele>
        <time>2015-03-07T12:57:34Z</time>
      </trkpt>
      <trkpt lat="45.73" lon="4.02645">
        <ele>381.73</ele>
        <time>2015-03-07T12:57:35Z</time>
      </trkpt>
      <trkpt lat="45.73" lon="4.02637">
        <ele>381.58</ele>
        <time>2015-03-07T12:57:36Z</time>
      </trkpt>
      <trkpt lat="45.73001" lon="4.02628">
        <ele>381.41</ele>
        <time>2015-03-07T12:57:37Z</time>
      </trkpt>
      <trkpt lat="45.73001" lon="4.0262">
        <ele>381.23</ele>
        <time>2015-03-07T12:57:38Z</time>
      </trkpt>
      <trkpt lat="45.73001" lon="4.02613">
        <ele>381.04</ele>
        <time>2015-03-07T12:57:39Z</time>
      </trkpt>
      <trkpt lat="45.73002" lon="4.02605">
        <ele>380.94</ele>
        <time>2015-03-07T12:57:40Z</time>
      </trkpt>
      <trkpt lat="45.73002" lon="4.02598">
        <ele>380.79</ele>
        <time>2015-03-07T12:57:41Z</time>
      </trkpt>
      <trkpt lat="45.73002" lon="4.0259">
        <ele>380.77</ele>
        <time>2015-03-07T12:57:42Z</time>
      </trkpt>
      <trkpt lat="45.73003" lon="4.02582">
        <ele>380.81</ele>
        <time>2015-03-07T12:57:43Z</time>
      </trkpt>
      <trkpt lat="45.73003" lon="4.02573">
        <ele>380.83</ele>
        <time>2015-03-07T12:57:44Z</time>
      </trkpt>
      <trkpt lat="45.73003" lon="4.02565">
        <ele>380.83</ele>
        <time>2015-03-07T12:57:45Z</time>
      </trkpt>
      <trkpt lat="45.73004" lon="4.02557">
        <ele>380.79</ele>
        <time>2015-03-07T12:57:46Z</time>
      </trkpt>
      <trkpt lat="45.73004" lon="4.02549">
        <ele>380.77</ele>
        <time>2015-03-07T12:57:47Z</time>
      </trkpt>
      <trkpt lat="45.73005" lon="4.0254">
        <ele>380.76</ele>
        <time>2015-03-07T12:57:48Z</time>
      </trkpt>
      <trkpt lat="45.73005" lon="4.02532">
        <ele>380.85</ele>
        <time>2015-03-07T12:57:49Z</time>
      </trkpt>
      <trkpt lat="45.73006" lon="4.02524">
        <ele>380.95</ele>
        <time>2015-03-07T12:57:50Z</time>
      </trkpt>
      <trkpt lat="45.73006" lon="4.02515">
        <ele>381</ele>
        <time>2015-03-07T12:57:51Z</time>
      </trkpt>
      <trkpt lat="45.73007" lon="4.02507">
        <ele>381.07</ele>
        <time>2015-03-07T12:57:52Z</time>
      </trkpt>
      <trkpt lat="45.73008" lon="4.02498">
        <ele>381.06</ele>
        <time>2015-03-07T12:57:53Z</time>
      </trkpt>
      <trkpt lat="45.73008" lon="4.0249">
        <ele>381</ele>
        <time>2015-03-07T12:57:54Z</time>
      </trkpt>
      <trkpt lat="45.73008" lon="4.02482">
        <ele>381.02</ele>
        <time>2015-03-07T12:57:55Z</time>
      </trkpt>
      <trkpt lat="45.73008" lon="4.02473">
        <ele>380.98</ele>
        <time>2015-03-07T12:57:56Z</time>
      </trkpt>
      <trkpt lat="45.73008" lon="4.02465">
        <ele>380.96</ele>
        <time>2015-03-07T12:57:57Z</time>
      </trkpt>
      <trkpt lat="45.73008" lon="4.02456">
        <ele>380.95</ele>
        <time>2015-03-07T12:57:58Z</time>
      </trkpt>
      <trkpt lat="45.73008" lon="4.02448">
        <ele>380.95</ele>
        <time>2015-03-07T12:57:59Z</time>
      </trkpt>
      <trkpt lat="45.73007" lon="4.02439">
        <ele>380.85</ele>
        <time>2015-03-07T12:58:00Z</time>
      </trkpt>
      <trkpt lat="45.73006" lon="4.0243">
        <ele>380.8</ele>
        <time>2015-03-07T12:58:01Z</time>
      </trkpt>
      <trkpt lat="45.73005" lon="4.02421">
        <ele>380.82</ele>
        <time>2015-03-07T12:58:02Z</time>
      </trkpt>
      <trkpt lat="45.73003" lon="4.02412">
        <ele>380.93</ele>
        <time>2015-03-07T12:58:03Z</time>
      </trkpt>
      <trkpt lat="45.73001" lon="4.02404">
        <ele>381.09</ele>
        <time>2015-03-07T12:58:04Z</time>
      </trkpt>
      <trkpt lat="45.72998" lon="4.02395">
        <ele>381.32</ele>
        <time>2015-03-07T12:58:05Z</time>
      </trkpt>
      <trkpt lat="45.72996" lon="4.02387">
        <ele>381.38</ele>
        <time>2015-03-07T12:58:06Z</time>
      </trkpt>
      <trkpt lat="45.72994" lon="4.02379">
        <ele>381.41</ele>
        <time>2015-03-07T12:58:07Z</time>
      </trkpt>
      <trkpt lat="45.72992" lon="4.02371">
        <ele>381.48</ele>
        <time>2015-03-07T12:58:08Z</time>
      </trkpt>
      <trkpt lat="45.7299" lon="4.02363">
        <ele>381.56</ele>
        <time>2015-03-07T12:58:09Z</time>
      </trkpt>
      <trkpt lat="45.72989" lon="4.02356">
        <ele>381.75</ele>
        <time>2015-03-07T12:58:10Z</time>
      </trkpt>
      <trkpt lat="45.72987" lon="4.02349">
        <ele>381.9</ele>
        <time>2015-03-07T12:58:11Z</time>
      </trkpt>
      <trkpt lat="45.72985" lon="4.02342">
        <ele>382.12</ele>
        <time>2015-03-07T12:58:12Z</time>
      </trkpt>
      <trkpt lat="45.72984" lon="4.02335">
        <ele>382.28</ele>
        <time>2015-03-07T12:58:13Z</time>
      </trkpt>
      <trkpt lat="45.72982" lon="4.02328">
        <ele>382.46</ele>
        <time>2015-03-07T12:58:14Z</time>
      </trkpt>
      <trkpt lat="45.7298" lon="4.0232">
        <ele>382.6</ele>
        <time>2015-03-07T12:58:15Z</time>
      </trkpt>
      <trkpt lat="45.72978" lon="4.02313">
        <ele>382.77</ele>
        <time>2015-03-07T12:58:16Z</time>
      </trkpt>
      <trkpt lat="45.72977" lon="4.02305">
        <ele>382.91</ele>
        <time>2015-03-07T12:58:17Z</time>
      </trkpt>
      <trkpt lat="45.72975" lon="4.02298">
        <ele>383.13</ele>
        <time>2015-03-07T12:58:18Z</time>
      </trkpt>
      <trkpt lat="45.72973" lon="4.0229">
        <ele>383.34</ele>
        <time>2015-03-07T12:58:19Z</time>
      </trkpt>
      <trkpt lat="45.72971" lon="4.02282">
        <ele>383.49</ele>
        <time>2015-03-07T12:58:20Z</time>
      </trkpt>
      <trkpt lat="45.72969" lon="4.02274">
        <ele>383.57</ele>
        <time>2015-03-07T12:58:21Z</time>
      </trkpt>
      <trkpt lat="45.72967" lon="4.02266">
        <ele>383.61</ele>
        <time>2015-03-07T12:58:22Z</time>
      </trkpt>
      <trkpt lat="45.72965" lon="4.02259">
        <ele>383.92</ele>
        <time>2015-03-07T12:58:23Z</time>
      </trkpt>
      <trkpt lat="45.72963" lon="4.02252">
        <ele>384.13</ele>
        <time>2015-03-07T12:58:24Z</time>
      </trkpt>
      <trkpt lat="45.72962" lon="4.02244">
        <ele>384.29</ele>
        <time>2015-03-07T12:58:25Z</time>
      </trkpt>
      <trkpt lat="45.7296" lon="4.02237">
        <ele>384.42</ele>
        <time>2015-03-07T12:58:26Z</time>
      </trkpt>
      <trkpt lat="45.72959" lon="4.0223">
        <ele>384.48</ele>
        <time>2015-03-07T12:58:27Z</time>
      </trkpt>
      <trkpt lat="45.72958" lon="4.02223">
        <ele>384.46</ele>
        <time>2015-03-07T12:58:28Z</time>
      </trkpt>
      <trkpt lat="45.72958" lon="4.02215">
        <ele>384.3</ele>
        <time>2015-03-07T12:58:29Z</time>
      </trkpt>
      <trkpt lat="45.72957" lon="4.02208">
        <ele>384.12</ele>
        <time>2015-03-07T12:58:30Z</time>
      </trkpt>
      <trkpt lat="45.72956" lon="4.022">
        <ele>383.93</ele>
        <time>2015-03-07T12:58:31Z</time>
      </trkpt>
      <trkpt lat="45.72956" lon="4.02192">
        <ele>383.79</ele>
        <time>2015-03-07T12:58:32Z</time>
      </trkpt>
      <trkpt lat="45.72956" lon="4.02184">
        <ele>383.72</ele>
        <time>2015-03-07T12:58:33Z</time>
      </trkpt>
      <trkpt lat="45.72956" lon="4.02177">
        <ele>383.63</ele>
        <time>2015-03-07T12:58:34Z</time>
      </trkpt>
      <trkpt lat="45.72956" lon="4.02169">
        <ele>383.59</ele>
        <time>2015-03-07T12:58:35Z</time>
      </trkpt>
      <trkpt lat="45.72958" lon="4.02162">
        <ele>383.47</ele>
        <time>2015-03-07T12:58:36Z</time>
      </trkpt>
      <trkpt lat="45.72959" lon="4.02155">
        <ele>383.25</ele>
        <time>2015-03-07T12:58:37Z</time>
      </trkpt>
      <trkpt lat="45.72961" lon="4.02149">
        <ele>383.05</ele>
        <time>2015-03-07T12:58:38Z</time>
      </trkpt>
      <trkpt lat="45.72963" lon="4.02143">
        <ele>383</ele>
        <time>2015-03-07T12:58:39Z</time>
      </trkpt>
      <trkpt lat="45.72968" lon="4.02133">
        <ele>382.63</ele>
        <time>2015-03-07T12:58:41Z</time>
      </trkpt>
      <trkpt lat="45.7297" lon="4.02123">
        <ele>382.52</ele>
        <time>2015-03-07T12:58:43Z</time>
      </trkpt>
      <trkpt lat="45.72972" lon="4.02113">
        <ele>382.56</ele>
        <time>2015-03-07T12:58:45Z</time>
      </trkpt>
      <trkpt lat="45.72974" lon="4.02104">
        <ele>382.7</ele>
        <time>2015-03-07T12:58:47Z</time>
      </trkpt>
      <trkpt lat="45.72976" lon="4.02096">
        <ele>382.41</ele>
        <time>2015-03-07T12:58:49Z</time>
      </trkpt>
      <trkpt lat="45.72977" lon="4.02089">
        <ele>382.26</ele>
        <time>2015-03-07T12:58:51Z</time>
      </trkpt>
      <trkpt lat="45.72979" lon="4.02082">
        <ele>382.02</ele>
        <time>2015-03-07T12:58:53Z</time>
      </trkpt>
      <trkpt lat="45.72981" lon="4.02075">
        <ele>381.81</ele>
        <time>2015-03-07T12:58:55Z</time>
      </trkpt>
      <trkpt lat="45.72982" lon="4.02068">
        <ele>381.54</ele>
        <time>2015-03-07T12:58:57Z</time>
      </trkpt>
      <trkpt lat="45.72985" lon="4.0206">
        <ele>380.98</ele>
        <time>2015-03-07T12:59:00Z</time>
      </trkpt>
      <trkpt lat="45.72985" lon="4.02052">
        <ele>380.45</ele>
        <time>2015-03-07T12:59:03Z</time>
      </trkpt>
      <trkpt lat="45.72987" lon="4.02043">
        <ele>380.57</ele>
        <time>2015-03-07T12:59:06Z</time>
      </trkpt>
      <trkpt lat="45.72988" lon="4.02033">
        <ele>380.52</ele>
        <time>2015-03-07T12:59:09Z</time>
      </trkpt>
      <trkpt lat="45.7299" lon="4.02025">
        <ele>380.54</ele>
        <time>2015-03-07T12:59:11Z</time>
      </trkpt>
      <trkpt lat="45.72994" lon="4.02018">
        <ele>379.97</ele>
        <time>2015-03-07T12:59:13Z</time>
      </trkpt>
      <trkpt lat="45.72999" lon="4.02015">
        <ele>379.42</ele>
        <time>2015-03-07T12:59:15Z</time>
      </trkpt>
      <trkpt lat="45.73008" lon="4.02019">
        <ele>379.46</ele>
        <time>2015-03-07T12:59:17Z</time>
      </trkpt>
      <trkpt lat="45.73012" lon="4.02022">
        <ele>379.6</ele>
        <time>2015-03-07T12:59:18Z</time>
      </trkpt>
      <trkpt lat="45.73016" lon="4.02025">
        <ele>379.72</ele>
        <time>2015-03-07T12:59:19Z</time>
      </trkpt>
      <trkpt lat="45.7302" lon="4.02028">
        <ele>379.83</ele>
        <time>2015-03-07T12:59:20Z</time>
      </trkpt>
      <trkpt lat="45.73027" lon="4.02034">
        <ele>379.84</ele>
        <time>2015-03-07T12:59:22Z</time>
      </trkpt>
      <trkpt lat="45.73033" lon="4.02037">
        <ele>380.09</ele>
        <time>2015-03-07T12:59:24Z</time>
      </trkpt>
      <trkpt lat="45.7304" lon="4.0204">
        <ele>379.68</ele>
        <time>2015-03-07T12:59:26Z</time>
      </trkpt>
      <trkpt lat="45.73046" lon="4.02039">
        <ele>379.88</ele>
        <time>2015-03-07T12:59:28Z</time>
      </trkpt>
      <trkpt lat="45.73052" lon="4.02035">
        <ele>380.03</ele>
        <time>2015-03-07T12:59:30Z</time>
      </trkpt>
      <trkpt lat="45.73059" lon="4.0203">
        <ele>379.94</ele>
        <time>2015-03-07T12:59:32Z</time>
      </trkpt>
      <trkpt lat="45.73064" lon="4.02028">
        <ele>379.89</ele>
        <time>2015-03-07T12:59:33Z</time>
      </trkpt>
      <trkpt lat="45.73069" lon="4.02026">
        <ele>379.87</ele>
        <time>2015-03-07T12:59:34Z</time>
      </trkpt>
      <trkpt lat="45.73073" lon="4.02023">
        <ele>379.81</ele>
        <time>2015-03-07T12:59:35Z</time>
      </trkpt>
      <trkpt lat="45.73079" lon="4.02021">
        <ele>379.62</ele>
        <time>2015-03-07T12:59:36Z</time>
      </trkpt>
      <trkpt lat="45.73084" lon="4.02019">
        <ele>379.68</ele>
        <time>2015-03-07T12:59:37Z</time>
      </trkpt>
      <trkpt lat="45.73089" lon="4.02018">
        <ele>379.71</ele>
        <time>2015-03-07T12:59:38Z</time>
      </trkpt>
      <trkpt lat="45.73094" lon="4.02017">
        <ele>379.73</ele>
        <time>2015-03-07T12:59:39Z</time>
      </trkpt>
      <trkpt lat="45.731" lon="4.02014">
        <ele>379.74</ele>
        <time>2015-03-07T12:59:40Z</time>
      </trkpt>
      <trkpt lat="45.73105" lon="4.0201">
        <ele>379.84</ele>
        <time>2015-03-07T12:59:41Z</time>
      </trkpt>
      <trkpt lat="45.7311" lon="4.02007">
        <ele>379.89</ele>
        <time>2015-03-07T12:59:42Z</time>
      </trkpt>
      <trkpt lat="45.73115" lon="4.02006">
        <ele>379.82</ele>
        <time>2015-03-07T12:59:43Z</time>
      </trkpt>
      <trkpt lat="45.7312" lon="4.02005">
        <ele>379.78</ele>
        <time>2015-03-07T12:59:44Z</time>
      </trkpt>
      <trkpt lat="45.73128" lon="4.02">
        <ele>379.8</ele>
        <time>2015-03-07T12:59:46Z</time>
      </trkpt>
      <trkpt lat="45.73134" lon="4.01997">
        <ele>380.12</ele>
        <time>2015-03-07T12:59:47Z</time>
      </trkpt>
      <trkpt lat="45.73139" lon="4.01995">
        <ele>380.53</ele>
        <time>2015-03-07T12:59:48Z</time>
      </trkpt>
      <trkpt lat="45.73144" lon="4.01993">
        <ele>381.14</ele>
        <time>2015-03-07T12:59:49Z</time>
      </trkpt>
      <trkpt lat="45.73148" lon="4.01991">
        <ele>381.74</ele>
        <time>2015-03-07T12:59:50Z</time>
      </trkpt>
      <trkpt lat="45.73153" lon="4.0199">
        <ele>382.44</ele>
        <time>2015-03-07T12:59:51Z</time>
      </trkpt>
      <trkpt lat="45.7316" lon="4.01988">
        <ele>383.54</ele>
        <time>2015-03-07T12:59:53Z</time>
      </trkpt>
      <trkpt lat="45.73167" lon="4.01985">
        <ele>384.32</ele>
        <time>2015-03-07T12:59:55Z</time>
      </trkpt>
      <trkpt lat="45.73174" lon="4.01982">
        <ele>384.81</ele>
        <time>2015-03-07T12:59:57Z</time>
      </trkpt>
      <trkpt lat="45.73181" lon="4.01982">
        <ele>385.41</ele>
        <time>2015-03-07T12:59:59Z</time>
      </trkpt>
      <trkpt lat="45.73189" lon="4.01982">
        <ele>385.86</ele>
        <time>2015-03-07T13:00:01Z</time>
      </trkpt>
      <trkpt lat="45.73193" lon="4.01982">
        <ele>385.9</ele>
        <time>2015-03-07T13:00:02Z</time>
      </trkpt>
      <trkpt lat="45.73198" lon="4.01983">
        <ele>385.97</ele>
        <time>2015-03-07T13:00:03Z</time>
      </trkpt>
      <trkpt lat="45.73203" lon="4.01984">
        <ele>386.06</ele>
        <time>2015-03-07T13:00:04Z</time>
      </trkpt>
      <trkpt lat="45.73208" lon="4.01985">
        <ele>386.2</ele>
        <time>2015-03-07T13:00:05Z</time>
      </trkpt>
      <trkpt lat="45.73214" lon="4.01987">
        <ele>386.43</ele>
        <time>2015-03-07T13:00:07Z</time>
      </trkpt>
      <trkpt lat="45.73221" lon="4.01989">
        <ele>386.77</ele>
        <time>2015-03-07T13:00:09Z</time>
      </trkpt>
      <trkpt lat="45.73226" lon="4.01992">
        <ele>387.4</ele>
        <time>2015-03-07T13:00:11Z</time>
      </trkpt>
      <trkpt lat="45.73234" lon="4.01993">
        <ele>388.33</ele>
        <time>2015-03-07T13:00:13Z</time>
      </trkpt>
      <trkpt lat="45.73243" lon="4.01993">
        <ele>389.12</ele>
        <time>2015-03-07T13:00:15Z</time>
      </trkpt>
      <trkpt lat="45.73247" lon="4.01994">
        <ele>389.33</ele>
        <time>2015-03-07T13:00:16Z</time>
      </trkpt>
      <trkpt lat="45.73255" lon="4.01996">
        <ele>389.62</ele>
        <time>2015-03-07T13:00:18Z</time>
      </trkpt>
      <trkpt lat="45.73264" lon="4.01997">
        <ele>389.06</ele>
        <time>2015-03-07T13:00:20Z</time>
      </trkpt>
      <trkpt lat="45.73271" lon="4.01997">
        <ele>388.37</ele>
        <time>2015-03-07T13:00:22Z</time>
      </trkpt>
      <trkpt lat="45.73277" lon="4.01998">
        <ele>388.3</ele>
        <time>2015-03-07T13:00:24Z</time>
      </trkpt>
      <trkpt lat="45.73282" lon="4.01996">
        <ele>388.38</ele>
        <time>2015-03-07T13:00:26Z</time>
      </trkpt>
      <trkpt lat="45.73288" lon="4.01994">
        <ele>388.43</ele>
        <time>2015-03-07T13:00:28Z</time>
      </trkpt>
      <trkpt lat="45.73294" lon="4.01995">
        <ele>389.01</ele>
        <time>2015-03-07T13:00:32Z</time>
      </trkpt>
      <trkpt lat="45.73297" lon="4.01999">
        <ele>390.01</ele>
        <time>2015-03-07T13:00:34Z</time>
      </trkpt>
      <trkpt lat="45.73304" lon="4.02005">
        <ele>390.29</ele>
        <time>2015-03-07T13:00:36Z</time>
      </trkpt>
      <trkpt lat="45.73311" lon="4.0201">
        <ele>390</ele>
        <time>2015-03-07T13:00:38Z</time>
      </trkpt>
      <trkpt lat="45.73316" lon="4.02012">
        <ele>389.76</ele>
        <time>2015-03-07T13:00:40Z</time>
      </trkpt>
      <trkpt lat="45.73321" lon="4.02011">
        <ele>389.1</ele>
        <time>2015-03-07T13:00:42Z</time>
      </trkpt>
      <trkpt lat="45.73327" lon="4.02012">
        <ele>388.38</ele>
        <time>2015-03-07T13:00:44Z</time>
      </trkpt>
      <trkpt lat="45.73334" lon="4.02012">
        <ele>388.11</ele>
        <time>2015-03-07T13:00:47Z</time>
      </trkpt>
      <trkpt lat="45.73338" lon="4.02013">
        <ele>388.21</ele>
        <time>2015-03-07T13:00:49Z</time>
      </trkpt>
      <trkpt lat="45.73333" lon="4.02011">
        <ele>389.57</ele>
        <time>2015-03-07T13:01:05Z</time>
      </trkpt>
      <trkpt lat="45.73328" lon="4.02011">
        <ele>389.18</ele>
        <time>2015-03-07T13:01:08Z</time>
      </trkpt>
      <trkpt lat="45.73322" lon="4.0201">
        <ele>388.81</ele>
        <time>2015-03-07T13:01:11Z</time>
      </trkpt>
      <trkpt lat="45.73316" lon="4.02008">
        <ele>388.86</ele>
        <time>2015-03-07T13:01:13Z</time>
      </trkpt>
      <trkpt lat="45.73311" lon="4.02003">
        <ele>389.05</ele>
        <time>2015-03-07T13:01:15Z</time>
      </trkpt>
      <trkpt lat="45.73306" lon="4.01998">
        <ele>389.65</ele>
        <time>2015-03-07T13:01:17Z</time>
      </trkpt>
      <trkpt lat="45.73302" lon="4.01992">
        <ele>390.31</ele>
        <time>2015-03-07T13:01:20Z</time>
      </trkpt>
      <trkpt lat="45.73305" lon="4.01983">
        <ele>391.23</ele>
        <time>2015-03-07T13:01:24Z</time>
      </trkpt>
      <trkpt lat="45.73307" lon="4.01977">
        <ele>391.49</ele>
        <time>2015-03-07T13:01:26Z</time>
      </trkpt>
      <trkpt lat="45.73311" lon="4.0197">
        <ele>391.86</ele>
        <time>2015-03-07T13:01:28Z</time>
      </trkpt>
      <trkpt lat="45.73316" lon="4.01963">
        <ele>391.85</ele>
        <time>2015-03-07T13:01:30Z</time>
      </trkpt>
      <trkpt lat="45.73322" lon="4.01958">
        <ele>392.07</ele>
        <time>2015-03-07T13:01:32Z</time>
      </trkpt>
      <trkpt lat="45.73327" lon="4.01951">
        <ele>392.4</ele>
        <time>2015-03-07T13:01:34Z</time>
      </trkpt>
      <trkpt lat="45.73331" lon="4.01946">
        <ele>392.43</ele>
        <time>2015-03-07T13:01:36Z</time>
      </trkpt>
      <trkpt lat="45.73335" lon="4.01942">
        <ele>392.37</ele>
        <time>2015-03-07T13:01:38Z</time>
      </trkpt>
      <trkpt lat="45.7334" lon="4.01939">
        <ele>392.22</ele>
        <time>2015-03-07T13:01:40Z</time>
      </trkpt>
      <trkpt lat="45.73344" lon="4.01938">
        <ele>392.19</ele>
        <time>2015-03-07T13:01:42Z</time>
      </trkpt>
      <trkpt lat="45.7335" lon="4.01938">
        <ele>392.48</ele>
        <time>2015-03-07T13:01:44Z</time>
      </trkpt>
      <trkpt lat="45.73355" lon="4.01939">
        <ele>392.98</ele>
        <time>2015-03-07T13:01:46Z</time>
      </trkpt>
      <trkpt lat="45.73359" lon="4.01938">
        <ele>393.55</ele>
        <time>2015-03-07T13:01:48Z</time>
      </trkpt>
      <trkpt lat="45.73364" lon="4.01937">
        <ele>394.47</ele>
        <time>2015-03-07T13:01:51Z</time>
      </trkpt>
      <trkpt lat="45.73377" lon="4.0193">
        <ele>395.49</ele>
        <time>2015-03-07T13:02:10Z</time>
      </trkpt>
      <trkpt lat="45.73382" lon="4.01925">
        <ele>394.88</ele>
        <time>2015-03-07T13:02:13Z</time>
      </trkpt>
      <trkpt lat="45.73386" lon="4.01921">
        <ele>393.79</ele>
        <time>2015-03-07T13:02:16Z</time>
      </trkpt>
      <trkpt lat="45.73392" lon="4.01917">
        <ele>393.29</ele>
        <time>2015-03-07T13:02:19Z</time>
      </trkpt>
      <trkpt lat="45.73397" lon="4.01914">
        <ele>393.05</ele>
        <time>2015-03-07T13:02:21Z</time>
      </trkpt>
      <trkpt lat="45.734" lon="4.01911">
        <ele>393.02</ele>
        <time>2015-03-07T13:02:23Z</time>
      </trkpt>
      <trkpt lat="45.73406" lon="4.01906">
        <ele>392.45</ele>
        <time>2015-03-07T13:02:26Z</time>
      </trkpt>
      <trkpt lat="45.7341" lon="4.01905">
        <ele>391.65</ele>
        <time>2015-03-07T13:02:28Z</time>
      </trkpt>
      <trkpt lat="45.73416" lon="4.01901">
        <ele>390.96</ele>
        <time>2015-03-07T13:02:31Z</time>
      </trkpt>
      <trkpt lat="45.73422" lon="4.01897">
        <ele>390.81</ele>
        <time>2015-03-07T13:02:34Z</time>
      </trkpt>
      <trkpt lat="45.73428" lon="4.01893">
        <ele>391.13</ele>
        <time>2015-03-07T13:02:37Z</time>
      </trkpt>
      <trkpt lat="45.73433" lon="4.01888">
        <ele>391.58</ele>
        <time>2015-03-07T13:02:40Z</time>
      </trkpt>
      <trkpt lat="45.73439" lon="4.01884">
        <ele>391.89</ele>
        <time>2015-03-07T13:02:43Z</time>
      </trkpt>
      <trkpt lat="45.73444" lon="4.01879">
        <ele>391.94</ele>
        <time>2015-03-07T13:02:46Z</time>
      </trkpt>
      <trkpt lat="45.73448" lon="4.01875">
        <ele>391.99</ele>
        <time>2015-03-07T13:02:48Z</time>
      </trkpt>
      <trkpt lat="45.73452" lon="4.01871">
        <ele>392.16</ele>
        <time>2015-03-07T13:02:50Z</time>
      </trkpt>
      <trkpt lat="45.73457" lon="4.01868">
        <ele>392.27</ele>
        <time>2015-03-07T13:02:52Z</time>
      </trkpt>
      <trkpt lat="45.73461" lon="4.01865">
        <ele>392.43</ele>
        <time>2015-03-07T13:02:54Z</time>
      </trkpt>
      <trkpt lat="45.73467" lon="4.0186">
        <ele>392.79</ele>
        <time>2015-03-07T13:02:57Z</time>
      </trkpt>
      <trkpt lat="45.73472" lon="4.01857">
        <ele>393.15</ele>
        <time>2015-03-07T13:03:00Z</time>
      </trkpt>
      <trkpt lat="45.73478" lon="4.01848">
        <ele>393.14</ele>
        <time>2015-03-07T13:03:12Z</time>
      </trkpt>
      <trkpt lat="45.73479" lon="4.0184">
        <ele>391.98</ele>
        <time>2015-03-07T13:03:15Z</time>
      </trkpt>
      <trkpt lat="45.73479" lon="4.01831">
        <ele>391.94</ele>
        <time>2015-03-07T13:03:18Z</time>
      </trkpt>
      <trkpt lat="45.73479" lon="4.01823">
        <ele>391.87</ele>
        <time>2015-03-07T13:03:20Z</time>
      </trkpt>
      <trkpt lat="45.73477" lon="4.01815">
        <ele>391.85</ele>
        <time>2015-03-07T13:03:22Z</time>
      </trkpt>
      <trkpt lat="45.73477" lon="4.01808">
        <ele>391.6</ele>
        <time>2015-03-07T13:03:24Z</time>
      </trkpt>
      <trkpt lat="45.73479" lon="4.01802">
        <ele>391.08</ele>
        <time>2015-03-07T13:03:26Z</time>
      </trkpt>
      <trkpt lat="45.73479" lon="4.01795">
        <ele>390.85</ele>
        <time>2015-03-07T13:03:28Z</time>
      </trkpt>
      <trkpt lat="45.7348" lon="4.01784">
        <ele>390.77</ele>
        <time>2015-03-07T13:03:30Z</time>
      </trkpt>
      <trkpt lat="45.7348" lon="4.01776">
        <ele>390.98</ele>
        <time>2015-03-07T13:03:32Z</time>
      </trkpt>
      <trkpt lat="45.7348" lon="4.01767">
        <ele>391.52</ele>
        <time>2015-03-07T13:03:35Z</time>
      </trkpt>
      <trkpt lat="45.73478" lon="4.01759">
        <ele>392.27</ele>
        <time>2015-03-07T13:03:38Z</time>
      </trkpt>
      <trkpt lat="45.73474" lon="4.01755">
        <ele>393.17</ele>
        <time>2015-03-07T13:03:41Z</time>
      </trkpt>
      <trkpt lat="45.73469" lon="4.01749">
        <ele>394.46</ele>
        <time>2015-03-07T13:03:44Z</time>
      </trkpt>
      <trkpt lat="45.73468" lon="4.01742">
        <ele>394.91</ele>
        <time>2015-03-07T13:03:47Z</time>
      </trkpt>
      <trkpt lat="45.73468" lon="4.01734">
        <ele>393.75</ele>
        <time>2015-03-07T13:03:51Z</time>
      </trkpt>
      <trkpt lat="45.73477" lon="4.01677">
        <ele>399.49</ele>
        <time>2015-03-07T13:06:02Z</time>
      </trkpt>
      <trkpt lat="45.73479" lon="4.01669">
        <ele>404.08</ele>
        <time>2015-03-07T13:06:04Z</time>
      </trkpt>
      <trkpt lat="45.73482" lon="4.01661">
        <ele>405.43</ele>
        <time>2015-03-07T13:06:06Z</time>
      </trkpt>
      <trkpt lat="45.73483" lon="4.01655">
        <ele>406.14</ele>
        <time>2015-03-07T13:06:08Z</time>
      </trkpt>
      <trkpt lat="45.73479" lon="4.01662">
        <ele>400.06</ele>
        <time>2015-03-07T13:06:33Z</time>
      </trkpt>
      <trkpt lat="45.73476" lon="4.01669">
        <ele>400.17</ele>
        <time>2015-03-07T13:06:36Z</time>
      </trkpt>
      <trkpt lat="45.73474" lon="4.01675">
        <ele>400.3</ele>
        <time>2015-03-07T13:06:38Z</time>
      </trkpt>
      <trkpt lat="45.73471" lon="4.01682">
        <ele>400.51</ele>
        <time>2015-03-07T13:06:40Z</time>
      </trkpt>
      <trkpt lat="45.73468" lon="4.01687">
        <ele>400.76</ele>
        <time>2015-03-07T13:06:42Z</time>
      </trkpt>
      <trkpt lat="45.73465" lon="4.01694">
        <ele>400.8</ele>
        <time>2015-03-07T13:06:45Z</time>
      </trkpt>
      <trkpt lat="45.73468" lon="4.01688">
        <ele>402.81</ele>
        <time>2015-03-07T13:08:05Z</time>
      </trkpt>
      <trkpt lat="45.7347" lon="4.01683">
        <ele>402.84</ele>
        <time>2015-03-07T13:08:07Z</time>
      </trkpt>
      <trkpt lat="45.73474" lon="4.01675">
        <ele>401.79</ele>
        <time>2015-03-07T13:08:09Z</time>
      </trkpt>
      <trkpt lat="45.73477" lon="4.01664">
        <ele>400.51</ele>
        <time>2015-03-07T13:08:11Z</time>
      </trkpt>
      <trkpt lat="45.73481" lon="4.01654">
        <ele>400.11</ele>
        <time>2015-03-07T13:08:13Z</time>
      </trkpt>
      <trkpt lat="45.73482" lon="4.01646">
        <ele>399.74</ele>
        <time>2015-03-07T13:08:15Z</time>
      </trkpt>
      <trkpt lat="45.73485" lon="4.01636">
        <ele>399.32</ele>
        <time>2015-03-07T13:08:17Z</time>
      </trkpt>
      <trkpt lat="45.73489" lon="4.01626">
        <ele>398.91</ele>
        <time>2015-03-07T13:08:19Z</time>
      </trkpt>
      <trkpt lat="45.73493" lon="4.01616">
        <ele>398.41</ele>
        <time>2015-03-07T13:08:21Z</time>
      </trkpt>
      <trkpt lat="45.73498" lon="4.01608">
        <ele>397.96</ele>
        <time>2015-03-07T13:08:23Z</time>
      </trkpt>
      <trkpt lat="45.73501" lon="4.01601">
        <ele>398.12</ele>
        <time>2015-03-07T13:08:25Z</time>
      </trkpt>
      <trkpt lat="45.73504" lon="4.01594">
        <ele>398.21</ele>
        <time>2015-03-07T13:08:27Z</time>
      </trkpt>
      <trkpt lat="45.73507" lon="4.01588">
        <ele>397.99</ele>
        <time>2015-03-07T13:08:29Z</time>
      </trkpt>
      <trkpt lat="45.7351" lon="4.01582">
        <ele>397.8</ele>
        <time>2015-03-07T13:08:31Z</time>
      </trkpt>
      <trkpt lat="45.73513" lon="4.01577">
        <ele>397.63</ele>
        <time>2015-03-07T13:08:33Z</time>
      </trkpt>
      <trkpt lat="45.73518" lon="4.01572">
        <ele>395.92</ele>
        <time>2015-03-07T13:08:37Z</time>
      </trkpt>
      <trkpt lat="45.73522" lon="4.01567">
        <ele>395.78</ele>
        <time>2015-03-07T13:08:40Z</time>
      </trkpt>
      <trkpt lat="45.73526" lon="4.01564">
        <ele>395.83</ele>
        <time>2015-03-07T13:08:42Z</time>
      </trkpt>
      <trkpt lat="45.73531" lon="4.01561">
        <ele>395.96</ele>
        <time>2015-03-07T13:08:44Z</time>
      </trkpt>
      <trkpt lat="45.73535" lon="4.0156">
        <ele>396</ele>
        <time>2015-03-07T13:08:46Z</time>
      </trkpt>
      <trkpt lat="45.7354" lon="4.01558">
        <ele>395.83</ele>
        <time>2015-03-07T13:08:48Z</time>
      </trkpt>
      <trkpt lat="45.73545" lon="4.01554">
        <ele>395.44</ele>
        <time>2015-03-07T13:08:50Z</time>
      </trkpt>
      <trkpt lat="45.73551" lon="4.01549">
        <ele>394.62</ele>
        <time>2015-03-07T13:08:52Z</time>
      </trkpt>
      <trkpt lat="45.73557" lon="4.01543">
        <ele>393.81</ele>
        <time>2015-03-07T13:08:54Z</time>
      </trkpt>
      <trkpt lat="45.73562" lon="4.01538">
        <ele>393.46</ele>
        <time>2015-03-07T13:08:56Z</time>
      </trkpt>
      <trkpt lat="45.73567" lon="4.01534">
        <ele>393.62</ele>
        <time>2015-03-07T13:08:58Z</time>
      </trkpt>
      <trkpt lat="45.73573" lon="4.01528">
        <ele>393.89</ele>
        <time>2015-03-07T13:09:00Z</time>
      </trkpt>
      <trkpt lat="45.73577" lon="4.01522">
        <ele>394.18</ele>
        <time>2015-03-07T13:09:02Z</time>
      </trkpt>
      <trkpt lat="45.73579" lon="4.01516">
        <ele>394.28</ele>
        <time>2015-03-07T13:09:06Z</time>
      </trkpt>
      <trkpt lat="45.7358" lon="4.01508">
        <ele>392.84</ele>
        <time>2015-03-07T13:09:38Z</time>
      </trkpt>
      <trkpt lat="45.73581" lon="4.015">
        <ele>392.92</ele>
        <time>2015-03-07T13:09:41Z</time>
      </trkpt>
      <trkpt lat="45.7358" lon="4.01491">
        <ele>393.2</ele>
        <time>2015-03-07T13:09:45Z</time>
      </trkpt>
      <trkpt lat="45.73578" lon="4.01482">
        <ele>393.23</ele>
        <time>2015-03-07T13:09:47Z</time>
      </trkpt>
      <trkpt lat="45.73576" lon="4.01473">
        <ele>393.72</ele>
        <time>2015-03-07T13:09:49Z</time>
      </trkpt>
      <trkpt lat="45.73575" lon="4.01464">
        <ele>393.71</ele>
        <time>2015-03-07T13:09:51Z</time>
      </trkpt>
      <trkpt lat="45.73573" lon="4.01455">
        <ele>393.39</ele>
        <time>2015-03-07T13:09:53Z</time>
      </trkpt>
      <trkpt lat="45.7357" lon="4.01445">
        <ele>393.18</ele>
        <time>2015-03-07T13:09:55Z</time>
      </trkpt>
      <trkpt lat="45.73565" lon="4.01438">
        <ele>393.15</ele>
        <time>2015-03-07T13:09:57Z</time>
      </trkpt>
      <trkpt lat="45.7356" lon="4.01432">
        <ele>393.4</ele>
        <time>2015-03-07T13:09:59Z</time>
      </trkpt>
      <trkpt lat="45.73554" lon="4.01424">
        <ele>393.83</ele>
        <time>2015-03-07T13:10:01Z</time>
      </trkpt>
      <trkpt lat="45.73549" lon="4.01416">
        <ele>393.84</ele>
        <time>2015-03-07T13:10:03Z</time>
      </trkpt>
      <trkpt lat="45.73545" lon="4.01409">
        <ele>393.59</ele>
        <time>2015-03-07T13:10:05Z</time>
      </trkpt>
      <trkpt lat="45.7354" lon="4.01402">
        <ele>393.23</ele>
        <time>2015-03-07T13:10:07Z</time>
      </trkpt>
      <trkpt lat="45.73534" lon="4.01395">
        <ele>392.77</ele>
        <time>2015-03-07T13:10:09Z</time>
      </trkpt>
      <trkpt lat="45.73529" lon="4.01388">
        <ele>392.15</ele>
        <time>2015-03-07T13:10:11Z</time>
      </trkpt>
      <trkpt lat="45.73523" lon="4.0138">
        <ele>391.7</ele>
        <time>2015-03-07T13:10:13Z</time>
      </trkpt>
      <trkpt lat="45.73517" lon="4.01372">
        <ele>391.01</ele>
        <time>2015-03-07T13:10:15Z</time>
      </trkpt>
      <trkpt lat="45.73511" lon="4.01363">
        <ele>390.48</ele>
        <time>2015-03-07T13:10:17Z</time>
      </trkpt>
      <trkpt lat="45.73506" lon="4.01354">
        <ele>390.1</ele>
        <time>2015-03-07T13:10:19Z</time>
      </trkpt>
      <trkpt lat="45.73501" lon="4.01344">
        <ele>389.81</ele>
        <time>2015-03-07T13:10:21Z</time>
      </trkpt>
      <trkpt lat="45.73497" lon="4.01335">
        <ele>389.16</ele>
        <time>2015-03-07T13:10:23Z</time>
      </trkpt>
      <trkpt lat="45.73492" lon="4.01327">
        <ele>388.62</ele>
        <time>2015-03-07T13:10:25Z</time>
      </trkpt>
      <trkpt lat="45.73488" lon="4.0132">
        <ele>388.29</ele>
        <time>2015-03-07T13:10:27Z</time>
      </trkpt>
      <trkpt lat="45.73482" lon="4.01314">
        <ele>388.01</ele>
        <time>2015-03-07T13:10:29Z</time>
      </trkpt>
      <trkpt lat="45.73476" lon="4.01308">
        <ele>387.83</ele>
        <time>2015-03-07T13:10:31Z</time>
      </trkpt>
      <trkpt lat="45.73472" lon="4.013">
        <ele>387.84</ele>
        <time>2015-03-07T13:10:33Z</time>
      </trkpt>
      <trkpt lat="45.73469" lon="4.01291">
        <ele>387.87</ele>
        <time>2015-03-07T13:10:35Z</time>
      </trkpt>
      <trkpt lat="45.73465" lon="4.01281">
        <ele>388</ele>
        <time>2015-03-07T13:10:37Z</time>
      </trkpt>
      <trkpt lat="45.73462" lon="4.01271">
        <ele>388.03</ele>
        <time>2015-03-07T13:10:39Z</time>
      </trkpt>
      <trkpt lat="45.73458" lon="4.01262">
        <ele>388.04</ele>
        <time>2015-03-07T13:10:41Z</time>
      </trkpt>
      <trkpt lat="45.73455" lon="4.01254">
        <ele>388.12</ele>
        <time>2015-03-07T13:10:43Z</time>
      </trkpt>
      <trkpt lat="45.73453" lon="4.01247">
        <ele>388.06</ele>
        <time>2015-03-07T13:10:45Z</time>
      </trkpt>
      <trkpt lat="45.73453" lon="4.01239">
        <ele>388.17</ele>
        <time>2015-03-07T13:10:47Z</time>
      </trkpt>
      <trkpt lat="45.73451" lon="4.01231">
        <ele>388.37</ele>
        <time>2015-03-07T13:10:50Z</time>
      </trkpt>
      <trkpt lat="45.7345" lon="4.01224">
        <ele>388.69</ele>
        <time>2015-03-07T13:10:53Z</time>
      </trkpt>
      <trkpt lat="45.73449" lon="4.01215">
        <ele>388.82</ele>
        <time>2015-03-07T13:10:56Z</time>
      </trkpt>
      <trkpt lat="45.73447" lon="4.01207">
        <ele>388.96</ele>
        <time>2015-03-07T13:10:58Z</time>
      </trkpt>
      <trkpt lat="45.73445" lon="4.01197">
        <ele>389.84</ele>
        <time>2015-03-07T13:11:29Z</time>
      </trkpt>
      <trkpt lat="45.73446" lon="4.0119">
        <ele>389.21</ele>
        <time>2015-03-07T13:11:40Z</time>
      </trkpt>
      <trkpt lat="45.73441" lon="4.01189">
        <ele>392.22</ele>
        <time>2015-03-07T13:13:04Z</time>
      </trkpt>
      <trkpt lat="45.7344" lon="4.01182">
        <ele>392.42</ele>
        <time>2015-03-07T13:13:07Z</time>
      </trkpt>
      <trkpt lat="45.73434" lon="4.01182">
        <ele>393.83</ele>
        <time>2015-03-07T13:13:28Z</time>
      </trkpt>
      <trkpt lat="45.7343" lon="4.01184">
        <ele>393.79</ele>
        <time>2015-03-07T13:13:30Z</time>
      </trkpt>
      <trkpt lat="45.73424" lon="4.01178">
        <ele>394</ele>
        <time>2015-03-07T13:13:33Z</time>
      </trkpt>
      <trkpt lat="45.73418" lon="4.01169">
        <ele>394.28</ele>
        <time>2015-03-07T13:13:35Z</time>
      </trkpt>
      <trkpt lat="45.73415" lon="4.01165">
        <ele>394.36</ele>
        <time>2015-03-07T13:13:36Z</time>
      </trkpt>
      <trkpt lat="45.73408" lon="4.01156">
        <ele>394.47</ele>
        <time>2015-03-07T13:13:38Z</time>
      </trkpt>
      <trkpt lat="45.73405" lon="4.01152">
        <ele>394.51</ele>
        <time>2015-03-07T13:13:39Z</time>
      </trkpt>
      <trkpt lat="45.73398" lon="4.01146">
        <ele>394.56</ele>
        <time>2015-03-07T13:13:41Z</time>
      </trkpt>
      <trkpt lat="45.7339" lon="4.01146">
        <ele>393.4</ele>
        <time>2015-03-07T13:13:43Z</time>
      </trkpt>
      <trkpt lat="45.73383" lon="4.01148">
        <ele>391.76</ele>
        <time>2015-03-07T13:13:45Z</time>
      </trkpt>
      <trkpt lat="45.73375" lon="4.01153">
        <ele>390.25</ele>
        <time>2015-03-07T13:13:47Z</time>
      </trkpt>
      <trkpt lat="45.73368" lon="4.01158">
        <ele>389.02</ele>
        <time>2015-03-07T13:13:49Z</time>
      </trkpt>
      <trkpt lat="45.73361" lon="4.0116">
        <ele>388.41</ele>
        <time>2015-03-07T13:13:51Z</time>
      </trkpt>
      <trkpt lat="45.73356" lon="4.01164">
        <ele>388.51</ele>
        <time>2015-03-07T13:13:53Z</time>
      </trkpt>
      <trkpt lat="45.73352" lon="4.01168">
        <ele>388.36</ele>
        <time>2015-03-07T13:13:55Z</time>
      </trkpt>
      <trkpt lat="45.7335" lon="4.01175">
        <ele>388.25</ele>
        <time>2015-03-07T13:13:57Z</time>
      </trkpt>
      <trkpt lat="45.7335" lon="4.01182">
        <ele>387.84</ele>
        <time>2015-03-07T13:14:01Z</time>
      </trkpt>
      <trkpt lat="45.73353" lon="4.01176">
        <ele>388.14</ele>
        <time>2015-03-07T13:14:59Z</time>
      </trkpt>
    </trkseg>
  </trk>
</gpx>